<?xml version="1.0" encoding="UTF-8" standalone="no" ?>
<gpx xmlns="http://www.topografix.com/GPX/1/1" xmlns:xsi="http://www.w3.org/2001/XMLSchema-instance" xsi:schemaLocation="http://www.topografix.com/GPX/1/1 http://www.topografix.com/GPX/1/1/gpx.xsd" version="1.1" creator="VisuGPX - https://www.visugpx.com">
  <metadata>
    <name>Pechabou 4 2019 09:00:17</name>
  </metadata>
  <trk>
    <name><![CDATA[BLEvo tour on 6 oct. 2019 09:00:17]]></name>
    <extensions>
      <line xmlns="http://www.topografix.com/GPX/gpx_style/0/2">
        <color>0000FF</color>
        <width>4</width>
      </line>
    </extensions>
    <trkseg>
      <trkpt lat="43.50363" lon="1.51201">
        <ele>81.92</ele>
        <time>2019-10-06T07:00:18.000Z</time>
      </trkpt>
      <trkpt lat="43.50372" lon="1.51197">
        <ele>81.74</ele>
        <time>2019-10-06T07:00:26.000Z</time>
      </trkpt>
      <trkpt lat="43.50364" lon="1.51203">
        <ele>81.58</ele>
        <time>2019-10-06T07:00:37.000Z</time>
      </trkpt>
      <trkpt lat="43.50354" lon="1.51189">
        <ele>81.71</ele>
        <time>2019-10-06T07:00:42.000Z</time>
      </trkpt>
      <trkpt lat="43.50347" lon="1.51178">
        <ele>81.85</ele>
        <time>2019-10-06T07:00:46.000Z</time>
      </trkpt>
      <trkpt lat="43.50339" lon="1.51169">
        <ele>82.06</ele>
        <time>2019-10-06T07:00:49.000Z</time>
      </trkpt>
      <trkpt lat="43.50332" lon="1.51159">
        <ele>82.44</ele>
        <time>2019-10-06T07:00:52.000Z</time>
      </trkpt>
      <trkpt lat="43.50322" lon="1.51149">
        <ele>83.08</ele>
        <time>2019-10-06T07:00:56.000Z</time>
      </trkpt>
      <trkpt lat="43.50314" lon="1.51139">
        <ele>83.8</ele>
        <time>2019-10-06T07:00:59.000Z</time>
      </trkpt>
      <trkpt lat="43.50309" lon="1.51128">
        <ele>84.77</ele>
        <time>2019-10-06T07:01:03.000Z</time>
      </trkpt>
      <trkpt lat="43.50306" lon="1.51117">
        <ele>85.62</ele>
        <time>2019-10-06T07:01:07.000Z</time>
      </trkpt>
      <trkpt lat="43.50296" lon="1.51117">
        <ele>85.99</ele>
        <time>2019-10-06T07:01:12.000Z</time>
      </trkpt>
      <trkpt lat="43.50289" lon="1.51124">
        <ele>85.87</ele>
        <time>2019-10-06T07:01:15.000Z</time>
      </trkpt>
      <trkpt lat="43.50277" lon="1.51136">
        <ele>85.58</ele>
        <time>2019-10-06T07:01:19.000Z</time>
      </trkpt>
      <trkpt lat="43.50268" lon="1.51147">
        <ele>85.42</ele>
        <time>2019-10-06T07:01:22.000Z</time>
      </trkpt>
      <trkpt lat="43.50259" lon="1.51156">
        <ele>85.41</ele>
        <time>2019-10-06T07:01:24.000Z</time>
      </trkpt>
      <trkpt lat="43.50252" lon="1.51165">
        <ele>85.31</ele>
        <time>2019-10-06T07:01:26.000Z</time>
      </trkpt>
      <trkpt lat="43.50242" lon="1.51176">
        <ele>85.24</ele>
        <time>2019-10-06T07:01:29.000Z</time>
      </trkpt>
      <trkpt lat="43.50228" lon="1.51189">
        <ele>85.1</ele>
        <time>2019-10-06T07:01:33.000Z</time>
      </trkpt>
      <trkpt lat="43.50218" lon="1.51201">
        <ele>85.04</ele>
        <time>2019-10-06T07:01:36.000Z</time>
      </trkpt>
      <trkpt lat="43.50208" lon="1.51211">
        <ele>84.99</ele>
        <time>2019-10-06T07:01:39.000Z</time>
      </trkpt>
      <trkpt lat="43.50195" lon="1.51225">
        <ele>85</ele>
        <time>2019-10-06T07:01:43.000Z</time>
      </trkpt>
      <trkpt lat="43.50185" lon="1.51236">
        <ele>84.94</ele>
        <time>2019-10-06T07:01:46.000Z</time>
      </trkpt>
      <trkpt lat="43.50171" lon="1.51251">
        <ele>84.89</ele>
        <time>2019-10-06T07:01:50.000Z</time>
      </trkpt>
      <trkpt lat="43.50162" lon="1.51262">
        <ele>84.84</ele>
        <time>2019-10-06T07:01:53.000Z</time>
      </trkpt>
      <trkpt lat="43.50149" lon="1.51277">
        <ele>84.76</ele>
        <time>2019-10-06T07:01:57.000Z</time>
      </trkpt>
      <trkpt lat="43.50139" lon="1.51289">
        <ele>84.84</ele>
        <time>2019-10-06T07:02:00.000Z</time>
      </trkpt>
      <trkpt lat="43.50125" lon="1.51304">
        <ele>84.92</ele>
        <time>2019-10-06T07:02:04.000Z</time>
      </trkpt>
      <trkpt lat="43.50115" lon="1.51314">
        <ele>84.87</ele>
        <time>2019-10-06T07:02:07.000Z</time>
      </trkpt>
      <trkpt lat="43.50105" lon="1.51325">
        <ele>84.74</ele>
        <time>2019-10-06T07:02:10.000Z</time>
      </trkpt>
      <trkpt lat="43.50094" lon="1.51336">
        <ele>84.75</ele>
        <time>2019-10-06T07:02:13.000Z</time>
      </trkpt>
      <trkpt lat="43.50084" lon="1.51347">
        <ele>84.74</ele>
        <time>2019-10-06T07:02:16.000Z</time>
      </trkpt>
      <trkpt lat="43.50074" lon="1.51357">
        <ele>84.73</ele>
        <time>2019-10-06T07:02:19.000Z</time>
      </trkpt>
      <trkpt lat="43.50064" lon="1.51369">
        <ele>84.83</ele>
        <time>2019-10-06T07:02:22.000Z</time>
      </trkpt>
      <trkpt lat="43.50051" lon="1.51383">
        <ele>85</ele>
        <time>2019-10-06T07:02:26.000Z</time>
      </trkpt>
      <trkpt lat="43.50037" lon="1.51397">
        <ele>85.01</ele>
        <time>2019-10-06T07:02:30.000Z</time>
      </trkpt>
      <trkpt lat="43.50024" lon="1.51412">
        <ele>85.17</ele>
        <time>2019-10-06T07:02:34.000Z</time>
      </trkpt>
      <trkpt lat="43.50014" lon="1.51423">
        <ele>85.45</ele>
        <time>2019-10-06T07:02:37.000Z</time>
      </trkpt>
      <trkpt lat="43.50004" lon="1.51434">
        <ele>85.66</ele>
        <time>2019-10-06T07:02:40.000Z</time>
      </trkpt>
      <trkpt lat="43.49991" lon="1.5145">
        <ele>85.5</ele>
        <time>2019-10-06T07:02:44.000Z</time>
      </trkpt>
      <trkpt lat="43.49984" lon="1.51436">
        <ele>85.89</ele>
        <time>2019-10-06T07:02:48.000Z</time>
      </trkpt>
      <trkpt lat="43.49988" lon="1.5142">
        <ele>87.07</ele>
        <time>2019-10-06T07:02:52.000Z</time>
      </trkpt>
      <trkpt lat="43.49992" lon="1.51402">
        <ele>88.28</ele>
        <time>2019-10-06T07:02:57.000Z</time>
      </trkpt>
      <trkpt lat="43.49985" lon="1.51389">
        <ele>89.46</ele>
        <time>2019-10-06T07:03:02.000Z</time>
      </trkpt>
      <trkpt lat="43.49977" lon="1.51377">
        <ele>89.88</ele>
        <time>2019-10-06T07:03:05.000Z</time>
      </trkpt>
      <trkpt lat="43.4997" lon="1.51369">
        <ele>90.22</ele>
        <time>2019-10-06T07:03:07.000Z</time>
      </trkpt>
      <trkpt lat="43.49959" lon="1.51357">
        <ele>91.27</ele>
        <time>2019-10-06T07:03:12.000Z</time>
      </trkpt>
      <trkpt lat="43.49952" lon="1.51349">
        <ele>91.67</ele>
        <time>2019-10-06T07:03:14.000Z</time>
      </trkpt>
      <trkpt lat="43.49943" lon="1.51341">
        <ele>92.61</ele>
        <time>2019-10-06T07:03:18.000Z</time>
      </trkpt>
      <trkpt lat="43.49937" lon="1.51332">
        <ele>93.47</ele>
        <time>2019-10-06T07:03:21.000Z</time>
      </trkpt>
      <trkpt lat="43.4993" lon="1.51323">
        <ele>94.29</ele>
        <time>2019-10-06T07:03:24.000Z</time>
      </trkpt>
      <trkpt lat="43.49923" lon="1.51315">
        <ele>95.18</ele>
        <time>2019-10-06T07:03:28.000Z</time>
      </trkpt>
      <trkpt lat="43.49913" lon="1.51301">
        <ele>96.05</ele>
        <time>2019-10-06T07:03:33.000Z</time>
      </trkpt>
      <trkpt lat="43.49905" lon="1.51286">
        <ele>96.69</ele>
        <time>2019-10-06T07:03:37.000Z</time>
      </trkpt>
      <trkpt lat="43.49897" lon="1.51273">
        <ele>97.65</ele>
        <time>2019-10-06T07:03:41.000Z</time>
      </trkpt>
      <trkpt lat="43.49891" lon="1.51264">
        <ele>98.45</ele>
        <time>2019-10-06T07:03:44.000Z</time>
      </trkpt>
      <trkpt lat="43.49884" lon="1.51252">
        <ele>99</ele>
        <time>2019-10-06T07:03:47.000Z</time>
      </trkpt>
      <trkpt lat="43.49878" lon="1.5124">
        <ele>98.9</ele>
        <time>2019-10-06T07:03:51.000Z</time>
      </trkpt>
      <trkpt lat="43.49874" lon="1.51227">
        <ele>99.31</ele>
        <time>2019-10-06T07:03:54.000Z</time>
      </trkpt>
      <trkpt lat="43.4987" lon="1.51213">
        <ele>100.51</ele>
        <time>2019-10-06T07:03:57.000Z</time>
      </trkpt>
      <trkpt lat="43.49865" lon="1.512">
        <ele>101.26</ele>
        <time>2019-10-06T07:04:01.000Z</time>
      </trkpt>
      <trkpt lat="43.49859" lon="1.51186">
        <ele>101.75</ele>
        <time>2019-10-06T07:04:04.000Z</time>
      </trkpt>
      <trkpt lat="43.49853" lon="1.51172">
        <ele>102.86</ele>
        <time>2019-10-06T07:04:08.000Z</time>
      </trkpt>
      <trkpt lat="43.49847" lon="1.51155">
        <ele>103.5</ele>
        <time>2019-10-06T07:04:12.000Z</time>
      </trkpt>
      <trkpt lat="43.49842" lon="1.51138">
        <ele>103.43</ele>
        <time>2019-10-06T07:04:16.000Z</time>
      </trkpt>
      <trkpt lat="43.49839" lon="1.51126">
        <ele>103.65</ele>
        <time>2019-10-06T07:04:18.000Z</time>
      </trkpt>
      <trkpt lat="43.49833" lon="1.51109">
        <ele>104.1</ele>
        <time>2019-10-06T07:04:22.000Z</time>
      </trkpt>
      <trkpt lat="43.4983" lon="1.51093">
        <ele>105.22</ele>
        <time>2019-10-06T07:04:26.000Z</time>
      </trkpt>
      <trkpt lat="43.49831" lon="1.51076">
        <ele>106.51</ele>
        <time>2019-10-06T07:04:31.000Z</time>
      </trkpt>
      <trkpt lat="43.49839" lon="1.51064">
        <ele>107.27</ele>
        <time>2019-10-06T07:04:34.000Z</time>
      </trkpt>
      <trkpt lat="43.49848" lon="1.51054">
        <ele>108.22</ele>
        <time>2019-10-06T07:04:39.000Z</time>
      </trkpt>
      <trkpt lat="43.49856" lon="1.51045">
        <ele>110.76</ele>
        <time>2019-10-06T07:04:44.000Z</time>
      </trkpt>
      <trkpt lat="43.49865" lon="1.51033">
        <ele>111.9</ele>
        <time>2019-10-06T07:04:47.000Z</time>
      </trkpt>
      <trkpt lat="43.49871" lon="1.51023">
        <ele>112.65</ele>
        <time>2019-10-06T07:04:51.000Z</time>
      </trkpt>
      <trkpt lat="43.49878" lon="1.51011">
        <ele>114.85</ele>
        <time>2019-10-06T07:04:55.000Z</time>
      </trkpt>
      <trkpt lat="43.49884" lon="1.50998">
        <ele>117.76</ele>
        <time>2019-10-06T07:04:59.000Z</time>
      </trkpt>
      <trkpt lat="43.49876" lon="1.50991">
        <ele>118.88</ele>
        <time>2019-10-06T07:05:04.000Z</time>
      </trkpt>
      <trkpt lat="43.49865" lon="1.50985">
        <ele>119.22</ele>
        <time>2019-10-06T07:05:07.000Z</time>
      </trkpt>
      <trkpt lat="43.49857" lon="1.50977">
        <ele>121.17</ele>
        <time>2019-10-06T07:05:11.000Z</time>
      </trkpt>
      <trkpt lat="43.49849" lon="1.50968">
        <ele>123.21</ele>
        <time>2019-10-06T07:05:15.000Z</time>
      </trkpt>
      <trkpt lat="43.49841" lon="1.50958">
        <ele>125.5</ele>
        <time>2019-10-06T07:05:20.000Z</time>
      </trkpt>
      <trkpt lat="43.49833" lon="1.5095">
        <ele>127.96</ele>
        <time>2019-10-06T07:05:26.000Z</time>
      </trkpt>
      <trkpt lat="43.49825" lon="1.50956">
        <ele>127.67</ele>
        <time>2019-10-06T07:05:31.000Z</time>
      </trkpt>
      <trkpt lat="43.49816" lon="1.50964">
        <ele>126.77</ele>
        <time>2019-10-06T07:05:33.000Z</time>
      </trkpt>
      <trkpt lat="43.49804" lon="1.50965">
        <ele>125.37</ele>
        <time>2019-10-06T07:05:36.000Z</time>
      </trkpt>
      <trkpt lat="43.49791" lon="1.50966">
        <ele>125.11</ele>
        <time>2019-10-06T07:05:37.000Z</time>
      </trkpt>
      <trkpt lat="43.49781" lon="1.50965">
        <ele>124.17</ele>
        <time>2019-10-06T07:05:39.000Z</time>
      </trkpt>
      <trkpt lat="43.49769" lon="1.50964">
        <ele>123.15</ele>
        <time>2019-10-06T07:05:41.000Z</time>
      </trkpt>
      <trkpt lat="43.49757" lon="1.50964">
        <ele>122.39</ele>
        <time>2019-10-06T07:05:43.000Z</time>
      </trkpt>
      <trkpt lat="43.49743" lon="1.50966">
        <ele>121.73</ele>
        <time>2019-10-06T07:05:45.000Z</time>
      </trkpt>
      <trkpt lat="43.49731" lon="1.50966">
        <ele>121.28</ele>
        <time>2019-10-06T07:05:47.000Z</time>
      </trkpt>
      <trkpt lat="43.49712" lon="1.50967">
        <ele>120.56</ele>
        <time>2019-10-06T07:05:50.000Z</time>
      </trkpt>
      <trkpt lat="43.49701" lon="1.50968">
        <ele>120.42</ele>
        <time>2019-10-06T07:05:52.000Z</time>
      </trkpt>
      <trkpt lat="43.49699" lon="1.50953">
        <ele>125.74</ele>
        <time>2019-10-06T07:06:06.000Z</time>
      </trkpt>
      <trkpt lat="43.49703" lon="1.50941">
        <ele>126.58</ele>
        <time>2019-10-06T07:06:10.000Z</time>
      </trkpt>
      <trkpt lat="43.49704" lon="1.50926">
        <ele>128.39</ele>
        <time>2019-10-06T07:06:15.000Z</time>
      </trkpt>
      <trkpt lat="43.49706" lon="1.50909">
        <ele>131.7</ele>
        <time>2019-10-06T07:06:20.000Z</time>
      </trkpt>
      <trkpt lat="43.49709" lon="1.50894">
        <ele>135.45</ele>
        <time>2019-10-06T07:06:26.000Z</time>
      </trkpt>
      <trkpt lat="43.49714" lon="1.50881">
        <ele>138.78</ele>
        <time>2019-10-06T07:06:31.000Z</time>
      </trkpt>
      <trkpt lat="43.49719" lon="1.50866">
        <ele>142.56</ele>
        <time>2019-10-06T07:06:39.000Z</time>
      </trkpt>
      <trkpt lat="43.49724" lon="1.50852">
        <ele>146.14</ele>
        <time>2019-10-06T07:06:46.000Z</time>
      </trkpt>
      <trkpt lat="43.49729" lon="1.50842">
        <ele>148.2</ele>
        <time>2019-10-06T07:06:51.000Z</time>
      </trkpt>
      <trkpt lat="43.49735" lon="1.50832">
        <ele>149.68</ele>
        <time>2019-10-06T07:06:56.000Z</time>
      </trkpt>
      <trkpt lat="43.49743" lon="1.50822">
        <ele>153.68</ele>
        <time>2019-10-06T07:07:01.000Z</time>
      </trkpt>
      <trkpt lat="43.4975" lon="1.50812">
        <ele>156.3</ele>
        <time>2019-10-06T07:07:07.000Z</time>
      </trkpt>
      <trkpt lat="43.49756" lon="1.50799">
        <ele>159.04</ele>
        <time>2019-10-06T07:07:13.000Z</time>
      </trkpt>
      <trkpt lat="43.49756" lon="1.50785">
        <ele>161.48</ele>
        <time>2019-10-06T07:07:20.000Z</time>
      </trkpt>
      <trkpt lat="43.49753" lon="1.50769">
        <ele>163.09</ele>
        <time>2019-10-06T07:07:26.000Z</time>
      </trkpt>
      <trkpt lat="43.4975" lon="1.50755">
        <ele>164.38</ele>
        <time>2019-10-06T07:07:31.000Z</time>
      </trkpt>
      <trkpt lat="43.49748" lon="1.50739">
        <ele>165.74</ele>
        <time>2019-10-06T07:07:36.000Z</time>
      </trkpt>
      <trkpt lat="43.49752" lon="1.50728">
        <ele>166.49</ele>
        <time>2019-10-06T07:07:41.000Z</time>
      </trkpt>
      <trkpt lat="43.49752" lon="1.50709">
        <ele>167.05</ele>
        <time>2019-10-06T07:07:47.000Z</time>
      </trkpt>
      <trkpt lat="43.49757" lon="1.50693">
        <ele>167.8</ele>
        <time>2019-10-06T07:07:52.000Z</time>
      </trkpt>
      <trkpt lat="43.49762" lon="1.5068">
        <ele>168.63</ele>
        <time>2019-10-06T07:07:56.000Z</time>
      </trkpt>
      <trkpt lat="43.49766" lon="1.50668">
        <ele>169.14</ele>
        <time>2019-10-06T07:08:00.000Z</time>
      </trkpt>
      <trkpt lat="43.49769" lon="1.50654">
        <ele>169.67</ele>
        <time>2019-10-06T07:08:03.000Z</time>
      </trkpt>
      <trkpt lat="43.49773" lon="1.50642">
        <ele>170.14</ele>
        <time>2019-10-06T07:08:07.000Z</time>
      </trkpt>
      <trkpt lat="43.49778" lon="1.50628">
        <ele>170.69</ele>
        <time>2019-10-06T07:08:10.000Z</time>
      </trkpt>
      <trkpt lat="43.49781" lon="1.50614">
        <ele>170.96</ele>
        <time>2019-10-06T07:08:13.000Z</time>
      </trkpt>
      <trkpt lat="43.49786" lon="1.50598">
        <ele>171.27</ele>
        <time>2019-10-06T07:08:17.000Z</time>
      </trkpt>
      <trkpt lat="43.4979" lon="1.50581">
        <ele>171.23</ele>
        <time>2019-10-06T07:08:21.000Z</time>
      </trkpt>
      <trkpt lat="43.49794" lon="1.50569">
        <ele>171.39</ele>
        <time>2019-10-06T07:08:24.000Z</time>
      </trkpt>
      <trkpt lat="43.49798" lon="1.50557">
        <ele>171.77</ele>
        <time>2019-10-06T07:08:27.000Z</time>
      </trkpt>
      <trkpt lat="43.49807" lon="1.50542">
        <ele>172.07</ele>
        <time>2019-10-06T07:08:32.000Z</time>
      </trkpt>
      <trkpt lat="43.49815" lon="1.50532">
        <ele>172.03</ele>
        <time>2019-10-06T07:08:34.000Z</time>
      </trkpt>
      <trkpt lat="43.49822" lon="1.50522">
        <ele>171.81</ele>
        <time>2019-10-06T07:08:36.000Z</time>
      </trkpt>
      <trkpt lat="43.49831" lon="1.50505">
        <ele>171.37</ele>
        <time>2019-10-06T07:08:41.000Z</time>
      </trkpt>
      <trkpt lat="43.49837" lon="1.50492">
        <ele>170.89</ele>
        <time>2019-10-06T07:08:43.000Z</time>
      </trkpt>
      <trkpt lat="43.49843" lon="1.50479">
        <ele>170.46</ele>
        <time>2019-10-06T07:08:46.000Z</time>
      </trkpt>
      <trkpt lat="43.4984" lon="1.50464">
        <ele>170.23</ele>
        <time>2019-10-06T07:08:51.000Z</time>
      </trkpt>
      <trkpt lat="43.49832" lon="1.50458">
        <ele>170.29</ele>
        <time>2019-10-06T07:08:53.000Z</time>
      </trkpt>
      <trkpt lat="43.49819" lon="1.50452">
        <ele>170.28</ele>
        <time>2019-10-06T07:08:55.000Z</time>
      </trkpt>
      <trkpt lat="43.49805" lon="1.50448">
        <ele>170.38</ele>
        <time>2019-10-06T07:08:59.000Z</time>
      </trkpt>
      <trkpt lat="43.49795" lon="1.50442">
        <ele>170.32</ele>
        <time>2019-10-06T07:09:00.000Z</time>
      </trkpt>
      <trkpt lat="43.49781" lon="1.50434">
        <ele>170.25</ele>
        <time>2019-10-06T07:09:03.000Z</time>
      </trkpt>
      <trkpt lat="43.4977" lon="1.50428">
        <ele>170.01</ele>
        <time>2019-10-06T07:09:06.000Z</time>
      </trkpt>
      <trkpt lat="43.49755" lon="1.50419">
        <ele>169.41</ele>
        <time>2019-10-06T07:09:09.000Z</time>
      </trkpt>
      <trkpt lat="43.49745" lon="1.50413">
        <ele>168.87</ele>
        <time>2019-10-06T07:09:11.000Z</time>
      </trkpt>
      <trkpt lat="43.49736" lon="1.50407">
        <ele>168.54</ele>
        <time>2019-10-06T07:09:13.000Z</time>
      </trkpt>
      <trkpt lat="43.49725" lon="1.50401">
        <ele>168.55</ele>
        <time>2019-10-06T07:09:15.000Z</time>
      </trkpt>
      <trkpt lat="43.49715" lon="1.50394">
        <ele>168.75</ele>
        <time>2019-10-06T07:09:16.000Z</time>
      </trkpt>
      <trkpt lat="43.49706" lon="1.50388">
        <ele>168.7</ele>
        <time>2019-10-06T07:09:19.000Z</time>
      </trkpt>
      <trkpt lat="43.49696" lon="1.50381">
        <ele>168.43</ele>
        <time>2019-10-06T07:09:21.000Z</time>
      </trkpt>
      <trkpt lat="43.49686" lon="1.50375">
        <ele>168.37</ele>
        <time>2019-10-06T07:09:23.000Z</time>
      </trkpt>
      <trkpt lat="43.49676" lon="1.50368">
        <ele>168.59</ele>
        <time>2019-10-06T07:09:25.000Z</time>
      </trkpt>
      <trkpt lat="43.49667" lon="1.50362">
        <ele>169.01</ele>
        <time>2019-10-06T07:09:27.000Z</time>
      </trkpt>
      <trkpt lat="43.49657" lon="1.50356">
        <ele>169.4</ele>
        <time>2019-10-06T07:09:29.000Z</time>
      </trkpt>
      <trkpt lat="43.49644" lon="1.50348">
        <ele>169.67</ele>
        <time>2019-10-06T07:09:32.000Z</time>
      </trkpt>
      <trkpt lat="43.49635" lon="1.50342">
        <ele>170.1</ele>
        <time>2019-10-06T07:09:34.000Z</time>
      </trkpt>
      <trkpt lat="43.49627" lon="1.50336">
        <ele>170.57</ele>
        <time>2019-10-06T07:09:36.000Z</time>
      </trkpt>
      <trkpt lat="43.49619" lon="1.50329">
        <ele>171.06</ele>
        <time>2019-10-06T07:09:38.000Z</time>
      </trkpt>
      <trkpt lat="43.49612" lon="1.50321">
        <ele>171.33</ele>
        <time>2019-10-06T07:09:40.000Z</time>
      </trkpt>
      <trkpt lat="43.49604" lon="1.50313">
        <ele>171.54</ele>
        <time>2019-10-06T07:09:42.000Z</time>
      </trkpt>
      <trkpt lat="43.49598" lon="1.50304">
        <ele>171.94</ele>
        <time>2019-10-06T07:09:44.000Z</time>
      </trkpt>
      <trkpt lat="43.49591" lon="1.50296">
        <ele>172.37</ele>
        <time>2019-10-06T07:09:46.000Z</time>
      </trkpt>
      <trkpt lat="43.4958" lon="1.5028">
        <ele>173.18</ele>
        <time>2019-10-06T07:09:50.000Z</time>
      </trkpt>
      <trkpt lat="43.49573" lon="1.5027">
        <ele>173.79</ele>
        <time>2019-10-06T07:09:53.000Z</time>
      </trkpt>
      <trkpt lat="43.49562" lon="1.50255">
        <ele>174.7</ele>
        <time>2019-10-06T07:09:57.000Z</time>
      </trkpt>
      <trkpt lat="43.49555" lon="1.50242">
        <ele>175.35</ele>
        <time>2019-10-06T07:10:00.000Z</time>
      </trkpt>
      <trkpt lat="43.49548" lon="1.50226">
        <ele>175.4</ele>
        <time>2019-10-06T07:10:03.000Z</time>
      </trkpt>
      <trkpt lat="43.49544" lon="1.50212">
        <ele>175.1</ele>
        <time>2019-10-06T07:10:05.000Z</time>
      </trkpt>
      <trkpt lat="43.49543" lon="1.50194">
        <ele>174.16</ele>
        <time>2019-10-06T07:10:07.000Z</time>
      </trkpt>
      <trkpt lat="43.49542" lon="1.50163">
        <ele>173.13</ele>
        <time>2019-10-06T07:10:10.000Z</time>
      </trkpt>
      <trkpt lat="43.4954" lon="1.50143">
        <ele>172.36</ele>
        <time>2019-10-06T07:10:12.000Z</time>
      </trkpt>
      <trkpt lat="43.49539" lon="1.50125">
        <ele>172.04</ele>
        <time>2019-10-06T07:10:14.000Z</time>
      </trkpt>
      <trkpt lat="43.49538" lon="1.50106">
        <ele>171.73</ele>
        <time>2019-10-06T07:10:16.000Z</time>
      </trkpt>
      <trkpt lat="43.49537" lon="1.50087">
        <ele>170.96</ele>
        <time>2019-10-06T07:10:18.000Z</time>
      </trkpt>
      <trkpt lat="43.49531" lon="1.5006">
        <ele>170.58</ele>
        <time>2019-10-06T07:10:21.000Z</time>
      </trkpt>
      <trkpt lat="43.49526" lon="1.50043">
        <ele>170.39</ele>
        <time>2019-10-06T07:10:23.000Z</time>
      </trkpt>
      <trkpt lat="43.49513" lon="1.50021">
        <ele>170.34</ele>
        <time>2019-10-06T07:10:26.000Z</time>
      </trkpt>
      <trkpt lat="43.49504" lon="1.50009">
        <ele>170.35</ele>
        <time>2019-10-06T07:10:28.000Z</time>
      </trkpt>
      <trkpt lat="43.49495" lon="1.49999">
        <ele>170.25</ele>
        <time>2019-10-06T07:10:30.000Z</time>
      </trkpt>
      <trkpt lat="43.49485" lon="1.49983">
        <ele>170.39</ele>
        <time>2019-10-06T07:10:33.000Z</time>
      </trkpt>
      <trkpt lat="43.49487" lon="1.49969">
        <ele>171.52</ele>
        <time>2019-10-06T07:10:36.000Z</time>
      </trkpt>
      <trkpt lat="43.49492" lon="1.49958">
        <ele>172.38</ele>
        <time>2019-10-06T07:10:39.000Z</time>
      </trkpt>
      <trkpt lat="43.49501" lon="1.49945">
        <ele>173.15</ele>
        <time>2019-10-06T07:10:43.000Z</time>
      </trkpt>
      <trkpt lat="43.49512" lon="1.49941">
        <ele>173.78</ele>
        <time>2019-10-06T07:10:46.000Z</time>
      </trkpt>
      <trkpt lat="43.49521" lon="1.49938">
        <ele>173.87</ele>
        <time>2019-10-06T07:10:49.000Z</time>
      </trkpt>
      <trkpt lat="43.49533" lon="1.49934">
        <ele>174.15</ele>
        <time>2019-10-06T07:10:53.000Z</time>
      </trkpt>
      <trkpt lat="43.49542" lon="1.49929">
        <ele>174.74</ele>
        <time>2019-10-06T07:10:56.000Z</time>
      </trkpt>
      <trkpt lat="43.49554" lon="1.49925">
        <ele>175.21</ele>
        <time>2019-10-06T07:10:59.000Z</time>
      </trkpt>
      <trkpt lat="43.49571" lon="1.4992">
        <ele>176.1</ele>
        <time>2019-10-06T07:11:03.000Z</time>
      </trkpt>
      <trkpt lat="43.49585" lon="1.4992">
        <ele>177.32</ele>
        <time>2019-10-06T07:11:06.000Z</time>
      </trkpt>
      <trkpt lat="43.49602" lon="1.4992">
        <ele>178.07</ele>
        <time>2019-10-06T07:11:10.000Z</time>
      </trkpt>
      <trkpt lat="43.49611" lon="1.49923">
        <ele>178.61</ele>
        <time>2019-10-06T07:11:12.000Z</time>
      </trkpt>
      <trkpt lat="43.4962" lon="1.49926">
        <ele>179.56</ele>
        <time>2019-10-06T07:11:14.000Z</time>
      </trkpt>
      <trkpt lat="43.49635" lon="1.49929">
        <ele>179.57</ele>
        <time>2019-10-06T07:11:17.000Z</time>
      </trkpt>
      <trkpt lat="43.49646" lon="1.4993">
        <ele>178.65</ele>
        <time>2019-10-06T07:11:19.000Z</time>
      </trkpt>
      <trkpt lat="43.49659" lon="1.49925">
        <ele>176.5</ele>
        <time>2019-10-06T07:11:21.000Z</time>
      </trkpt>
      <trkpt lat="43.49673" lon="1.49911">
        <ele>174.72</ele>
        <time>2019-10-06T07:11:23.000Z</time>
      </trkpt>
      <trkpt lat="43.49689" lon="1.49886">
        <ele>173.64</ele>
        <time>2019-10-06T07:11:26.000Z</time>
      </trkpt>
      <trkpt lat="43.49703" lon="1.49857">
        <ele>172.23</ele>
        <time>2019-10-06T07:11:29.000Z</time>
      </trkpt>
      <trkpt lat="43.49711" lon="1.4984">
        <ele>172.01</ele>
        <time>2019-10-06T07:11:31.000Z</time>
      </trkpt>
      <trkpt lat="43.49719" lon="1.49825">
        <ele>172.33</ele>
        <time>2019-10-06T07:11:33.000Z</time>
      </trkpt>
      <trkpt lat="43.49727" lon="1.49813">
        <ele>172.31</ele>
        <time>2019-10-06T07:11:35.000Z</time>
      </trkpt>
      <trkpt lat="43.49733" lon="1.49803">
        <ele>172.14</ele>
        <time>2019-10-06T07:11:37.000Z</time>
      </trkpt>
      <trkpt lat="43.4974" lon="1.49793">
        <ele>172.11</ele>
        <time>2019-10-06T07:11:39.000Z</time>
      </trkpt>
      <trkpt lat="43.49746" lon="1.49783">
        <ele>172.1</ele>
        <time>2019-10-06T07:11:42.000Z</time>
      </trkpt>
      <trkpt lat="43.49754" lon="1.49772">
        <ele>172.75</ele>
        <time>2019-10-06T07:11:48.000Z</time>
      </trkpt>
      <trkpt lat="43.49764" lon="1.49769">
        <ele>170.97</ele>
        <time>2019-10-06T07:12:01.000Z</time>
      </trkpt>
      <trkpt lat="43.49778" lon="1.49761">
        <ele>170.48</ele>
        <time>2019-10-06T07:12:06.000Z</time>
      </trkpt>
      <trkpt lat="43.49788" lon="1.49758">
        <ele>169.43</ele>
        <time>2019-10-06T07:12:09.000Z</time>
      </trkpt>
      <trkpt lat="43.49802" lon="1.49765">
        <ele>165.28</ele>
        <time>2019-10-06T07:12:14.000Z</time>
      </trkpt>
      <trkpt lat="43.49817" lon="1.4977">
        <ele>162.22</ele>
        <time>2019-10-06T07:12:19.000Z</time>
      </trkpt>
      <trkpt lat="43.4983" lon="1.49776">
        <ele>160.5</ele>
        <time>2019-10-06T07:12:21.000Z</time>
      </trkpt>
      <trkpt lat="43.49843" lon="1.4978">
        <ele>159.68</ele>
        <time>2019-10-06T07:12:22.000Z</time>
      </trkpt>
      <trkpt lat="43.49853" lon="1.49783">
        <ele>158.72</ele>
        <time>2019-10-06T07:12:23.000Z</time>
      </trkpt>
      <trkpt lat="43.49862" lon="1.49787">
        <ele>156.63</ele>
        <time>2019-10-06T07:12:26.000Z</time>
      </trkpt>
      <trkpt lat="43.49873" lon="1.49789">
        <ele>154.73</ele>
        <time>2019-10-06T07:12:30.000Z</time>
      </trkpt>
      <trkpt lat="43.49896" lon="1.49798">
        <ele>151.69</ele>
        <time>2019-10-06T07:12:34.000Z</time>
      </trkpt>
      <trkpt lat="43.49906" lon="1.49803">
        <ele>150.92</ele>
        <time>2019-10-06T07:12:35.000Z</time>
      </trkpt>
      <trkpt lat="43.49927" lon="1.49822">
        <ele>149.35</ele>
        <time>2019-10-06T07:12:37.000Z</time>
      </trkpt>
      <trkpt lat="43.49937" lon="1.49834">
        <ele>148.5</ele>
        <time>2019-10-06T07:12:38.000Z</time>
      </trkpt>
      <trkpt lat="43.49944" lon="1.49853">
        <ele>146.83</ele>
        <time>2019-10-06T07:12:40.000Z</time>
      </trkpt>
      <trkpt lat="43.49947" lon="1.49872">
        <ele>145.57</ele>
        <time>2019-10-06T07:12:42.000Z</time>
      </trkpt>
      <trkpt lat="43.49952" lon="1.49884">
        <ele>142.85</ele>
        <time>2019-10-06T07:12:44.000Z</time>
      </trkpt>
      <trkpt lat="43.49962" lon="1.49901">
        <ele>139.38</ele>
        <time>2019-10-06T07:12:47.000Z</time>
      </trkpt>
      <trkpt lat="43.49968" lon="1.49912">
        <ele>137.73</ele>
        <time>2019-10-06T07:12:49.000Z</time>
      </trkpt>
      <trkpt lat="43.49977" lon="1.4991">
        <ele>135.63</ele>
        <time>2019-10-06T07:12:54.000Z</time>
      </trkpt>
      <trkpt lat="43.49989" lon="1.49898">
        <ele>133.68</ele>
        <time>2019-10-06T07:12:57.000Z</time>
      </trkpt>
      <trkpt lat="43.49996" lon="1.49882">
        <ele>131.67</ele>
        <time>2019-10-06T07:13:03.000Z</time>
      </trkpt>
      <trkpt lat="43.50006" lon="1.49875">
        <ele>131.98</ele>
        <time>2019-10-06T07:13:06.000Z</time>
      </trkpt>
      <trkpt lat="43.50016" lon="1.49866">
        <ele>130.26</ele>
        <time>2019-10-06T07:13:12.000Z</time>
      </trkpt>
      <trkpt lat="43.50023" lon="1.49859">
        <ele>129.23</ele>
        <time>2019-10-06T07:13:15.000Z</time>
      </trkpt>
      <trkpt lat="43.50032" lon="1.49849">
        <ele>128.6</ele>
        <time>2019-10-06T07:13:19.000Z</time>
      </trkpt>
      <trkpt lat="43.5004" lon="1.49835">
        <ele>127.78</ele>
        <time>2019-10-06T07:13:22.000Z</time>
      </trkpt>
      <trkpt lat="43.50057" lon="1.49817">
        <ele>127.63</ele>
        <time>2019-10-06T07:13:24.000Z</time>
      </trkpt>
      <trkpt lat="43.50066" lon="1.4981">
        <ele>127.16</ele>
        <time>2019-10-06T07:13:27.000Z</time>
      </trkpt>
      <trkpt lat="43.50075" lon="1.49799">
        <ele>126.52</ele>
        <time>2019-10-06T07:13:30.000Z</time>
      </trkpt>
      <trkpt lat="43.5009" lon="1.49781">
        <ele>124.95</ele>
        <time>2019-10-06T07:13:33.000Z</time>
      </trkpt>
      <trkpt lat="43.50099" lon="1.4977">
        <ele>124.95</ele>
        <time>2019-10-06T07:13:34.000Z</time>
      </trkpt>
      <trkpt lat="43.50112" lon="1.49755">
        <ele>123.86</ele>
        <time>2019-10-06T07:13:35.000Z</time>
      </trkpt>
      <trkpt lat="43.5012" lon="1.49747">
        <ele>123.54</ele>
        <time>2019-10-06T07:13:36.000Z</time>
      </trkpt>
      <trkpt lat="43.50133" lon="1.4974">
        <ele>123.14</ele>
        <time>2019-10-06T07:13:38.000Z</time>
      </trkpt>
      <trkpt lat="43.50142" lon="1.49732">
        <ele>122.86</ele>
        <time>2019-10-06T07:13:40.000Z</time>
      </trkpt>
      <trkpt lat="43.50156" lon="1.49725">
        <ele>122.75</ele>
        <time>2019-10-06T07:13:43.000Z</time>
      </trkpt>
      <trkpt lat="43.50166" lon="1.4972">
        <ele>122.25</ele>
        <time>2019-10-06T07:13:45.000Z</time>
      </trkpt>
      <trkpt lat="43.50184" lon="1.49714">
        <ele>121.35</ele>
        <time>2019-10-06T07:13:47.000Z</time>
      </trkpt>
      <trkpt lat="43.50206" lon="1.49703">
        <ele>121.1</ele>
        <time>2019-10-06T07:13:50.000Z</time>
      </trkpt>
      <trkpt lat="43.50221" lon="1.497">
        <ele>120.65</ele>
        <time>2019-10-06T07:13:53.000Z</time>
      </trkpt>
      <trkpt lat="43.50232" lon="1.49693">
        <ele>120.7</ele>
        <time>2019-10-06T07:13:55.000Z</time>
      </trkpt>
      <trkpt lat="43.50242" lon="1.49686">
        <ele>120.26</ele>
        <time>2019-10-06T07:13:57.000Z</time>
      </trkpt>
      <trkpt lat="43.50252" lon="1.4968">
        <ele>119.4</ele>
        <time>2019-10-06T07:13:59.000Z</time>
      </trkpt>
      <trkpt lat="43.50269" lon="1.4967">
        <ele>118.15</ele>
        <time>2019-10-06T07:14:02.000Z</time>
      </trkpt>
      <trkpt lat="43.50281" lon="1.49663">
        <ele>117.67</ele>
        <time>2019-10-06T07:14:04.000Z</time>
      </trkpt>
      <trkpt lat="43.503" lon="1.49649">
        <ele>117.5</ele>
        <time>2019-10-06T07:14:07.000Z</time>
      </trkpt>
      <trkpt lat="43.5031" lon="1.49638">
        <ele>117.25</ele>
        <time>2019-10-06T07:14:09.000Z</time>
      </trkpt>
      <trkpt lat="43.5032" lon="1.49627">
        <ele>116.59</ele>
        <time>2019-10-06T07:14:11.000Z</time>
      </trkpt>
      <trkpt lat="43.50329" lon="1.49614">
        <ele>116.48</ele>
        <time>2019-10-06T07:14:13.000Z</time>
      </trkpt>
      <trkpt lat="43.50338" lon="1.49602">
        <ele>116.07</ele>
        <time>2019-10-06T07:14:15.000Z</time>
      </trkpt>
      <trkpt lat="43.50348" lon="1.49591">
        <ele>115.95</ele>
        <time>2019-10-06T07:14:17.000Z</time>
      </trkpt>
      <trkpt lat="43.50357" lon="1.4958">
        <ele>115.55</ele>
        <time>2019-10-06T07:14:19.000Z</time>
      </trkpt>
      <trkpt lat="43.50372" lon="1.49565">
        <ele>114.43</ele>
        <time>2019-10-06T07:14:22.000Z</time>
      </trkpt>
      <trkpt lat="43.50382" lon="1.49556">
        <ele>113.96</ele>
        <time>2019-10-06T07:14:24.000Z</time>
      </trkpt>
      <trkpt lat="43.50393" lon="1.49547">
        <ele>113.49</ele>
        <time>2019-10-06T07:14:26.000Z</time>
      </trkpt>
      <trkpt lat="43.50407" lon="1.49534">
        <ele>113.05</ele>
        <time>2019-10-06T07:14:29.000Z</time>
      </trkpt>
      <trkpt lat="43.50416" lon="1.49526">
        <ele>112.94</ele>
        <time>2019-10-06T07:14:31.000Z</time>
      </trkpt>
      <trkpt lat="43.50425" lon="1.49516">
        <ele>112.6</ele>
        <time>2019-10-06T07:14:33.000Z</time>
      </trkpt>
      <trkpt lat="43.50439" lon="1.49498">
        <ele>111.29</ele>
        <time>2019-10-06T07:14:36.000Z</time>
      </trkpt>
      <trkpt lat="43.50451" lon="1.49484">
        <ele>110.19</ele>
        <time>2019-10-06T07:14:38.000Z</time>
      </trkpt>
      <trkpt lat="43.50462" lon="1.4947">
        <ele>109.32</ele>
        <time>2019-10-06T07:14:40.000Z</time>
      </trkpt>
      <trkpt lat="43.50476" lon="1.49458">
        <ele>108.53</ele>
        <time>2019-10-06T07:14:42.000Z</time>
      </trkpt>
      <trkpt lat="43.50489" lon="1.49446">
        <ele>107.9</ele>
        <time>2019-10-06T07:14:44.000Z</time>
      </trkpt>
      <trkpt lat="43.50496" lon="1.49438">
        <ele>107.75</ele>
        <time>2019-10-06T07:14:45.000Z</time>
      </trkpt>
      <trkpt lat="43.50509" lon="1.49424">
        <ele>106.9</ele>
        <time>2019-10-06T07:14:47.000Z</time>
      </trkpt>
      <trkpt lat="43.50529" lon="1.49408">
        <ele>106.2</ele>
        <time>2019-10-06T07:14:50.000Z</time>
      </trkpt>
      <trkpt lat="43.50539" lon="1.49399">
        <ele>105.86</ele>
        <time>2019-10-06T07:14:52.000Z</time>
      </trkpt>
      <trkpt lat="43.50549" lon="1.49393">
        <ele>105.8</ele>
        <time>2019-10-06T07:14:54.000Z</time>
      </trkpt>
      <trkpt lat="43.50558" lon="1.4939">
        <ele>105.62</ele>
        <time>2019-10-06T07:14:56.000Z</time>
      </trkpt>
      <trkpt lat="43.5057" lon="1.49388">
        <ele>105.06</ele>
        <time>2019-10-06T07:14:58.000Z</time>
      </trkpt>
      <trkpt lat="43.50581" lon="1.49388">
        <ele>105.28</ele>
        <time>2019-10-06T07:15:00.000Z</time>
      </trkpt>
      <trkpt lat="43.50591" lon="1.49386">
        <ele>105.12</ele>
        <time>2019-10-06T07:15:02.000Z</time>
      </trkpt>
      <trkpt lat="43.506" lon="1.49381">
        <ele>105.39</ele>
        <time>2019-10-06T07:15:04.000Z</time>
      </trkpt>
      <trkpt lat="43.50609" lon="1.49376">
        <ele>105.75</ele>
        <time>2019-10-06T07:15:06.000Z</time>
      </trkpt>
      <trkpt lat="43.50623" lon="1.49373">
        <ele>106.11</ele>
        <time>2019-10-06T07:15:09.000Z</time>
      </trkpt>
      <trkpt lat="43.50639" lon="1.49377">
        <ele>106.51</ele>
        <time>2019-10-06T07:15:12.000Z</time>
      </trkpt>
      <trkpt lat="43.5065" lon="1.49381">
        <ele>106.98</ele>
        <time>2019-10-06T07:15:14.000Z</time>
      </trkpt>
      <trkpt lat="43.50662" lon="1.49388">
        <ele>107.37</ele>
        <time>2019-10-06T07:15:16.000Z</time>
      </trkpt>
      <trkpt lat="43.50674" lon="1.49396">
        <ele>107.62</ele>
        <time>2019-10-06T07:15:18.000Z</time>
      </trkpt>
      <trkpt lat="43.50684" lon="1.49405">
        <ele>107.56</ele>
        <time>2019-10-06T07:15:20.000Z</time>
      </trkpt>
      <trkpt lat="43.50693" lon="1.49414">
        <ele>107.08</ele>
        <time>2019-10-06T07:15:22.000Z</time>
      </trkpt>
      <trkpt lat="43.50705" lon="1.4942">
        <ele>106.59</ele>
        <time>2019-10-06T07:15:24.000Z</time>
      </trkpt>
      <trkpt lat="43.50717" lon="1.49427">
        <ele>105.88</ele>
        <time>2019-10-06T07:15:26.000Z</time>
      </trkpt>
      <trkpt lat="43.50739" lon="1.4943">
        <ele>104.41</ele>
        <time>2019-10-06T07:15:29.000Z</time>
      </trkpt>
      <trkpt lat="43.50753" lon="1.49432">
        <ele>103.25</ele>
        <time>2019-10-06T07:15:31.000Z</time>
      </trkpt>
      <trkpt lat="43.50777" lon="1.49435">
        <ele>102.38</ele>
        <time>2019-10-06T07:15:34.000Z</time>
      </trkpt>
      <trkpt lat="43.50789" lon="1.49435">
        <ele>102.27</ele>
        <time>2019-10-06T07:15:36.000Z</time>
      </trkpt>
      <trkpt lat="43.50794" lon="1.49423">
        <ele>101.84</ele>
        <time>2019-10-06T07:15:39.000Z</time>
      </trkpt>
      <trkpt lat="43.50803" lon="1.49413">
        <ele>101.39</ele>
        <time>2019-10-06T07:15:43.000Z</time>
      </trkpt>
      <trkpt lat="43.50812" lon="1.49406">
        <ele>101</ele>
        <time>2019-10-06T07:15:47.000Z</time>
      </trkpt>
      <trkpt lat="43.5082" lon="1.49395">
        <ele>102.17</ele>
        <time>2019-10-06T07:15:50.000Z</time>
      </trkpt>
      <trkpt lat="43.50827" lon="1.4938">
        <ele>104.17</ele>
        <time>2019-10-06T07:15:53.000Z</time>
      </trkpt>
      <trkpt lat="43.50835" lon="1.49369">
        <ele>106.11</ele>
        <time>2019-10-06T07:15:56.000Z</time>
      </trkpt>
      <trkpt lat="43.50843" lon="1.49359">
        <ele>107.8</ele>
        <time>2019-10-06T07:15:58.000Z</time>
      </trkpt>
      <trkpt lat="43.50848" lon="1.49345">
        <ele>110.58</ele>
        <time>2019-10-06T07:16:07.000Z</time>
      </trkpt>
      <trkpt lat="43.50852" lon="1.49328">
        <ele>112.36</ele>
        <time>2019-10-06T07:16:11.000Z</time>
      </trkpt>
      <trkpt lat="43.50857" lon="1.49314">
        <ele>114.07</ele>
        <time>2019-10-06T07:16:14.000Z</time>
      </trkpt>
      <trkpt lat="43.50859" lon="1.49299">
        <ele>122.87</ele>
        <time>2019-10-06T07:16:19.000Z</time>
      </trkpt>
      <trkpt lat="43.50849" lon="1.49294">
        <ele>127.46</ele>
        <time>2019-10-06T07:16:27.000Z</time>
      </trkpt>
      <trkpt lat="43.5084" lon="1.49302">
        <ele>128.8</ele>
        <time>2019-10-06T07:16:31.000Z</time>
      </trkpt>
      <trkpt lat="43.50831" lon="1.49304">
        <ele>129.81</ele>
        <time>2019-10-06T07:16:34.000Z</time>
      </trkpt>
      <trkpt lat="43.50818" lon="1.49298">
        <ele>131.61</ele>
        <time>2019-10-06T07:16:38.000Z</time>
      </trkpt>
      <trkpt lat="43.50808" lon="1.49293">
        <ele>133.11</ele>
        <time>2019-10-06T07:16:41.000Z</time>
      </trkpt>
      <trkpt lat="43.50797" lon="1.49287">
        <ele>134.19</ele>
        <time>2019-10-06T07:16:44.000Z</time>
      </trkpt>
      <trkpt lat="43.50788" lon="1.49282">
        <ele>135.7</ele>
        <time>2019-10-06T07:16:48.000Z</time>
      </trkpt>
      <trkpt lat="43.5078" lon="1.49276">
        <ele>137.3</ele>
        <time>2019-10-06T07:16:52.000Z</time>
      </trkpt>
      <trkpt lat="43.50773" lon="1.49268">
        <ele>138.6</ele>
        <time>2019-10-06T07:16:56.000Z</time>
      </trkpt>
      <trkpt lat="43.50767" lon="1.49256">
        <ele>140.18</ele>
        <time>2019-10-06T07:17:02.000Z</time>
      </trkpt>
      <trkpt lat="43.50762" lon="1.49244">
        <ele>139.14</ele>
        <time>2019-10-06T07:17:05.000Z</time>
      </trkpt>
      <trkpt lat="43.50757" lon="1.49233">
        <ele>138.61</ele>
        <time>2019-10-06T07:17:07.000Z</time>
      </trkpt>
      <trkpt lat="43.5075" lon="1.4922">
        <ele>138.64</ele>
        <time>2019-10-06T07:17:10.000Z</time>
      </trkpt>
      <trkpt lat="43.50744" lon="1.49201">
        <ele>138.84</ele>
        <time>2019-10-06T07:17:13.000Z</time>
      </trkpt>
      <trkpt lat="43.50733" lon="1.49178">
        <ele>138.68</ele>
        <time>2019-10-06T07:17:16.000Z</time>
      </trkpt>
      <trkpt lat="43.50724" lon="1.49166">
        <ele>138.55</ele>
        <time>2019-10-06T07:17:18.000Z</time>
      </trkpt>
      <trkpt lat="43.50716" lon="1.49156">
        <ele>138.45</ele>
        <time>2019-10-06T07:17:20.000Z</time>
      </trkpt>
      <trkpt lat="43.50709" lon="1.49145">
        <ele>138.53</ele>
        <time>2019-10-06T07:17:22.000Z</time>
      </trkpt>
      <trkpt lat="43.50702" lon="1.49135">
        <ele>138.34</ele>
        <time>2019-10-06T07:17:24.000Z</time>
      </trkpt>
      <trkpt lat="43.50694" lon="1.49126">
        <ele>138.09</ele>
        <time>2019-10-06T07:17:26.000Z</time>
      </trkpt>
      <trkpt lat="43.50684" lon="1.49106">
        <ele>138.05</ele>
        <time>2019-10-06T07:17:30.000Z</time>
      </trkpt>
      <trkpt lat="43.50678" lon="1.49096">
        <ele>138</ele>
        <time>2019-10-06T07:17:32.000Z</time>
      </trkpt>
      <trkpt lat="43.50673" lon="1.49084">
        <ele>137.89</ele>
        <time>2019-10-06T07:17:34.000Z</time>
      </trkpt>
      <trkpt lat="43.50668" lon="1.49072">
        <ele>137.57</ele>
        <time>2019-10-06T07:17:36.000Z</time>
      </trkpt>
      <trkpt lat="43.50662" lon="1.49062">
        <ele>137.28</ele>
        <time>2019-10-06T07:17:38.000Z</time>
      </trkpt>
      <trkpt lat="43.50657" lon="1.49051">
        <ele>137.7</ele>
        <time>2019-10-06T07:17:40.000Z</time>
      </trkpt>
      <trkpt lat="43.50651" lon="1.49041">
        <ele>138.59</ele>
        <time>2019-10-06T07:17:42.000Z</time>
      </trkpt>
      <trkpt lat="43.50643" lon="1.49028">
        <ele>139.37</ele>
        <time>2019-10-06T07:17:45.000Z</time>
      </trkpt>
      <trkpt lat="43.50634" lon="1.49016">
        <ele>138.91</ele>
        <time>2019-10-06T07:17:48.000Z</time>
      </trkpt>
      <trkpt lat="43.50626" lon="1.49006">
        <ele>138.12</ele>
        <time>2019-10-06T07:17:50.000Z</time>
      </trkpt>
      <trkpt lat="43.5062" lon="1.48995">
        <ele>137.9</ele>
        <time>2019-10-06T07:17:52.000Z</time>
      </trkpt>
      <trkpt lat="43.50612" lon="1.48985">
        <ele>137.71</ele>
        <time>2019-10-06T07:17:54.000Z</time>
      </trkpt>
      <trkpt lat="43.50604" lon="1.48978">
        <ele>137.82</ele>
        <time>2019-10-06T07:17:56.000Z</time>
      </trkpt>
      <trkpt lat="43.50595" lon="1.48972">
        <ele>138.1</ele>
        <time>2019-10-06T07:17:58.000Z</time>
      </trkpt>
      <trkpt lat="43.50581" lon="1.48963">
        <ele>138.17</ele>
        <time>2019-10-06T07:18:01.000Z</time>
      </trkpt>
      <trkpt lat="43.50567" lon="1.4896">
        <ele>138.51</ele>
        <time>2019-10-06T07:18:04.000Z</time>
      </trkpt>
      <trkpt lat="43.50556" lon="1.48957">
        <ele>138.8</ele>
        <time>2019-10-06T07:18:08.000Z</time>
      </trkpt>
      <trkpt lat="43.50546" lon="1.48945">
        <ele>139.35</ele>
        <time>2019-10-06T07:18:13.000Z</time>
      </trkpt>
      <trkpt lat="43.50537" lon="1.48937">
        <ele>140.35</ele>
        <time>2019-10-06T07:18:17.000Z</time>
      </trkpt>
      <trkpt lat="43.50531" lon="1.48926">
        <ele>142.15</ele>
        <time>2019-10-06T07:18:19.000Z</time>
      </trkpt>
      <trkpt lat="43.50525" lon="1.48915">
        <ele>144.42</ele>
        <time>2019-10-06T07:18:22.000Z</time>
      </trkpt>
      <trkpt lat="43.5052" lon="1.48905">
        <ele>145.6</ele>
        <time>2019-10-06T07:18:25.000Z</time>
      </trkpt>
      <trkpt lat="43.50514" lon="1.4889">
        <ele>147.42</ele>
        <time>2019-10-06T07:18:30.000Z</time>
      </trkpt>
      <trkpt lat="43.50505" lon="1.48883">
        <ele>150.02</ele>
        <time>2019-10-06T07:18:34.000Z</time>
      </trkpt>
      <trkpt lat="43.50496" lon="1.48877">
        <ele>151.63</ele>
        <time>2019-10-06T07:18:37.000Z</time>
      </trkpt>
      <trkpt lat="43.50486" lon="1.48873">
        <ele>152.27</ele>
        <time>2019-10-06T07:18:40.000Z</time>
      </trkpt>
      <trkpt lat="43.50475" lon="1.48872">
        <ele>152.27</ele>
        <time>2019-10-06T07:18:42.000Z</time>
      </trkpt>
      <trkpt lat="43.50464" lon="1.48871">
        <ele>153.67</ele>
        <time>2019-10-06T07:18:46.000Z</time>
      </trkpt>
      <trkpt lat="43.50454" lon="1.48866">
        <ele>155.76</ele>
        <time>2019-10-06T07:18:50.000Z</time>
      </trkpt>
      <trkpt lat="43.50446" lon="1.48862">
        <ele>155.76</ele>
        <time>2019-10-06T07:18:53.000Z</time>
      </trkpt>
      <trkpt lat="43.50434" lon="1.48858">
        <ele>159.15</ele>
        <time>2019-10-06T07:18:57.000Z</time>
      </trkpt>
      <trkpt lat="43.50423" lon="1.48852">
        <ele>161.18</ele>
        <time>2019-10-06T07:19:01.000Z</time>
      </trkpt>
      <trkpt lat="43.50412" lon="1.48847">
        <ele>163.29</ele>
        <time>2019-10-06T07:19:05.000Z</time>
      </trkpt>
      <trkpt lat="43.50403" lon="1.48842">
        <ele>165.41</ele>
        <time>2019-10-06T07:19:09.000Z</time>
      </trkpt>
      <trkpt lat="43.50394" lon="1.48836">
        <ele>167.33</ele>
        <time>2019-10-06T07:19:13.000Z</time>
      </trkpt>
      <trkpt lat="43.50394" lon="1.48822">
        <ele>170.63</ele>
        <time>2019-10-06T07:19:20.000Z</time>
      </trkpt>
      <trkpt lat="43.50386" lon="1.48814">
        <ele>171.02</ele>
        <time>2019-10-06T07:19:25.000Z</time>
      </trkpt>
      <trkpt lat="43.50378" lon="1.48805">
        <ele>172.3</ele>
        <time>2019-10-06T07:19:28.000Z</time>
      </trkpt>
      <trkpt lat="43.5037" lon="1.48794">
        <ele>172.3</ele>
        <time>2019-10-06T07:19:31.000Z</time>
      </trkpt>
      <trkpt lat="43.50362" lon="1.48789">
        <ele>176.61</ele>
        <time>2019-10-06T07:19:36.000Z</time>
      </trkpt>
      <trkpt lat="43.50351" lon="1.48779">
        <ele>177.35</ele>
        <time>2019-10-06T07:19:40.000Z</time>
      </trkpt>
      <trkpt lat="43.50341" lon="1.4877">
        <ele>178.32</ele>
        <time>2019-10-06T07:19:42.000Z</time>
      </trkpt>
      <trkpt lat="43.5033" lon="1.4876">
        <ele>178.5</ele>
        <time>2019-10-06T07:19:47.000Z</time>
      </trkpt>
      <trkpt lat="43.50321" lon="1.48751">
        <ele>181.51</ele>
        <time>2019-10-06T07:19:51.000Z</time>
      </trkpt>
      <trkpt lat="43.50312" lon="1.4874">
        <ele>182.1</ele>
        <time>2019-10-06T07:19:53.000Z</time>
      </trkpt>
      <trkpt lat="43.50309" lon="1.48728">
        <ele>182.75</ele>
        <time>2019-10-06T07:19:56.000Z</time>
      </trkpt>
      <trkpt lat="43.50308" lon="1.48715">
        <ele>183.33</ele>
        <time>2019-10-06T07:19:59.000Z</time>
      </trkpt>
      <trkpt lat="43.50308" lon="1.48703">
        <ele>184.62</ele>
        <time>2019-10-06T07:20:03.000Z</time>
      </trkpt>
      <trkpt lat="43.50306" lon="1.48685">
        <ele>185.95</ele>
        <time>2019-10-06T07:20:07.000Z</time>
      </trkpt>
      <trkpt lat="43.50308" lon="1.4867">
        <ele>186.71</ele>
        <time>2019-10-06T07:20:10.000Z</time>
      </trkpt>
      <trkpt lat="43.50304" lon="1.48658">
        <ele>189.02</ele>
        <time>2019-10-06T07:20:37.000Z</time>
      </trkpt>
      <trkpt lat="43.50303" lon="1.48643">
        <ele>190.82</ele>
        <time>2019-10-06T07:20:45.000Z</time>
      </trkpt>
      <trkpt lat="43.50303" lon="1.48623">
        <ele>191.66</ele>
        <time>2019-10-06T07:20:48.000Z</time>
      </trkpt>
      <trkpt lat="43.50304" lon="1.48605">
        <ele>192.83</ele>
        <time>2019-10-06T07:20:52.000Z</time>
      </trkpt>
      <trkpt lat="43.50304" lon="1.48591">
        <ele>194.04</ele>
        <time>2019-10-06T07:20:56.000Z</time>
      </trkpt>
      <trkpt lat="43.50304" lon="1.48578">
        <ele>194.88</ele>
        <time>2019-10-06T07:21:00.000Z</time>
      </trkpt>
      <trkpt lat="43.50301" lon="1.48564">
        <ele>195.87</ele>
        <time>2019-10-06T07:21:07.000Z</time>
      </trkpt>
      <trkpt lat="43.503" lon="1.48546">
        <ele>194.59</ele>
        <time>2019-10-06T07:21:22.000Z</time>
      </trkpt>
      <trkpt lat="43.50305" lon="1.48528">
        <ele>193.67</ele>
        <time>2019-10-06T07:21:26.000Z</time>
      </trkpt>
      <trkpt lat="43.50309" lon="1.48511">
        <ele>194.31</ele>
        <time>2019-10-06T07:21:30.000Z</time>
      </trkpt>
      <trkpt lat="43.50312" lon="1.48493">
        <ele>195.71</ele>
        <time>2019-10-06T07:21:34.000Z</time>
      </trkpt>
      <trkpt lat="43.50316" lon="1.48477">
        <ele>197.35</ele>
        <time>2019-10-06T07:21:38.000Z</time>
      </trkpt>
      <trkpt lat="43.5032" lon="1.4846">
        <ele>198.58</ele>
        <time>2019-10-06T07:21:42.000Z</time>
      </trkpt>
      <trkpt lat="43.50324" lon="1.48446">
        <ele>199.26</ele>
        <time>2019-10-06T07:21:46.000Z</time>
      </trkpt>
      <trkpt lat="43.50329" lon="1.48428">
        <ele>199.78</ele>
        <time>2019-10-06T07:21:51.000Z</time>
      </trkpt>
      <trkpt lat="43.50333" lon="1.48413">
        <ele>200.03</ele>
        <time>2019-10-06T07:21:54.000Z</time>
      </trkpt>
      <trkpt lat="43.50339" lon="1.48391">
        <ele>200.37</ele>
        <time>2019-10-06T07:21:57.000Z</time>
      </trkpt>
      <trkpt lat="43.50345" lon="1.4837">
        <ele>200.36</ele>
        <time>2019-10-06T07:22:02.000Z</time>
      </trkpt>
      <trkpt lat="43.50349" lon="1.48354">
        <ele>200.08</ele>
        <time>2019-10-06T07:22:05.000Z</time>
      </trkpt>
      <trkpt lat="43.50354" lon="1.48339">
        <ele>200.05</ele>
        <time>2019-10-06T07:22:10.000Z</time>
      </trkpt>
      <trkpt lat="43.50357" lon="1.48326">
        <ele>199.79</ele>
        <time>2019-10-06T07:22:14.000Z</time>
      </trkpt>
      <trkpt lat="43.50363" lon="1.48315">
        <ele>199.62</ele>
        <time>2019-10-06T07:22:17.000Z</time>
      </trkpt>
      <trkpt lat="43.5037" lon="1.48299">
        <ele>199.4</ele>
        <time>2019-10-06T07:22:20.000Z</time>
      </trkpt>
      <trkpt lat="43.50377" lon="1.48284">
        <ele>199.2</ele>
        <time>2019-10-06T07:22:23.000Z</time>
      </trkpt>
      <trkpt lat="43.50386" lon="1.48262">
        <ele>199.32</ele>
        <time>2019-10-06T07:22:26.000Z</time>
      </trkpt>
      <trkpt lat="43.50393" lon="1.48245">
        <ele>199.15</ele>
        <time>2019-10-06T07:22:29.000Z</time>
      </trkpt>
      <trkpt lat="43.50399" lon="1.48233">
        <ele>198.93</ele>
        <time>2019-10-06T07:22:31.000Z</time>
      </trkpt>
      <trkpt lat="43.50405" lon="1.48221">
        <ele>198.74</ele>
        <time>2019-10-06T07:22:33.000Z</time>
      </trkpt>
      <trkpt lat="43.50412" lon="1.48209">
        <ele>198.48</ele>
        <time>2019-10-06T07:22:35.000Z</time>
      </trkpt>
      <trkpt lat="43.5042" lon="1.48195">
        <ele>198.22</ele>
        <time>2019-10-06T07:22:37.000Z</time>
      </trkpt>
      <trkpt lat="43.50427" lon="1.48182">
        <ele>197.9</ele>
        <time>2019-10-06T07:22:39.000Z</time>
      </trkpt>
      <trkpt lat="43.50432" lon="1.48167">
        <ele>197.5</ele>
        <time>2019-10-06T07:22:41.000Z</time>
      </trkpt>
      <trkpt lat="43.50438" lon="1.48146">
        <ele>196.42</ele>
        <time>2019-10-06T07:22:44.000Z</time>
      </trkpt>
      <trkpt lat="43.50446" lon="1.4812">
        <ele>195.39</ele>
        <time>2019-10-06T07:22:47.000Z</time>
      </trkpt>
      <trkpt lat="43.50452" lon="1.48102">
        <ele>195.1</ele>
        <time>2019-10-06T07:22:48.000Z</time>
      </trkpt>
      <trkpt lat="43.50456" lon="1.48075">
        <ele>195.25</ele>
        <time>2019-10-06T07:22:52.000Z</time>
      </trkpt>
      <trkpt lat="43.50462" lon="1.48056">
        <ele>195.29</ele>
        <time>2019-10-06T07:22:54.000Z</time>
      </trkpt>
      <trkpt lat="43.50472" lon="1.48037">
        <ele>195.45</ele>
        <time>2019-10-06T07:22:58.000Z</time>
      </trkpt>
      <trkpt lat="43.50478" lon="1.48025">
        <ele>195.23</ele>
        <time>2019-10-06T07:23:00.000Z</time>
      </trkpt>
      <trkpt lat="43.5049" lon="1.48005">
        <ele>194.99</ele>
        <time>2019-10-06T07:23:03.000Z</time>
      </trkpt>
      <trkpt lat="43.50499" lon="1.47993">
        <ele>194.62</ele>
        <time>2019-10-06T07:23:06.000Z</time>
      </trkpt>
      <trkpt lat="43.50506" lon="1.47982">
        <ele>194.57</ele>
        <time>2019-10-06T07:23:07.000Z</time>
      </trkpt>
      <trkpt lat="43.50514" lon="1.47972">
        <ele>194.39</ele>
        <time>2019-10-06T07:23:10.000Z</time>
      </trkpt>
      <trkpt lat="43.5052" lon="1.47961">
        <ele>194.53</ele>
        <time>2019-10-06T07:23:12.000Z</time>
      </trkpt>
      <trkpt lat="43.50528" lon="1.47952">
        <ele>194.33</ele>
        <time>2019-10-06T07:23:13.000Z</time>
      </trkpt>
      <trkpt lat="43.50536" lon="1.47942">
        <ele>194.15</ele>
        <time>2019-10-06T07:23:15.000Z</time>
      </trkpt>
      <trkpt lat="43.50543" lon="1.47934">
        <ele>193.86</ele>
        <time>2019-10-06T07:23:17.000Z</time>
      </trkpt>
      <trkpt lat="43.50554" lon="1.4792">
        <ele>193.49</ele>
        <time>2019-10-06T07:23:20.000Z</time>
      </trkpt>
      <trkpt lat="43.50562" lon="1.4791">
        <ele>193.01</ele>
        <time>2019-10-06T07:23:22.000Z</time>
      </trkpt>
      <trkpt lat="43.5057" lon="1.479">
        <ele>192.81</ele>
        <time>2019-10-06T07:23:25.000Z</time>
      </trkpt>
      <trkpt lat="43.50579" lon="1.4789">
        <ele>192.71</ele>
        <time>2019-10-06T07:23:26.000Z</time>
      </trkpt>
      <trkpt lat="43.50586" lon="1.47881">
        <ele>192.11</ele>
        <time>2019-10-06T07:23:28.000Z</time>
      </trkpt>
      <trkpt lat="43.50594" lon="1.47872">
        <ele>191.98</ele>
        <time>2019-10-06T07:23:30.000Z</time>
      </trkpt>
      <trkpt lat="43.50608" lon="1.47858">
        <ele>192.03</ele>
        <time>2019-10-06T07:23:34.000Z</time>
      </trkpt>
      <trkpt lat="43.50618" lon="1.47849">
        <ele>192.12</ele>
        <time>2019-10-06T07:23:35.000Z</time>
      </trkpt>
      <trkpt lat="43.5063" lon="1.47841">
        <ele>192.42</ele>
        <time>2019-10-06T07:23:37.000Z</time>
      </trkpt>
      <trkpt lat="43.50644" lon="1.47828">
        <ele>192.86</ele>
        <time>2019-10-06T07:23:40.000Z</time>
      </trkpt>
      <trkpt lat="43.50657" lon="1.47814">
        <ele>193.38</ele>
        <time>2019-10-06T07:23:43.000Z</time>
      </trkpt>
      <trkpt lat="43.5067" lon="1.47801">
        <ele>193.65</ele>
        <time>2019-10-06T07:23:46.000Z</time>
      </trkpt>
      <trkpt lat="43.50679" lon="1.47792">
        <ele>193.91</ele>
        <time>2019-10-06T07:23:49.000Z</time>
      </trkpt>
      <trkpt lat="43.50687" lon="1.47783">
        <ele>194.02</ele>
        <time>2019-10-06T07:23:50.000Z</time>
      </trkpt>
      <trkpt lat="43.50696" lon="1.47773">
        <ele>194.2</ele>
        <time>2019-10-06T07:23:52.000Z</time>
      </trkpt>
      <trkpt lat="43.50705" lon="1.47764">
        <ele>194.24</ele>
        <time>2019-10-06T07:23:54.000Z</time>
      </trkpt>
      <trkpt lat="43.50718" lon="1.47752">
        <ele>194.61</ele>
        <time>2019-10-06T07:23:57.000Z</time>
      </trkpt>
      <trkpt lat="43.50728" lon="1.47744">
        <ele>194.75</ele>
        <time>2019-10-06T07:23:59.000Z</time>
      </trkpt>
      <trkpt lat="43.50741" lon="1.47732">
        <ele>194.81</ele>
        <time>2019-10-06T07:24:03.000Z</time>
      </trkpt>
      <trkpt lat="43.50749" lon="1.47723">
        <ele>194.95</ele>
        <time>2019-10-06T07:24:04.000Z</time>
      </trkpt>
      <trkpt lat="43.50757" lon="1.47713">
        <ele>195.21</ele>
        <time>2019-10-06T07:24:06.000Z</time>
      </trkpt>
      <trkpt lat="43.50764" lon="1.47703">
        <ele>195.53</ele>
        <time>2019-10-06T07:24:08.000Z</time>
      </trkpt>
      <trkpt lat="43.50774" lon="1.4769">
        <ele>195.85</ele>
        <time>2019-10-06T07:24:11.000Z</time>
      </trkpt>
      <trkpt lat="43.50782" lon="1.47682">
        <ele>196.24</ele>
        <time>2019-10-06T07:24:13.000Z</time>
      </trkpt>
      <trkpt lat="43.50794" lon="1.47668">
        <ele>196.69</ele>
        <time>2019-10-06T07:24:16.000Z</time>
      </trkpt>
      <trkpt lat="43.50801" lon="1.47658">
        <ele>196.88</ele>
        <time>2019-10-06T07:24:18.000Z</time>
      </trkpt>
      <trkpt lat="43.50809" lon="1.47649">
        <ele>197.09</ele>
        <time>2019-10-06T07:24:20.000Z</time>
      </trkpt>
      <trkpt lat="43.50816" lon="1.4764">
        <ele>197.42</ele>
        <time>2019-10-06T07:24:22.000Z</time>
      </trkpt>
      <trkpt lat="43.50824" lon="1.47631">
        <ele>197.73</ele>
        <time>2019-10-06T07:24:24.000Z</time>
      </trkpt>
      <trkpt lat="43.50835" lon="1.47617">
        <ele>197.89</ele>
        <time>2019-10-06T07:24:27.000Z</time>
      </trkpt>
      <trkpt lat="43.50845" lon="1.47602">
        <ele>197.7</ele>
        <time>2019-10-06T07:24:30.000Z</time>
      </trkpt>
      <trkpt lat="43.50852" lon="1.47591">
        <ele>197.53</ele>
        <time>2019-10-06T07:24:32.000Z</time>
      </trkpt>
      <trkpt lat="43.50859" lon="1.4758">
        <ele>197.54</ele>
        <time>2019-10-06T07:24:34.000Z</time>
      </trkpt>
      <trkpt lat="43.50866" lon="1.47568">
        <ele>197.51</ele>
        <time>2019-10-06T07:24:36.000Z</time>
      </trkpt>
      <trkpt lat="43.50876" lon="1.47549">
        <ele>197.42</ele>
        <time>2019-10-06T07:24:39.000Z</time>
      </trkpt>
      <trkpt lat="43.50882" lon="1.47537">
        <ele>197.22</ele>
        <time>2019-10-06T07:24:41.000Z</time>
      </trkpt>
      <trkpt lat="43.50889" lon="1.47523">
        <ele>197.02</ele>
        <time>2019-10-06T07:24:43.000Z</time>
      </trkpt>
      <trkpt lat="43.50896" lon="1.4751">
        <ele>196.73</ele>
        <time>2019-10-06T07:24:45.000Z</time>
      </trkpt>
      <trkpt lat="43.50907" lon="1.47491">
        <ele>196.61</ele>
        <time>2019-10-06T07:24:48.000Z</time>
      </trkpt>
      <trkpt lat="43.50915" lon="1.47479">
        <ele>196.22</ele>
        <time>2019-10-06T07:24:50.000Z</time>
      </trkpt>
      <trkpt lat="43.50929" lon="1.47458">
        <ele>195.37</ele>
        <time>2019-10-06T07:24:53.000Z</time>
      </trkpt>
      <trkpt lat="43.50945" lon="1.47437">
        <ele>194.57</ele>
        <time>2019-10-06T07:24:56.000Z</time>
      </trkpt>
      <trkpt lat="43.50956" lon="1.47423">
        <ele>194.02</ele>
        <time>2019-10-06T07:24:58.000Z</time>
      </trkpt>
      <trkpt lat="43.50973" lon="1.47405">
        <ele>193.71</ele>
        <time>2019-10-06T07:25:01.000Z</time>
      </trkpt>
      <trkpt lat="43.50983" lon="1.47393">
        <ele>193.36</ele>
        <time>2019-10-06T07:25:03.000Z</time>
      </trkpt>
      <trkpt lat="43.50992" lon="1.4738">
        <ele>193.36</ele>
        <time>2019-10-06T07:25:05.000Z</time>
      </trkpt>
      <trkpt lat="43.51" lon="1.47368">
        <ele>193.63</ele>
        <time>2019-10-06T07:25:07.000Z</time>
      </trkpt>
      <trkpt lat="43.51007" lon="1.47356">
        <ele>193.75</ele>
        <time>2019-10-06T07:25:09.000Z</time>
      </trkpt>
      <trkpt lat="43.51014" lon="1.47343">
        <ele>194.28</ele>
        <time>2019-10-06T07:25:11.000Z</time>
      </trkpt>
      <trkpt lat="43.51022" lon="1.47331">
        <ele>194.11</ele>
        <time>2019-10-06T07:25:13.000Z</time>
      </trkpt>
      <trkpt lat="43.5103" lon="1.47319">
        <ele>194.3</ele>
        <time>2019-10-06T07:25:15.000Z</time>
      </trkpt>
      <trkpt lat="43.51038" lon="1.47307">
        <ele>194.37</ele>
        <time>2019-10-06T07:25:17.000Z</time>
      </trkpt>
      <trkpt lat="43.5105" lon="1.47288">
        <ele>194.18</ele>
        <time>2019-10-06T07:25:20.000Z</time>
      </trkpt>
      <trkpt lat="43.51058" lon="1.47276">
        <ele>194.03</ele>
        <time>2019-10-06T07:25:22.000Z</time>
      </trkpt>
      <trkpt lat="43.51065" lon="1.47265">
        <ele>194.08</ele>
        <time>2019-10-06T07:25:24.000Z</time>
      </trkpt>
      <trkpt lat="43.51072" lon="1.47253">
        <ele>194.26</ele>
        <time>2019-10-06T07:25:26.000Z</time>
      </trkpt>
      <trkpt lat="43.51079" lon="1.47241">
        <ele>194.57</ele>
        <time>2019-10-06T07:25:28.000Z</time>
      </trkpt>
      <trkpt lat="43.5109" lon="1.4722">
        <ele>194.86</ele>
        <time>2019-10-06T07:25:31.000Z</time>
      </trkpt>
      <trkpt lat="43.51101" lon="1.472">
        <ele>194.68</ele>
        <time>2019-10-06T07:25:34.000Z</time>
      </trkpt>
      <trkpt lat="43.51108" lon="1.47187">
        <ele>194.56</ele>
        <time>2019-10-06T07:25:36.000Z</time>
      </trkpt>
      <trkpt lat="43.51115" lon="1.47173">
        <ele>194.49</ele>
        <time>2019-10-06T07:25:38.000Z</time>
      </trkpt>
      <trkpt lat="43.51125" lon="1.47153">
        <ele>194.49</ele>
        <time>2019-10-06T07:25:41.000Z</time>
      </trkpt>
      <trkpt lat="43.51132" lon="1.47139">
        <ele>194.48</ele>
        <time>2019-10-06T07:25:43.000Z</time>
      </trkpt>
      <trkpt lat="43.51139" lon="1.47125">
        <ele>194.88</ele>
        <time>2019-10-06T07:25:45.000Z</time>
      </trkpt>
      <trkpt lat="43.51146" lon="1.47112">
        <ele>194.88</ele>
        <time>2019-10-06T07:25:47.000Z</time>
      </trkpt>
      <trkpt lat="43.51152" lon="1.47098">
        <ele>195.53</ele>
        <time>2019-10-06T07:25:49.000Z</time>
      </trkpt>
      <trkpt lat="43.51162" lon="1.47079">
        <ele>195.95</ele>
        <time>2019-10-06T07:25:52.000Z</time>
      </trkpt>
      <trkpt lat="43.51168" lon="1.47066">
        <ele>196.24</ele>
        <time>2019-10-06T07:25:54.000Z</time>
      </trkpt>
      <trkpt lat="43.51175" lon="1.47054">
        <ele>196.01</ele>
        <time>2019-10-06T07:25:56.000Z</time>
      </trkpt>
      <trkpt lat="43.51186" lon="1.47067">
        <ele>196.15</ele>
        <time>2019-10-06T07:26:00.000Z</time>
      </trkpt>
      <trkpt lat="43.51188" lon="1.47079">
        <ele>196.46</ele>
        <time>2019-10-06T07:26:02.000Z</time>
      </trkpt>
      <trkpt lat="43.51191" lon="1.47091">
        <ele>197.05</ele>
        <time>2019-10-06T07:26:05.000Z</time>
      </trkpt>
      <trkpt lat="43.51194" lon="1.47106">
        <ele>196.77</ele>
        <time>2019-10-06T07:26:08.000Z</time>
      </trkpt>
      <trkpt lat="43.51197" lon="1.4712">
        <ele>196.59</ele>
        <time>2019-10-06T07:26:10.000Z</time>
      </trkpt>
      <trkpt lat="43.51204" lon="1.47137">
        <ele>195.93</ele>
        <time>2019-10-06T07:26:12.000Z</time>
      </trkpt>
      <trkpt lat="43.51211" lon="1.47157">
        <ele>193.61</ele>
        <time>2019-10-06T07:26:14.000Z</time>
      </trkpt>
      <trkpt lat="43.51227" lon="1.47189">
        <ele>191.06</ele>
        <time>2019-10-06T07:26:17.000Z</time>
      </trkpt>
      <trkpt lat="43.51234" lon="1.47202">
        <ele>189.41</ele>
        <time>2019-10-06T07:26:18.000Z</time>
      </trkpt>
      <trkpt lat="43.5124" lon="1.47214">
        <ele>189.41</ele>
        <time>2019-10-06T07:26:19.000Z</time>
      </trkpt>
      <trkpt lat="43.51255" lon="1.47235">
        <ele>186.63</ele>
        <time>2019-10-06T07:26:21.000Z</time>
      </trkpt>
      <trkpt lat="43.5127" lon="1.47257">
        <ele>183.36</ele>
        <time>2019-10-06T07:26:23.000Z</time>
      </trkpt>
      <trkpt lat="43.51278" lon="1.47268">
        <ele>181.51</ele>
        <time>2019-10-06T07:26:24.000Z</time>
      </trkpt>
      <trkpt lat="43.51286" lon="1.47277">
        <ele>179.46</ele>
        <time>2019-10-06T07:26:25.000Z</time>
      </trkpt>
      <trkpt lat="43.51294" lon="1.47287">
        <ele>179.46</ele>
        <time>2019-10-06T07:26:26.000Z</time>
      </trkpt>
      <trkpt lat="43.51305" lon="1.47311">
        <ele>179.46</ele>
        <time>2019-10-06T07:26:28.000Z</time>
      </trkpt>
      <trkpt lat="43.51315" lon="1.47332">
        <ele>178.35</ele>
        <time>2019-10-06T07:26:30.000Z</time>
      </trkpt>
      <trkpt lat="43.51333" lon="1.47359">
        <ele>176.89</ele>
        <time>2019-10-06T07:26:33.000Z</time>
      </trkpt>
      <trkpt lat="43.51345" lon="1.47376">
        <ele>176.85</ele>
        <time>2019-10-06T07:26:35.000Z</time>
      </trkpt>
      <trkpt lat="43.51355" lon="1.4739">
        <ele>177.84</ele>
        <time>2019-10-06T07:26:37.000Z</time>
      </trkpt>
      <trkpt lat="43.51366" lon="1.47406">
        <ele>177.84</ele>
        <time>2019-10-06T07:26:40.000Z</time>
      </trkpt>
      <trkpt lat="43.51375" lon="1.47419">
        <ele>179.43</ele>
        <time>2019-10-06T07:26:43.000Z</time>
      </trkpt>
      <trkpt lat="43.51386" lon="1.47433">
        <ele>181.21</ele>
        <time>2019-10-06T07:26:47.000Z</time>
      </trkpt>
      <trkpt lat="43.51398" lon="1.47421">
        <ele>181.77</ele>
        <time>2019-10-06T07:26:51.000Z</time>
      </trkpt>
      <trkpt lat="43.51406" lon="1.47401">
        <ele>180.93</ele>
        <time>2019-10-06T07:26:54.000Z</time>
      </trkpt>
      <trkpt lat="43.51411" lon="1.47386">
        <ele>180.22</ele>
        <time>2019-10-06T07:26:56.000Z</time>
      </trkpt>
      <trkpt lat="43.51417" lon="1.47371">
        <ele>179.47</ele>
        <time>2019-10-06T07:26:58.000Z</time>
      </trkpt>
      <trkpt lat="43.51423" lon="1.47357">
        <ele>178.78</ele>
        <time>2019-10-06T07:27:00.000Z</time>
      </trkpt>
      <trkpt lat="43.51428" lon="1.47342">
        <ele>178.22</ele>
        <time>2019-10-06T07:27:02.000Z</time>
      </trkpt>
      <trkpt lat="43.51434" lon="1.47327">
        <ele>177.63</ele>
        <time>2019-10-06T07:27:04.000Z</time>
      </trkpt>
      <trkpt lat="43.51443" lon="1.47308">
        <ele>176.91</ele>
        <time>2019-10-06T07:27:07.000Z</time>
      </trkpt>
      <trkpt lat="43.51449" lon="1.47296">
        <ele>176.3</ele>
        <time>2019-10-06T07:27:09.000Z</time>
      </trkpt>
      <trkpt lat="43.51437" lon="1.47285">
        <ele>175.37</ele>
        <time>2019-10-06T07:27:13.000Z</time>
      </trkpt>
      <trkpt lat="43.51425" lon="1.47276">
        <ele>174.31</ele>
        <time>2019-10-06T07:27:15.000Z</time>
      </trkpt>
      <trkpt lat="43.51407" lon="1.47261">
        <ele>173.37</ele>
        <time>2019-10-06T07:27:18.000Z</time>
      </trkpt>
      <trkpt lat="43.51397" lon="1.47251">
        <ele>172.88</ele>
        <time>2019-10-06T07:27:20.000Z</time>
      </trkpt>
      <trkpt lat="43.51386" lon="1.47234">
        <ele>173.05</ele>
        <time>2019-10-06T07:27:23.000Z</time>
      </trkpt>
      <trkpt lat="43.51387" lon="1.47221">
        <ele>172.9</ele>
        <time>2019-10-06T07:27:28.000Z</time>
      </trkpt>
      <trkpt lat="43.51395" lon="1.47206">
        <ele>170.2</ele>
        <time>2019-10-06T07:27:37.000Z</time>
      </trkpt>
      <trkpt lat="43.51402" lon="1.47197">
        <ele>169.12</ele>
        <time>2019-10-06T07:27:40.000Z</time>
      </trkpt>
      <trkpt lat="43.51417" lon="1.47173">
        <ele>168.16</ele>
        <time>2019-10-06T07:27:43.000Z</time>
      </trkpt>
      <trkpt lat="43.51432" lon="1.4715">
        <ele>168.03</ele>
        <time>2019-10-06T07:27:45.000Z</time>
      </trkpt>
      <trkpt lat="43.51449" lon="1.47127">
        <ele>167.04</ele>
        <time>2019-10-06T07:27:48.000Z</time>
      </trkpt>
      <trkpt lat="43.51457" lon="1.47118">
        <ele>166.44</ele>
        <time>2019-10-06T07:27:50.000Z</time>
      </trkpt>
      <trkpt lat="43.51465" lon="1.47103">
        <ele>165.03</ele>
        <time>2019-10-06T07:27:53.000Z</time>
      </trkpt>
      <trkpt lat="43.51474" lon="1.47091">
        <ele>165.03</ele>
        <time>2019-10-06T07:27:55.000Z</time>
      </trkpt>
      <trkpt lat="43.51487" lon="1.47076">
        <ele>164.29</ele>
        <time>2019-10-06T07:27:58.000Z</time>
      </trkpt>
      <trkpt lat="43.51499" lon="1.47066">
        <ele>160.82</ele>
        <time>2019-10-06T07:28:02.000Z</time>
      </trkpt>
      <trkpt lat="43.51506" lon="1.47074">
        <ele>156.74</ele>
        <time>2019-10-06T07:28:13.000Z</time>
      </trkpt>
      <trkpt lat="43.5152" lon="1.47079">
        <ele>156.62</ele>
        <time>2019-10-06T07:28:18.000Z</time>
      </trkpt>
      <trkpt lat="43.51531" lon="1.47079">
        <ele>157.1</ele>
        <time>2019-10-06T07:28:21.000Z</time>
      </trkpt>
      <trkpt lat="43.51541" lon="1.47069">
        <ele>157.96</ele>
        <time>2019-10-06T07:28:24.000Z</time>
      </trkpt>
      <trkpt lat="43.51551" lon="1.47058">
        <ele>159.34</ele>
        <time>2019-10-06T07:28:28.000Z</time>
      </trkpt>
      <trkpt lat="43.51561" lon="1.47048">
        <ele>159.56</ele>
        <time>2019-10-06T07:28:30.000Z</time>
      </trkpt>
      <trkpt lat="43.51571" lon="1.47045">
        <ele>159.62</ele>
        <time>2019-10-06T07:28:32.000Z</time>
      </trkpt>
      <trkpt lat="43.51576" lon="1.47059">
        <ele>157.49</ele>
        <time>2019-10-06T07:28:37.000Z</time>
      </trkpt>
      <trkpt lat="43.51579" lon="1.47074">
        <ele>154.35</ele>
        <time>2019-10-06T07:28:40.000Z</time>
      </trkpt>
      <trkpt lat="43.51584" lon="1.47085">
        <ele>151.92</ele>
        <time>2019-10-06T07:28:43.000Z</time>
      </trkpt>
      <trkpt lat="43.51593" lon="1.47081">
        <ele>148.97</ele>
        <time>2019-10-06T07:28:53.000Z</time>
      </trkpt>
      <trkpt lat="43.516" lon="1.47068">
        <ele>147.33</ele>
        <time>2019-10-06T07:28:57.000Z</time>
      </trkpt>
      <trkpt lat="43.51609" lon="1.47047">
        <ele>146.44</ele>
        <time>2019-10-06T07:28:59.000Z</time>
      </trkpt>
      <trkpt lat="43.51617" lon="1.47031">
        <ele>144.6</ele>
        <time>2019-10-06T07:29:02.000Z</time>
      </trkpt>
      <trkpt lat="43.51625" lon="1.47021">
        <ele>144.26</ele>
        <time>2019-10-06T07:29:04.000Z</time>
      </trkpt>
      <trkpt lat="43.51635" lon="1.47014">
        <ele>142.84</ele>
        <time>2019-10-06T07:29:07.000Z</time>
      </trkpt>
      <trkpt lat="43.51642" lon="1.47003">
        <ele>142.38</ele>
        <time>2019-10-06T07:29:09.000Z</time>
      </trkpt>
      <trkpt lat="43.51666" lon="1.46981">
        <ele>142.38</ele>
        <time>2019-10-06T07:29:10.000Z</time>
      </trkpt>
      <trkpt lat="43.51685" lon="1.46959">
        <ele>142.12</ele>
        <time>2019-10-06T07:29:12.000Z</time>
      </trkpt>
      <trkpt lat="43.51692" lon="1.46952">
        <ele>141.59</ele>
        <time>2019-10-06T07:29:13.000Z</time>
      </trkpt>
      <trkpt lat="43.51707" lon="1.46939">
        <ele>140.78</ele>
        <time>2019-10-06T07:29:15.000Z</time>
      </trkpt>
      <trkpt lat="43.51725" lon="1.46924">
        <ele>139.74</ele>
        <time>2019-10-06T07:29:18.000Z</time>
      </trkpt>
      <trkpt lat="43.51739" lon="1.46918">
        <ele>139.74</ele>
        <time>2019-10-06T07:29:20.000Z</time>
      </trkpt>
      <trkpt lat="43.51751" lon="1.46916">
        <ele>139.23</ele>
        <time>2019-10-06T07:29:23.000Z</time>
      </trkpt>
      <trkpt lat="43.51765" lon="1.46913">
        <ele>139.23</ele>
        <time>2019-10-06T07:29:26.000Z</time>
      </trkpt>
      <trkpt lat="43.51777" lon="1.46912">
        <ele>138.55</ele>
        <time>2019-10-06T07:29:30.000Z</time>
      </trkpt>
      <trkpt lat="43.51785" lon="1.46905">
        <ele>138.55</ele>
        <time>2019-10-06T07:29:32.000Z</time>
      </trkpt>
      <trkpt lat="43.51794" lon="1.46903">
        <ele>138.73</ele>
        <time>2019-10-06T07:29:35.000Z</time>
      </trkpt>
      <trkpt lat="43.51805" lon="1.46896">
        <ele>139.63</ele>
        <time>2019-10-06T07:29:40.000Z</time>
      </trkpt>
      <trkpt lat="43.51815" lon="1.46884">
        <ele>138.02</ele>
        <time>2019-10-06T07:29:44.000Z</time>
      </trkpt>
      <trkpt lat="43.51824" lon="1.46878">
        <ele>138.02</ele>
        <time>2019-10-06T07:29:47.000Z</time>
      </trkpt>
      <trkpt lat="43.51832" lon="1.46867">
        <ele>137.26</ele>
        <time>2019-10-06T07:29:49.000Z</time>
      </trkpt>
      <trkpt lat="43.51844" lon="1.46856">
        <ele>136.02</ele>
        <time>2019-10-06T07:29:52.000Z</time>
      </trkpt>
      <trkpt lat="43.51853" lon="1.46845">
        <ele>135.71</ele>
        <time>2019-10-06T07:29:54.000Z</time>
      </trkpt>
      <trkpt lat="43.51866" lon="1.46827">
        <ele>135.18</ele>
        <time>2019-10-06T07:29:56.000Z</time>
      </trkpt>
      <trkpt lat="43.51883" lon="1.46822">
        <ele>134.6</ele>
        <time>2019-10-06T07:29:59.000Z</time>
      </trkpt>
      <trkpt lat="43.51893" lon="1.46815">
        <ele>134.77</ele>
        <time>2019-10-06T07:30:02.000Z</time>
      </trkpt>
      <trkpt lat="43.51902" lon="1.46809">
        <ele>135.54</ele>
        <time>2019-10-06T07:30:05.000Z</time>
      </trkpt>
      <trkpt lat="43.51913" lon="1.46803">
        <ele>135.67</ele>
        <time>2019-10-06T07:30:07.000Z</time>
      </trkpt>
      <trkpt lat="43.5192" lon="1.46796">
        <ele>135.8</ele>
        <time>2019-10-06T07:30:09.000Z</time>
      </trkpt>
      <trkpt lat="43.51936" lon="1.46784">
        <ele>134.65</ele>
        <time>2019-10-06T07:30:11.000Z</time>
      </trkpt>
      <trkpt lat="43.51946" lon="1.46775">
        <ele>133.56</ele>
        <time>2019-10-06T07:30:13.000Z</time>
      </trkpt>
      <trkpt lat="43.51954" lon="1.4677">
        <ele>133.38</ele>
        <time>2019-10-06T07:30:15.000Z</time>
      </trkpt>
      <trkpt lat="43.51963" lon="1.46766">
        <ele>134.02</ele>
        <time>2019-10-06T07:30:20.000Z</time>
      </trkpt>
      <trkpt lat="43.51973" lon="1.46763">
        <ele>133.03</ele>
        <time>2019-10-06T07:31:02.000Z</time>
      </trkpt>
      <trkpt lat="43.51983" lon="1.46763">
        <ele>132.83</ele>
        <time>2019-10-06T07:31:07.000Z</time>
      </trkpt>
      <trkpt lat="43.51995" lon="1.46758">
        <ele>133.3</ele>
        <time>2019-10-06T07:31:12.000Z</time>
      </trkpt>
      <trkpt lat="43.52003" lon="1.4675">
        <ele>131.5</ele>
        <time>2019-10-06T07:31:18.000Z</time>
      </trkpt>
      <trkpt lat="43.52017" lon="1.46736">
        <ele>130.47</ele>
        <time>2019-10-06T07:31:25.000Z</time>
      </trkpt>
      <trkpt lat="43.52025" lon="1.46726">
        <ele>129.99</ele>
        <time>2019-10-06T07:31:26.000Z</time>
      </trkpt>
      <trkpt lat="43.52034" lon="1.46717">
        <ele>129.9</ele>
        <time>2019-10-06T07:31:27.000Z</time>
      </trkpt>
      <trkpt lat="43.52047" lon="1.46704">
        <ele>129.64</ele>
        <time>2019-10-06T07:31:29.000Z</time>
      </trkpt>
      <trkpt lat="43.52055" lon="1.46701">
        <ele>129.72</ele>
        <time>2019-10-06T07:31:32.000Z</time>
      </trkpt>
      <trkpt lat="43.52068" lon="1.46696">
        <ele>129.54</ele>
        <time>2019-10-06T07:31:36.000Z</time>
      </trkpt>
      <trkpt lat="43.52078" lon="1.46693">
        <ele>129.54</ele>
        <time>2019-10-06T07:31:38.000Z</time>
      </trkpt>
      <trkpt lat="43.52088" lon="1.46686">
        <ele>129.22</ele>
        <time>2019-10-06T07:31:39.000Z</time>
      </trkpt>
      <trkpt lat="43.52103" lon="1.46675">
        <ele>129.15</ele>
        <time>2019-10-06T07:31:41.000Z</time>
      </trkpt>
      <trkpt lat="43.52116" lon="1.46664">
        <ele>128.4</ele>
        <time>2019-10-06T07:31:44.000Z</time>
      </trkpt>
      <trkpt lat="43.52123" lon="1.46655">
        <ele>129</ele>
        <time>2019-10-06T07:31:47.000Z</time>
      </trkpt>
      <trkpt lat="43.52131" lon="1.4665">
        <ele>129.36</ele>
        <time>2019-10-06T07:31:50.000Z</time>
      </trkpt>
      <trkpt lat="43.52141" lon="1.46647">
        <ele>128.7</ele>
        <time>2019-10-06T07:31:55.000Z</time>
      </trkpt>
      <trkpt lat="43.52164" lon="1.46642">
        <ele>125.86</ele>
        <time>2019-10-06T07:32:00.000Z</time>
      </trkpt>
      <trkpt lat="43.52195" lon="1.46623">
        <ele>125.35</ele>
        <time>2019-10-06T07:32:01.000Z</time>
      </trkpt>
      <trkpt lat="43.52204" lon="1.46616">
        <ele>124.88</ele>
        <time>2019-10-06T07:32:02.000Z</time>
      </trkpt>
      <trkpt lat="43.52217" lon="1.4661">
        <ele>124.66</ele>
        <time>2019-10-06T07:32:04.000Z</time>
      </trkpt>
      <trkpt lat="43.52225" lon="1.46603">
        <ele>124.8</ele>
        <time>2019-10-06T07:32:06.000Z</time>
      </trkpt>
      <trkpt lat="43.52243" lon="1.46585">
        <ele>124.25</ele>
        <time>2019-10-06T07:32:10.000Z</time>
      </trkpt>
      <trkpt lat="43.52252" lon="1.46573">
        <ele>123.54</ele>
        <time>2019-10-06T07:32:12.000Z</time>
      </trkpt>
      <trkpt lat="43.52265" lon="1.46573">
        <ele>123.47</ele>
        <time>2019-10-06T07:32:14.000Z</time>
      </trkpt>
      <trkpt lat="43.52274" lon="1.46568">
        <ele>122.79</ele>
        <time>2019-10-06T07:32:18.000Z</time>
      </trkpt>
      <trkpt lat="43.52282" lon="1.46559">
        <ele>123.1</ele>
        <time>2019-10-06T07:32:22.000Z</time>
      </trkpt>
      <trkpt lat="43.52295" lon="1.46553">
        <ele>123.52</ele>
        <time>2019-10-06T07:32:24.000Z</time>
      </trkpt>
      <trkpt lat="43.52305" lon="1.46548">
        <ele>123.01</ele>
        <time>2019-10-06T07:32:27.000Z</time>
      </trkpt>
      <trkpt lat="43.5233" lon="1.46531">
        <ele>121.09</ele>
        <time>2019-10-06T07:32:30.000Z</time>
      </trkpt>
      <trkpt lat="43.52343" lon="1.46518">
        <ele>121.09</ele>
        <time>2019-10-06T07:32:32.000Z</time>
      </trkpt>
      <trkpt lat="43.52358" lon="1.46518">
        <ele>120.45</ele>
        <time>2019-10-06T07:32:36.000Z</time>
      </trkpt>
      <trkpt lat="43.52374" lon="1.46509">
        <ele>119.75</ele>
        <time>2019-10-06T07:32:39.000Z</time>
      </trkpt>
      <trkpt lat="43.52383" lon="1.46503">
        <ele>119.75</ele>
        <time>2019-10-06T07:32:41.000Z</time>
      </trkpt>
      <trkpt lat="43.52395" lon="1.46501">
        <ele>119.21</ele>
        <time>2019-10-06T07:32:44.000Z</time>
      </trkpt>
      <trkpt lat="43.52409" lon="1.46501">
        <ele>119.1</ele>
        <time>2019-10-06T07:32:47.000Z</time>
      </trkpt>
      <trkpt lat="43.52422" lon="1.46502">
        <ele>119.79</ele>
        <time>2019-10-06T07:32:48.000Z</time>
      </trkpt>
      <trkpt lat="43.52432" lon="1.465">
        <ele>120.45</ele>
        <time>2019-10-06T07:32:50.000Z</time>
      </trkpt>
      <trkpt lat="43.52445" lon="1.46496">
        <ele>121.16</ele>
        <time>2019-10-06T07:32:52.000Z</time>
      </trkpt>
      <trkpt lat="43.52453" lon="1.46489">
        <ele>120.99</ele>
        <time>2019-10-06T07:32:55.000Z</time>
      </trkpt>
      <trkpt lat="43.52458" lon="1.46477">
        <ele>120.12</ele>
        <time>2019-10-06T07:32:58.000Z</time>
      </trkpt>
      <trkpt lat="43.52465" lon="1.46468">
        <ele>119.52</ele>
        <time>2019-10-06T07:33:00.000Z</time>
      </trkpt>
      <trkpt lat="43.52475" lon="1.46456">
        <ele>118.83</ele>
        <time>2019-10-06T07:33:03.000Z</time>
      </trkpt>
      <trkpt lat="43.52488" lon="1.4645">
        <ele>117.71</ele>
        <time>2019-10-06T07:33:06.000Z</time>
      </trkpt>
      <trkpt lat="43.52499" lon="1.46452">
        <ele>117.27</ele>
        <time>2019-10-06T07:33:09.000Z</time>
      </trkpt>
      <trkpt lat="43.52511" lon="1.46458">
        <ele>117.27</ele>
        <time>2019-10-06T07:33:12.000Z</time>
      </trkpt>
      <trkpt lat="43.52523" lon="1.46459">
        <ele>116.99</ele>
        <time>2019-10-06T07:33:17.000Z</time>
      </trkpt>
      <trkpt lat="43.52544" lon="1.46457">
        <ele>115.48</ele>
        <time>2019-10-06T07:33:21.000Z</time>
      </trkpt>
      <trkpt lat="43.52555" lon="1.46454">
        <ele>115.48</ele>
        <time>2019-10-06T07:33:22.000Z</time>
      </trkpt>
      <trkpt lat="43.5257" lon="1.4645">
        <ele>114.54</ele>
        <time>2019-10-06T07:33:24.000Z</time>
      </trkpt>
      <trkpt lat="43.52589" lon="1.4645">
        <ele>114.04</ele>
        <time>2019-10-06T07:33:27.000Z</time>
      </trkpt>
      <trkpt lat="43.526" lon="1.46456">
        <ele>113.5</ele>
        <time>2019-10-06T07:33:30.000Z</time>
      </trkpt>
      <trkpt lat="43.5261" lon="1.46456">
        <ele>113.26</ele>
        <time>2019-10-06T07:33:34.000Z</time>
      </trkpt>
      <trkpt lat="43.52622" lon="1.46457">
        <ele>111.06</ele>
        <time>2019-10-06T07:33:39.000Z</time>
      </trkpt>
      <trkpt lat="43.52651" lon="1.46471">
        <ele>110.99</ele>
        <time>2019-10-06T07:33:40.000Z</time>
      </trkpt>
      <trkpt lat="43.52658" lon="1.46482">
        <ele>111.29</ele>
        <time>2019-10-06T07:33:42.000Z</time>
      </trkpt>
      <trkpt lat="43.52666" lon="1.46491">
        <ele>111.46</ele>
        <time>2019-10-06T07:33:46.000Z</time>
      </trkpt>
      <trkpt lat="43.52669" lon="1.46507">
        <ele>111.38</ele>
        <time>2019-10-06T07:33:49.000Z</time>
      </trkpt>
      <trkpt lat="43.52673" lon="1.46521">
        <ele>110.53</ele>
        <time>2019-10-06T07:33:53.000Z</time>
      </trkpt>
      <trkpt lat="43.52683" lon="1.46527">
        <ele>110.25</ele>
        <time>2019-10-06T07:33:56.000Z</time>
      </trkpt>
      <trkpt lat="43.52692" lon="1.46533">
        <ele>110.43</ele>
        <time>2019-10-06T07:34:00.000Z</time>
      </trkpt>
      <trkpt lat="43.52703" lon="1.46533">
        <ele>111.76</ele>
        <time>2019-10-06T07:34:04.000Z</time>
      </trkpt>
      <trkpt lat="43.52722" lon="1.46521">
        <ele>111.69</ele>
        <time>2019-10-06T07:34:07.000Z</time>
      </trkpt>
      <trkpt lat="43.52732" lon="1.46513">
        <ele>110.85</ele>
        <time>2019-10-06T07:34:11.000Z</time>
      </trkpt>
      <trkpt lat="43.52752" lon="1.46517">
        <ele>109.96</ele>
        <time>2019-10-06T07:34:15.000Z</time>
      </trkpt>
      <trkpt lat="43.52762" lon="1.46521">
        <ele>109.71</ele>
        <time>2019-10-06T07:34:16.000Z</time>
      </trkpt>
      <trkpt lat="43.52775" lon="1.4652">
        <ele>109.5</ele>
        <time>2019-10-06T07:34:18.000Z</time>
      </trkpt>
      <trkpt lat="43.5279" lon="1.46517">
        <ele>109.49</ele>
        <time>2019-10-06T07:34:21.000Z</time>
      </trkpt>
      <trkpt lat="43.52798" lon="1.46509">
        <ele>109.48</ele>
        <time>2019-10-06T07:34:24.000Z</time>
      </trkpt>
      <trkpt lat="43.5281" lon="1.465">
        <ele>109.83</ele>
        <time>2019-10-06T07:34:28.000Z</time>
      </trkpt>
      <trkpt lat="43.52821" lon="1.46495">
        <ele>110.53</ele>
        <time>2019-10-06T07:34:31.000Z</time>
      </trkpt>
      <trkpt lat="43.52832" lon="1.4649">
        <ele>110.03</ele>
        <time>2019-10-06T07:34:33.000Z</time>
      </trkpt>
      <trkpt lat="43.52842" lon="1.46482">
        <ele>108.23</ele>
        <time>2019-10-06T07:34:37.000Z</time>
      </trkpt>
      <trkpt lat="43.52851" lon="1.46478">
        <ele>107.57</ele>
        <time>2019-10-06T07:34:44.000Z</time>
      </trkpt>
      <trkpt lat="43.52866" lon="1.4645">
        <ele>106.72</ele>
        <time>2019-10-06T07:36:01.000Z</time>
      </trkpt>
      <trkpt lat="43.52874" lon="1.46441">
        <ele>105.62</ele>
        <time>2019-10-06T07:36:56.000Z</time>
      </trkpt>
      <trkpt lat="43.52883" lon="1.46432">
        <ele>105.56</ele>
        <time>2019-10-06T07:36:59.000Z</time>
      </trkpt>
      <trkpt lat="43.52893" lon="1.46424">
        <ele>105.8</ele>
        <time>2019-10-06T07:37:02.000Z</time>
      </trkpt>
      <trkpt lat="43.52902" lon="1.46422">
        <ele>105.2</ele>
        <time>2019-10-06T07:37:04.000Z</time>
      </trkpt>
      <trkpt lat="43.52914" lon="1.4642">
        <ele>105.07</ele>
        <time>2019-10-06T07:37:07.000Z</time>
      </trkpt>
      <trkpt lat="43.52935" lon="1.46417">
        <ele>104.2</ele>
        <time>2019-10-06T07:37:11.000Z</time>
      </trkpt>
      <trkpt lat="43.52947" lon="1.46417">
        <ele>103.96</ele>
        <time>2019-10-06T07:37:12.000Z</time>
      </trkpt>
      <trkpt lat="43.5296" lon="1.46419">
        <ele>103.79</ele>
        <time>2019-10-06T07:37:13.000Z</time>
      </trkpt>
      <trkpt lat="43.52982" lon="1.46418">
        <ele>103.79</ele>
        <time>2019-10-06T07:37:16.000Z</time>
      </trkpt>
      <trkpt lat="43.52993" lon="1.46417">
        <ele>103.46</ele>
        <time>2019-10-06T07:37:18.000Z</time>
      </trkpt>
      <trkpt lat="43.53008" lon="1.4642">
        <ele>103.12</ele>
        <time>2019-10-06T07:37:20.000Z</time>
      </trkpt>
      <trkpt lat="43.53022" lon="1.4642">
        <ele>102.85</ele>
        <time>2019-10-06T07:37:22.000Z</time>
      </trkpt>
      <trkpt lat="43.53034" lon="1.46418">
        <ele>103.17</ele>
        <time>2019-10-06T07:37:24.000Z</time>
      </trkpt>
      <trkpt lat="43.53046" lon="1.46417">
        <ele>102.8</ele>
        <time>2019-10-06T07:37:26.000Z</time>
      </trkpt>
      <trkpt lat="43.53056" lon="1.46419">
        <ele>102.8</ele>
        <time>2019-10-06T07:37:28.000Z</time>
      </trkpt>
      <trkpt lat="43.53068" lon="1.46419">
        <ele>103.05</ele>
        <time>2019-10-06T07:37:31.000Z</time>
      </trkpt>
      <trkpt lat="43.53084" lon="1.46416">
        <ele>103.19</ele>
        <time>2019-10-06T07:37:35.000Z</time>
      </trkpt>
      <trkpt lat="43.53093" lon="1.46414">
        <ele>102.33</ele>
        <time>2019-10-06T07:37:37.000Z</time>
      </trkpt>
      <trkpt lat="43.53104" lon="1.46412">
        <ele>101.87</ele>
        <time>2019-10-06T07:37:39.000Z</time>
      </trkpt>
      <trkpt lat="43.53114" lon="1.46409">
        <ele>101.55</ele>
        <time>2019-10-06T07:37:41.000Z</time>
      </trkpt>
      <trkpt lat="43.53131" lon="1.46404">
        <ele>100.78</ele>
        <time>2019-10-06T07:37:44.000Z</time>
      </trkpt>
      <trkpt lat="43.53156" lon="1.46394">
        <ele>101.06</ele>
        <time>2019-10-06T07:37:47.000Z</time>
      </trkpt>
      <trkpt lat="43.53168" lon="1.46388">
        <ele>101.56</ele>
        <time>2019-10-06T07:37:49.000Z</time>
      </trkpt>
      <trkpt lat="43.53178" lon="1.46387">
        <ele>102.31</ele>
        <time>2019-10-06T07:37:51.000Z</time>
      </trkpt>
      <trkpt lat="43.53188" lon="1.46393">
        <ele>102.9</ele>
        <time>2019-10-06T07:37:53.000Z</time>
      </trkpt>
      <trkpt lat="43.53198" lon="1.46407">
        <ele>102.66</ele>
        <time>2019-10-06T07:37:56.000Z</time>
      </trkpt>
      <trkpt lat="43.53207" lon="1.46415">
        <ele>102.68</ele>
        <time>2019-10-06T07:37:59.000Z</time>
      </trkpt>
      <trkpt lat="43.53214" lon="1.46394">
        <ele>102.71</ele>
        <time>2019-10-06T07:38:03.000Z</time>
      </trkpt>
      <trkpt lat="43.53218" lon="1.46377">
        <ele>102.54</ele>
        <time>2019-10-06T07:38:06.000Z</time>
      </trkpt>
      <trkpt lat="43.53222" lon="1.46365">
        <ele>102.61</ele>
        <time>2019-10-06T07:38:08.000Z</time>
      </trkpt>
      <trkpt lat="43.53233" lon="1.46346">
        <ele>102.42</ele>
        <time>2019-10-06T07:38:11.000Z</time>
      </trkpt>
      <trkpt lat="43.53238" lon="1.46333">
        <ele>102.24</ele>
        <time>2019-10-06T07:38:13.000Z</time>
      </trkpt>
      <trkpt lat="43.53242" lon="1.46313">
        <ele>101.75</ele>
        <time>2019-10-06T07:38:16.000Z</time>
      </trkpt>
      <trkpt lat="43.53243" lon="1.46298">
        <ele>101.36</ele>
        <time>2019-10-06T07:38:18.000Z</time>
      </trkpt>
      <trkpt lat="43.53243" lon="1.46276">
        <ele>100.56</ele>
        <time>2019-10-06T07:38:21.000Z</time>
      </trkpt>
      <trkpt lat="43.53244" lon="1.46254">
        <ele>99.93</ele>
        <time>2019-10-06T07:38:24.000Z</time>
      </trkpt>
      <trkpt lat="43.53247" lon="1.46229">
        <ele>99.75</ele>
        <time>2019-10-06T07:38:27.000Z</time>
      </trkpt>
      <trkpt lat="43.53249" lon="1.46212">
        <ele>99.14</ele>
        <time>2019-10-06T07:38:29.000Z</time>
      </trkpt>
      <trkpt lat="43.53252" lon="1.46195">
        <ele>98.8</ele>
        <time>2019-10-06T07:38:31.000Z</time>
      </trkpt>
      <trkpt lat="43.53255" lon="1.4618">
        <ele>98.21</ele>
        <time>2019-10-06T07:38:33.000Z</time>
      </trkpt>
      <trkpt lat="43.53258" lon="1.46157">
        <ele>97.72</ele>
        <time>2019-10-06T07:38:36.000Z</time>
      </trkpt>
      <trkpt lat="43.5326" lon="1.46143">
        <ele>97.41</ele>
        <time>2019-10-06T07:38:38.000Z</time>
      </trkpt>
      <trkpt lat="43.53261" lon="1.46124">
        <ele>97.49</ele>
        <time>2019-10-06T07:38:41.000Z</time>
      </trkpt>
      <trkpt lat="43.53265" lon="1.46108">
        <ele>98.01</ele>
        <time>2019-10-06T07:38:47.000Z</time>
      </trkpt>
      <trkpt lat="43.53268" lon="1.46093">
        <ele>97.05</ele>
        <time>2019-10-06T07:38:52.000Z</time>
      </trkpt>
      <trkpt lat="43.53274" lon="1.46075">
        <ele>96.55</ele>
        <time>2019-10-06T07:38:54.000Z</time>
      </trkpt>
      <trkpt lat="43.53281" lon="1.46061">
        <ele>96.55</ele>
        <time>2019-10-06T07:38:56.000Z</time>
      </trkpt>
      <trkpt lat="43.53292" lon="1.46046">
        <ele>96.88</ele>
        <time>2019-10-06T07:38:59.000Z</time>
      </trkpt>
      <trkpt lat="43.53303" lon="1.4603">
        <ele>96.98</ele>
        <time>2019-10-06T07:39:02.000Z</time>
      </trkpt>
      <trkpt lat="43.53312" lon="1.46022">
        <ele>97.58</ele>
        <time>2019-10-06T07:39:05.000Z</time>
      </trkpt>
      <trkpt lat="43.53325" lon="1.46016">
        <ele>98.05</ele>
        <time>2019-10-06T07:39:09.000Z</time>
      </trkpt>
      <trkpt lat="43.53335" lon="1.46011">
        <ele>101.59</ele>
        <time>2019-10-06T07:39:14.000Z</time>
      </trkpt>
      <trkpt lat="43.53343" lon="1.46021">
        <ele>104.64</ele>
        <time>2019-10-06T07:39:19.000Z</time>
      </trkpt>
      <trkpt lat="43.53355" lon="1.46014">
        <ele>104.94</ele>
        <time>2019-10-06T07:39:25.000Z</time>
      </trkpt>
      <trkpt lat="43.53365" lon="1.46004">
        <ele>105.3</ele>
        <time>2019-10-06T07:39:29.000Z</time>
      </trkpt>
      <trkpt lat="43.53373" lon="1.45995">
        <ele>107.46</ele>
        <time>2019-10-06T07:39:33.000Z</time>
      </trkpt>
      <trkpt lat="43.53384" lon="1.45987">
        <ele>112.11</ele>
        <time>2019-10-06T07:39:37.000Z</time>
      </trkpt>
      <trkpt lat="43.53393" lon="1.45981">
        <ele>113.65</ele>
        <time>2019-10-06T07:39:40.000Z</time>
      </trkpt>
      <trkpt lat="43.53403" lon="1.45971">
        <ele>114.75</ele>
        <time>2019-10-06T07:39:44.000Z</time>
      </trkpt>
      <trkpt lat="43.53412" lon="1.45964">
        <ele>116.89</ele>
        <time>2019-10-06T07:39:48.000Z</time>
      </trkpt>
      <trkpt lat="43.53423" lon="1.45956">
        <ele>118.63</ele>
        <time>2019-10-06T07:39:52.000Z</time>
      </trkpt>
      <trkpt lat="43.53433" lon="1.45947">
        <ele>119.28</ele>
        <time>2019-10-06T07:39:56.000Z</time>
      </trkpt>
      <trkpt lat="43.53444" lon="1.45939">
        <ele>119.28</ele>
        <time>2019-10-06T07:40:00.000Z</time>
      </trkpt>
      <trkpt lat="43.53453" lon="1.45929">
        <ele>121.33</ele>
        <time>2019-10-06T07:40:04.000Z</time>
      </trkpt>
      <trkpt lat="43.5346" lon="1.45915">
        <ele>121.88</ele>
        <time>2019-10-06T07:40:08.000Z</time>
      </trkpt>
      <trkpt lat="43.5347" lon="1.45907">
        <ele>122.78</ele>
        <time>2019-10-06T07:40:12.000Z</time>
      </trkpt>
      <trkpt lat="43.5348" lon="1.45902">
        <ele>125.93</ele>
        <time>2019-10-06T07:40:15.000Z</time>
      </trkpt>
      <trkpt lat="43.5349" lon="1.459">
        <ele>129.16</ele>
        <time>2019-10-06T07:40:18.000Z</time>
      </trkpt>
      <trkpt lat="43.535" lon="1.45898">
        <ele>131.86</ele>
        <time>2019-10-06T07:40:22.000Z</time>
      </trkpt>
      <trkpt lat="43.53512" lon="1.45894">
        <ele>133.29</ele>
        <time>2019-10-06T07:40:27.000Z</time>
      </trkpt>
      <trkpt lat="43.53521" lon="1.4589">
        <ele>135.14</ele>
        <time>2019-10-06T07:40:30.000Z</time>
      </trkpt>
      <trkpt lat="43.5353" lon="1.45887">
        <ele>136.75</ele>
        <time>2019-10-06T07:40:32.000Z</time>
      </trkpt>
      <trkpt lat="43.53542" lon="1.45882">
        <ele>139.22</ele>
        <time>2019-10-06T07:40:36.000Z</time>
      </trkpt>
      <trkpt lat="43.53552" lon="1.45878">
        <ele>139.93</ele>
        <time>2019-10-06T07:40:39.000Z</time>
      </trkpt>
      <trkpt lat="43.53563" lon="1.45872">
        <ele>140.99</ele>
        <time>2019-10-06T07:40:43.000Z</time>
      </trkpt>
      <trkpt lat="43.53573" lon="1.45866">
        <ele>143.3</ele>
        <time>2019-10-06T07:40:49.000Z</time>
      </trkpt>
      <trkpt lat="43.53582" lon="1.4586">
        <ele>144.67</ele>
        <time>2019-10-06T07:40:53.000Z</time>
      </trkpt>
      <trkpt lat="43.53592" lon="1.45854">
        <ele>146.39</ele>
        <time>2019-10-06T07:40:58.000Z</time>
      </trkpt>
      <trkpt lat="43.5361" lon="1.45842">
        <ele>147.34</ele>
        <time>2019-10-06T07:41:02.000Z</time>
      </trkpt>
      <trkpt lat="43.53621" lon="1.45833">
        <ele>147.79</ele>
        <time>2019-10-06T07:41:03.000Z</time>
      </trkpt>
      <trkpt lat="43.53632" lon="1.45827">
        <ele>149.44</ele>
        <time>2019-10-06T07:41:06.000Z</time>
      </trkpt>
      <trkpt lat="43.53642" lon="1.4582">
        <ele>150.51</ele>
        <time>2019-10-06T07:41:09.000Z</time>
      </trkpt>
      <trkpt lat="43.53651" lon="1.45813">
        <ele>151.78</ele>
        <time>2019-10-06T07:41:13.000Z</time>
      </trkpt>
      <trkpt lat="43.53661" lon="1.45805">
        <ele>152.82</ele>
        <time>2019-10-06T07:41:16.000Z</time>
      </trkpt>
      <trkpt lat="43.53672" lon="1.45796">
        <ele>153.04</ele>
        <time>2019-10-06T07:41:19.000Z</time>
      </trkpt>
      <trkpt lat="43.53683" lon="1.45786">
        <ele>154.24</ele>
        <time>2019-10-06T07:41:23.000Z</time>
      </trkpt>
      <trkpt lat="43.53693" lon="1.45781">
        <ele>155.12</ele>
        <time>2019-10-06T07:41:26.000Z</time>
      </trkpt>
      <trkpt lat="43.53703" lon="1.45774">
        <ele>155.12</ele>
        <time>2019-10-06T07:41:29.000Z</time>
      </trkpt>
      <trkpt lat="43.53717" lon="1.45765">
        <ele>155.91</ele>
        <time>2019-10-06T07:41:33.000Z</time>
      </trkpt>
      <trkpt lat="43.53726" lon="1.45759">
        <ele>156.92</ele>
        <time>2019-10-06T07:41:36.000Z</time>
      </trkpt>
      <trkpt lat="43.5374" lon="1.45754">
        <ele>157.91</ele>
        <time>2019-10-06T07:41:38.000Z</time>
      </trkpt>
      <trkpt lat="43.53753" lon="1.45748">
        <ele>158.32</ele>
        <time>2019-10-06T07:41:40.000Z</time>
      </trkpt>
      <trkpt lat="43.53762" lon="1.45743">
        <ele>158.67</ele>
        <time>2019-10-06T07:41:43.000Z</time>
      </trkpt>
      <trkpt lat="43.53777" lon="1.45736">
        <ele>158.6</ele>
        <time>2019-10-06T07:41:46.000Z</time>
      </trkpt>
      <trkpt lat="43.53787" lon="1.45729">
        <ele>158.6</ele>
        <time>2019-10-06T07:41:49.000Z</time>
      </trkpt>
      <trkpt lat="43.53796" lon="1.45721">
        <ele>159.39</ele>
        <time>2019-10-06T07:41:52.000Z</time>
      </trkpt>
      <trkpt lat="43.53804" lon="1.45715">
        <ele>160.11</ele>
        <time>2019-10-06T07:41:55.000Z</time>
      </trkpt>
      <trkpt lat="43.53815" lon="1.45706">
        <ele>160.63</ele>
        <time>2019-10-06T07:41:57.000Z</time>
      </trkpt>
      <trkpt lat="43.53824" lon="1.45699">
        <ele>161.04</ele>
        <time>2019-10-06T07:42:00.000Z</time>
      </trkpt>
      <trkpt lat="43.53833" lon="1.45692">
        <ele>161.65</ele>
        <time>2019-10-06T07:42:02.000Z</time>
      </trkpt>
      <trkpt lat="43.53843" lon="1.45684">
        <ele>162.31</ele>
        <time>2019-10-06T07:42:05.000Z</time>
      </trkpt>
      <trkpt lat="43.53858" lon="1.4567">
        <ele>163.15</ele>
        <time>2019-10-06T07:42:09.000Z</time>
      </trkpt>
      <trkpt lat="43.53869" lon="1.45661">
        <ele>163.25</ele>
        <time>2019-10-06T07:42:12.000Z</time>
      </trkpt>
      <trkpt lat="43.53877" lon="1.45652">
        <ele>163.68</ele>
        <time>2019-10-06T07:42:14.000Z</time>
      </trkpt>
      <trkpt lat="43.53885" lon="1.45643">
        <ele>163.64</ele>
        <time>2019-10-06T07:42:17.000Z</time>
      </trkpt>
      <trkpt lat="43.53893" lon="1.45631">
        <ele>163.97</ele>
        <time>2019-10-06T07:42:20.000Z</time>
      </trkpt>
      <trkpt lat="43.53896" lon="1.45618">
        <ele>163.74</ele>
        <time>2019-10-06T07:42:22.000Z</time>
      </trkpt>
      <trkpt lat="43.53898" lon="1.45597">
        <ele>162.96</ele>
        <time>2019-10-06T07:42:26.000Z</time>
      </trkpt>
      <trkpt lat="43.53908" lon="1.45583">
        <ele>161.3</ele>
        <time>2019-10-06T07:42:28.000Z</time>
      </trkpt>
      <trkpt lat="43.53919" lon="1.45573">
        <ele>161.3</ele>
        <time>2019-10-06T07:42:30.000Z</time>
      </trkpt>
      <trkpt lat="43.53931" lon="1.4556">
        <ele>160.91</ele>
        <time>2019-10-06T07:42:33.000Z</time>
      </trkpt>
      <trkpt lat="43.53941" lon="1.45545">
        <ele>159.81</ele>
        <time>2019-10-06T07:42:36.000Z</time>
      </trkpt>
      <trkpt lat="43.53947" lon="1.45522">
        <ele>159.96</ele>
        <time>2019-10-06T07:42:39.000Z</time>
      </trkpt>
      <trkpt lat="43.53956" lon="1.45509">
        <ele>159.79</ele>
        <time>2019-10-06T07:42:42.000Z</time>
      </trkpt>
      <trkpt lat="43.53945" lon="1.45493">
        <ele>157.54</ele>
        <time>2019-10-06T07:43:08.000Z</time>
      </trkpt>
      <trkpt lat="43.53932" lon="1.45478">
        <ele>153.15</ele>
        <time>2019-10-06T07:43:11.000Z</time>
      </trkpt>
      <trkpt lat="43.53921" lon="1.45466">
        <ele>148.89</ele>
        <time>2019-10-06T07:43:14.000Z</time>
      </trkpt>
      <trkpt lat="43.5391" lon="1.45461">
        <ele>147.19</ele>
        <time>2019-10-06T07:43:17.000Z</time>
      </trkpt>
      <trkpt lat="43.53903" lon="1.45447">
        <ele>140.38</ele>
        <time>2019-10-06T07:43:28.000Z</time>
      </trkpt>
      <trkpt lat="43.5389" lon="1.45442">
        <ele>139.09</ele>
        <time>2019-10-06T07:43:30.000Z</time>
      </trkpt>
      <trkpt lat="43.53883" lon="1.45434">
        <ele>136.74</ele>
        <time>2019-10-06T07:43:32.000Z</time>
      </trkpt>
      <trkpt lat="43.53874" lon="1.45427">
        <ele>134.34</ele>
        <time>2019-10-06T07:43:35.000Z</time>
      </trkpt>
      <trkpt lat="43.53872" lon="1.4541">
        <ele>130.81</ele>
        <time>2019-10-06T07:43:39.000Z</time>
      </trkpt>
      <trkpt lat="43.53862" lon="1.45396">
        <ele>129.26</ele>
        <time>2019-10-06T07:43:43.000Z</time>
      </trkpt>
      <trkpt lat="43.53852" lon="1.45386">
        <ele>127.95</ele>
        <time>2019-10-06T07:43:47.000Z</time>
      </trkpt>
      <trkpt lat="43.53838" lon="1.45386">
        <ele>127.24</ele>
        <time>2019-10-06T07:43:50.000Z</time>
      </trkpt>
      <trkpt lat="43.53826" lon="1.45396">
        <ele>127.27</ele>
        <time>2019-10-06T07:43:54.000Z</time>
      </trkpt>
      <trkpt lat="43.53818" lon="1.45404">
        <ele>127.69</ele>
        <time>2019-10-06T07:43:57.000Z</time>
      </trkpt>
      <trkpt lat="43.53808" lon="1.45413">
        <ele>128.07</ele>
        <time>2019-10-06T07:43:59.000Z</time>
      </trkpt>
      <trkpt lat="43.538" lon="1.4542">
        <ele>128.03</ele>
        <time>2019-10-06T07:44:00.000Z</time>
      </trkpt>
      <trkpt lat="43.5379" lon="1.4543">
        <ele>128.25</ele>
        <time>2019-10-06T07:44:02.000Z</time>
      </trkpt>
      <trkpt lat="43.53779" lon="1.45438">
        <ele>128.15</ele>
        <time>2019-10-06T07:44:04.000Z</time>
      </trkpt>
      <trkpt lat="43.53767" lon="1.45447">
        <ele>127.17</ele>
        <time>2019-10-06T07:44:06.000Z</time>
      </trkpt>
      <trkpt lat="43.53754" lon="1.45458">
        <ele>125.32</ele>
        <time>2019-10-06T07:44:08.000Z</time>
      </trkpt>
      <trkpt lat="43.5374" lon="1.45474">
        <ele>124.11</ele>
        <time>2019-10-06T07:44:10.000Z</time>
      </trkpt>
      <trkpt lat="43.53731" lon="1.4548">
        <ele>122.7</ele>
        <time>2019-10-06T07:44:11.000Z</time>
      </trkpt>
      <trkpt lat="43.53721" lon="1.45484">
        <ele>121.74</ele>
        <time>2019-10-06T07:44:12.000Z</time>
      </trkpt>
      <trkpt lat="43.53711" lon="1.45488">
        <ele>120.99</ele>
        <time>2019-10-06T07:44:13.000Z</time>
      </trkpt>
      <trkpt lat="43.53701" lon="1.45495">
        <ele>119.74</ele>
        <time>2019-10-06T07:44:14.000Z</time>
      </trkpt>
      <trkpt lat="43.53683" lon="1.45511">
        <ele>117.42</ele>
        <time>2019-10-06T07:44:16.000Z</time>
      </trkpt>
      <trkpt lat="43.53671" lon="1.45526">
        <ele>116.43</ele>
        <time>2019-10-06T07:44:18.000Z</time>
      </trkpt>
      <trkpt lat="43.53661" lon="1.45525">
        <ele>116.68</ele>
        <time>2019-10-06T07:44:24.000Z</time>
      </trkpt>
      <trkpt lat="43.53651" lon="1.45521">
        <ele>115.15</ele>
        <time>2019-10-06T07:44:27.000Z</time>
      </trkpt>
      <trkpt lat="43.53637" lon="1.45519">
        <ele>110.74</ele>
        <time>2019-10-06T07:44:32.000Z</time>
      </trkpt>
      <trkpt lat="43.53626" lon="1.45516">
        <ele>109.61</ele>
        <time>2019-10-06T07:44:33.000Z</time>
      </trkpt>
      <trkpt lat="43.53615" lon="1.45514">
        <ele>107.4</ele>
        <time>2019-10-06T07:44:35.000Z</time>
      </trkpt>
      <trkpt lat="43.53604" lon="1.45517">
        <ele>105.18</ele>
        <time>2019-10-06T07:44:38.000Z</time>
      </trkpt>
      <trkpt lat="43.53596" lon="1.45528">
        <ele>105.38</ele>
        <time>2019-10-06T07:44:42.000Z</time>
      </trkpt>
      <trkpt lat="43.53591" lon="1.45543">
        <ele>106.31</ele>
        <time>2019-10-06T07:44:46.000Z</time>
      </trkpt>
      <trkpt lat="43.53581" lon="1.45553">
        <ele>106.79</ele>
        <time>2019-10-06T07:44:49.000Z</time>
      </trkpt>
      <trkpt lat="43.53571" lon="1.45555">
        <ele>106.32</ele>
        <time>2019-10-06T07:44:51.000Z</time>
      </trkpt>
      <trkpt lat="43.53556" lon="1.45553">
        <ele>105.32</ele>
        <time>2019-10-06T07:44:52.000Z</time>
      </trkpt>
      <trkpt lat="43.53537" lon="1.45557">
        <ele>101.47</ele>
        <time>2019-10-06T07:44:55.000Z</time>
      </trkpt>
      <trkpt lat="43.53526" lon="1.45572">
        <ele>99.31</ele>
        <time>2019-10-06T07:44:57.000Z</time>
      </trkpt>
      <trkpt lat="43.53513" lon="1.45591">
        <ele>97.32</ele>
        <time>2019-10-06T07:44:59.000Z</time>
      </trkpt>
      <trkpt lat="43.53499" lon="1.45613">
        <ele>97.32</ele>
        <time>2019-10-06T07:45:01.000Z</time>
      </trkpt>
      <trkpt lat="43.53486" lon="1.45636">
        <ele>95.76</ele>
        <time>2019-10-06T07:45:04.000Z</time>
      </trkpt>
      <trkpt lat="43.53478" lon="1.45647">
        <ele>95.84</ele>
        <time>2019-10-06T07:45:06.000Z</time>
      </trkpt>
      <trkpt lat="43.53466" lon="1.45665">
        <ele>97.5</ele>
        <time>2019-10-06T07:45:09.000Z</time>
      </trkpt>
      <trkpt lat="43.53455" lon="1.45683">
        <ele>96.61</ele>
        <time>2019-10-06T07:45:12.000Z</time>
      </trkpt>
      <trkpt lat="43.53448" lon="1.45693">
        <ele>96.14</ele>
        <time>2019-10-06T07:45:15.000Z</time>
      </trkpt>
      <trkpt lat="43.53438" lon="1.45695">
        <ele>95.16</ele>
        <time>2019-10-06T07:45:51.000Z</time>
      </trkpt>
      <trkpt lat="43.53429" lon="1.45689">
        <ele>94.81</ele>
        <time>2019-10-06T07:45:53.000Z</time>
      </trkpt>
      <trkpt lat="43.53419" lon="1.45685">
        <ele>95.19</ele>
        <time>2019-10-06T07:45:57.000Z</time>
      </trkpt>
      <trkpt lat="43.53412" lon="1.45677">
        <ele>95.43</ele>
        <time>2019-10-06T07:46:03.000Z</time>
      </trkpt>
      <trkpt lat="43.53416" lon="1.45665">
        <ele>94.26</ele>
        <time>2019-10-06T07:46:08.000Z</time>
      </trkpt>
      <trkpt lat="43.53423" lon="1.45652">
        <ele>93.78</ele>
        <time>2019-10-06T07:46:10.000Z</time>
      </trkpt>
      <trkpt lat="43.5343" lon="1.45636">
        <ele>92.76</ele>
        <time>2019-10-06T07:46:14.000Z</time>
      </trkpt>
      <trkpt lat="43.53437" lon="1.45622">
        <ele>92.99</ele>
        <time>2019-10-06T07:46:17.000Z</time>
      </trkpt>
      <trkpt lat="43.53444" lon="1.45606">
        <ele>93.63</ele>
        <time>2019-10-06T07:46:20.000Z</time>
      </trkpt>
      <trkpt lat="43.53451" lon="1.4559">
        <ele>93.73</ele>
        <time>2019-10-06T07:46:22.000Z</time>
      </trkpt>
      <trkpt lat="43.53457" lon="1.4558">
        <ele>92.48</ele>
        <time>2019-10-06T07:46:25.000Z</time>
      </trkpt>
      <trkpt lat="43.53466" lon="1.45568">
        <ele>91.94</ele>
        <time>2019-10-06T07:46:28.000Z</time>
      </trkpt>
      <trkpt lat="43.53475" lon="1.45556">
        <ele>91.82</ele>
        <time>2019-10-06T07:46:31.000Z</time>
      </trkpt>
      <trkpt lat="43.53485" lon="1.4554">
        <ele>91.82</ele>
        <time>2019-10-06T07:46:34.000Z</time>
      </trkpt>
      <trkpt lat="43.53492" lon="1.45525">
        <ele>92.48</ele>
        <time>2019-10-06T07:46:37.000Z</time>
      </trkpt>
      <trkpt lat="43.53502" lon="1.45509">
        <ele>93.28</ele>
        <time>2019-10-06T07:46:41.000Z</time>
      </trkpt>
      <trkpt lat="43.53511" lon="1.45495">
        <ele>92.52</ele>
        <time>2019-10-06T07:46:44.000Z</time>
      </trkpt>
      <trkpt lat="43.53522" lon="1.45481">
        <ele>91.68</ele>
        <time>2019-10-06T07:46:46.000Z</time>
      </trkpt>
      <trkpt lat="43.53527" lon="1.45469">
        <ele>91.21</ele>
        <time>2019-10-06T07:46:49.000Z</time>
      </trkpt>
      <trkpt lat="43.53533" lon="1.4545">
        <ele>90.61</ele>
        <time>2019-10-06T07:46:51.000Z</time>
      </trkpt>
      <trkpt lat="43.53541" lon="1.4543">
        <ele>90.15</ele>
        <time>2019-10-06T07:46:55.000Z</time>
      </trkpt>
      <trkpt lat="43.5355" lon="1.45415">
        <ele>90.04</ele>
        <time>2019-10-06T07:46:57.000Z</time>
      </trkpt>
      <trkpt lat="43.53556" lon="1.45404">
        <ele>89.77</ele>
        <time>2019-10-06T07:47:01.000Z</time>
      </trkpt>
      <trkpt lat="43.53547" lon="1.4542">
        <ele>90.04</ele>
        <time>2019-10-06T07:47:45.000Z</time>
      </trkpt>
      <trkpt lat="43.53542" lon="1.45431">
        <ele>89.67</ele>
        <time>2019-10-06T07:47:48.000Z</time>
      </trkpt>
      <trkpt lat="43.53537" lon="1.45444">
        <ele>89.69</ele>
        <time>2019-10-06T07:47:52.000Z</time>
      </trkpt>
      <trkpt lat="43.53529" lon="1.45457">
        <ele>90.39</ele>
        <time>2019-10-06T07:47:56.000Z</time>
      </trkpt>
      <trkpt lat="43.53523" lon="1.45469">
        <ele>91.15</ele>
        <time>2019-10-06T07:48:00.000Z</time>
      </trkpt>
      <trkpt lat="43.53519" lon="1.45481">
        <ele>91.52</ele>
        <time>2019-10-06T07:48:04.000Z</time>
      </trkpt>
      <trkpt lat="43.53513" lon="1.45491">
        <ele>91.43</ele>
        <time>2019-10-06T07:48:09.000Z</time>
      </trkpt>
      <trkpt lat="43.53507" lon="1.455">
        <ele>91.89</ele>
        <time>2019-10-06T07:48:13.000Z</time>
      </trkpt>
      <trkpt lat="43.53498" lon="1.45506">
        <ele>92.62</ele>
        <time>2019-10-06T07:48:17.000Z</time>
      </trkpt>
      <trkpt lat="43.53489" lon="1.45504">
        <ele>93.79</ele>
        <time>2019-10-06T07:48:26.000Z</time>
      </trkpt>
      <trkpt lat="43.53478" lon="1.45502">
        <ele>93.92</ele>
        <time>2019-10-06T07:48:34.000Z</time>
      </trkpt>
      <trkpt lat="43.53468" lon="1.455">
        <ele>95.99</ele>
        <time>2019-10-06T07:48:40.000Z</time>
      </trkpt>
      <trkpt lat="43.53458" lon="1.45498">
        <ele>103.1</ele>
        <time>2019-10-06T07:48:48.000Z</time>
      </trkpt>
      <trkpt lat="43.5345" lon="1.45505">
        <ele>104.35</ele>
        <time>2019-10-06T07:49:07.000Z</time>
      </trkpt>
      <trkpt lat="43.53453" lon="1.45493">
        <ele>101.76</ele>
        <time>2019-10-06T07:50:59.000Z</time>
      </trkpt>
      <trkpt lat="43.53463" lon="1.45494">
        <ele>94.88</ele>
        <time>2019-10-06T07:51:22.000Z</time>
      </trkpt>
      <trkpt lat="43.53472" lon="1.45501">
        <ele>92.21</ele>
        <time>2019-10-06T07:51:30.000Z</time>
      </trkpt>
      <trkpt lat="43.53477" lon="1.45515">
        <ele>92.21</ele>
        <time>2019-10-06T07:51:33.000Z</time>
      </trkpt>
      <trkpt lat="43.53482" lon="1.45527">
        <ele>92.23</ele>
        <time>2019-10-06T07:51:35.000Z</time>
      </trkpt>
      <trkpt lat="43.5348" lon="1.45543">
        <ele>92.78</ele>
        <time>2019-10-06T07:51:41.000Z</time>
      </trkpt>
      <trkpt lat="43.53473" lon="1.45553">
        <ele>92.57</ele>
        <time>2019-10-06T07:51:46.000Z</time>
      </trkpt>
      <trkpt lat="43.53465" lon="1.45563">
        <ele>92.74</ele>
        <time>2019-10-06T07:51:51.000Z</time>
      </trkpt>
      <trkpt lat="43.53457" lon="1.45574">
        <ele>92.06</ele>
        <time>2019-10-06T07:51:56.000Z</time>
      </trkpt>
      <trkpt lat="43.5345" lon="1.45591">
        <ele>92.04</ele>
        <time>2019-10-06T07:52:01.000Z</time>
      </trkpt>
      <trkpt lat="43.53444" lon="1.45605">
        <ele>92.93</ele>
        <time>2019-10-06T07:52:05.000Z</time>
      </trkpt>
      <trkpt lat="43.53437" lon="1.4562">
        <ele>93.78</ele>
        <time>2019-10-06T07:52:09.000Z</time>
      </trkpt>
      <trkpt lat="43.53429" lon="1.45632">
        <ele>93.88</ele>
        <time>2019-10-06T07:52:12.000Z</time>
      </trkpt>
      <trkpt lat="43.53424" lon="1.45644">
        <ele>93.98</ele>
        <time>2019-10-06T07:52:16.000Z</time>
      </trkpt>
      <trkpt lat="43.53412" lon="1.45648">
        <ele>94.25</ele>
        <time>2019-10-06T07:52:20.000Z</time>
      </trkpt>
      <trkpt lat="43.534" lon="1.45646">
        <ele>95.03</ele>
        <time>2019-10-06T07:52:23.000Z</time>
      </trkpt>
      <trkpt lat="43.53388" lon="1.45644">
        <ele>94.73</ele>
        <time>2019-10-06T07:52:28.000Z</time>
      </trkpt>
      <trkpt lat="43.53377" lon="1.45639">
        <ele>96.26</ele>
        <time>2019-10-06T07:52:33.000Z</time>
      </trkpt>
      <trkpt lat="43.53368" lon="1.45635">
        <ele>99.87</ele>
        <time>2019-10-06T07:52:37.000Z</time>
      </trkpt>
      <trkpt lat="43.53359" lon="1.45627">
        <ele>102.56</ele>
        <time>2019-10-06T07:52:44.000Z</time>
      </trkpt>
      <trkpt lat="43.5335" lon="1.45619">
        <ele>103.72</ele>
        <time>2019-10-06T07:52:48.000Z</time>
      </trkpt>
      <trkpt lat="43.53344" lon="1.45611">
        <ele>104.93</ele>
        <time>2019-10-06T07:52:50.000Z</time>
      </trkpt>
      <trkpt lat="43.53333" lon="1.45605">
        <ele>106.67</ele>
        <time>2019-10-06T07:52:55.000Z</time>
      </trkpt>
      <trkpt lat="43.53322" lon="1.456">
        <ele>109.15</ele>
        <time>2019-10-06T07:53:01.000Z</time>
      </trkpt>
      <trkpt lat="43.53312" lon="1.45596">
        <ele>112.12</ele>
        <time>2019-10-06T07:53:07.000Z</time>
      </trkpt>
      <trkpt lat="43.53302" lon="1.45588">
        <ele>113.11</ele>
        <time>2019-10-06T07:53:10.000Z</time>
      </trkpt>
      <trkpt lat="43.53296" lon="1.45577">
        <ele>113.82</ele>
        <time>2019-10-06T07:53:15.000Z</time>
      </trkpt>
      <trkpt lat="43.53288" lon="1.45567">
        <ele>114.46</ele>
        <time>2019-10-06T07:53:18.000Z</time>
      </trkpt>
      <trkpt lat="43.53279" lon="1.45557">
        <ele>115.82</ele>
        <time>2019-10-06T07:53:22.000Z</time>
      </trkpt>
      <trkpt lat="43.5327" lon="1.45549">
        <ele>116.26</ele>
        <time>2019-10-06T07:53:25.000Z</time>
      </trkpt>
      <trkpt lat="43.53259" lon="1.45545">
        <ele>118.44</ele>
        <time>2019-10-06T07:53:29.000Z</time>
      </trkpt>
      <trkpt lat="43.5325" lon="1.45542">
        <ele>120.45</ele>
        <time>2019-10-06T07:53:31.000Z</time>
      </trkpt>
      <trkpt lat="43.53239" lon="1.4554">
        <ele>121.28</ele>
        <time>2019-10-06T07:53:36.000Z</time>
      </trkpt>
      <trkpt lat="43.53228" lon="1.45539">
        <ele>121.98</ele>
        <time>2019-10-06T07:53:40.000Z</time>
      </trkpt>
      <trkpt lat="43.53214" lon="1.45539">
        <ele>123.57</ele>
        <time>2019-10-06T07:53:44.000Z</time>
      </trkpt>
      <trkpt lat="43.53203" lon="1.45543">
        <ele>123.64</ele>
        <time>2019-10-06T07:53:48.000Z</time>
      </trkpt>
      <trkpt lat="43.53194" lon="1.45546">
        <ele>125.84</ele>
        <time>2019-10-06T07:53:52.000Z</time>
      </trkpt>
      <trkpt lat="43.53182" lon="1.45551">
        <ele>128.65</ele>
        <time>2019-10-06T07:53:56.000Z</time>
      </trkpt>
      <trkpt lat="43.53173" lon="1.45554">
        <ele>130.23</ele>
        <time>2019-10-06T07:54:00.000Z</time>
      </trkpt>
      <trkpt lat="43.5316" lon="1.45559">
        <ele>132.09</ele>
        <time>2019-10-06T07:54:05.000Z</time>
      </trkpt>
      <trkpt lat="43.5315" lon="1.45562">
        <ele>133.52</ele>
        <time>2019-10-06T07:54:08.000Z</time>
      </trkpt>
      <trkpt lat="43.53141" lon="1.45565">
        <ele>134.79</ele>
        <time>2019-10-06T07:54:12.000Z</time>
      </trkpt>
      <trkpt lat="43.53132" lon="1.45568">
        <ele>136.67</ele>
        <time>2019-10-06T07:54:17.000Z</time>
      </trkpt>
      <trkpt lat="43.53122" lon="1.45569">
        <ele>137.1</ele>
        <time>2019-10-06T07:54:22.000Z</time>
      </trkpt>
      <trkpt lat="43.53112" lon="1.45571">
        <ele>137.1</ele>
        <time>2019-10-06T07:54:26.000Z</time>
      </trkpt>
      <trkpt lat="43.53099" lon="1.45575">
        <ele>139.94</ele>
        <time>2019-10-06T07:54:30.000Z</time>
      </trkpt>
      <trkpt lat="43.53088" lon="1.45575">
        <ele>142.99</ele>
        <time>2019-10-06T07:54:34.000Z</time>
      </trkpt>
      <trkpt lat="43.53078" lon="1.45576">
        <ele>143.8</ele>
        <time>2019-10-06T07:54:38.000Z</time>
      </trkpt>
      <trkpt lat="43.53068" lon="1.45577">
        <ele>144.42</ele>
        <time>2019-10-06T07:54:41.000Z</time>
      </trkpt>
      <trkpt lat="43.53058" lon="1.45577">
        <ele>146.25</ele>
        <time>2019-10-06T07:54:44.000Z</time>
      </trkpt>
      <trkpt lat="43.53047" lon="1.45579">
        <ele>151.21</ele>
        <time>2019-10-06T07:54:49.000Z</time>
      </trkpt>
      <trkpt lat="43.53035" lon="1.45583">
        <ele>151.96</ele>
        <time>2019-10-06T07:54:53.000Z</time>
      </trkpt>
      <trkpt lat="43.53025" lon="1.4559">
        <ele>152.42</ele>
        <time>2019-10-06T07:54:57.000Z</time>
      </trkpt>
      <trkpt lat="43.53014" lon="1.45598">
        <ele>154.38</ele>
        <time>2019-10-06T07:55:01.000Z</time>
      </trkpt>
      <trkpt lat="43.53005" lon="1.45604">
        <ele>157.45</ele>
        <time>2019-10-06T07:55:05.000Z</time>
      </trkpt>
      <trkpt lat="43.52993" lon="1.45608">
        <ele>158.63</ele>
        <time>2019-10-06T07:55:09.000Z</time>
      </trkpt>
      <trkpt lat="43.52982" lon="1.45615">
        <ele>159</ele>
        <time>2019-10-06T07:55:13.000Z</time>
      </trkpt>
      <trkpt lat="43.52972" lon="1.45621">
        <ele>160.71</ele>
        <time>2019-10-06T07:55:18.000Z</time>
      </trkpt>
      <trkpt lat="43.52961" lon="1.45616">
        <ele>162.44</ele>
        <time>2019-10-06T07:55:23.000Z</time>
      </trkpt>
      <trkpt lat="43.52953" lon="1.45609">
        <ele>163.35</ele>
        <time>2019-10-06T07:55:27.000Z</time>
      </trkpt>
      <trkpt lat="43.52956" lon="1.45596">
        <ele>163.14</ele>
        <time>2019-10-06T07:55:31.000Z</time>
      </trkpt>
      <trkpt lat="43.52966" lon="1.45578">
        <ele>162.52</ele>
        <time>2019-10-06T07:55:35.000Z</time>
      </trkpt>
      <trkpt lat="43.52972" lon="1.45568">
        <ele>162.17</ele>
        <time>2019-10-06T07:55:37.000Z</time>
      </trkpt>
      <trkpt lat="43.52985" lon="1.45555">
        <ele>161.73</ele>
        <time>2019-10-06T07:55:40.000Z</time>
      </trkpt>
      <trkpt lat="43.52996" lon="1.45547">
        <ele>161.2</ele>
        <time>2019-10-06T07:55:43.000Z</time>
      </trkpt>
      <trkpt lat="43.53005" lon="1.45535">
        <ele>160.5</ele>
        <time>2019-10-06T07:55:46.000Z</time>
      </trkpt>
      <trkpt lat="43.53012" lon="1.45524">
        <ele>160.2</ele>
        <time>2019-10-06T07:55:48.000Z</time>
      </trkpt>
      <trkpt lat="43.53019" lon="1.45512">
        <ele>159.79</ele>
        <time>2019-10-06T07:55:50.000Z</time>
      </trkpt>
      <trkpt lat="43.53026" lon="1.455">
        <ele>159.75</ele>
        <time>2019-10-06T07:55:52.000Z</time>
      </trkpt>
      <trkpt lat="43.53032" lon="1.45486">
        <ele>159.25</ele>
        <time>2019-10-06T07:55:54.000Z</time>
      </trkpt>
      <trkpt lat="43.53039" lon="1.45472">
        <ele>158.77</ele>
        <time>2019-10-06T07:55:56.000Z</time>
      </trkpt>
      <trkpt lat="43.53049" lon="1.45453">
        <ele>157.87</ele>
        <time>2019-10-06T07:55:59.000Z</time>
      </trkpt>
      <trkpt lat="43.5306" lon="1.45435">
        <ele>157.02</ele>
        <time>2019-10-06T07:56:02.000Z</time>
      </trkpt>
      <trkpt lat="43.53067" lon="1.45423">
        <ele>156.59</ele>
        <time>2019-10-06T07:56:04.000Z</time>
      </trkpt>
      <trkpt lat="43.53074" lon="1.45411">
        <ele>156.27</ele>
        <time>2019-10-06T07:56:06.000Z</time>
      </trkpt>
      <trkpt lat="43.53082" lon="1.45398">
        <ele>156.16</ele>
        <time>2019-10-06T07:56:08.000Z</time>
      </trkpt>
      <trkpt lat="43.53091" lon="1.45386">
        <ele>155.8</ele>
        <time>2019-10-06T07:56:10.000Z</time>
      </trkpt>
      <trkpt lat="43.53099" lon="1.45374">
        <ele>155.47</ele>
        <time>2019-10-06T07:56:12.000Z</time>
      </trkpt>
      <trkpt lat="43.53108" lon="1.45361">
        <ele>155.28</ele>
        <time>2019-10-06T07:56:14.000Z</time>
      </trkpt>
      <trkpt lat="43.53118" lon="1.45341">
        <ele>154.77</ele>
        <time>2019-10-06T07:56:17.000Z</time>
      </trkpt>
      <trkpt lat="43.53125" lon="1.45328">
        <ele>154.6</ele>
        <time>2019-10-06T07:56:19.000Z</time>
      </trkpt>
      <trkpt lat="43.53133" lon="1.45316">
        <ele>154.28</ele>
        <time>2019-10-06T07:56:21.000Z</time>
      </trkpt>
      <trkpt lat="43.5314" lon="1.45303">
        <ele>153.94</ele>
        <time>2019-10-06T07:56:23.000Z</time>
      </trkpt>
      <trkpt lat="43.53148" lon="1.45291">
        <ele>153.71</ele>
        <time>2019-10-06T07:56:25.000Z</time>
      </trkpt>
      <trkpt lat="43.53159" lon="1.45272">
        <ele>153.13</ele>
        <time>2019-10-06T07:56:28.000Z</time>
      </trkpt>
      <trkpt lat="43.53166" lon="1.45259">
        <ele>153.14</ele>
        <time>2019-10-06T07:56:30.000Z</time>
      </trkpt>
      <trkpt lat="43.53174" lon="1.45245">
        <ele>152.74</ele>
        <time>2019-10-06T07:56:32.000Z</time>
      </trkpt>
      <trkpt lat="43.53181" lon="1.45231">
        <ele>152.29</ele>
        <time>2019-10-06T07:56:34.000Z</time>
      </trkpt>
      <trkpt lat="43.53194" lon="1.4521">
        <ele>151.37</ele>
        <time>2019-10-06T07:56:37.000Z</time>
      </trkpt>
      <trkpt lat="43.53202" lon="1.45197">
        <ele>150.68</ele>
        <time>2019-10-06T07:56:39.000Z</time>
      </trkpt>
      <trkpt lat="43.53209" lon="1.45185">
        <ele>150.02</ele>
        <time>2019-10-06T07:56:41.000Z</time>
      </trkpt>
      <trkpt lat="43.5322" lon="1.45166">
        <ele>149.04</ele>
        <time>2019-10-06T07:56:44.000Z</time>
      </trkpt>
      <trkpt lat="43.53231" lon="1.45144">
        <ele>147.89</ele>
        <time>2019-10-06T07:56:47.000Z</time>
      </trkpt>
      <trkpt lat="43.53245" lon="1.45122">
        <ele>147.61</ele>
        <time>2019-10-06T07:56:50.000Z</time>
      </trkpt>
      <trkpt lat="43.53255" lon="1.45108">
        <ele>146.97</ele>
        <time>2019-10-06T07:56:52.000Z</time>
      </trkpt>
      <trkpt lat="43.53268" lon="1.45088">
        <ele>146.64</ele>
        <time>2019-10-06T07:56:55.000Z</time>
      </trkpt>
      <trkpt lat="43.53276" lon="1.45077">
        <ele>146.15</ele>
        <time>2019-10-06T07:56:57.000Z</time>
      </trkpt>
      <trkpt lat="43.53268" lon="1.45068">
        <ele>145.83</ele>
        <time>2019-10-06T07:57:05.000Z</time>
      </trkpt>
      <trkpt lat="43.53261" lon="1.45057">
        <ele>144.79</ele>
        <time>2019-10-06T07:57:07.000Z</time>
      </trkpt>
      <trkpt lat="43.53251" lon="1.45043">
        <ele>143.81</ele>
        <time>2019-10-06T07:57:09.000Z</time>
      </trkpt>
      <trkpt lat="43.5324" lon="1.45031">
        <ele>140.56</ele>
        <time>2019-10-06T07:57:11.000Z</time>
      </trkpt>
      <trkpt lat="43.53218" lon="1.45022">
        <ele>135.69</ele>
        <time>2019-10-06T07:57:14.000Z</time>
      </trkpt>
      <trkpt lat="43.53199" lon="1.45027">
        <ele>130.87</ele>
        <time>2019-10-06T07:57:16.000Z</time>
      </trkpt>
      <trkpt lat="43.53189" lon="1.45031">
        <ele>128.92</ele>
        <time>2019-10-06T07:57:17.000Z</time>
      </trkpt>
      <trkpt lat="43.53174" lon="1.45033">
        <ele>125.7</ele>
        <time>2019-10-06T07:57:19.000Z</time>
      </trkpt>
      <trkpt lat="43.53168" lon="1.4502">
        <ele>123.86</ele>
        <time>2019-10-06T07:57:22.000Z</time>
      </trkpt>
      <trkpt lat="43.53174" lon="1.44996">
        <ele>121.34</ele>
        <time>2019-10-06T07:57:25.000Z</time>
      </trkpt>
      <trkpt lat="43.5318" lon="1.44962">
        <ele>117.67</ele>
        <time>2019-10-06T07:57:28.000Z</time>
      </trkpt>
      <trkpt lat="43.53185" lon="1.44947">
        <ele>115.38</ele>
        <time>2019-10-06T07:57:29.000Z</time>
      </trkpt>
      <trkpt lat="43.53193" lon="1.44922">
        <ele>113.38</ele>
        <time>2019-10-06T07:57:31.000Z</time>
      </trkpt>
      <trkpt lat="43.53198" lon="1.44895">
        <ele>108.89</ele>
        <time>2019-10-06T07:57:33.000Z</time>
      </trkpt>
      <trkpt lat="43.53198" lon="1.44876">
        <ele>106.52</ele>
        <time>2019-10-06T07:57:35.000Z</time>
      </trkpt>
      <trkpt lat="43.53191" lon="1.44857">
        <ele>101.84</ele>
        <time>2019-10-06T07:57:38.000Z</time>
      </trkpt>
      <trkpt lat="43.53178" lon="1.44852">
        <ele>97.2</ele>
        <time>2019-10-06T07:57:42.000Z</time>
      </trkpt>
      <trkpt lat="43.53166" lon="1.44861">
        <ele>95.51</ele>
        <time>2019-10-06T07:57:45.000Z</time>
      </trkpt>
      <trkpt lat="43.53156" lon="1.44872">
        <ele>95.64</ele>
        <time>2019-10-06T07:57:47.000Z</time>
      </trkpt>
      <trkpt lat="43.53148" lon="1.44882">
        <ele>96.08</ele>
        <time>2019-10-06T07:57:49.000Z</time>
      </trkpt>
      <trkpt lat="43.53141" lon="1.44894">
        <ele>96.03</ele>
        <time>2019-10-06T07:57:51.000Z</time>
      </trkpt>
      <trkpt lat="43.53132" lon="1.44903">
        <ele>96.76</ele>
        <time>2019-10-06T07:57:55.000Z</time>
      </trkpt>
      <trkpt lat="43.53124" lon="1.44912">
        <ele>96.84</ele>
        <time>2019-10-06T07:57:57.000Z</time>
      </trkpt>
      <trkpt lat="43.53119" lon="1.44927">
        <ele>97.81</ele>
        <time>2019-10-06T07:58:00.000Z</time>
      </trkpt>
      <trkpt lat="43.53115" lon="1.4494">
        <ele>98.05</ele>
        <time>2019-10-06T07:58:02.000Z</time>
      </trkpt>
      <trkpt lat="43.53108" lon="1.4496">
        <ele>99.32</ele>
        <time>2019-10-06T07:58:04.000Z</time>
      </trkpt>
      <trkpt lat="43.53099" lon="1.44972">
        <ele>99.68</ele>
        <time>2019-10-06T07:58:07.000Z</time>
      </trkpt>
      <trkpt lat="43.53089" lon="1.44982">
        <ele>99.73</ele>
        <time>2019-10-06T07:58:10.000Z</time>
      </trkpt>
      <trkpt lat="43.53081" lon="1.44991">
        <ele>99.57</ele>
        <time>2019-10-06T07:58:13.000Z</time>
      </trkpt>
      <trkpt lat="43.53072" lon="1.44996">
        <ele>100.01</ele>
        <time>2019-10-06T07:58:16.000Z</time>
      </trkpt>
      <trkpt lat="43.53062" lon="1.45006">
        <ele>100.59</ele>
        <time>2019-10-06T07:58:18.000Z</time>
      </trkpt>
      <trkpt lat="43.53053" lon="1.45012">
        <ele>100.94</ele>
        <time>2019-10-06T07:58:21.000Z</time>
      </trkpt>
      <trkpt lat="43.53044" lon="1.45022">
        <ele>100.9</ele>
        <time>2019-10-06T07:58:23.000Z</time>
      </trkpt>
      <trkpt lat="43.53035" lon="1.45033">
        <ele>101.25</ele>
        <time>2019-10-06T07:58:26.000Z</time>
      </trkpt>
      <trkpt lat="43.53027" lon="1.45047">
        <ele>102.42</ele>
        <time>2019-10-06T07:58:29.000Z</time>
      </trkpt>
      <trkpt lat="43.53027" lon="1.4506">
        <ele>102.78</ele>
        <time>2019-10-06T07:58:31.000Z</time>
      </trkpt>
      <trkpt lat="43.53019" lon="1.45077">
        <ele>102.78</ele>
        <time>2019-10-06T07:58:35.000Z</time>
      </trkpt>
      <trkpt lat="43.53008" lon="1.45091">
        <ele>103.33</ele>
        <time>2019-10-06T07:58:39.000Z</time>
      </trkpt>
      <trkpt lat="43.52998" lon="1.45102">
        <ele>105.02</ele>
        <time>2019-10-06T07:58:43.000Z</time>
      </trkpt>
      <trkpt lat="43.52988" lon="1.45112">
        <ele>105.45</ele>
        <time>2019-10-06T07:58:46.000Z</time>
      </trkpt>
      <trkpt lat="43.52982" lon="1.45121">
        <ele>105.3</ele>
        <time>2019-10-06T07:58:49.000Z</time>
      </trkpt>
      <trkpt lat="43.52973" lon="1.45131">
        <ele>104.92</ele>
        <time>2019-10-06T07:58:51.000Z</time>
      </trkpt>
      <trkpt lat="43.52963" lon="1.45142">
        <ele>104.77</ele>
        <time>2019-10-06T07:58:54.000Z</time>
      </trkpt>
      <trkpt lat="43.52953" lon="1.45153">
        <ele>104.11</ele>
        <time>2019-10-06T07:58:57.000Z</time>
      </trkpt>
      <trkpt lat="43.52942" lon="1.45163">
        <ele>104.36</ele>
        <time>2019-10-06T07:59:00.000Z</time>
      </trkpt>
      <trkpt lat="43.52933" lon="1.45171">
        <ele>103.86</ele>
        <time>2019-10-06T07:59:03.000Z</time>
      </trkpt>
      <trkpt lat="43.52921" lon="1.45183">
        <ele>103.86</ele>
        <time>2019-10-06T07:59:07.000Z</time>
      </trkpt>
      <trkpt lat="43.52912" lon="1.45191">
        <ele>105.01</ele>
        <time>2019-10-06T07:59:10.000Z</time>
      </trkpt>
      <trkpt lat="43.52901" lon="1.45195">
        <ele>105.97</ele>
        <time>2019-10-06T07:59:13.000Z</time>
      </trkpt>
      <trkpt lat="43.52888" lon="1.4519">
        <ele>106.77</ele>
        <time>2019-10-06T07:59:16.000Z</time>
      </trkpt>
      <trkpt lat="43.52879" lon="1.45178">
        <ele>105.89</ele>
        <time>2019-10-06T07:59:19.000Z</time>
      </trkpt>
      <trkpt lat="43.52874" lon="1.45165">
        <ele>105.61</ele>
        <time>2019-10-06T07:59:21.000Z</time>
      </trkpt>
      <trkpt lat="43.5287" lon="1.45152">
        <ele>104.84</ele>
        <time>2019-10-06T07:59:23.000Z</time>
      </trkpt>
      <trkpt lat="43.52868" lon="1.4514">
        <ele>104.56</ele>
        <time>2019-10-06T07:59:26.000Z</time>
      </trkpt>
      <trkpt lat="43.52868" lon="1.45125">
        <ele>104.83</ele>
        <time>2019-10-06T07:59:30.000Z</time>
      </trkpt>
      <trkpt lat="43.52856" lon="1.45119">
        <ele>109.6</ele>
        <time>2019-10-06T07:59:36.000Z</time>
      </trkpt>
      <trkpt lat="43.52848" lon="1.45111">
        <ele>110.12</ele>
        <time>2019-10-06T07:59:41.000Z</time>
      </trkpt>
      <trkpt lat="43.5284" lon="1.45101">
        <ele>112.6</ele>
        <time>2019-10-06T07:59:44.000Z</time>
      </trkpt>
      <trkpt lat="43.5283" lon="1.45091">
        <ele>116.68</ele>
        <time>2019-10-06T07:59:48.000Z</time>
      </trkpt>
      <trkpt lat="43.52822" lon="1.45083">
        <ele>119.12</ele>
        <time>2019-10-06T07:59:51.000Z</time>
      </trkpt>
      <trkpt lat="43.52814" lon="1.45075">
        <ele>119.79</ele>
        <time>2019-10-06T07:59:55.000Z</time>
      </trkpt>
      <trkpt lat="43.52806" lon="1.45065">
        <ele>120.72</ele>
        <time>2019-10-06T07:59:58.000Z</time>
      </trkpt>
      <trkpt lat="43.52797" lon="1.45057">
        <ele>122.25</ele>
        <time>2019-10-06T08:00:02.000Z</time>
      </trkpt>
      <trkpt lat="43.52786" lon="1.45052">
        <ele>123.45</ele>
        <time>2019-10-06T08:00:06.000Z</time>
      </trkpt>
      <trkpt lat="43.52776" lon="1.45049">
        <ele>124.82</ele>
        <time>2019-10-06T08:00:10.000Z</time>
      </trkpt>
      <trkpt lat="43.52766" lon="1.45047">
        <ele>125.18</ele>
        <time>2019-10-06T08:00:12.000Z</time>
      </trkpt>
      <trkpt lat="43.52755" lon="1.45043">
        <ele>126.48</ele>
        <time>2019-10-06T08:00:16.000Z</time>
      </trkpt>
      <trkpt lat="43.52742" lon="1.45041">
        <ele>126.65</ele>
        <time>2019-10-06T08:00:19.000Z</time>
      </trkpt>
      <trkpt lat="43.52733" lon="1.45036">
        <ele>128.76</ele>
        <time>2019-10-06T08:00:23.000Z</time>
      </trkpt>
      <trkpt lat="43.52726" lon="1.45027">
        <ele>130.16</ele>
        <time>2019-10-06T08:00:27.000Z</time>
      </trkpt>
      <trkpt lat="43.52723" lon="1.45014">
        <ele>132.65</ele>
        <time>2019-10-06T08:00:33.000Z</time>
      </trkpt>
      <trkpt lat="43.52716" lon="1.44994">
        <ele>134.46</ele>
        <time>2019-10-06T08:00:38.000Z</time>
      </trkpt>
      <trkpt lat="43.52712" lon="1.44981">
        <ele>134.46</ele>
        <time>2019-10-06T08:00:40.000Z</time>
      </trkpt>
      <trkpt lat="43.52707" lon="1.44968">
        <ele>136.13</ele>
        <time>2019-10-06T08:00:44.000Z</time>
      </trkpt>
      <trkpt lat="43.52702" lon="1.44956">
        <ele>136.95</ele>
        <time>2019-10-06T08:00:48.000Z</time>
      </trkpt>
      <trkpt lat="43.52698" lon="1.44944">
        <ele>137.94</ele>
        <time>2019-10-06T08:00:52.000Z</time>
      </trkpt>
      <trkpt lat="43.52693" lon="1.44932">
        <ele>140.02</ele>
        <time>2019-10-06T08:00:56.000Z</time>
      </trkpt>
      <trkpt lat="43.52689" lon="1.44919">
        <ele>146.09</ele>
        <time>2019-10-06T08:00:59.000Z</time>
      </trkpt>
      <trkpt lat="43.52685" lon="1.44905">
        <ele>150.25</ele>
        <time>2019-10-06T08:01:03.000Z</time>
      </trkpt>
      <trkpt lat="43.5268" lon="1.4489">
        <ele>150.56</ele>
        <time>2019-10-06T08:01:08.000Z</time>
      </trkpt>
      <trkpt lat="43.52678" lon="1.44876">
        <ele>152.81</ele>
        <time>2019-10-06T08:01:11.000Z</time>
      </trkpt>
      <trkpt lat="43.52676" lon="1.44863">
        <ele>156.97</ele>
        <time>2019-10-06T08:01:15.000Z</time>
      </trkpt>
      <trkpt lat="43.52669" lon="1.44845">
        <ele>159.94</ele>
        <time>2019-10-06T08:01:20.000Z</time>
      </trkpt>
      <trkpt lat="43.52665" lon="1.44831">
        <ele>161.47</ele>
        <time>2019-10-06T08:01:23.000Z</time>
      </trkpt>
      <trkpt lat="43.5266" lon="1.44818">
        <ele>163.05</ele>
        <time>2019-10-06T08:01:26.000Z</time>
      </trkpt>
      <trkpt lat="43.52654" lon="1.44801">
        <ele>164.91</ele>
        <time>2019-10-06T08:01:32.000Z</time>
      </trkpt>
      <trkpt lat="43.5265" lon="1.44787">
        <ele>165.08</ele>
        <time>2019-10-06T08:01:36.000Z</time>
      </trkpt>
      <trkpt lat="43.52646" lon="1.44771">
        <ele>168.74</ele>
        <time>2019-10-06T08:01:41.000Z</time>
      </trkpt>
      <trkpt lat="43.52646" lon="1.44754">
        <ele>172.18</ele>
        <time>2019-10-06T08:01:45.000Z</time>
      </trkpt>
      <trkpt lat="43.52647" lon="1.44742">
        <ele>173.65</ele>
        <time>2019-10-06T08:01:48.000Z</time>
      </trkpt>
      <trkpt lat="43.52649" lon="1.44728">
        <ele>175.43</ele>
        <time>2019-10-06T08:01:53.000Z</time>
      </trkpt>
      <trkpt lat="43.5265" lon="1.44713">
        <ele>177.47</ele>
        <time>2019-10-06T08:01:58.000Z</time>
      </trkpt>
      <trkpt lat="43.52653" lon="1.44699">
        <ele>177.97</ele>
        <time>2019-10-06T08:02:02.000Z</time>
      </trkpt>
      <trkpt lat="43.52654" lon="1.44686">
        <ele>178.6</ele>
        <time>2019-10-06T08:02:06.000Z</time>
      </trkpt>
      <trkpt lat="43.5265" lon="1.44669">
        <ele>180.06</ele>
        <time>2019-10-06T08:02:12.000Z</time>
      </trkpt>
      <trkpt lat="43.52644" lon="1.44649">
        <ele>180.48</ele>
        <time>2019-10-06T08:02:17.000Z</time>
      </trkpt>
      <trkpt lat="43.5264" lon="1.44634">
        <ele>180.43</ele>
        <time>2019-10-06T08:02:20.000Z</time>
      </trkpt>
      <trkpt lat="43.52631" lon="1.44625">
        <ele>180.03</ele>
        <time>2019-10-06T08:02:24.000Z</time>
      </trkpt>
      <trkpt lat="43.5262" lon="1.4462">
        <ele>180.14</ele>
        <time>2019-10-06T08:02:28.000Z</time>
      </trkpt>
      <trkpt lat="43.52616" lon="1.44603">
        <ele>179.13</ele>
        <time>2019-10-06T08:02:33.000Z</time>
      </trkpt>
      <trkpt lat="43.52605" lon="1.44592">
        <ele>177.75</ele>
        <time>2019-10-06T08:02:37.000Z</time>
      </trkpt>
      <trkpt lat="43.52596" lon="1.44585">
        <ele>177.11</ele>
        <time>2019-10-06T08:02:39.000Z</time>
      </trkpt>
      <trkpt lat="43.52585" lon="1.44576">
        <ele>176.88</ele>
        <time>2019-10-06T08:02:42.000Z</time>
      </trkpt>
      <trkpt lat="43.52576" lon="1.44567">
        <ele>176.92</ele>
        <time>2019-10-06T08:02:45.000Z</time>
      </trkpt>
      <trkpt lat="43.52567" lon="1.44564">
        <ele>176.92</ele>
        <time>2019-10-06T08:02:48.000Z</time>
      </trkpt>
      <trkpt lat="43.52558" lon="1.44564">
        <ele>176.62</ele>
        <time>2019-10-06T08:02:50.000Z</time>
      </trkpt>
      <trkpt lat="43.52545" lon="1.44561">
        <ele>176.81</ele>
        <time>2019-10-06T08:02:53.000Z</time>
      </trkpt>
      <trkpt lat="43.52533" lon="1.44556">
        <ele>176.89</ele>
        <time>2019-10-06T08:02:57.000Z</time>
      </trkpt>
      <trkpt lat="43.52527" lon="1.44546">
        <ele>176.57</ele>
        <time>2019-10-06T08:04:40.000Z</time>
      </trkpt>
      <trkpt lat="43.52515" lon="1.44548">
        <ele>176.56</ele>
        <time>2019-10-06T08:06:05.000Z</time>
      </trkpt>
      <trkpt lat="43.52497" lon="1.44551">
        <ele>175.48</ele>
        <time>2019-10-06T08:06:09.000Z</time>
      </trkpt>
      <trkpt lat="43.52486" lon="1.44552">
        <ele>174.41</ele>
        <time>2019-10-06T08:06:11.000Z</time>
      </trkpt>
      <trkpt lat="43.52475" lon="1.44554">
        <ele>173.12</ele>
        <time>2019-10-06T08:06:13.000Z</time>
      </trkpt>
      <trkpt lat="43.52461" lon="1.44553">
        <ele>171.43</ele>
        <time>2019-10-06T08:06:15.000Z</time>
      </trkpt>
      <trkpt lat="43.52446" lon="1.44549">
        <ele>169.58</ele>
        <time>2019-10-06T08:06:17.000Z</time>
      </trkpt>
      <trkpt lat="43.52424" lon="1.4455">
        <ele>167.34</ele>
        <time>2019-10-06T08:06:20.000Z</time>
      </trkpt>
      <trkpt lat="43.52408" lon="1.44563">
        <ele>165.5</ele>
        <time>2019-10-06T08:06:22.000Z</time>
      </trkpt>
      <trkpt lat="43.5239" lon="1.44572">
        <ele>163.56</ele>
        <time>2019-10-06T08:06:24.000Z</time>
      </trkpt>
      <trkpt lat="43.52372" lon="1.44577">
        <ele>161.35</ele>
        <time>2019-10-06T08:06:26.000Z</time>
      </trkpt>
      <trkpt lat="43.52363" lon="1.4458">
        <ele>160.27</ele>
        <time>2019-10-06T08:06:27.000Z</time>
      </trkpt>
      <trkpt lat="43.52354" lon="1.44582">
        <ele>159.4</ele>
        <time>2019-10-06T08:06:28.000Z</time>
      </trkpt>
      <trkpt lat="43.52344" lon="1.44583">
        <ele>158.64</ele>
        <time>2019-10-06T08:06:29.000Z</time>
      </trkpt>
      <trkpt lat="43.52324" lon="1.44581">
        <ele>157.26</ele>
        <time>2019-10-06T08:06:31.000Z</time>
      </trkpt>
      <trkpt lat="43.52303" lon="1.44577">
        <ele>156.79</ele>
        <time>2019-10-06T08:06:34.000Z</time>
      </trkpt>
      <trkpt lat="43.52301" lon="1.4456">
        <ele>156.46</ele>
        <time>2019-10-06T08:06:37.000Z</time>
      </trkpt>
      <trkpt lat="43.52313" lon="1.44531">
        <ele>154.86</ele>
        <time>2019-10-06T08:06:40.000Z</time>
      </trkpt>
      <trkpt lat="43.52321" lon="1.44507">
        <ele>151.82</ele>
        <time>2019-10-06T08:06:42.000Z</time>
      </trkpt>
      <trkpt lat="43.52331" lon="1.44481">
        <ele>150.17</ele>
        <time>2019-10-06T08:06:43.000Z</time>
      </trkpt>
      <trkpt lat="43.52336" lon="1.44468">
        <ele>147.37</ele>
        <time>2019-10-06T08:06:45.000Z</time>
      </trkpt>
      <trkpt lat="43.52341" lon="1.44455">
        <ele>146.03</ele>
        <time>2019-10-06T08:06:46.000Z</time>
      </trkpt>
      <trkpt lat="43.52346" lon="1.44441">
        <ele>144.99</ele>
        <time>2019-10-06T08:06:47.000Z</time>
      </trkpt>
      <trkpt lat="43.52356" lon="1.44413">
        <ele>144.59</ele>
        <time>2019-10-06T08:06:48.000Z</time>
      </trkpt>
      <trkpt lat="43.52367" lon="1.44387">
        <ele>143.49</ele>
        <time>2019-10-06T08:06:50.000Z</time>
      </trkpt>
      <trkpt lat="43.52373" lon="1.44373">
        <ele>141.8</ele>
        <time>2019-10-06T08:06:52.000Z</time>
      </trkpt>
      <trkpt lat="43.52378" lon="1.44359">
        <ele>141.21</ele>
        <time>2019-10-06T08:06:53.000Z</time>
      </trkpt>
      <trkpt lat="43.52388" lon="1.44333">
        <ele>138.96</ele>
        <time>2019-10-06T08:06:55.000Z</time>
      </trkpt>
      <trkpt lat="43.52393" lon="1.4432">
        <ele>137.79</ele>
        <time>2019-10-06T08:06:56.000Z</time>
      </trkpt>
      <trkpt lat="43.52398" lon="1.44306">
        <ele>137.02</ele>
        <time>2019-10-06T08:06:57.000Z</time>
      </trkpt>
      <trkpt lat="43.52404" lon="1.44294">
        <ele>136.32</ele>
        <time>2019-10-06T08:06:58.000Z</time>
      </trkpt>
      <trkpt lat="43.52414" lon="1.44267">
        <ele>134.71</ele>
        <time>2019-10-06T08:07:00.000Z</time>
      </trkpt>
      <trkpt lat="43.52422" lon="1.44239">
        <ele>133.64</ele>
        <time>2019-10-06T08:07:01.000Z</time>
      </trkpt>
      <trkpt lat="43.5243" lon="1.44214">
        <ele>132.08</ele>
        <time>2019-10-06T08:07:04.000Z</time>
      </trkpt>
      <trkpt lat="43.52433" lon="1.44195">
        <ele>131.55</ele>
        <time>2019-10-06T08:07:05.000Z</time>
      </trkpt>
      <trkpt lat="43.52423" lon="1.44199">
        <ele>132.76</ele>
        <time>2019-10-06T08:07:17.000Z</time>
      </trkpt>
      <trkpt lat="43.52414" lon="1.44198">
        <ele>131.44</ele>
        <time>2019-10-06T08:07:22.000Z</time>
      </trkpt>
      <trkpt lat="43.52418" lon="1.44182">
        <ele>129.48</ele>
        <time>2019-10-06T08:07:28.000Z</time>
      </trkpt>
      <trkpt lat="43.5242" lon="1.44169">
        <ele>128.89</ele>
        <time>2019-10-06T08:07:29.000Z</time>
      </trkpt>
      <trkpt lat="43.52425" lon="1.44155">
        <ele>127.18</ele>
        <time>2019-10-06T08:07:32.000Z</time>
      </trkpt>
      <trkpt lat="43.52421" lon="1.44141">
        <ele>127.18</ele>
        <time>2019-10-06T08:07:34.000Z</time>
      </trkpt>
      <trkpt lat="43.52411" lon="1.44132">
        <ele>126.38</ele>
        <time>2019-10-06T08:07:35.000Z</time>
      </trkpt>
      <trkpt lat="43.524" lon="1.44124">
        <ele>125.67</ele>
        <time>2019-10-06T08:07:37.000Z</time>
      </trkpt>
      <trkpt lat="43.52392" lon="1.44113">
        <ele>124.24</ele>
        <time>2019-10-06T08:07:40.000Z</time>
      </trkpt>
      <trkpt lat="43.52395" lon="1.44099">
        <ele>123.19</ele>
        <time>2019-10-06T08:07:46.000Z</time>
      </trkpt>
      <trkpt lat="43.52395" lon="1.44086">
        <ele>121.53</ele>
        <time>2019-10-06T08:07:49.000Z</time>
      </trkpt>
      <trkpt lat="43.52396" lon="1.44071">
        <ele>121.15</ele>
        <time>2019-10-06T08:07:50.000Z</time>
      </trkpt>
      <trkpt lat="43.52388" lon="1.44063">
        <ele>125.7</ele>
        <time>2019-10-06T08:08:08.000Z</time>
      </trkpt>
      <trkpt lat="43.52378" lon="1.44059">
        <ele>131.73</ele>
        <time>2019-10-06T08:08:14.000Z</time>
      </trkpt>
      <trkpt lat="43.52368" lon="1.44053">
        <ele>136.15</ele>
        <time>2019-10-06T08:08:24.000Z</time>
      </trkpt>
      <trkpt lat="43.52358" lon="1.44048">
        <ele>137.75</ele>
        <time>2019-10-06T08:08:28.000Z</time>
      </trkpt>
      <trkpt lat="43.52348" lon="1.44045">
        <ele>139.75</ele>
        <time>2019-10-06T08:08:32.000Z</time>
      </trkpt>
      <trkpt lat="43.52339" lon="1.44042">
        <ele>140.92</ele>
        <time>2019-10-06T08:08:36.000Z</time>
      </trkpt>
      <trkpt lat="43.5233" lon="1.44039">
        <ele>142.85</ele>
        <time>2019-10-06T08:08:42.000Z</time>
      </trkpt>
      <trkpt lat="43.5232" lon="1.44045">
        <ele>143.14</ele>
        <time>2019-10-06T08:09:42.000Z</time>
      </trkpt>
      <trkpt lat="43.52313" lon="1.44057">
        <ele>143.77</ele>
        <time>2019-10-06T08:09:47.000Z</time>
      </trkpt>
      <trkpt lat="43.52303" lon="1.44062">
        <ele>144.85</ele>
        <time>2019-10-06T08:09:52.000Z</time>
      </trkpt>
      <trkpt lat="43.52293" lon="1.4406">
        <ele>146.13</ele>
        <time>2019-10-06T08:09:57.000Z</time>
      </trkpt>
      <trkpt lat="43.52284" lon="1.44048">
        <ele>147.19</ele>
        <time>2019-10-06T08:10:02.000Z</time>
      </trkpt>
      <trkpt lat="43.52274" lon="1.44042">
        <ele>148.43</ele>
        <time>2019-10-06T08:10:07.000Z</time>
      </trkpt>
      <trkpt lat="43.52265" lon="1.44038">
        <ele>149.73</ele>
        <time>2019-10-06T08:10:11.000Z</time>
      </trkpt>
      <trkpt lat="43.52256" lon="1.44039">
        <ele>150.9</ele>
        <time>2019-10-06T08:10:15.000Z</time>
      </trkpt>
      <trkpt lat="43.52245" lon="1.44043">
        <ele>152.27</ele>
        <time>2019-10-06T08:10:20.000Z</time>
      </trkpt>
      <trkpt lat="43.52237" lon="1.44048">
        <ele>153.45</ele>
        <time>2019-10-06T08:10:24.000Z</time>
      </trkpt>
      <trkpt lat="43.52227" lon="1.44052">
        <ele>154.97</ele>
        <time>2019-10-06T08:10:29.000Z</time>
      </trkpt>
      <trkpt lat="43.52218" lon="1.44042">
        <ele>156</ele>
        <time>2019-10-06T08:10:34.000Z</time>
      </trkpt>
      <trkpt lat="43.52207" lon="1.44035">
        <ele>156.86</ele>
        <time>2019-10-06T08:10:39.000Z</time>
      </trkpt>
      <trkpt lat="43.52195" lon="1.44034">
        <ele>157.87</ele>
        <time>2019-10-06T08:10:44.000Z</time>
      </trkpt>
      <trkpt lat="43.52183" lon="1.44035">
        <ele>158.99</ele>
        <time>2019-10-06T08:10:49.000Z</time>
      </trkpt>
      <trkpt lat="43.52174" lon="1.44029">
        <ele>159.6</ele>
        <time>2019-10-06T08:10:53.000Z</time>
      </trkpt>
      <trkpt lat="43.52165" lon="1.44028">
        <ele>159.94</ele>
        <time>2019-10-06T08:10:56.000Z</time>
      </trkpt>
      <trkpt lat="43.52155" lon="1.44023">
        <ele>159.62</ele>
        <time>2019-10-06T08:11:01.000Z</time>
      </trkpt>
      <trkpt lat="43.5214" lon="1.4401">
        <ele>158.03</ele>
        <time>2019-10-06T08:11:04.000Z</time>
      </trkpt>
      <trkpt lat="43.52118" lon="1.43991">
        <ele>155.67</ele>
        <time>2019-10-06T08:11:07.000Z</time>
      </trkpt>
      <trkpt lat="43.52104" lon="1.43978">
        <ele>154.42</ele>
        <time>2019-10-06T08:11:09.000Z</time>
      </trkpt>
      <trkpt lat="43.52091" lon="1.43964">
        <ele>153.32</ele>
        <time>2019-10-06T08:11:11.000Z</time>
      </trkpt>
      <trkpt lat="43.52075" lon="1.4394">
        <ele>152.55</ele>
        <time>2019-10-06T08:11:14.000Z</time>
      </trkpt>
      <trkpt lat="43.5207" lon="1.43922">
        <ele>151.86</ele>
        <time>2019-10-06T08:11:16.000Z</time>
      </trkpt>
      <trkpt lat="43.52066" lon="1.43894">
        <ele>151.51</ele>
        <time>2019-10-06T08:11:19.000Z</time>
      </trkpt>
      <trkpt lat="43.52063" lon="1.4387">
        <ele>151.51</ele>
        <time>2019-10-06T08:11:22.000Z</time>
      </trkpt>
      <trkpt lat="43.5206" lon="1.43851">
        <ele>152.17</ele>
        <time>2019-10-06T08:11:25.000Z</time>
      </trkpt>
      <trkpt lat="43.52055" lon="1.43835">
        <ele>153.38</ele>
        <time>2019-10-06T08:11:28.000Z</time>
      </trkpt>
      <trkpt lat="43.52051" lon="1.43821">
        <ele>154.78</ele>
        <time>2019-10-06T08:11:31.000Z</time>
      </trkpt>
      <trkpt lat="43.52042" lon="1.43807">
        <ele>156.22</ele>
        <time>2019-10-06T08:11:35.000Z</time>
      </trkpt>
      <trkpt lat="43.52034" lon="1.43795">
        <ele>157.48</ele>
        <time>2019-10-06T08:11:38.000Z</time>
      </trkpt>
      <trkpt lat="43.52019" lon="1.43784">
        <ele>159.04</ele>
        <time>2019-10-06T08:11:42.000Z</time>
      </trkpt>
      <trkpt lat="43.52004" lon="1.43785">
        <ele>160.89</ele>
        <time>2019-10-06T08:11:46.000Z</time>
      </trkpt>
      <trkpt lat="43.51988" lon="1.43787">
        <ele>161.42</ele>
        <time>2019-10-06T08:11:50.000Z</time>
      </trkpt>
      <trkpt lat="43.51975" lon="1.43789">
        <ele>160.29</ele>
        <time>2019-10-06T08:11:52.000Z</time>
      </trkpt>
      <trkpt lat="43.5196" lon="1.4379">
        <ele>158.24</ele>
        <time>2019-10-06T08:11:54.000Z</time>
      </trkpt>
      <trkpt lat="43.51936" lon="1.43793">
        <ele>155.75</ele>
        <time>2019-10-06T08:11:57.000Z</time>
      </trkpt>
      <trkpt lat="43.51922" lon="1.438">
        <ele>153.65</ele>
        <time>2019-10-06T08:11:59.000Z</time>
      </trkpt>
      <trkpt lat="43.51908" lon="1.43803">
        <ele>149.63</ele>
        <time>2019-10-06T08:12:01.000Z</time>
      </trkpt>
      <trkpt lat="43.51879" lon="1.43806">
        <ele>142.17</ele>
        <time>2019-10-06T08:12:04.000Z</time>
      </trkpt>
      <trkpt lat="43.51858" lon="1.43814">
        <ele>136.45</ele>
        <time>2019-10-06T08:12:06.000Z</time>
      </trkpt>
      <trkpt lat="43.51841" lon="1.43821">
        <ele>134.35</ele>
        <time>2019-10-06T08:12:08.000Z</time>
      </trkpt>
      <trkpt lat="43.51818" lon="1.43838">
        <ele>127.83</ele>
        <time>2019-10-06T08:12:11.000Z</time>
      </trkpt>
      <trkpt lat="43.51805" lon="1.43847">
        <ele>124.61</ele>
        <time>2019-10-06T08:12:13.000Z</time>
      </trkpt>
      <trkpt lat="43.51794" lon="1.43842">
        <ele>122.48</ele>
        <time>2019-10-06T08:12:17.000Z</time>
      </trkpt>
      <trkpt lat="43.51788" lon="1.43833">
        <ele>122.09</ele>
        <time>2019-10-06T08:12:20.000Z</time>
      </trkpt>
      <trkpt lat="43.51777" lon="1.4382">
        <ele>121.15</ele>
        <time>2019-10-06T08:12:23.000Z</time>
      </trkpt>
      <trkpt lat="43.51767" lon="1.43804">
        <ele>120.92</ele>
        <time>2019-10-06T08:12:26.000Z</time>
      </trkpt>
      <trkpt lat="43.51759" lon="1.4379">
        <ele>121.42</ele>
        <time>2019-10-06T08:12:29.000Z</time>
      </trkpt>
      <trkpt lat="43.5175" lon="1.43777">
        <ele>121.81</ele>
        <time>2019-10-06T08:12:32.000Z</time>
      </trkpt>
      <trkpt lat="43.51733" lon="1.43758">
        <ele>118.48</ele>
        <time>2019-10-06T08:12:35.000Z</time>
      </trkpt>
      <trkpt lat="43.51715" lon="1.43739">
        <ele>115.6</ele>
        <time>2019-10-06T08:12:37.000Z</time>
      </trkpt>
      <trkpt lat="43.51704" lon="1.43729">
        <ele>113.74</ele>
        <time>2019-10-06T08:12:38.000Z</time>
      </trkpt>
      <trkpt lat="43.51694" lon="1.4372">
        <ele>111.38</ele>
        <time>2019-10-06T08:12:39.000Z</time>
      </trkpt>
      <trkpt lat="43.51675" lon="1.43706">
        <ele>107.3</ele>
        <time>2019-10-06T08:12:41.000Z</time>
      </trkpt>
      <trkpt lat="43.51658" lon="1.43699">
        <ele>105.41</ele>
        <time>2019-10-06T08:12:43.000Z</time>
      </trkpt>
      <trkpt lat="43.51642" lon="1.43691">
        <ele>101.28</ele>
        <time>2019-10-06T08:12:45.000Z</time>
      </trkpt>
      <trkpt lat="43.51629" lon="1.43684">
        <ele>97.5</ele>
        <time>2019-10-06T08:12:47.000Z</time>
      </trkpt>
      <trkpt lat="43.51629" lon="1.437">
        <ele>93.7</ele>
        <time>2019-10-06T08:12:55.000Z</time>
      </trkpt>
      <trkpt lat="43.51629" lon="1.43719">
        <ele>93.43</ele>
        <time>2019-10-06T08:13:01.000Z</time>
      </trkpt>
      <trkpt lat="43.51626" lon="1.43733">
        <ele>93.26</ele>
        <time>2019-10-06T08:13:03.000Z</time>
      </trkpt>
      <trkpt lat="43.51621" lon="1.43746">
        <ele>93.61</ele>
        <time>2019-10-06T08:13:10.000Z</time>
      </trkpt>
      <trkpt lat="43.51615" lon="1.43757">
        <ele>93.39</ele>
        <time>2019-10-06T08:13:15.000Z</time>
      </trkpt>
      <trkpt lat="43.51605" lon="1.43771">
        <ele>93.1</ele>
        <time>2019-10-06T08:13:18.000Z</time>
      </trkpt>
      <trkpt lat="43.51597" lon="1.43792">
        <ele>93.35</ele>
        <time>2019-10-06T08:13:21.000Z</time>
      </trkpt>
      <trkpt lat="43.51592" lon="1.43804">
        <ele>92.96</ele>
        <time>2019-10-06T08:13:23.000Z</time>
      </trkpt>
      <trkpt lat="43.51588" lon="1.43819">
        <ele>92.78</ele>
        <time>2019-10-06T08:13:25.000Z</time>
      </trkpt>
      <trkpt lat="43.51582" lon="1.43831">
        <ele>93.5</ele>
        <time>2019-10-06T08:13:29.000Z</time>
      </trkpt>
      <trkpt lat="43.51576" lon="1.43841">
        <ele>93.85</ele>
        <time>2019-10-06T08:13:32.000Z</time>
      </trkpt>
      <trkpt lat="43.51567" lon="1.4385">
        <ele>94.66</ele>
        <time>2019-10-06T08:13:36.000Z</time>
      </trkpt>
      <trkpt lat="43.51565" lon="1.43867">
        <ele>95.46</ele>
        <time>2019-10-06T08:13:40.000Z</time>
      </trkpt>
      <trkpt lat="43.51565" lon="1.4388">
        <ele>96.17</ele>
        <time>2019-10-06T08:13:43.000Z</time>
      </trkpt>
      <trkpt lat="43.5156" lon="1.43892">
        <ele>97.43</ele>
        <time>2019-10-06T08:13:47.000Z</time>
      </trkpt>
      <trkpt lat="43.51554" lon="1.43917">
        <ele>97.24</ele>
        <time>2019-10-06T08:13:54.000Z</time>
      </trkpt>
      <trkpt lat="43.5155" lon="1.43929">
        <ele>96.89</ele>
        <time>2019-10-06T08:13:55.000Z</time>
      </trkpt>
      <trkpt lat="43.51545" lon="1.43951">
        <ele>96.64</ele>
        <time>2019-10-06T08:13:57.000Z</time>
      </trkpt>
      <trkpt lat="43.51541" lon="1.43971">
        <ele>96.63</ele>
        <time>2019-10-06T08:14:00.000Z</time>
      </trkpt>
      <trkpt lat="43.51535" lon="1.43993">
        <ele>96.46</ele>
        <time>2019-10-06T08:14:02.000Z</time>
      </trkpt>
      <trkpt lat="43.51532" lon="1.44008">
        <ele>96.64</ele>
        <time>2019-10-06T08:14:05.000Z</time>
      </trkpt>
      <trkpt lat="43.51527" lon="1.44018">
        <ele>96.64</ele>
        <time>2019-10-06T08:14:07.000Z</time>
      </trkpt>
      <trkpt lat="43.51521" lon="1.44028">
        <ele>97.43</ele>
        <time>2019-10-06T08:14:10.000Z</time>
      </trkpt>
      <trkpt lat="43.5151" lon="1.44037">
        <ele>99.01</ele>
        <time>2019-10-06T08:14:14.000Z</time>
      </trkpt>
      <trkpt lat="43.515" lon="1.44045">
        <ele>100.5</ele>
        <time>2019-10-06T08:14:18.000Z</time>
      </trkpt>
      <trkpt lat="43.51498" lon="1.44065">
        <ele>100.45</ele>
        <time>2019-10-06T08:14:23.000Z</time>
      </trkpt>
      <trkpt lat="43.51497" lon="1.44078">
        <ele>100.19</ele>
        <time>2019-10-06T08:14:25.000Z</time>
      </trkpt>
      <trkpt lat="43.51492" lon="1.44091">
        <ele>100.1</ele>
        <time>2019-10-06T08:14:28.000Z</time>
      </trkpt>
      <trkpt lat="43.51486" lon="1.44104">
        <ele>100.49</ele>
        <time>2019-10-06T08:14:31.000Z</time>
      </trkpt>
      <trkpt lat="43.51478" lon="1.44099">
        <ele>101.1</ele>
        <time>2019-10-06T08:14:38.000Z</time>
      </trkpt>
      <trkpt lat="43.51479" lon="1.44085">
        <ele>106.29</ele>
        <time>2019-10-06T08:14:46.000Z</time>
      </trkpt>
      <trkpt lat="43.51473" lon="1.44073">
        <ele>110.22</ele>
        <time>2019-10-06T08:14:55.000Z</time>
      </trkpt>
      <trkpt lat="43.51468" lon="1.4406">
        <ele>113.04</ele>
        <time>2019-10-06T08:14:59.000Z</time>
      </trkpt>
      <trkpt lat="43.51465" lon="1.44045">
        <ele>114.03</ele>
        <time>2019-10-06T08:15:04.000Z</time>
      </trkpt>
      <trkpt lat="43.51463" lon="1.4403">
        <ele>119.06</ele>
        <time>2019-10-06T08:15:10.000Z</time>
      </trkpt>
      <trkpt lat="43.51458" lon="1.44018">
        <ele>121.8</ele>
        <time>2019-10-06T08:15:15.000Z</time>
      </trkpt>
      <trkpt lat="43.51451" lon="1.44008">
        <ele>123.05</ele>
        <time>2019-10-06T08:15:18.000Z</time>
      </trkpt>
      <trkpt lat="43.51439" lon="1.43998">
        <ele>124.01</ele>
        <time>2019-10-06T08:15:21.000Z</time>
      </trkpt>
      <trkpt lat="43.51429" lon="1.43992">
        <ele>124.69</ele>
        <time>2019-10-06T08:15:25.000Z</time>
      </trkpt>
      <trkpt lat="43.51419" lon="1.43987">
        <ele>125.99</ele>
        <time>2019-10-06T08:15:29.000Z</time>
      </trkpt>
      <trkpt lat="43.51411" lon="1.43981">
        <ele>126.9</ele>
        <time>2019-10-06T08:15:33.000Z</time>
      </trkpt>
      <trkpt lat="43.51401" lon="1.43976">
        <ele>128.03</ele>
        <time>2019-10-06T08:15:37.000Z</time>
      </trkpt>
      <trkpt lat="43.51392" lon="1.43971">
        <ele>130.37</ele>
        <time>2019-10-06T08:15:41.000Z</time>
      </trkpt>
      <trkpt lat="43.51382" lon="1.43966">
        <ele>131</ele>
        <time>2019-10-06T08:15:46.000Z</time>
      </trkpt>
      <trkpt lat="43.51373" lon="1.43963">
        <ele>132.3</ele>
        <time>2019-10-06T08:15:49.000Z</time>
      </trkpt>
      <trkpt lat="43.51363" lon="1.43958">
        <ele>134.11</ele>
        <time>2019-10-06T08:15:53.000Z</time>
      </trkpt>
      <trkpt lat="43.51355" lon="1.43954">
        <ele>134.32</ele>
        <time>2019-10-06T08:15:57.000Z</time>
      </trkpt>
      <trkpt lat="43.51344" lon="1.4395">
        <ele>134.38</ele>
        <time>2019-10-06T08:16:00.000Z</time>
      </trkpt>
      <trkpt lat="43.51334" lon="1.43944">
        <ele>134.49</ele>
        <time>2019-10-06T08:16:04.000Z</time>
      </trkpt>
      <trkpt lat="43.51323" lon="1.43939">
        <ele>136.53</ele>
        <time>2019-10-06T08:16:08.000Z</time>
      </trkpt>
      <trkpt lat="43.51313" lon="1.43935">
        <ele>138.84</ele>
        <time>2019-10-06T08:16:12.000Z</time>
      </trkpt>
      <trkpt lat="43.51304" lon="1.4393">
        <ele>140.77</ele>
        <time>2019-10-06T08:16:15.000Z</time>
      </trkpt>
      <trkpt lat="43.51294" lon="1.43925">
        <ele>141.66</ele>
        <time>2019-10-06T08:16:19.000Z</time>
      </trkpt>
      <trkpt lat="43.51285" lon="1.43917">
        <ele>141.86</ele>
        <time>2019-10-06T08:16:23.000Z</time>
      </trkpt>
      <trkpt lat="43.51276" lon="1.43908">
        <ele>142.35</ele>
        <time>2019-10-06T08:16:27.000Z</time>
      </trkpt>
      <trkpt lat="43.51269" lon="1.43899">
        <ele>145.97</ele>
        <time>2019-10-06T08:16:31.000Z</time>
      </trkpt>
      <trkpt lat="43.5126" lon="1.43886">
        <ele>148.39</ele>
        <time>2019-10-06T08:16:37.000Z</time>
      </trkpt>
      <trkpt lat="43.51254" lon="1.43878">
        <ele>148.72</ele>
        <time>2019-10-06T08:16:40.000Z</time>
      </trkpt>
      <trkpt lat="43.51245" lon="1.43867">
        <ele>148.94</ele>
        <time>2019-10-06T08:16:44.000Z</time>
      </trkpt>
      <trkpt lat="43.51235" lon="1.43856">
        <ele>149.54</ele>
        <time>2019-10-06T08:16:47.000Z</time>
      </trkpt>
      <trkpt lat="43.51226" lon="1.43845">
        <ele>150.47</ele>
        <time>2019-10-06T08:16:51.000Z</time>
      </trkpt>
      <trkpt lat="43.51219" lon="1.43835">
        <ele>152.01</ele>
        <time>2019-10-06T08:16:55.000Z</time>
      </trkpt>
      <trkpt lat="43.51209" lon="1.43823">
        <ele>158.88</ele>
        <time>2019-10-06T08:17:00.000Z</time>
      </trkpt>
      <trkpt lat="43.51199" lon="1.43818">
        <ele>161.6</ele>
        <time>2019-10-06T08:17:05.000Z</time>
      </trkpt>
      <trkpt lat="43.51189" lon="1.43809">
        <ele>164.89</ele>
        <time>2019-10-06T08:17:12.000Z</time>
      </trkpt>
      <trkpt lat="43.5118" lon="1.43804">
        <ele>166.69</ele>
        <time>2019-10-06T08:17:16.000Z</time>
      </trkpt>
      <trkpt lat="43.51172" lon="1.43797">
        <ele>167.94</ele>
        <time>2019-10-06T08:17:19.000Z</time>
      </trkpt>
      <trkpt lat="43.51159" lon="1.4379">
        <ele>169.47</ele>
        <time>2019-10-06T08:17:24.000Z</time>
      </trkpt>
      <trkpt lat="43.51149" lon="1.43786">
        <ele>170.65</ele>
        <time>2019-10-06T08:17:28.000Z</time>
      </trkpt>
      <trkpt lat="43.5114" lon="1.43783">
        <ele>171.43</ele>
        <time>2019-10-06T08:17:32.000Z</time>
      </trkpt>
      <trkpt lat="43.51131" lon="1.4378">
        <ele>171.48</ele>
        <time>2019-10-06T08:17:36.000Z</time>
      </trkpt>
      <trkpt lat="43.51122" lon="1.43781">
        <ele>171.45</ele>
        <time>2019-10-06T08:17:40.000Z</time>
      </trkpt>
      <trkpt lat="43.51108" lon="1.43782">
        <ele>171.44</ele>
        <time>2019-10-06T08:17:47.000Z</time>
      </trkpt>
      <trkpt lat="43.51098" lon="1.43772">
        <ele>169.77</ele>
        <time>2019-10-06T08:17:50.000Z</time>
      </trkpt>
      <trkpt lat="43.51089" lon="1.43764">
        <ele>168.81</ele>
        <time>2019-10-06T08:17:51.000Z</time>
      </trkpt>
      <trkpt lat="43.51072" lon="1.43752">
        <ele>166.21</ele>
        <time>2019-10-06T08:17:53.000Z</time>
      </trkpt>
      <trkpt lat="43.5105" lon="1.43736">
        <ele>163.12</ele>
        <time>2019-10-06T08:17:55.000Z</time>
      </trkpt>
      <trkpt lat="43.51039" lon="1.43727">
        <ele>161</ele>
        <time>2019-10-06T08:17:56.000Z</time>
      </trkpt>
      <trkpt lat="43.51017" lon="1.43711">
        <ele>156.78</ele>
        <time>2019-10-06T08:17:58.000Z</time>
      </trkpt>
      <trkpt lat="43.50994" lon="1.43694">
        <ele>153.6</ele>
        <time>2019-10-06T08:18:00.000Z</time>
      </trkpt>
      <trkpt lat="43.50974" lon="1.43678">
        <ele>151.32</ele>
        <time>2019-10-06T08:18:02.000Z</time>
      </trkpt>
      <trkpt lat="43.50964" lon="1.43671">
        <ele>150.98</ele>
        <time>2019-10-06T08:18:03.000Z</time>
      </trkpt>
      <trkpt lat="43.50954" lon="1.43663">
        <ele>150.28</ele>
        <time>2019-10-06T08:18:04.000Z</time>
      </trkpt>
      <trkpt lat="43.50947" lon="1.43636">
        <ele>148.93</ele>
        <time>2019-10-06T08:18:06.000Z</time>
      </trkpt>
      <trkpt lat="43.50949" lon="1.43621">
        <ele>148.21</ele>
        <time>2019-10-06T08:18:07.000Z</time>
      </trkpt>
      <trkpt lat="43.50956" lon="1.43594">
        <ele>146.69</ele>
        <time>2019-10-06T08:18:09.000Z</time>
      </trkpt>
      <trkpt lat="43.50959" lon="1.4358">
        <ele>146.04</ele>
        <time>2019-10-06T08:18:10.000Z</time>
      </trkpt>
      <trkpt lat="43.50965" lon="1.43554">
        <ele>145.02</ele>
        <time>2019-10-06T08:18:12.000Z</time>
      </trkpt>
      <trkpt lat="43.50967" lon="1.43541">
        <ele>144.58</ele>
        <time>2019-10-06T08:18:13.000Z</time>
      </trkpt>
      <trkpt lat="43.50969" lon="1.43523">
        <ele>143.98</ele>
        <time>2019-10-06T08:18:15.000Z</time>
      </trkpt>
      <trkpt lat="43.50953" lon="1.43509">
        <ele>142.39</ele>
        <time>2019-10-06T08:18:19.000Z</time>
      </trkpt>
      <trkpt lat="43.50942" lon="1.43503">
        <ele>142.35</ele>
        <time>2019-10-06T08:18:21.000Z</time>
      </trkpt>
      <trkpt lat="43.50931" lon="1.43497">
        <ele>142.45</ele>
        <time>2019-10-06T08:18:23.000Z</time>
      </trkpt>
      <trkpt lat="43.5092" lon="1.43491">
        <ele>141.89</ele>
        <time>2019-10-06T08:18:25.000Z</time>
      </trkpt>
      <trkpt lat="43.50909" lon="1.43485">
        <ele>141.89</ele>
        <time>2019-10-06T08:18:27.000Z</time>
      </trkpt>
      <trkpt lat="43.50897" lon="1.4348">
        <ele>142.1</ele>
        <time>2019-10-06T08:18:29.000Z</time>
      </trkpt>
      <trkpt lat="43.50887" lon="1.43476">
        <ele>142.2</ele>
        <time>2019-10-06T08:18:31.000Z</time>
      </trkpt>
      <trkpt lat="43.50877" lon="1.43471">
        <ele>141.95</ele>
        <time>2019-10-06T08:18:33.000Z</time>
      </trkpt>
      <trkpt lat="43.50862" lon="1.43462">
        <ele>143.13</ele>
        <time>2019-10-06T08:18:36.000Z</time>
      </trkpt>
      <trkpt lat="43.50853" lon="1.43458">
        <ele>143.36</ele>
        <time>2019-10-06T08:18:38.000Z</time>
      </trkpt>
      <trkpt lat="43.50844" lon="1.43454">
        <ele>144.2</ele>
        <time>2019-10-06T08:18:40.000Z</time>
      </trkpt>
      <trkpt lat="43.50832" lon="1.43448">
        <ele>143.99</ele>
        <time>2019-10-06T08:18:43.000Z</time>
      </trkpt>
      <trkpt lat="43.50822" lon="1.43443">
        <ele>143.99</ele>
        <time>2019-10-06T08:18:45.000Z</time>
      </trkpt>
      <trkpt lat="43.50814" lon="1.43438">
        <ele>145.04</ele>
        <time>2019-10-06T08:18:47.000Z</time>
      </trkpt>
      <trkpt lat="43.50802" lon="1.43431">
        <ele>146.81</ele>
        <time>2019-10-06T08:18:50.000Z</time>
      </trkpt>
      <trkpt lat="43.50796" lon="1.4342">
        <ele>148.64</ele>
        <time>2019-10-06T08:18:53.000Z</time>
      </trkpt>
      <trkpt lat="43.50789" lon="1.43404">
        <ele>148.99</ele>
        <time>2019-10-06T08:18:57.000Z</time>
      </trkpt>
      <trkpt lat="43.50779" lon="1.43401">
        <ele>149.75</ele>
        <time>2019-10-06T08:19:00.000Z</time>
      </trkpt>
      <trkpt lat="43.50765" lon="1.43398">
        <ele>151.79</ele>
        <time>2019-10-06T08:19:04.000Z</time>
      </trkpt>
      <trkpt lat="43.5075" lon="1.43395">
        <ele>154.58</ele>
        <time>2019-10-06T08:19:08.000Z</time>
      </trkpt>
      <trkpt lat="43.50738" lon="1.43392">
        <ele>155.85</ele>
        <time>2019-10-06T08:19:11.000Z</time>
      </trkpt>
      <trkpt lat="43.50726" lon="1.43387">
        <ele>156.69</ele>
        <time>2019-10-06T08:19:14.000Z</time>
      </trkpt>
      <trkpt lat="43.50715" lon="1.43383">
        <ele>156.92</ele>
        <time>2019-10-06T08:19:17.000Z</time>
      </trkpt>
      <trkpt lat="43.507" lon="1.43376">
        <ele>157.12</ele>
        <time>2019-10-06T08:19:21.000Z</time>
      </trkpt>
      <trkpt lat="43.50685" lon="1.43367">
        <ele>157.59</ele>
        <time>2019-10-06T08:19:25.000Z</time>
      </trkpt>
      <trkpt lat="43.50674" lon="1.43363">
        <ele>157.75</ele>
        <time>2019-10-06T08:19:28.000Z</time>
      </trkpt>
      <trkpt lat="43.50662" lon="1.43365">
        <ele>158.12</ele>
        <time>2019-10-06T08:19:31.000Z</time>
      </trkpt>
      <trkpt lat="43.50656" lon="1.43375">
        <ele>157.69</ele>
        <time>2019-10-06T08:19:33.000Z</time>
      </trkpt>
      <trkpt lat="43.5065" lon="1.43393">
        <ele>158.11</ele>
        <time>2019-10-06T08:19:36.000Z</time>
      </trkpt>
      <trkpt lat="43.50646" lon="1.43405">
        <ele>158.14</ele>
        <time>2019-10-06T08:19:38.000Z</time>
      </trkpt>
      <trkpt lat="43.50644" lon="1.43418">
        <ele>157.87</ele>
        <time>2019-10-06T08:19:40.000Z</time>
      </trkpt>
      <trkpt lat="43.50641" lon="1.43431">
        <ele>158.07</ele>
        <time>2019-10-06T08:19:42.000Z</time>
      </trkpt>
      <trkpt lat="43.50637" lon="1.43444">
        <ele>158.12</ele>
        <time>2019-10-06T08:19:44.000Z</time>
      </trkpt>
      <trkpt lat="43.50634" lon="1.43457">
        <ele>158.12</ele>
        <time>2019-10-06T08:19:46.000Z</time>
      </trkpt>
      <trkpt lat="43.5063" lon="1.43469">
        <ele>157.84</ele>
        <time>2019-10-06T08:19:48.000Z</time>
      </trkpt>
      <trkpt lat="43.50626" lon="1.43482">
        <ele>157.78</ele>
        <time>2019-10-06T08:19:50.000Z</time>
      </trkpt>
      <trkpt lat="43.50622" lon="1.43497">
        <ele>157.61</ele>
        <time>2019-10-06T08:19:52.000Z</time>
      </trkpt>
      <trkpt lat="43.50614" lon="1.43519">
        <ele>156.63</ele>
        <time>2019-10-06T08:19:55.000Z</time>
      </trkpt>
      <trkpt lat="43.50603" lon="1.43526">
        <ele>156.7</ele>
        <time>2019-10-06T08:19:57.000Z</time>
      </trkpt>
      <trkpt lat="43.5059" lon="1.43528">
        <ele>156.05</ele>
        <time>2019-10-06T08:19:59.000Z</time>
      </trkpt>
      <trkpt lat="43.50571" lon="1.43531">
        <ele>155.14</ele>
        <time>2019-10-06T08:20:02.000Z</time>
      </trkpt>
      <trkpt lat="43.50554" lon="1.43537">
        <ele>154.37</ele>
        <time>2019-10-06T08:20:05.000Z</time>
      </trkpt>
      <trkpt lat="43.50548" lon="1.43553">
        <ele>153.39</ele>
        <time>2019-10-06T08:20:07.000Z</time>
      </trkpt>
      <trkpt lat="43.50534" lon="1.43568">
        <ele>153.37</ele>
        <time>2019-10-06T08:20:10.000Z</time>
      </trkpt>
      <trkpt lat="43.50515" lon="1.43552">
        <ele>152.59</ele>
        <time>2019-10-06T08:20:13.000Z</time>
      </trkpt>
      <trkpt lat="43.50501" lon="1.43541">
        <ele>152.11</ele>
        <time>2019-10-06T08:20:15.000Z</time>
      </trkpt>
      <trkpt lat="43.50485" lon="1.43529">
        <ele>148.44</ele>
        <time>2019-10-06T08:20:17.000Z</time>
      </trkpt>
      <trkpt lat="43.50461" lon="1.43514">
        <ele>146.41</ele>
        <time>2019-10-06T08:20:20.000Z</time>
      </trkpt>
      <trkpt lat="43.50445" lon="1.43503">
        <ele>146.41</ele>
        <time>2019-10-06T08:20:22.000Z</time>
      </trkpt>
      <trkpt lat="43.50436" lon="1.43498">
        <ele>146.41</ele>
        <time>2019-10-06T08:20:23.000Z</time>
      </trkpt>
      <trkpt lat="43.50421" lon="1.43487">
        <ele>142.75</ele>
        <time>2019-10-06T08:20:25.000Z</time>
      </trkpt>
      <trkpt lat="43.504" lon="1.43494">
        <ele>140.31</ele>
        <time>2019-10-06T08:20:28.000Z</time>
      </trkpt>
      <trkpt lat="43.50384" lon="1.43505">
        <ele>137.66</ele>
        <time>2019-10-06T08:20:30.000Z</time>
      </trkpt>
      <trkpt lat="43.50364" lon="1.43511">
        <ele>133.57</ele>
        <time>2019-10-06T08:20:32.000Z</time>
      </trkpt>
      <trkpt lat="43.50345" lon="1.43517">
        <ele>130.96</ele>
        <time>2019-10-06T08:20:34.000Z</time>
      </trkpt>
      <trkpt lat="43.50334" lon="1.43521">
        <ele>130.96</ele>
        <time>2019-10-06T08:20:35.000Z</time>
      </trkpt>
      <trkpt lat="43.50313" lon="1.43528">
        <ele>130.96</ele>
        <time>2019-10-06T08:20:37.000Z</time>
      </trkpt>
      <trkpt lat="43.50302" lon="1.43529">
        <ele>130.96</ele>
        <time>2019-10-06T08:20:38.000Z</time>
      </trkpt>
      <trkpt lat="43.50282" lon="1.43525">
        <ele>121.11</ele>
        <time>2019-10-06T08:20:40.000Z</time>
      </trkpt>
      <trkpt lat="43.50265" lon="1.43518">
        <ele>116.75</ele>
        <time>2019-10-06T08:20:42.000Z</time>
      </trkpt>
      <trkpt lat="43.50247" lon="1.43496">
        <ele>112.99</ele>
        <time>2019-10-06T08:20:45.000Z</time>
      </trkpt>
      <trkpt lat="43.50245" lon="1.43474">
        <ele>104.61</ele>
        <time>2019-10-06T08:20:47.000Z</time>
      </trkpt>
      <trkpt lat="43.50243" lon="1.43452">
        <ele>98.91</ele>
        <time>2019-10-06T08:20:49.000Z</time>
      </trkpt>
      <trkpt lat="43.50241" lon="1.4343">
        <ele>98.52</ele>
        <time>2019-10-06T08:20:51.000Z</time>
      </trkpt>
      <trkpt lat="43.50238" lon="1.43408">
        <ele>96.98</ele>
        <time>2019-10-06T08:20:54.000Z</time>
      </trkpt>
      <trkpt lat="43.50229" lon="1.43403">
        <ele>95.88</ele>
        <time>2019-10-06T08:21:09.000Z</time>
      </trkpt>
      <trkpt lat="43.50221" lon="1.43417">
        <ele>95.57</ele>
        <time>2019-10-06T08:21:17.000Z</time>
      </trkpt>
      <trkpt lat="43.50212" lon="1.43428">
        <ele>94.7</ele>
        <time>2019-10-06T08:21:21.000Z</time>
      </trkpt>
      <trkpt lat="43.50202" lon="1.43442">
        <ele>93.73</ele>
        <time>2019-10-06T08:21:24.000Z</time>
      </trkpt>
      <trkpt lat="43.50195" lon="1.43452">
        <ele>93.15</ele>
        <time>2019-10-06T08:21:26.000Z</time>
      </trkpt>
      <trkpt lat="43.50189" lon="1.43462">
        <ele>92.38</ele>
        <time>2019-10-06T08:21:28.000Z</time>
      </trkpt>
      <trkpt lat="43.5018" lon="1.43478">
        <ele>91.61</ele>
        <time>2019-10-06T08:21:31.000Z</time>
      </trkpt>
      <trkpt lat="43.50172" lon="1.43487">
        <ele>90.91</ele>
        <time>2019-10-06T08:21:33.000Z</time>
      </trkpt>
      <trkpt lat="43.5016" lon="1.43492">
        <ele>90.04</ele>
        <time>2019-10-06T08:21:38.000Z</time>
      </trkpt>
      <trkpt lat="43.5015" lon="1.43488">
        <ele>90.04</ele>
        <time>2019-10-06T08:21:40.000Z</time>
      </trkpt>
      <trkpt lat="43.50142" lon="1.43483">
        <ele>90.19</ele>
        <time>2019-10-06T08:21:42.000Z</time>
      </trkpt>
      <trkpt lat="43.50128" lon="1.43479">
        <ele>90.35</ele>
        <time>2019-10-06T08:21:45.000Z</time>
      </trkpt>
      <trkpt lat="43.50114" lon="1.43475">
        <ele>91.22</ele>
        <time>2019-10-06T08:21:48.000Z</time>
      </trkpt>
      <trkpt lat="43.50102" lon="1.43481">
        <ele>91.15</ele>
        <time>2019-10-06T08:21:51.000Z</time>
      </trkpt>
      <trkpt lat="43.50093" lon="1.43484">
        <ele>91.02</ele>
        <time>2019-10-06T08:21:53.000Z</time>
      </trkpt>
      <trkpt lat="43.50081" lon="1.43483">
        <ele>91.02</ele>
        <time>2019-10-06T08:21:56.000Z</time>
      </trkpt>
      <trkpt lat="43.50065" lon="1.43478">
        <ele>91.72</ele>
        <time>2019-10-06T08:22:00.000Z</time>
      </trkpt>
      <trkpt lat="43.50051" lon="1.43473">
        <ele>91.72</ele>
        <time>2019-10-06T08:22:04.000Z</time>
      </trkpt>
      <trkpt lat="43.50039" lon="1.4347">
        <ele>95.78</ele>
        <time>2019-10-06T08:22:08.000Z</time>
      </trkpt>
      <trkpt lat="43.50029" lon="1.43465">
        <ele>98.53</ele>
        <time>2019-10-06T08:22:11.000Z</time>
      </trkpt>
      <trkpt lat="43.50018" lon="1.43461">
        <ele>98.4</ele>
        <time>2019-10-06T08:22:15.000Z</time>
      </trkpt>
      <trkpt lat="43.50009" lon="1.43457">
        <ele>98.49</ele>
        <time>2019-10-06T08:22:19.000Z</time>
      </trkpt>
      <trkpt lat="43.49996" lon="1.43453">
        <ele>98.27</ele>
        <time>2019-10-06T08:22:24.000Z</time>
      </trkpt>
      <trkpt lat="43.49984" lon="1.43449">
        <ele>100.06</ele>
        <time>2019-10-06T08:22:28.000Z</time>
      </trkpt>
      <trkpt lat="43.49973" lon="1.43446">
        <ele>100.44</ele>
        <time>2019-10-06T08:22:32.000Z</time>
      </trkpt>
      <trkpt lat="43.4996" lon="1.4344">
        <ele>100.79</ele>
        <time>2019-10-06T08:22:36.000Z</time>
      </trkpt>
      <trkpt lat="43.49949" lon="1.43435">
        <ele>102.88</ele>
        <time>2019-10-06T08:22:40.000Z</time>
      </trkpt>
      <trkpt lat="43.49934" lon="1.43431">
        <ele>104.59</ele>
        <time>2019-10-06T08:22:44.000Z</time>
      </trkpt>
      <trkpt lat="43.49922" lon="1.43426">
        <ele>106.96</ele>
        <time>2019-10-06T08:22:48.000Z</time>
      </trkpt>
      <trkpt lat="43.4991" lon="1.43421">
        <ele>107.68</ele>
        <time>2019-10-06T08:22:52.000Z</time>
      </trkpt>
      <trkpt lat="43.49901" lon="1.43418">
        <ele>108.78</ele>
        <time>2019-10-06T08:22:55.000Z</time>
      </trkpt>
      <trkpt lat="43.49892" lon="1.43415">
        <ele>108.78</ele>
        <time>2019-10-06T08:22:58.000Z</time>
      </trkpt>
      <trkpt lat="43.49881" lon="1.43409">
        <ele>110.48</ele>
        <time>2019-10-06T08:23:02.000Z</time>
      </trkpt>
      <trkpt lat="43.49868" lon="1.43406">
        <ele>114.7</ele>
        <time>2019-10-06T08:23:06.000Z</time>
      </trkpt>
      <trkpt lat="43.49855" lon="1.43403">
        <ele>115.88</ele>
        <time>2019-10-06T08:23:10.000Z</time>
      </trkpt>
      <trkpt lat="43.49846" lon="1.43399">
        <ele>118.07</ele>
        <time>2019-10-06T08:23:14.000Z</time>
      </trkpt>
      <trkpt lat="43.49838" lon="1.4341">
        <ele>119.56</ele>
        <time>2019-10-06T08:23:18.000Z</time>
      </trkpt>
      <trkpt lat="43.49835" lon="1.43422">
        <ele>120.1</ele>
        <time>2019-10-06T08:23:22.000Z</time>
      </trkpt>
      <trkpt lat="43.4983" lon="1.43439">
        <ele>121.14</ele>
        <time>2019-10-06T08:23:27.000Z</time>
      </trkpt>
      <trkpt lat="43.49818" lon="1.43444">
        <ele>122.99</ele>
        <time>2019-10-06T08:23:32.000Z</time>
      </trkpt>
      <trkpt lat="43.49806" lon="1.43449">
        <ele>124.51</ele>
        <time>2019-10-06T08:23:36.000Z</time>
      </trkpt>
      <trkpt lat="43.49797" lon="1.43456">
        <ele>125.9</ele>
        <time>2019-10-06T08:23:40.000Z</time>
      </trkpt>
      <trkpt lat="43.49789" lon="1.43466">
        <ele>126.69</ele>
        <time>2019-10-06T08:23:43.000Z</time>
      </trkpt>
      <trkpt lat="43.4978" lon="1.43475">
        <ele>127.06</ele>
        <time>2019-10-06T08:23:47.000Z</time>
      </trkpt>
      <trkpt lat="43.49771" lon="1.4348">
        <ele>127.46</ele>
        <time>2019-10-06T08:23:49.000Z</time>
      </trkpt>
      <trkpt lat="43.49761" lon="1.43486">
        <ele>127.06</ele>
        <time>2019-10-06T08:23:52.000Z</time>
      </trkpt>
      <trkpt lat="43.4975" lon="1.43494">
        <ele>125.63</ele>
        <time>2019-10-06T08:23:55.000Z</time>
      </trkpt>
      <trkpt lat="43.49738" lon="1.435">
        <ele>124.92</ele>
        <time>2019-10-06T08:23:56.000Z</time>
      </trkpt>
      <trkpt lat="43.49726" lon="1.43505">
        <ele>123.47</ele>
        <time>2019-10-06T08:23:58.000Z</time>
      </trkpt>
      <trkpt lat="43.49705" lon="1.43512">
        <ele>121.76</ele>
        <time>2019-10-06T08:24:01.000Z</time>
      </trkpt>
      <trkpt lat="43.49691" lon="1.43516">
        <ele>119.75</ele>
        <time>2019-10-06T08:24:03.000Z</time>
      </trkpt>
      <trkpt lat="43.49664" lon="1.43522">
        <ele>116.11</ele>
        <time>2019-10-06T08:24:06.000Z</time>
      </trkpt>
      <trkpt lat="43.49654" lon="1.43525">
        <ele>114.12</ele>
        <time>2019-10-06T08:24:07.000Z</time>
      </trkpt>
      <trkpt lat="43.49642" lon="1.43529">
        <ele>111.59</ele>
        <time>2019-10-06T08:24:08.000Z</time>
      </trkpt>
      <trkpt lat="43.49616" lon="1.43535">
        <ele>106.04</ele>
        <time>2019-10-06T08:24:10.000Z</time>
      </trkpt>
      <trkpt lat="43.49589" lon="1.43538">
        <ele>101.78</ele>
        <time>2019-10-06T08:24:12.000Z</time>
      </trkpt>
      <trkpt lat="43.49569" lon="1.43539">
        <ele>99.25</ele>
        <time>2019-10-06T08:24:14.000Z</time>
      </trkpt>
      <trkpt lat="43.49556" lon="1.4354">
        <ele>98.06</ele>
        <time>2019-10-06T08:24:16.000Z</time>
      </trkpt>
      <trkpt lat="43.49538" lon="1.4354">
        <ele>97.37</ele>
        <time>2019-10-06T08:24:19.000Z</time>
      </trkpt>
      <trkpt lat="43.49526" lon="1.43539">
        <ele>95.39</ele>
        <time>2019-10-06T08:24:22.000Z</time>
      </trkpt>
      <trkpt lat="43.49511" lon="1.43537">
        <ele>93.46</ele>
        <time>2019-10-06T08:24:25.000Z</time>
      </trkpt>
      <trkpt lat="43.49498" lon="1.43535">
        <ele>92.03</ele>
        <time>2019-10-06T08:24:27.000Z</time>
      </trkpt>
      <trkpt lat="43.49474" lon="1.43527">
        <ele>89.99</ele>
        <time>2019-10-06T08:24:30.000Z</time>
      </trkpt>
      <trkpt lat="43.49463" lon="1.43521">
        <ele>89.3</ele>
        <time>2019-10-06T08:24:32.000Z</time>
      </trkpt>
      <trkpt lat="43.49451" lon="1.43517">
        <ele>88.99</ele>
        <time>2019-10-06T08:24:36.000Z</time>
      </trkpt>
      <trkpt lat="43.49439" lon="1.43525">
        <ele>89.06</ele>
        <time>2019-10-06T08:24:39.000Z</time>
      </trkpt>
      <trkpt lat="43.49424" lon="1.43522">
        <ele>87.82</ele>
        <time>2019-10-06T08:24:43.000Z</time>
      </trkpt>
      <trkpt lat="43.49414" lon="1.43517">
        <ele>87.37</ele>
        <time>2019-10-06T08:24:47.000Z</time>
      </trkpt>
      <trkpt lat="43.49405" lon="1.43513">
        <ele>85.01</ele>
        <time>2019-10-06T08:24:55.000Z</time>
      </trkpt>
      <trkpt lat="43.49392" lon="1.43507">
        <ele>84.88</ele>
        <time>2019-10-06T08:24:59.000Z</time>
      </trkpt>
      <trkpt lat="43.49381" lon="1.43493">
        <ele>84.88</ele>
        <time>2019-10-06T08:25:02.000Z</time>
      </trkpt>
      <trkpt lat="43.49375" lon="1.43483">
        <ele>85.23</ele>
        <time>2019-10-06T08:25:04.000Z</time>
      </trkpt>
      <trkpt lat="43.49368" lon="1.43472">
        <ele>85.23</ele>
        <time>2019-10-06T08:25:06.000Z</time>
      </trkpt>
      <trkpt lat="43.49362" lon="1.43462">
        <ele>86.17</ele>
        <time>2019-10-06T08:25:08.000Z</time>
      </trkpt>
      <trkpt lat="43.49356" lon="1.43453">
        <ele>87.11</ele>
        <time>2019-10-06T08:25:10.000Z</time>
      </trkpt>
      <trkpt lat="43.4935" lon="1.43443">
        <ele>87.72</ele>
        <time>2019-10-06T08:25:12.000Z</time>
      </trkpt>
      <trkpt lat="43.4934" lon="1.43428">
        <ele>88.61</ele>
        <time>2019-10-06T08:25:15.000Z</time>
      </trkpt>
      <trkpt lat="43.49334" lon="1.43418">
        <ele>90.71</ele>
        <time>2019-10-06T08:25:17.000Z</time>
      </trkpt>
      <trkpt lat="43.49327" lon="1.43406">
        <ele>90.89</ele>
        <time>2019-10-06T08:25:20.000Z</time>
      </trkpt>
      <trkpt lat="43.49318" lon="1.4339">
        <ele>93.09</ele>
        <time>2019-10-06T08:25:25.000Z</time>
      </trkpt>
      <trkpt lat="43.49312" lon="1.4338">
        <ele>95.33</ele>
        <time>2019-10-06T08:25:28.000Z</time>
      </trkpt>
      <trkpt lat="43.49305" lon="1.43368">
        <ele>96.85</ele>
        <time>2019-10-06T08:25:31.000Z</time>
      </trkpt>
      <trkpt lat="43.49298" lon="1.43356">
        <ele>97.71</ele>
        <time>2019-10-06T08:25:34.000Z</time>
      </trkpt>
      <trkpt lat="43.49291" lon="1.43343">
        <ele>99.02</ele>
        <time>2019-10-06T08:25:38.000Z</time>
      </trkpt>
      <trkpt lat="43.49285" lon="1.43333">
        <ele>100.56</ele>
        <time>2019-10-06T08:25:41.000Z</time>
      </trkpt>
      <trkpt lat="43.49277" lon="1.43328">
        <ele>101.37</ele>
        <time>2019-10-06T08:25:44.000Z</time>
      </trkpt>
      <trkpt lat="43.49263" lon="1.43324">
        <ele>101.97</ele>
        <time>2019-10-06T08:25:48.000Z</time>
      </trkpt>
      <trkpt lat="43.4925" lon="1.43319">
        <ele>102.41</ele>
        <time>2019-10-06T08:25:52.000Z</time>
      </trkpt>
      <trkpt lat="43.49236" lon="1.43314">
        <ele>102.57</ele>
        <time>2019-10-06T08:25:55.000Z</time>
      </trkpt>
      <trkpt lat="43.49226" lon="1.43309">
        <ele>102.8</ele>
        <time>2019-10-06T08:25:58.000Z</time>
      </trkpt>
      <trkpt lat="43.4922" lon="1.43296">
        <ele>102.7</ele>
        <time>2019-10-06T08:26:01.000Z</time>
      </trkpt>
      <trkpt lat="43.4922" lon="1.43281">
        <ele>103</ele>
        <time>2019-10-06T08:26:04.000Z</time>
      </trkpt>
      <trkpt lat="43.4922" lon="1.43263">
        <ele>103.62</ele>
        <time>2019-10-06T08:26:08.000Z</time>
      </trkpt>
      <trkpt lat="43.49221" lon="1.4325">
        <ele>105</ele>
        <time>2019-10-06T08:26:12.000Z</time>
      </trkpt>
      <trkpt lat="43.49221" lon="1.43235">
        <ele>106.65</ele>
        <time>2019-10-06T08:26:16.000Z</time>
      </trkpt>
      <trkpt lat="43.49221" lon="1.43222">
        <ele>108.5</ele>
        <time>2019-10-06T08:26:19.000Z</time>
      </trkpt>
      <trkpt lat="43.49223" lon="1.43209">
        <ele>109.62</ele>
        <time>2019-10-06T08:26:23.000Z</time>
      </trkpt>
      <trkpt lat="43.49224" lon="1.4319">
        <ele>113.89</ele>
        <time>2019-10-06T08:26:28.000Z</time>
      </trkpt>
      <trkpt lat="43.49224" lon="1.43174">
        <ele>115.48</ele>
        <time>2019-10-06T08:26:32.000Z</time>
      </trkpt>
      <trkpt lat="43.49225" lon="1.43158">
        <ele>117.73</ele>
        <time>2019-10-06T08:26:36.000Z</time>
      </trkpt>
      <trkpt lat="43.49225" lon="1.43143">
        <ele>117.73</ele>
        <time>2019-10-06T08:26:39.000Z</time>
      </trkpt>
      <trkpt lat="43.49224" lon="1.43124">
        <ele>119.54</ele>
        <time>2019-10-06T08:26:44.000Z</time>
      </trkpt>
      <trkpt lat="43.49223" lon="1.43112">
        <ele>122.23</ele>
        <time>2019-10-06T08:26:47.000Z</time>
      </trkpt>
      <trkpt lat="43.49223" lon="1.43097">
        <ele>122.23</ele>
        <time>2019-10-06T08:26:51.000Z</time>
      </trkpt>
      <trkpt lat="43.49223" lon="1.43082">
        <ele>128.27</ele>
        <time>2019-10-06T08:26:55.000Z</time>
      </trkpt>
      <trkpt lat="43.49226" lon="1.43067">
        <ele>129.92</ele>
        <time>2019-10-06T08:26:58.000Z</time>
      </trkpt>
      <trkpt lat="43.49229" lon="1.43052">
        <ele>131.53</ele>
        <time>2019-10-06T08:27:02.000Z</time>
      </trkpt>
      <trkpt lat="43.49233" lon="1.43036">
        <ele>133.78</ele>
        <time>2019-10-06T08:27:05.000Z</time>
      </trkpt>
      <trkpt lat="43.49241" lon="1.4302">
        <ele>135.01</ele>
        <time>2019-10-06T08:27:10.000Z</time>
      </trkpt>
      <trkpt lat="43.49247" lon="1.43007">
        <ele>137.51</ele>
        <time>2019-10-06T08:27:13.000Z</time>
      </trkpt>
      <trkpt lat="43.49251" lon="1.42994">
        <ele>138.76</ele>
        <time>2019-10-06T08:27:15.000Z</time>
      </trkpt>
      <trkpt lat="43.49255" lon="1.42983">
        <ele>139.99</ele>
        <time>2019-10-06T08:27:18.000Z</time>
      </trkpt>
      <trkpt lat="43.49258" lon="1.42971">
        <ele>140.83</ele>
        <time>2019-10-06T08:27:21.000Z</time>
      </trkpt>
      <trkpt lat="43.49262" lon="1.42948">
        <ele>140.7</ele>
        <time>2019-10-06T08:27:25.000Z</time>
      </trkpt>
      <trkpt lat="43.49264" lon="1.4293">
        <ele>140.84</ele>
        <time>2019-10-06T08:27:28.000Z</time>
      </trkpt>
      <trkpt lat="43.49266" lon="1.42906">
        <ele>141.22</ele>
        <time>2019-10-06T08:27:32.000Z</time>
      </trkpt>
      <trkpt lat="43.49268" lon="1.4289">
        <ele>141.22</ele>
        <time>2019-10-06T08:27:35.000Z</time>
      </trkpt>
      <trkpt lat="43.49268" lon="1.42873">
        <ele>142.68</ele>
        <time>2019-10-06T08:27:38.000Z</time>
      </trkpt>
      <trkpt lat="43.4927" lon="1.42852">
        <ele>145.73</ele>
        <time>2019-10-06T08:27:42.000Z</time>
      </trkpt>
      <trkpt lat="43.49272" lon="1.42836">
        <ele>147.5</ele>
        <time>2019-10-06T08:27:45.000Z</time>
      </trkpt>
      <trkpt lat="43.49273" lon="1.42818">
        <ele>147.34</ele>
        <time>2019-10-06T08:27:48.000Z</time>
      </trkpt>
      <trkpt lat="43.49273" lon="1.42806">
        <ele>147.34</ele>
        <time>2019-10-06T08:27:50.000Z</time>
      </trkpt>
      <trkpt lat="43.49274" lon="1.4278">
        <ele>147.58</ele>
        <time>2019-10-06T08:27:54.000Z</time>
      </trkpt>
      <trkpt lat="43.49282" lon="1.42759">
        <ele>147.78</ele>
        <time>2019-10-06T08:27:58.000Z</time>
      </trkpt>
      <trkpt lat="43.49287" lon="1.42741">
        <ele>147.76</ele>
        <time>2019-10-06T08:28:01.000Z</time>
      </trkpt>
      <trkpt lat="43.49293" lon="1.42722">
        <ele>147.52</ele>
        <time>2019-10-06T08:28:04.000Z</time>
      </trkpt>
      <trkpt lat="43.49297" lon="1.42701">
        <ele>147.43</ele>
        <time>2019-10-06T08:28:07.000Z</time>
      </trkpt>
      <trkpt lat="43.49301" lon="1.4268">
        <ele>147.37</ele>
        <time>2019-10-06T08:28:10.000Z</time>
      </trkpt>
      <trkpt lat="43.49306" lon="1.42664">
        <ele>147.16</ele>
        <time>2019-10-06T08:28:12.000Z</time>
      </trkpt>
      <trkpt lat="43.49313" lon="1.42642">
        <ele>147.16</ele>
        <time>2019-10-06T08:28:15.000Z</time>
      </trkpt>
      <trkpt lat="43.49323" lon="1.42625">
        <ele>146.8</ele>
        <time>2019-10-06T08:28:18.000Z</time>
      </trkpt>
      <trkpt lat="43.49331" lon="1.42611">
        <ele>146.21</ele>
        <time>2019-10-06T08:28:20.000Z</time>
      </trkpt>
      <trkpt lat="43.49342" lon="1.4259">
        <ele>144.61</ele>
        <time>2019-10-06T08:28:23.000Z</time>
      </trkpt>
      <trkpt lat="43.49351" lon="1.42575">
        <ele>143.53</ele>
        <time>2019-10-06T08:28:25.000Z</time>
      </trkpt>
      <trkpt lat="43.49367" lon="1.4255">
        <ele>140.88</ele>
        <time>2019-10-06T08:28:28.000Z</time>
      </trkpt>
      <trkpt lat="43.49379" lon="1.42534">
        <ele>139.32</ele>
        <time>2019-10-06T08:28:30.000Z</time>
      </trkpt>
      <trkpt lat="43.49392" lon="1.42518">
        <ele>137.61</ele>
        <time>2019-10-06T08:28:32.000Z</time>
      </trkpt>
      <trkpt lat="43.49398" lon="1.42509">
        <ele>135.89</ele>
        <time>2019-10-06T08:28:33.000Z</time>
      </trkpt>
      <trkpt lat="43.49408" lon="1.42494">
        <ele>134.09</ele>
        <time>2019-10-06T08:28:35.000Z</time>
      </trkpt>
      <trkpt lat="43.49406" lon="1.42479">
        <ele>132.36</ele>
        <time>2019-10-06T08:28:38.000Z</time>
      </trkpt>
      <trkpt lat="43.49395" lon="1.42468">
        <ele>134.21</ele>
        <time>2019-10-06T08:28:43.000Z</time>
      </trkpt>
      <trkpt lat="43.49387" lon="1.42457">
        <ele>138.02</ele>
        <time>2019-10-06T08:28:49.000Z</time>
      </trkpt>
      <trkpt lat="43.4938" lon="1.42444">
        <ele>139.61</ele>
        <time>2019-10-06T08:28:51.000Z</time>
      </trkpt>
      <trkpt lat="43.49376" lon="1.42431">
        <ele>140.43</ele>
        <time>2019-10-06T08:28:55.000Z</time>
      </trkpt>
      <trkpt lat="43.49374" lon="1.42414">
        <ele>141.98</ele>
        <time>2019-10-06T08:28:58.000Z</time>
      </trkpt>
      <trkpt lat="43.49374" lon="1.42397">
        <ele>143.8</ele>
        <time>2019-10-06T08:29:02.000Z</time>
      </trkpt>
      <trkpt lat="43.49376" lon="1.42385">
        <ele>143.88</ele>
        <time>2019-10-06T08:29:05.000Z</time>
      </trkpt>
      <trkpt lat="43.49377" lon="1.42369">
        <ele>143.88</ele>
        <time>2019-10-06T08:29:07.000Z</time>
      </trkpt>
      <trkpt lat="43.49381" lon="1.4235">
        <ele>144.95</ele>
        <time>2019-10-06T08:29:11.000Z</time>
      </trkpt>
      <trkpt lat="43.49384" lon="1.42336">
        <ele>146.38</ele>
        <time>2019-10-06T08:29:14.000Z</time>
      </trkpt>
      <trkpt lat="43.49388" lon="1.42321">
        <ele>147.74</ele>
        <time>2019-10-06T08:29:16.000Z</time>
      </trkpt>
      <trkpt lat="43.49392" lon="1.42304">
        <ele>149.09</ele>
        <time>2019-10-06T08:29:20.000Z</time>
      </trkpt>
      <trkpt lat="43.49395" lon="1.42292">
        <ele>149.63</ele>
        <time>2019-10-06T08:29:22.000Z</time>
      </trkpt>
      <trkpt lat="43.49398" lon="1.42279">
        <ele>149.2</ele>
        <time>2019-10-06T08:29:24.000Z</time>
      </trkpt>
      <trkpt lat="43.49401" lon="1.42263">
        <ele>149.2</ele>
        <time>2019-10-06T08:29:27.000Z</time>
      </trkpt>
      <trkpt lat="43.49404" lon="1.42249">
        <ele>149.57</ele>
        <time>2019-10-06T08:29:29.000Z</time>
      </trkpt>
      <trkpt lat="43.49407" lon="1.42224">
        <ele>149.83</ele>
        <time>2019-10-06T08:29:32.000Z</time>
      </trkpt>
      <trkpt lat="43.4941" lon="1.42209">
        <ele>151.14</ele>
        <time>2019-10-06T08:29:34.000Z</time>
      </trkpt>
      <trkpt lat="43.49412" lon="1.42196">
        <ele>151.82</ele>
        <time>2019-10-06T08:29:36.000Z</time>
      </trkpt>
      <trkpt lat="43.49416" lon="1.42178">
        <ele>152.91</ele>
        <time>2019-10-06T08:29:39.000Z</time>
      </trkpt>
      <trkpt lat="43.49419" lon="1.42154">
        <ele>153.19</ele>
        <time>2019-10-06T08:29:43.000Z</time>
      </trkpt>
      <trkpt lat="43.49424" lon="1.42133">
        <ele>154.98</ele>
        <time>2019-10-06T08:29:47.000Z</time>
      </trkpt>
      <trkpt lat="43.49428" lon="1.42113">
        <ele>156.95</ele>
        <time>2019-10-06T08:29:51.000Z</time>
      </trkpt>
      <trkpt lat="43.49429" lon="1.42096">
        <ele>157.23</ele>
        <time>2019-10-06T08:29:55.000Z</time>
      </trkpt>
      <trkpt lat="43.4942" lon="1.42089">
        <ele>158.32</ele>
        <time>2019-10-06T08:29:58.000Z</time>
      </trkpt>
      <trkpt lat="43.49409" lon="1.42084">
        <ele>159.73</ele>
        <time>2019-10-06T08:30:01.000Z</time>
      </trkpt>
      <trkpt lat="43.49395" lon="1.42075">
        <ele>160.75</ele>
        <time>2019-10-06T08:30:05.000Z</time>
      </trkpt>
      <trkpt lat="43.49386" lon="1.42065">
        <ele>161.1</ele>
        <time>2019-10-06T08:30:08.000Z</time>
      </trkpt>
      <trkpt lat="43.49377" lon="1.42053">
        <ele>161.25</ele>
        <time>2019-10-06T08:30:11.000Z</time>
      </trkpt>
      <trkpt lat="43.49362" lon="1.4205">
        <ele>161.87</ele>
        <time>2019-10-06T08:30:15.000Z</time>
      </trkpt>
      <trkpt lat="43.49352" lon="1.42046">
        <ele>162.87</ele>
        <time>2019-10-06T08:30:18.000Z</time>
      </trkpt>
      <trkpt lat="43.49343" lon="1.42036">
        <ele>164.14</ele>
        <time>2019-10-06T08:30:21.000Z</time>
      </trkpt>
      <trkpt lat="43.49333" lon="1.42024">
        <ele>165.06</ele>
        <time>2019-10-06T08:30:24.000Z</time>
      </trkpt>
      <trkpt lat="43.49323" lon="1.42012">
        <ele>166.05</ele>
        <time>2019-10-06T08:30:27.000Z</time>
      </trkpt>
      <trkpt lat="43.49313" lon="1.42">
        <ele>167.02</ele>
        <time>2019-10-06T08:30:30.000Z</time>
      </trkpt>
      <trkpt lat="43.49303" lon="1.41989">
        <ele>167.5</ele>
        <time>2019-10-06T08:30:33.000Z</time>
      </trkpt>
      <trkpt lat="43.49292" lon="1.41975">
        <ele>167.77</ele>
        <time>2019-10-06T08:30:37.000Z</time>
      </trkpt>
      <trkpt lat="43.49282" lon="1.41961">
        <ele>168.32</ele>
        <time>2019-10-06T08:30:41.000Z</time>
      </trkpt>
      <trkpt lat="43.49272" lon="1.41945">
        <ele>170.3</ele>
        <time>2019-10-06T08:30:45.000Z</time>
      </trkpt>
      <trkpt lat="43.49264" lon="1.41926">
        <ele>172.49</ele>
        <time>2019-10-06T08:30:49.000Z</time>
      </trkpt>
      <trkpt lat="43.49258" lon="1.4191">
        <ele>173.47</ele>
        <time>2019-10-06T08:30:52.000Z</time>
      </trkpt>
      <trkpt lat="43.49252" lon="1.41894">
        <ele>173.97</ele>
        <time>2019-10-06T08:30:55.000Z</time>
      </trkpt>
      <trkpt lat="43.49247" lon="1.41882">
        <ele>174.05</ele>
        <time>2019-10-06T08:30:57.000Z</time>
      </trkpt>
      <trkpt lat="43.49241" lon="1.4187">
        <ele>174.14</ele>
        <time>2019-10-06T08:30:59.000Z</time>
      </trkpt>
      <trkpt lat="43.49233" lon="1.4186">
        <ele>173.99</ele>
        <time>2019-10-06T08:31:01.000Z</time>
      </trkpt>
      <trkpt lat="43.49223" lon="1.41853">
        <ele>173.94</ele>
        <time>2019-10-06T08:31:03.000Z</time>
      </trkpt>
      <trkpt lat="43.49212" lon="1.41848">
        <ele>174.07</ele>
        <time>2019-10-06T08:31:05.000Z</time>
      </trkpt>
      <trkpt lat="43.492" lon="1.41845">
        <ele>174.15</ele>
        <time>2019-10-06T08:31:07.000Z</time>
      </trkpt>
      <trkpt lat="43.49189" lon="1.41844">
        <ele>174.4</ele>
        <time>2019-10-06T08:31:09.000Z</time>
      </trkpt>
      <trkpt lat="43.49178" lon="1.41845">
        <ele>174.88</ele>
        <time>2019-10-06T08:31:11.000Z</time>
      </trkpt>
      <trkpt lat="43.49163" lon="1.41846">
        <ele>175.74</ele>
        <time>2019-10-06T08:31:14.000Z</time>
      </trkpt>
      <trkpt lat="43.49149" lon="1.41848">
        <ele>176.75</ele>
        <time>2019-10-06T08:31:17.000Z</time>
      </trkpt>
      <trkpt lat="43.49135" lon="1.41851">
        <ele>177.91</ele>
        <time>2019-10-06T08:31:20.000Z</time>
      </trkpt>
      <trkpt lat="43.49122" lon="1.41852">
        <ele>178.7</ele>
        <time>2019-10-06T08:31:23.000Z</time>
      </trkpt>
      <trkpt lat="43.49104" lon="1.41856">
        <ele>179.43</ele>
        <time>2019-10-06T08:31:27.000Z</time>
      </trkpt>
      <trkpt lat="43.49091" lon="1.41857">
        <ele>180.69</ele>
        <time>2019-10-06T08:31:30.000Z</time>
      </trkpt>
      <trkpt lat="43.49078" lon="1.41859">
        <ele>182.48</ele>
        <time>2019-10-06T08:31:33.000Z</time>
      </trkpt>
      <trkpt lat="43.49069" lon="1.4186">
        <ele>183.43</ele>
        <time>2019-10-06T08:31:35.000Z</time>
      </trkpt>
      <trkpt lat="43.49055" lon="1.41861">
        <ele>184.48</ele>
        <time>2019-10-06T08:31:38.000Z</time>
      </trkpt>
      <trkpt lat="43.49046" lon="1.41862">
        <ele>184.91</ele>
        <time>2019-10-06T08:31:40.000Z</time>
      </trkpt>
      <trkpt lat="43.49036" lon="1.41863">
        <ele>185.71</ele>
        <time>2019-10-06T08:31:42.000Z</time>
      </trkpt>
      <trkpt lat="43.49019" lon="1.41866">
        <ele>187.56</ele>
        <time>2019-10-06T08:31:46.000Z</time>
      </trkpt>
      <trkpt lat="43.49005" lon="1.41867">
        <ele>188.81</ele>
        <time>2019-10-06T08:31:49.000Z</time>
      </trkpt>
      <trkpt lat="43.48988" lon="1.41868">
        <ele>189.87</ele>
        <time>2019-10-06T08:31:53.000Z</time>
      </trkpt>
      <trkpt lat="43.48975" lon="1.41868">
        <ele>190.76</ele>
        <time>2019-10-06T08:31:56.000Z</time>
      </trkpt>
      <trkpt lat="43.48962" lon="1.41871">
        <ele>192.19</ele>
        <time>2019-10-06T08:31:59.000Z</time>
      </trkpt>
      <trkpt lat="43.48951" lon="1.41878">
        <ele>193.07</ele>
        <time>2019-10-06T08:32:02.000Z</time>
      </trkpt>
      <trkpt lat="43.48937" lon="1.41894">
        <ele>193.19</ele>
        <time>2019-10-06T08:32:06.000Z</time>
      </trkpt>
      <trkpt lat="43.48931" lon="1.41904">
        <ele>192.93</ele>
        <time>2019-10-06T08:32:08.000Z</time>
      </trkpt>
      <trkpt lat="43.48925" lon="1.41914">
        <ele>192.75</ele>
        <time>2019-10-06T08:32:10.000Z</time>
      </trkpt>
      <trkpt lat="43.48919" lon="1.41925">
        <ele>193.07</ele>
        <time>2019-10-06T08:32:12.000Z</time>
      </trkpt>
      <trkpt lat="43.48911" lon="1.4194">
        <ele>193.3</ele>
        <time>2019-10-06T08:32:15.000Z</time>
      </trkpt>
      <trkpt lat="43.48903" lon="1.41955">
        <ele>193.29</ele>
        <time>2019-10-06T08:32:18.000Z</time>
      </trkpt>
      <trkpt lat="43.48897" lon="1.41966">
        <ele>192.82</ele>
        <time>2019-10-06T08:32:20.000Z</time>
      </trkpt>
      <trkpt lat="43.4889" lon="1.41977">
        <ele>192.61</ele>
        <time>2019-10-06T08:32:22.000Z</time>
      </trkpt>
      <trkpt lat="43.48882" lon="1.41984">
        <ele>192.5</ele>
        <time>2019-10-06T08:32:24.000Z</time>
      </trkpt>
      <trkpt lat="43.48872" lon="1.41983">
        <ele>191.85</ele>
        <time>2019-10-06T08:32:26.000Z</time>
      </trkpt>
      <trkpt lat="43.48862" lon="1.41978">
        <ele>191.06</ele>
        <time>2019-10-06T08:32:28.000Z</time>
      </trkpt>
      <trkpt lat="43.48851" lon="1.41973">
        <ele>190.42</ele>
        <time>2019-10-06T08:32:30.000Z</time>
      </trkpt>
      <trkpt lat="43.48841" lon="1.41969">
        <ele>189.62</ele>
        <time>2019-10-06T08:32:32.000Z</time>
      </trkpt>
      <trkpt lat="43.4883" lon="1.41963">
        <ele>189.01</ele>
        <time>2019-10-06T08:32:34.000Z</time>
      </trkpt>
      <trkpt lat="43.48813" lon="1.41954">
        <ele>188.49</ele>
        <time>2019-10-06T08:32:37.000Z</time>
      </trkpt>
      <trkpt lat="43.48795" lon="1.41945">
        <ele>187.55</ele>
        <time>2019-10-06T08:32:41.000Z</time>
      </trkpt>
      <trkpt lat="43.48783" lon="1.41939">
        <ele>186.3</ele>
        <time>2019-10-06T08:32:42.000Z</time>
      </trkpt>
      <trkpt lat="43.48771" lon="1.41935">
        <ele>186.3</ele>
        <time>2019-10-06T08:32:44.000Z</time>
      </trkpt>
      <trkpt lat="43.48759" lon="1.41932">
        <ele>185.74</ele>
        <time>2019-10-06T08:32:46.000Z</time>
      </trkpt>
      <trkpt lat="43.48748" lon="1.4193">
        <ele>185.79</ele>
        <time>2019-10-06T08:32:48.000Z</time>
      </trkpt>
      <trkpt lat="43.48737" lon="1.41926">
        <ele>186.29</ele>
        <time>2019-10-06T08:32:50.000Z</time>
      </trkpt>
      <trkpt lat="43.48719" lon="1.41919">
        <ele>185.69</ele>
        <time>2019-10-06T08:32:53.000Z</time>
      </trkpt>
      <trkpt lat="43.48706" lon="1.41914">
        <ele>184.43</ele>
        <time>2019-10-06T08:32:55.000Z</time>
      </trkpt>
      <trkpt lat="43.48691" lon="1.41909">
        <ele>183.37</ele>
        <time>2019-10-06T08:32:57.000Z</time>
      </trkpt>
      <trkpt lat="43.48676" lon="1.41903">
        <ele>182.13</ele>
        <time>2019-10-06T08:32:59.000Z</time>
      </trkpt>
      <trkpt lat="43.48661" lon="1.41896">
        <ele>181.52</ele>
        <time>2019-10-06T08:33:02.000Z</time>
      </trkpt>
      <trkpt lat="43.48638" lon="1.41888">
        <ele>180.21</ele>
        <time>2019-10-06T08:33:04.000Z</time>
      </trkpt>
      <trkpt lat="43.48623" lon="1.41885">
        <ele>179.8</ele>
        <time>2019-10-06T08:33:06.000Z</time>
      </trkpt>
      <trkpt lat="43.48611" lon="1.41894">
        <ele>177.62</ele>
        <time>2019-10-06T08:33:08.000Z</time>
      </trkpt>
      <trkpt lat="43.48597" lon="1.41909">
        <ele>177.62</ele>
        <time>2019-10-06T08:33:10.000Z</time>
      </trkpt>
      <trkpt lat="43.48588" lon="1.41917">
        <ele>176.45</ele>
        <time>2019-10-06T08:33:11.000Z</time>
      </trkpt>
      <trkpt lat="43.48572" lon="1.41935">
        <ele>173.45</ele>
        <time>2019-10-06T08:33:13.000Z</time>
      </trkpt>
      <trkpt lat="43.48563" lon="1.41943">
        <ele>172.04</ele>
        <time>2019-10-06T08:33:14.000Z</time>
      </trkpt>
      <trkpt lat="43.48555" lon="1.41949">
        <ele>170.13</ele>
        <time>2019-10-06T08:33:15.000Z</time>
      </trkpt>
      <trkpt lat="43.48542" lon="1.4196">
        <ele>170.13</ele>
        <time>2019-10-06T08:33:17.000Z</time>
      </trkpt>
      <trkpt lat="43.48531" lon="1.4197">
        <ele>169.73</ele>
        <time>2019-10-06T08:33:20.000Z</time>
      </trkpt>
      <trkpt lat="43.48526" lon="1.41983">
        <ele>167.75</ele>
        <time>2019-10-06T08:33:23.000Z</time>
      </trkpt>
      <trkpt lat="43.48522" lon="1.42001">
        <ele>165.99</ele>
        <time>2019-10-06T08:33:25.000Z</time>
      </trkpt>
      <trkpt lat="43.4852" lon="1.42025">
        <ele>164.55</ele>
        <time>2019-10-06T08:33:27.000Z</time>
      </trkpt>
      <trkpt lat="43.48519" lon="1.4204">
        <ele>162.35</ele>
        <time>2019-10-06T08:33:28.000Z</time>
      </trkpt>
      <trkpt lat="43.48515" lon="1.42065">
        <ele>160.92</ele>
        <time>2019-10-06T08:33:30.000Z</time>
      </trkpt>
      <trkpt lat="43.48509" lon="1.42093">
        <ele>155.54</ele>
        <time>2019-10-06T08:33:33.000Z</time>
      </trkpt>
      <trkpt lat="43.48509" lon="1.42108">
        <ele>153.15</ele>
        <time>2019-10-06T08:33:35.000Z</time>
      </trkpt>
      <trkpt lat="43.48518" lon="1.42118">
        <ele>151.46</ele>
        <time>2019-10-06T08:33:37.000Z</time>
      </trkpt>
      <trkpt lat="43.4853" lon="1.42129">
        <ele>147.63</ele>
        <time>2019-10-06T08:33:39.000Z</time>
      </trkpt>
      <trkpt lat="43.48535" lon="1.42143">
        <ele>143.93</ele>
        <time>2019-10-06T08:33:41.000Z</time>
      </trkpt>
      <trkpt lat="43.48526" lon="1.4215">
        <ele>139.24</ele>
        <time>2019-10-06T08:33:45.000Z</time>
      </trkpt>
      <trkpt lat="43.48517" lon="1.42151">
        <ele>136.13</ele>
        <time>2019-10-06T08:33:47.000Z</time>
      </trkpt>
      <trkpt lat="43.48507" lon="1.42148">
        <ele>134.14</ele>
        <time>2019-10-06T08:33:49.000Z</time>
      </trkpt>
      <trkpt lat="43.48498" lon="1.42145">
        <ele>132.38</ele>
        <time>2019-10-06T08:34:04.000Z</time>
      </trkpt>
      <trkpt lat="43.48484" lon="1.42157">
        <ele>129.72</ele>
        <time>2019-10-06T08:34:13.000Z</time>
      </trkpt>
      <trkpt lat="43.48474" lon="1.42153">
        <ele>128.54</ele>
        <time>2019-10-06T08:34:15.000Z</time>
      </trkpt>
      <trkpt lat="43.48463" lon="1.42144">
        <ele>128.54</ele>
        <time>2019-10-06T08:34:18.000Z</time>
      </trkpt>
      <trkpt lat="43.48453" lon="1.42134">
        <ele>127.51</ele>
        <time>2019-10-06T08:34:20.000Z</time>
      </trkpt>
      <trkpt lat="43.48443" lon="1.42124">
        <ele>127.51</ele>
        <time>2019-10-06T08:34:21.000Z</time>
      </trkpt>
      <trkpt lat="43.48432" lon="1.42114">
        <ele>127.51</ele>
        <time>2019-10-06T08:34:23.000Z</time>
      </trkpt>
      <trkpt lat="43.48415" lon="1.42102">
        <ele>126.16</ele>
        <time>2019-10-06T08:34:26.000Z</time>
      </trkpt>
      <trkpt lat="43.48399" lon="1.42099">
        <ele>124.77</ele>
        <time>2019-10-06T08:34:28.000Z</time>
      </trkpt>
      <trkpt lat="43.48378" lon="1.421">
        <ele>120.08</ele>
        <time>2019-10-06T08:34:31.000Z</time>
      </trkpt>
      <trkpt lat="43.48359" lon="1.42093">
        <ele>116.17</ele>
        <time>2019-10-06T08:34:33.000Z</time>
      </trkpt>
      <trkpt lat="43.48346" lon="1.42076">
        <ele>111.96</ele>
        <time>2019-10-06T08:34:36.000Z</time>
      </trkpt>
      <trkpt lat="43.48338" lon="1.42066">
        <ele>112.5</ele>
        <time>2019-10-06T08:34:39.000Z</time>
      </trkpt>
      <trkpt lat="43.48327" lon="1.42048">
        <ele>111.44</ele>
        <time>2019-10-06T08:34:41.000Z</time>
      </trkpt>
      <trkpt lat="43.48322" lon="1.42034">
        <ele>111.44</ele>
        <time>2019-10-06T08:34:44.000Z</time>
      </trkpt>
      <trkpt lat="43.48315" lon="1.42014">
        <ele>109.86</ele>
        <time>2019-10-06T08:34:46.000Z</time>
      </trkpt>
      <trkpt lat="43.48311" lon="1.41998">
        <ele>109.1</ele>
        <time>2019-10-06T08:34:49.000Z</time>
      </trkpt>
      <trkpt lat="43.48306" lon="1.41979">
        <ele>107.32</ele>
        <time>2019-10-06T08:34:51.000Z</time>
      </trkpt>
      <trkpt lat="43.48304" lon="1.41956">
        <ele>106.71</ele>
        <time>2019-10-06T08:34:52.000Z</time>
      </trkpt>
      <trkpt lat="43.48303" lon="1.41942">
        <ele>105.67</ele>
        <time>2019-10-06T08:34:54.000Z</time>
      </trkpt>
      <trkpt lat="43.48302" lon="1.41916">
        <ele>103.52</ele>
        <time>2019-10-06T08:34:56.000Z</time>
      </trkpt>
      <trkpt lat="43.48302" lon="1.4189">
        <ele>100.16</ele>
        <time>2019-10-06T08:34:58.000Z</time>
      </trkpt>
      <trkpt lat="43.48302" lon="1.41865">
        <ele>100.16</ele>
        <time>2019-10-06T08:35:00.000Z</time>
      </trkpt>
      <trkpt lat="43.48302" lon="1.41852">
        <ele>98.33</ele>
        <time>2019-10-06T08:35:01.000Z</time>
      </trkpt>
      <trkpt lat="43.48302" lon="1.41839">
        <ele>96.54</ele>
        <time>2019-10-06T08:35:01.000Z</time>
      </trkpt>
      <trkpt lat="43.48306" lon="1.41816">
        <ele>96.54</ele>
        <time>2019-10-06T08:35:04.000Z</time>
      </trkpt>
      <trkpt lat="43.4831" lon="1.41796">
        <ele>94.94</ele>
        <time>2019-10-06T08:35:06.000Z</time>
      </trkpt>
      <trkpt lat="43.48314" lon="1.41776">
        <ele>94.94</ele>
        <time>2019-10-06T08:35:07.000Z</time>
      </trkpt>
      <trkpt lat="43.48316" lon="1.41748">
        <ele>93.98</ele>
        <time>2019-10-06T08:35:11.000Z</time>
      </trkpt>
      <trkpt lat="43.48315" lon="1.41728">
        <ele>93.98</ele>
        <time>2019-10-06T08:35:13.000Z</time>
      </trkpt>
      <trkpt lat="43.48315" lon="1.41716">
        <ele>93.98</ele>
        <time>2019-10-06T08:35:14.000Z</time>
      </trkpt>
      <trkpt lat="43.48307" lon="1.41693">
        <ele>93.3</ele>
        <time>2019-10-06T08:35:16.000Z</time>
      </trkpt>
      <trkpt lat="43.483" lon="1.4167">
        <ele>93.3</ele>
        <time>2019-10-06T08:35:18.000Z</time>
      </trkpt>
      <trkpt lat="43.48294" lon="1.41651">
        <ele>93.38</ele>
        <time>2019-10-06T08:35:20.000Z</time>
      </trkpt>
      <trkpt lat="43.48283" lon="1.41629">
        <ele>93.38</ele>
        <time>2019-10-06T08:35:23.000Z</time>
      </trkpt>
      <trkpt lat="43.48274" lon="1.41613">
        <ele>93.55</ele>
        <time>2019-10-06T08:35:26.000Z</time>
      </trkpt>
      <trkpt lat="43.48266" lon="1.41596">
        <ele>93.94</ele>
        <time>2019-10-06T08:35:29.000Z</time>
      </trkpt>
      <trkpt lat="43.48259" lon="1.41588">
        <ele>93.92</ele>
        <time>2019-10-06T08:35:31.000Z</time>
      </trkpt>
      <trkpt lat="43.48251" lon="1.41581">
        <ele>93.47</ele>
        <time>2019-10-06T08:35:32.000Z</time>
      </trkpt>
      <trkpt lat="43.48241" lon="1.41568">
        <ele>91.79</ele>
        <time>2019-10-06T08:35:35.000Z</time>
      </trkpt>
      <trkpt lat="43.4823" lon="1.41544">
        <ele>91.79</ele>
        <time>2019-10-06T08:35:38.000Z</time>
      </trkpt>
      <trkpt lat="43.48219" lon="1.41527">
        <ele>84.29</ele>
        <time>2019-10-06T08:35:42.000Z</time>
      </trkpt>
      <trkpt lat="43.48207" lon="1.4152">
        <ele>81.42</ele>
        <time>2019-10-06T08:35:44.000Z</time>
      </trkpt>
      <trkpt lat="43.48184" lon="1.4151">
        <ele>76.96</ele>
        <time>2019-10-06T08:35:47.000Z</time>
      </trkpt>
      <trkpt lat="43.4817" lon="1.41506">
        <ele>75.04</ele>
        <time>2019-10-06T08:35:48.000Z</time>
      </trkpt>
      <trkpt lat="43.48155" lon="1.41507">
        <ele>74.89</ele>
        <time>2019-10-06T08:35:51.000Z</time>
      </trkpt>
      <trkpt lat="43.48139" lon="1.41511">
        <ele>75.12</ele>
        <time>2019-10-06T08:35:53.000Z</time>
      </trkpt>
      <trkpt lat="43.48121" lon="1.41514">
        <ele>74.59</ele>
        <time>2019-10-06T08:35:55.000Z</time>
      </trkpt>
      <trkpt lat="43.48104" lon="1.41519">
        <ele>74.59</ele>
        <time>2019-10-06T08:35:57.000Z</time>
      </trkpt>
      <trkpt lat="43.48087" lon="1.41524">
        <ele>74.3</ele>
        <time>2019-10-06T08:35:59.000Z</time>
      </trkpt>
      <trkpt lat="43.48072" lon="1.41529">
        <ele>74.6</ele>
        <time>2019-10-06T08:36:01.000Z</time>
      </trkpt>
      <trkpt lat="43.48059" lon="1.41534">
        <ele>74.74</ele>
        <time>2019-10-06T08:36:03.000Z</time>
      </trkpt>
      <trkpt lat="43.48045" lon="1.41539">
        <ele>74.67</ele>
        <time>2019-10-06T08:36:05.000Z</time>
      </trkpt>
      <trkpt lat="43.48033" lon="1.41542">
        <ele>75.56</ele>
        <time>2019-10-06T08:36:07.000Z</time>
      </trkpt>
      <trkpt lat="43.48024" lon="1.41543">
        <ele>75.61</ele>
        <time>2019-10-06T08:36:09.000Z</time>
      </trkpt>
      <trkpt lat="43.48014" lon="1.41543">
        <ele>75.1</ele>
        <time>2019-10-06T08:36:11.000Z</time>
      </trkpt>
      <trkpt lat="43.48004" lon="1.41544">
        <ele>75.01</ele>
        <time>2019-10-06T08:36:13.000Z</time>
      </trkpt>
      <trkpt lat="43.47994" lon="1.41547">
        <ele>75.21</ele>
        <time>2019-10-06T08:36:15.000Z</time>
      </trkpt>
      <trkpt lat="43.47984" lon="1.41551">
        <ele>74.8</ele>
        <time>2019-10-06T08:36:17.000Z</time>
      </trkpt>
      <trkpt lat="43.47969" lon="1.41556">
        <ele>74.8</ele>
        <time>2019-10-06T08:36:20.000Z</time>
      </trkpt>
      <trkpt lat="43.47952" lon="1.41563">
        <ele>74.67</ele>
        <time>2019-10-06T08:36:23.000Z</time>
      </trkpt>
      <trkpt lat="43.47939" lon="1.4157">
        <ele>74.78</ele>
        <time>2019-10-06T08:36:25.000Z</time>
      </trkpt>
      <trkpt lat="43.47924" lon="1.4158">
        <ele>74.48</ele>
        <time>2019-10-06T08:36:28.000Z</time>
      </trkpt>
      <trkpt lat="43.47916" lon="1.41588">
        <ele>74.95</ele>
        <time>2019-10-06T08:36:30.000Z</time>
      </trkpt>
      <trkpt lat="43.47909" lon="1.41597">
        <ele>74.91</ele>
        <time>2019-10-06T08:36:33.000Z</time>
      </trkpt>
      <trkpt lat="43.47897" lon="1.41601">
        <ele>74.91</ele>
        <time>2019-10-06T08:36:35.000Z</time>
      </trkpt>
      <trkpt lat="43.47884" lon="1.4161">
        <ele>74.85</ele>
        <time>2019-10-06T08:36:38.000Z</time>
      </trkpt>
      <trkpt lat="43.47873" lon="1.41621">
        <ele>74.98</ele>
        <time>2019-10-06T08:36:40.000Z</time>
      </trkpt>
      <trkpt lat="43.4786" lon="1.41632">
        <ele>74.31</ele>
        <time>2019-10-06T08:36:43.000Z</time>
      </trkpt>
      <trkpt lat="43.47848" lon="1.41651">
        <ele>74.22</ele>
        <time>2019-10-06T08:36:45.000Z</time>
      </trkpt>
      <trkpt lat="43.47838" lon="1.41655">
        <ele>74.22</ele>
        <time>2019-10-06T08:36:47.000Z</time>
      </trkpt>
      <trkpt lat="43.47824" lon="1.41663">
        <ele>74.36</ele>
        <time>2019-10-06T08:36:50.000Z</time>
      </trkpt>
      <trkpt lat="43.47812" lon="1.41681">
        <ele>74.48</ele>
        <time>2019-10-06T08:36:53.000Z</time>
      </trkpt>
      <trkpt lat="43.47803" lon="1.41697">
        <ele>75.47</ele>
        <time>2019-10-06T08:36:56.000Z</time>
      </trkpt>
      <trkpt lat="43.47794" lon="1.41714">
        <ele>75.89</ele>
        <time>2019-10-06T08:37:00.000Z</time>
      </trkpt>
      <trkpt lat="43.47786" lon="1.41733">
        <ele>76.79</ele>
        <time>2019-10-06T08:37:04.000Z</time>
      </trkpt>
      <trkpt lat="43.4778" lon="1.41745">
        <ele>76.81</ele>
        <time>2019-10-06T08:37:06.000Z</time>
      </trkpt>
      <trkpt lat="43.47771" lon="1.41763">
        <ele>76.36</ele>
        <time>2019-10-06T08:37:10.000Z</time>
      </trkpt>
      <trkpt lat="43.47765" lon="1.41778">
        <ele>75.61</ele>
        <time>2019-10-06T08:37:12.000Z</time>
      </trkpt>
      <trkpt lat="43.4776" lon="1.41789">
        <ele>75.61</ele>
        <time>2019-10-06T08:37:14.000Z</time>
      </trkpt>
      <trkpt lat="43.47754" lon="1.41801">
        <ele>75.55</ele>
        <time>2019-10-06T08:37:17.000Z</time>
      </trkpt>
      <trkpt lat="43.47744" lon="1.4182">
        <ele>75.11</ele>
        <time>2019-10-06T08:37:19.000Z</time>
      </trkpt>
      <trkpt lat="43.47735" lon="1.41833">
        <ele>75.11</ele>
        <time>2019-10-06T08:37:22.000Z</time>
      </trkpt>
      <trkpt lat="43.47722" lon="1.41844">
        <ele>75.25</ele>
        <time>2019-10-06T08:37:25.000Z</time>
      </trkpt>
      <trkpt lat="43.47709" lon="1.41847">
        <ele>74.83</ele>
        <time>2019-10-06T08:37:27.000Z</time>
      </trkpt>
      <trkpt lat="43.47696" lon="1.41845">
        <ele>74.33</ele>
        <time>2019-10-06T08:37:29.000Z</time>
      </trkpt>
      <trkpt lat="43.47682" lon="1.41841">
        <ele>74.33</ele>
        <time>2019-10-06T08:37:31.000Z</time>
      </trkpt>
      <trkpt lat="43.4767" lon="1.41847">
        <ele>74.17</ele>
        <time>2019-10-06T08:37:33.000Z</time>
      </trkpt>
      <trkpt lat="43.47659" lon="1.41856">
        <ele>73.25</ele>
        <time>2019-10-06T08:37:35.000Z</time>
      </trkpt>
      <trkpt lat="43.47644" lon="1.41869">
        <ele>72.89</ele>
        <time>2019-10-06T08:37:38.000Z</time>
      </trkpt>
      <trkpt lat="43.47634" lon="1.41877">
        <ele>72.89</ele>
        <time>2019-10-06T08:37:40.000Z</time>
      </trkpt>
      <trkpt lat="43.47626" lon="1.41884">
        <ele>72.67</ele>
        <time>2019-10-06T08:37:42.000Z</time>
      </trkpt>
      <trkpt lat="43.47617" lon="1.41892">
        <ele>72.67</ele>
        <time>2019-10-06T08:37:44.000Z</time>
      </trkpt>
      <trkpt lat="43.47604" lon="1.41901">
        <ele>73.31</ele>
        <time>2019-10-06T08:37:47.000Z</time>
      </trkpt>
      <trkpt lat="43.47593" lon="1.4191">
        <ele>73.21</ele>
        <time>2019-10-06T08:37:50.000Z</time>
      </trkpt>
      <trkpt lat="43.47584" lon="1.4192">
        <ele>73.49</ele>
        <time>2019-10-06T08:37:53.000Z</time>
      </trkpt>
      <trkpt lat="43.47574" lon="1.41928">
        <ele>73.73</ele>
        <time>2019-10-06T08:37:56.000Z</time>
      </trkpt>
      <trkpt lat="43.4756" lon="1.41937">
        <ele>73.88</ele>
        <time>2019-10-06T08:38:00.000Z</time>
      </trkpt>
      <trkpt lat="43.47551" lon="1.41948">
        <ele>74.23</ele>
        <time>2019-10-06T08:38:03.000Z</time>
      </trkpt>
      <trkpt lat="43.47543" lon="1.41954">
        <ele>74.13</ele>
        <time>2019-10-06T08:38:06.000Z</time>
      </trkpt>
      <trkpt lat="43.4753" lon="1.41952">
        <ele>74.61</ele>
        <time>2019-10-06T08:38:09.000Z</time>
      </trkpt>
      <trkpt lat="43.47519" lon="1.41951">
        <ele>74.61</ele>
        <time>2019-10-06T08:38:11.000Z</time>
      </trkpt>
      <trkpt lat="43.47509" lon="1.41951">
        <ele>74.83</ele>
        <time>2019-10-06T08:38:13.000Z</time>
      </trkpt>
      <trkpt lat="43.47494" lon="1.41956">
        <ele>74.58</ele>
        <time>2019-10-06T08:38:16.000Z</time>
      </trkpt>
      <trkpt lat="43.47485" lon="1.41959">
        <ele>74.14</ele>
        <time>2019-10-06T08:38:18.000Z</time>
      </trkpt>
      <trkpt lat="43.47467" lon="1.41968">
        <ele>74.07</ele>
        <time>2019-10-06T08:38:22.000Z</time>
      </trkpt>
      <trkpt lat="43.47453" lon="1.41978">
        <ele>74.93</ele>
        <time>2019-10-06T08:38:25.000Z</time>
      </trkpt>
      <trkpt lat="43.47443" lon="1.41984">
        <ele>75.59</ele>
        <time>2019-10-06T08:38:27.000Z</time>
      </trkpt>
      <trkpt lat="43.47428" lon="1.41989">
        <ele>75.6</ele>
        <time>2019-10-06T08:38:30.000Z</time>
      </trkpt>
      <trkpt lat="43.47413" lon="1.41993">
        <ele>75.11</ele>
        <time>2019-10-06T08:38:33.000Z</time>
      </trkpt>
      <trkpt lat="43.47403" lon="1.41996">
        <ele>75.18</ele>
        <time>2019-10-06T08:38:35.000Z</time>
      </trkpt>
      <trkpt lat="43.47394" lon="1.42">
        <ele>75.02</ele>
        <time>2019-10-06T08:38:37.000Z</time>
      </trkpt>
      <trkpt lat="43.47384" lon="1.42003">
        <ele>75.25</ele>
        <time>2019-10-06T08:38:39.000Z</time>
      </trkpt>
      <trkpt lat="43.47375" lon="1.42008">
        <ele>75.39</ele>
        <time>2019-10-06T08:38:41.000Z</time>
      </trkpt>
      <trkpt lat="43.47364" lon="1.42014">
        <ele>75.18</ele>
        <time>2019-10-06T08:38:43.000Z</time>
      </trkpt>
      <trkpt lat="43.47351" lon="1.42019">
        <ele>74.91</ele>
        <time>2019-10-06T08:38:45.000Z</time>
      </trkpt>
      <trkpt lat="43.47339" lon="1.42021">
        <ele>74.84</ele>
        <time>2019-10-06T08:38:47.000Z</time>
      </trkpt>
      <trkpt lat="43.47327" lon="1.42023">
        <ele>74.47</ele>
        <time>2019-10-06T08:38:49.000Z</time>
      </trkpt>
      <trkpt lat="43.47315" lon="1.42025">
        <ele>74.47</ele>
        <time>2019-10-06T08:38:51.000Z</time>
      </trkpt>
      <trkpt lat="43.47296" lon="1.42025">
        <ele>74.76</ele>
        <time>2019-10-06T08:38:54.000Z</time>
      </trkpt>
      <trkpt lat="43.47286" lon="1.42026">
        <ele>74.33</ele>
        <time>2019-10-06T08:38:56.000Z</time>
      </trkpt>
      <trkpt lat="43.4727" lon="1.42029">
        <ele>74.72</ele>
        <time>2019-10-06T08:38:59.000Z</time>
      </trkpt>
      <trkpt lat="43.47255" lon="1.42031">
        <ele>74.42</ele>
        <time>2019-10-06T08:39:02.000Z</time>
      </trkpt>
      <trkpt lat="43.47241" lon="1.42033">
        <ele>74.18</ele>
        <time>2019-10-06T08:39:05.000Z</time>
      </trkpt>
      <trkpt lat="43.47231" lon="1.42034">
        <ele>74.18</ele>
        <time>2019-10-06T08:39:07.000Z</time>
      </trkpt>
      <trkpt lat="43.47216" lon="1.42037">
        <ele>74.25</ele>
        <time>2019-10-06T08:39:10.000Z</time>
      </trkpt>
      <trkpt lat="43.47207" lon="1.42039">
        <ele>74.39</ele>
        <time>2019-10-06T08:39:12.000Z</time>
      </trkpt>
      <trkpt lat="43.47197" lon="1.42037">
        <ele>75.36</ele>
        <time>2019-10-06T08:39:15.000Z</time>
      </trkpt>
      <trkpt lat="43.4719" lon="1.42021">
        <ele>75.97</ele>
        <time>2019-10-06T08:39:19.000Z</time>
      </trkpt>
      <trkpt lat="43.47176" lon="1.42016">
        <ele>74.71</ele>
        <time>2019-10-06T08:39:24.000Z</time>
      </trkpt>
      <trkpt lat="43.47163" lon="1.42016">
        <ele>74.33</ele>
        <time>2019-10-06T08:39:27.000Z</time>
      </trkpt>
      <trkpt lat="43.47148" lon="1.42014">
        <ele>74.29</ele>
        <time>2019-10-06T08:39:31.000Z</time>
      </trkpt>
      <trkpt lat="43.47137" lon="1.42012">
        <ele>75.67</ele>
        <time>2019-10-06T08:39:36.000Z</time>
      </trkpt>
      <trkpt lat="43.47123" lon="1.42015">
        <ele>75.64</ele>
        <time>2019-10-06T08:39:40.000Z</time>
      </trkpt>
      <trkpt lat="43.47112" lon="1.4201">
        <ele>75.25</ele>
        <time>2019-10-06T08:39:46.000Z</time>
      </trkpt>
      <trkpt lat="43.47099" lon="1.42007">
        <ele>76.11</ele>
        <time>2019-10-06T08:39:49.000Z</time>
      </trkpt>
      <trkpt lat="43.47087" lon="1.42005">
        <ele>76.14</ele>
        <time>2019-10-06T08:39:52.000Z</time>
      </trkpt>
      <trkpt lat="43.47076" lon="1.42003">
        <ele>76.14</ele>
        <time>2019-10-06T08:39:54.000Z</time>
      </trkpt>
      <trkpt lat="43.47062" lon="1.42002">
        <ele>76.19</ele>
        <time>2019-10-06T08:39:57.000Z</time>
      </trkpt>
      <trkpt lat="43.47049" lon="1.41998">
        <ele>76.04</ele>
        <time>2019-10-06T08:40:00.000Z</time>
      </trkpt>
      <trkpt lat="43.47038" lon="1.41993">
        <ele>76.04</ele>
        <time>2019-10-06T08:40:04.000Z</time>
      </trkpt>
      <trkpt lat="43.47028" lon="1.41991">
        <ele>76.08</ele>
        <time>2019-10-06T08:40:06.000Z</time>
      </trkpt>
      <trkpt lat="43.47018" lon="1.41992">
        <ele>75.26</ele>
        <time>2019-10-06T08:40:09.000Z</time>
      </trkpt>
      <trkpt lat="43.47006" lon="1.41991">
        <ele>75.08</ele>
        <time>2019-10-06T08:40:12.000Z</time>
      </trkpt>
      <trkpt lat="43.46995" lon="1.41989">
        <ele>74.8</ele>
        <time>2019-10-06T08:40:15.000Z</time>
      </trkpt>
      <trkpt lat="43.46985" lon="1.41986">
        <ele>74.39</ele>
        <time>2019-10-06T08:40:17.000Z</time>
      </trkpt>
      <trkpt lat="43.46975" lon="1.41986">
        <ele>74.7</ele>
        <time>2019-10-06T08:40:19.000Z</time>
      </trkpt>
      <trkpt lat="43.46964" lon="1.41983">
        <ele>74.72</ele>
        <time>2019-10-06T08:40:22.000Z</time>
      </trkpt>
      <trkpt lat="43.46951" lon="1.4198">
        <ele>74.86</ele>
        <time>2019-10-06T08:40:24.000Z</time>
      </trkpt>
      <trkpt lat="43.46942" lon="1.41984">
        <ele>75.08</ele>
        <time>2019-10-06T08:40:28.000Z</time>
      </trkpt>
      <trkpt lat="43.46934" lon="1.41988">
        <ele>75.5</ele>
        <time>2019-10-06T08:40:31.000Z</time>
      </trkpt>
      <trkpt lat="43.46925" lon="1.41977">
        <ele>75.39</ele>
        <time>2019-10-06T08:40:36.000Z</time>
      </trkpt>
      <trkpt lat="43.4691" lon="1.41971">
        <ele>75.14</ele>
        <time>2019-10-06T08:40:40.000Z</time>
      </trkpt>
      <trkpt lat="43.46896" lon="1.41967">
        <ele>74.34</ele>
        <time>2019-10-06T08:40:43.000Z</time>
      </trkpt>
      <trkpt lat="43.46886" lon="1.41966">
        <ele>74.85</ele>
        <time>2019-10-06T08:40:46.000Z</time>
      </trkpt>
      <trkpt lat="43.46875" lon="1.41964">
        <ele>74.5</ele>
        <time>2019-10-06T08:40:47.000Z</time>
      </trkpt>
      <trkpt lat="43.46864" lon="1.41962">
        <ele>74.38</ele>
        <time>2019-10-06T08:40:49.000Z</time>
      </trkpt>
      <trkpt lat="43.46853" lon="1.41958">
        <ele>74.21</ele>
        <time>2019-10-06T08:40:52.000Z</time>
      </trkpt>
      <trkpt lat="43.46842" lon="1.41953">
        <ele>74.21</ele>
        <time>2019-10-06T08:40:54.000Z</time>
      </trkpt>
      <trkpt lat="43.46831" lon="1.41952">
        <ele>73.97</ele>
        <time>2019-10-06T08:40:56.000Z</time>
      </trkpt>
      <trkpt lat="43.46821" lon="1.41949">
        <ele>73.87</ele>
        <time>2019-10-06T08:40:58.000Z</time>
      </trkpt>
      <trkpt lat="43.46804" lon="1.41945">
        <ele>74.25</ele>
        <time>2019-10-06T08:41:01.000Z</time>
      </trkpt>
      <trkpt lat="43.46785" lon="1.41939">
        <ele>74.28</ele>
        <time>2019-10-06T08:41:04.000Z</time>
      </trkpt>
      <trkpt lat="43.46767" lon="1.41938">
        <ele>74.47</ele>
        <time>2019-10-06T08:41:07.000Z</time>
      </trkpt>
      <trkpt lat="43.46758" lon="1.41935">
        <ele>73.64</ele>
        <time>2019-10-06T08:41:09.000Z</time>
      </trkpt>
      <trkpt lat="43.46742" lon="1.4193">
        <ele>73.58</ele>
        <time>2019-10-06T08:41:12.000Z</time>
      </trkpt>
      <trkpt lat="43.46731" lon="1.41925">
        <ele>73.58</ele>
        <time>2019-10-06T08:41:14.000Z</time>
      </trkpt>
      <trkpt lat="43.46719" lon="1.41921">
        <ele>73.58</ele>
        <time>2019-10-06T08:41:16.000Z</time>
      </trkpt>
      <trkpt lat="43.46708" lon="1.41919">
        <ele>73.19</ele>
        <time>2019-10-06T08:41:18.000Z</time>
      </trkpt>
      <trkpt lat="43.4669" lon="1.41916">
        <ele>73</ele>
        <time>2019-10-06T08:41:21.000Z</time>
      </trkpt>
      <trkpt lat="43.46677" lon="1.41915">
        <ele>73</ele>
        <time>2019-10-06T08:41:23.000Z</time>
      </trkpt>
      <trkpt lat="43.46665" lon="1.41915">
        <ele>72.84</ele>
        <time>2019-10-06T08:41:25.000Z</time>
      </trkpt>
      <trkpt lat="43.46654" lon="1.41916">
        <ele>73.01</ele>
        <time>2019-10-06T08:41:27.000Z</time>
      </trkpt>
      <trkpt lat="43.46637" lon="1.41916">
        <ele>73.02</ele>
        <time>2019-10-06T08:41:30.000Z</time>
      </trkpt>
      <trkpt lat="43.46627" lon="1.41913">
        <ele>73.76</ele>
        <time>2019-10-06T08:41:32.000Z</time>
      </trkpt>
      <trkpt lat="43.46617" lon="1.41912">
        <ele>74.03</ele>
        <time>2019-10-06T08:41:34.000Z</time>
      </trkpt>
      <trkpt lat="43.46602" lon="1.41911">
        <ele>74.05</ele>
        <time>2019-10-06T08:41:37.000Z</time>
      </trkpt>
      <trkpt lat="43.46589" lon="1.41913">
        <ele>73.86</ele>
        <time>2019-10-06T08:41:39.000Z</time>
      </trkpt>
      <trkpt lat="43.46578" lon="1.41914">
        <ele>73.65</ele>
        <time>2019-10-06T08:41:41.000Z</time>
      </trkpt>
      <trkpt lat="43.46566" lon="1.41915">
        <ele>73.58</ele>
        <time>2019-10-06T08:41:43.000Z</time>
      </trkpt>
      <trkpt lat="43.46554" lon="1.41916">
        <ele>73.74</ele>
        <time>2019-10-06T08:41:45.000Z</time>
      </trkpt>
      <trkpt lat="43.46535" lon="1.41919">
        <ele>73.8</ele>
        <time>2019-10-06T08:41:48.000Z</time>
      </trkpt>
      <trkpt lat="43.46516" lon="1.41923">
        <ele>74.04</ele>
        <time>2019-10-06T08:41:51.000Z</time>
      </trkpt>
      <trkpt lat="43.46499" lon="1.41923">
        <ele>74.24</ele>
        <time>2019-10-06T08:41:54.000Z</time>
      </trkpt>
      <trkpt lat="43.46487" lon="1.41923">
        <ele>73.57</ele>
        <time>2019-10-06T08:41:56.000Z</time>
      </trkpt>
      <trkpt lat="43.46475" lon="1.41924">
        <ele>73.16</ele>
        <time>2019-10-06T08:41:58.000Z</time>
      </trkpt>
      <trkpt lat="43.46463" lon="1.41926">
        <ele>73.16</ele>
        <time>2019-10-06T08:42:00.000Z</time>
      </trkpt>
      <trkpt lat="43.4645" lon="1.41929">
        <ele>72.97</ele>
        <time>2019-10-06T08:42:02.000Z</time>
      </trkpt>
      <trkpt lat="43.46438" lon="1.4193">
        <ele>72.92</ele>
        <time>2019-10-06T08:42:04.000Z</time>
      </trkpt>
      <trkpt lat="43.46426" lon="1.41932">
        <ele>72.7</ele>
        <time>2019-10-06T08:42:06.000Z</time>
      </trkpt>
      <trkpt lat="43.46409" lon="1.41936">
        <ele>72.65</ele>
        <time>2019-10-06T08:42:09.000Z</time>
      </trkpt>
      <trkpt lat="43.46396" lon="1.41938">
        <ele>72.69</ele>
        <time>2019-10-06T08:42:11.000Z</time>
      </trkpt>
      <trkpt lat="43.46384" lon="1.41941">
        <ele>72.69</ele>
        <time>2019-10-06T08:42:13.000Z</time>
      </trkpt>
      <trkpt lat="43.46372" lon="1.41945">
        <ele>72.69</ele>
        <time>2019-10-06T08:42:15.000Z</time>
      </trkpt>
      <trkpt lat="43.46353" lon="1.41953">
        <ele>72.84</ele>
        <time>2019-10-06T08:42:18.000Z</time>
      </trkpt>
      <trkpt lat="43.46341" lon="1.4196">
        <ele>72.97</ele>
        <time>2019-10-06T08:42:20.000Z</time>
      </trkpt>
      <trkpt lat="43.46329" lon="1.41967">
        <ele>73.18</ele>
        <time>2019-10-06T08:42:22.000Z</time>
      </trkpt>
      <trkpt lat="43.46318" lon="1.41972">
        <ele>74.09</ele>
        <time>2019-10-06T08:42:24.000Z</time>
      </trkpt>
      <trkpt lat="43.46307" lon="1.41979">
        <ele>74.66</ele>
        <time>2019-10-06T08:42:26.000Z</time>
      </trkpt>
      <trkpt lat="43.46296" lon="1.4199">
        <ele>75.08</ele>
        <time>2019-10-06T08:42:28.000Z</time>
      </trkpt>
      <trkpt lat="43.46285" lon="1.41995">
        <ele>75.66</ele>
        <time>2019-10-06T08:42:30.000Z</time>
      </trkpt>
      <trkpt lat="43.46269" lon="1.42004">
        <ele>74.6</ele>
        <time>2019-10-06T08:42:33.000Z</time>
      </trkpt>
      <trkpt lat="43.46258" lon="1.42009">
        <ele>74.04</ele>
        <time>2019-10-06T08:42:35.000Z</time>
      </trkpt>
      <trkpt lat="43.46249" lon="1.42017">
        <ele>73.81</ele>
        <time>2019-10-06T08:42:37.000Z</time>
      </trkpt>
      <trkpt lat="43.46239" lon="1.42027">
        <ele>73.81</ele>
        <time>2019-10-06T08:42:39.000Z</time>
      </trkpt>
      <trkpt lat="43.46228" lon="1.4203">
        <ele>73.05</ele>
        <time>2019-10-06T08:42:41.000Z</time>
      </trkpt>
      <trkpt lat="43.46211" lon="1.42036">
        <ele>73.32</ele>
        <time>2019-10-06T08:42:44.000Z</time>
      </trkpt>
      <trkpt lat="43.46195" lon="1.42041">
        <ele>73.47</ele>
        <time>2019-10-06T08:42:47.000Z</time>
      </trkpt>
      <trkpt lat="43.46182" lon="1.42044">
        <ele>74.34</ele>
        <time>2019-10-06T08:42:50.000Z</time>
      </trkpt>
      <trkpt lat="43.46174" lon="1.42048">
        <ele>76.36</ele>
        <time>2019-10-06T08:42:54.000Z</time>
      </trkpt>
      <trkpt lat="43.46162" lon="1.42053">
        <ele>77.08</ele>
        <time>2019-10-06T08:42:59.000Z</time>
      </trkpt>
      <trkpt lat="43.46149" lon="1.42061">
        <ele>76.51</ele>
        <time>2019-10-06T08:43:03.000Z</time>
      </trkpt>
      <trkpt lat="43.46137" lon="1.42067">
        <ele>76.09</ele>
        <time>2019-10-06T08:43:06.000Z</time>
      </trkpt>
      <trkpt lat="43.46122" lon="1.42072">
        <ele>74.96</ele>
        <time>2019-10-06T08:43:10.000Z</time>
      </trkpt>
      <trkpt lat="43.46111" lon="1.42075">
        <ele>74.85</ele>
        <time>2019-10-06T08:43:13.000Z</time>
      </trkpt>
      <trkpt lat="43.46101" lon="1.42078">
        <ele>74.93</ele>
        <time>2019-10-06T08:43:15.000Z</time>
      </trkpt>
      <trkpt lat="43.46092" lon="1.42084">
        <ele>74.78</ele>
        <time>2019-10-06T08:43:17.000Z</time>
      </trkpt>
      <trkpt lat="43.46083" lon="1.42088">
        <ele>75.04</ele>
        <time>2019-10-06T08:43:19.000Z</time>
      </trkpt>
      <trkpt lat="43.46069" lon="1.42095">
        <ele>75.43</ele>
        <time>2019-10-06T08:43:22.000Z</time>
      </trkpt>
      <trkpt lat="43.46055" lon="1.42102">
        <ele>75.98</ele>
        <time>2019-10-06T08:43:25.000Z</time>
      </trkpt>
      <trkpt lat="43.46046" lon="1.42107">
        <ele>76.12</ele>
        <time>2019-10-06T08:43:27.000Z</time>
      </trkpt>
      <trkpt lat="43.46034" lon="1.42117">
        <ele>75.57</ele>
        <time>2019-10-06T08:43:30.000Z</time>
      </trkpt>
      <trkpt lat="43.46025" lon="1.42123">
        <ele>75.37</ele>
        <time>2019-10-06T08:43:32.000Z</time>
      </trkpt>
      <trkpt lat="43.46017" lon="1.42129">
        <ele>74.92</ele>
        <time>2019-10-06T08:43:34.000Z</time>
      </trkpt>
      <trkpt lat="43.46005" lon="1.42139">
        <ele>74.48</ele>
        <time>2019-10-06T08:43:37.000Z</time>
      </trkpt>
      <trkpt lat="43.45996" lon="1.42156">
        <ele>74.48</ele>
        <time>2019-10-06T08:43:40.000Z</time>
      </trkpt>
      <trkpt lat="43.4599" lon="1.42168">
        <ele>74.23</ele>
        <time>2019-10-06T08:43:42.000Z</time>
      </trkpt>
      <trkpt lat="43.45985" lon="1.4218">
        <ele>74.06</ele>
        <time>2019-10-06T08:43:44.000Z</time>
      </trkpt>
      <trkpt lat="43.45977" lon="1.42199">
        <ele>74.13</ele>
        <time>2019-10-06T08:43:47.000Z</time>
      </trkpt>
      <trkpt lat="43.45972" lon="1.4221">
        <ele>74.13</ele>
        <time>2019-10-06T08:43:49.000Z</time>
      </trkpt>
      <trkpt lat="43.45967" lon="1.42222">
        <ele>74.48</ele>
        <time>2019-10-06T08:43:51.000Z</time>
      </trkpt>
      <trkpt lat="43.45966" lon="1.42238">
        <ele>74.67</ele>
        <time>2019-10-06T08:43:53.000Z</time>
      </trkpt>
      <trkpt lat="43.45963" lon="1.42255">
        <ele>75.62</ele>
        <time>2019-10-06T08:43:55.000Z</time>
      </trkpt>
      <trkpt lat="43.45962" lon="1.42272">
        <ele>75.61</ele>
        <time>2019-10-06T08:43:57.000Z</time>
      </trkpt>
      <trkpt lat="43.45961" lon="1.42294">
        <ele>75.92</ele>
        <time>2019-10-06T08:44:00.000Z</time>
      </trkpt>
      <trkpt lat="43.4596" lon="1.42309">
        <ele>75.71</ele>
        <time>2019-10-06T08:44:02.000Z</time>
      </trkpt>
      <trkpt lat="43.45955" lon="1.42323">
        <ele>75.39</ele>
        <time>2019-10-06T08:44:04.000Z</time>
      </trkpt>
      <trkpt lat="43.45947" lon="1.42342">
        <ele>75.28</ele>
        <time>2019-10-06T08:44:07.000Z</time>
      </trkpt>
      <trkpt lat="43.45944" lon="1.42363">
        <ele>75.1</ele>
        <time>2019-10-06T08:44:10.000Z</time>
      </trkpt>
      <trkpt lat="43.45946" lon="1.42384">
        <ele>74.89</ele>
        <time>2019-10-06T08:44:13.000Z</time>
      </trkpt>
      <trkpt lat="43.45952" lon="1.42405">
        <ele>74.59</ele>
        <time>2019-10-06T08:44:16.000Z</time>
      </trkpt>
      <trkpt lat="43.45956" lon="1.42418">
        <ele>74.26</ele>
        <time>2019-10-06T08:44:18.000Z</time>
      </trkpt>
      <trkpt lat="43.45963" lon="1.42437">
        <ele>74.26</ele>
        <time>2019-10-06T08:44:21.000Z</time>
      </trkpt>
      <trkpt lat="43.45968" lon="1.42449">
        <ele>74.3</ele>
        <time>2019-10-06T08:44:23.000Z</time>
      </trkpt>
      <trkpt lat="43.45972" lon="1.42462">
        <ele>74.34</ele>
        <time>2019-10-06T08:44:25.000Z</time>
      </trkpt>
      <trkpt lat="43.45979" lon="1.42479">
        <ele>75.22</ele>
        <time>2019-10-06T08:44:28.000Z</time>
      </trkpt>
      <trkpt lat="43.45985" lon="1.42498">
        <ele>76.66</ele>
        <time>2019-10-06T08:44:31.000Z</time>
      </trkpt>
      <trkpt lat="43.45992" lon="1.42514">
        <ele>76.98</ele>
        <time>2019-10-06T08:44:34.000Z</time>
      </trkpt>
      <trkpt lat="43.45997" lon="1.42526">
        <ele>76.81</ele>
        <time>2019-10-06T08:44:36.000Z</time>
      </trkpt>
      <trkpt lat="43.46003" lon="1.42537">
        <ele>76.81</ele>
        <time>2019-10-06T08:44:38.000Z</time>
      </trkpt>
      <trkpt lat="43.46008" lon="1.42547">
        <ele>77.43</ele>
        <time>2019-10-06T08:44:40.000Z</time>
      </trkpt>
      <trkpt lat="43.46017" lon="1.4256">
        <ele>78.1</ele>
        <time>2019-10-06T08:44:43.000Z</time>
      </trkpt>
      <trkpt lat="43.46029" lon="1.42567">
        <ele>78.36</ele>
        <time>2019-10-06T08:44:46.000Z</time>
      </trkpt>
      <trkpt lat="43.46046" lon="1.42568">
        <ele>78.36</ele>
        <time>2019-10-06T08:44:50.000Z</time>
      </trkpt>
      <trkpt lat="43.46058" lon="1.42558">
        <ele>78.44</ele>
        <time>2019-10-06T08:44:53.000Z</time>
      </trkpt>
      <trkpt lat="43.46066" lon="1.4255">
        <ele>78.1</ele>
        <time>2019-10-06T08:44:55.000Z</time>
      </trkpt>
      <trkpt lat="43.46078" lon="1.42541">
        <ele>78.15</ele>
        <time>2019-10-06T08:44:58.000Z</time>
      </trkpt>
      <trkpt lat="43.46087" lon="1.42539">
        <ele>78.17</ele>
        <time>2019-10-06T08:45:00.000Z</time>
      </trkpt>
      <trkpt lat="43.46101" lon="1.42542">
        <ele>78.48</ele>
        <time>2019-10-06T08:45:03.000Z</time>
      </trkpt>
      <trkpt lat="43.46115" lon="1.42546">
        <ele>79.48</ele>
        <time>2019-10-06T08:45:07.000Z</time>
      </trkpt>
      <trkpt lat="43.46125" lon="1.4255">
        <ele>80.78</ele>
        <time>2019-10-06T08:45:12.000Z</time>
      </trkpt>
      <trkpt lat="43.46135" lon="1.42545">
        <ele>81.24</ele>
        <time>2019-10-06T08:45:17.000Z</time>
      </trkpt>
      <trkpt lat="43.46137" lon="1.4253">
        <ele>80.93</ele>
        <time>2019-10-06T08:45:20.000Z</time>
      </trkpt>
      <trkpt lat="43.4614" lon="1.42508">
        <ele>80.77</ele>
        <time>2019-10-06T08:45:24.000Z</time>
      </trkpt>
      <trkpt lat="43.46141" lon="1.42495">
        <ele>80.65</ele>
        <time>2019-10-06T08:45:26.000Z</time>
      </trkpt>
      <trkpt lat="43.46142" lon="1.42474">
        <ele>80.17</ele>
        <time>2019-10-06T08:45:29.000Z</time>
      </trkpt>
      <trkpt lat="43.46143" lon="1.42459">
        <ele>79.96</ele>
        <time>2019-10-06T08:45:31.000Z</time>
      </trkpt>
      <trkpt lat="43.46142" lon="1.42444">
        <ele>79.9</ele>
        <time>2019-10-06T08:45:33.000Z</time>
      </trkpt>
      <trkpt lat="43.46141" lon="1.42429">
        <ele>80.1</ele>
        <time>2019-10-06T08:45:35.000Z</time>
      </trkpt>
      <trkpt lat="43.4614" lon="1.42414">
        <ele>80.24</ele>
        <time>2019-10-06T08:45:37.000Z</time>
      </trkpt>
      <trkpt lat="43.46139" lon="1.424">
        <ele>80.06</ele>
        <time>2019-10-06T08:45:39.000Z</time>
      </trkpt>
      <trkpt lat="43.46135" lon="1.42377">
        <ele>79.75</ele>
        <time>2019-10-06T08:45:42.000Z</time>
      </trkpt>
      <trkpt lat="43.46133" lon="1.42362">
        <ele>79.72</ele>
        <time>2019-10-06T08:45:44.000Z</time>
      </trkpt>
      <trkpt lat="43.4613" lon="1.42347">
        <ele>79.8</ele>
        <time>2019-10-06T08:45:46.000Z</time>
      </trkpt>
      <trkpt lat="43.46125" lon="1.42326">
        <ele>79.55</ele>
        <time>2019-10-06T08:45:49.000Z</time>
      </trkpt>
      <trkpt lat="43.46119" lon="1.42305">
        <ele>79.28</ele>
        <time>2019-10-06T08:45:52.000Z</time>
      </trkpt>
      <trkpt lat="43.46115" lon="1.42292">
        <ele>78.99</ele>
        <time>2019-10-06T08:45:54.000Z</time>
      </trkpt>
      <trkpt lat="43.46108" lon="1.42271">
        <ele>78.99</ele>
        <time>2019-10-06T08:45:57.000Z</time>
      </trkpt>
      <trkpt lat="43.46104" lon="1.42258">
        <ele>79.46</ele>
        <time>2019-10-06T08:45:59.000Z</time>
      </trkpt>
      <trkpt lat="43.46099" lon="1.42245">
        <ele>79.71</ele>
        <time>2019-10-06T08:46:01.000Z</time>
      </trkpt>
      <trkpt lat="43.46093" lon="1.42225">
        <ele>80.76</ele>
        <time>2019-10-06T08:46:04.000Z</time>
      </trkpt>
      <trkpt lat="43.46089" lon="1.42212">
        <ele>81.24</ele>
        <time>2019-10-06T08:46:06.000Z</time>
      </trkpt>
      <trkpt lat="43.46085" lon="1.422">
        <ele>81.67</ele>
        <time>2019-10-06T08:46:08.000Z</time>
      </trkpt>
      <trkpt lat="43.46082" lon="1.42187">
        <ele>81.93</ele>
        <time>2019-10-06T08:46:10.000Z</time>
      </trkpt>
      <trkpt lat="43.46079" lon="1.42174">
        <ele>82.08</ele>
        <time>2019-10-06T08:46:12.000Z</time>
      </trkpt>
      <trkpt lat="43.46075" lon="1.42162">
        <ele>82.28</ele>
        <time>2019-10-06T08:46:14.000Z</time>
      </trkpt>
      <trkpt lat="43.46072" lon="1.4215">
        <ele>82.15</ele>
        <time>2019-10-06T08:46:16.000Z</time>
      </trkpt>
      <trkpt lat="43.46067" lon="1.42133">
        <ele>82.34</ele>
        <time>2019-10-06T08:46:19.000Z</time>
      </trkpt>
      <trkpt lat="43.46063" lon="1.42121">
        <ele>82.21</ele>
        <time>2019-10-06T08:46:21.000Z</time>
      </trkpt>
      <trkpt lat="43.46059" lon="1.42108">
        <ele>82.58</ele>
        <time>2019-10-06T08:46:23.000Z</time>
      </trkpt>
      <trkpt lat="43.46053" lon="1.42088">
        <ele>82.97</ele>
        <time>2019-10-06T08:46:26.000Z</time>
      </trkpt>
      <trkpt lat="43.46049" lon="1.42074">
        <ele>83.09</ele>
        <time>2019-10-06T08:46:28.000Z</time>
      </trkpt>
      <trkpt lat="43.46045" lon="1.4206">
        <ele>82.96</ele>
        <time>2019-10-06T08:46:30.000Z</time>
      </trkpt>
      <trkpt lat="43.46039" lon="1.42039">
        <ele>82.73</ele>
        <time>2019-10-06T08:46:33.000Z</time>
      </trkpt>
      <trkpt lat="43.46036" lon="1.42026">
        <ele>82.93</ele>
        <time>2019-10-06T08:46:35.000Z</time>
      </trkpt>
      <trkpt lat="43.46033" lon="1.42015">
        <ele>83.15</ele>
        <time>2019-10-06T08:46:37.000Z</time>
      </trkpt>
      <trkpt lat="43.46028" lon="1.41998">
        <ele>83.19</ele>
        <time>2019-10-06T08:46:40.000Z</time>
      </trkpt>
      <trkpt lat="43.46024" lon="1.41983">
        <ele>83.15</ele>
        <time>2019-10-06T08:46:43.000Z</time>
      </trkpt>
      <trkpt lat="43.46023" lon="1.41968">
        <ele>83.19</ele>
        <time>2019-10-06T08:48:33.000Z</time>
      </trkpt>
      <trkpt lat="43.46028" lon="1.4198">
        <ele>79.52</ele>
        <time>2019-10-06T08:48:43.000Z</time>
      </trkpt>
      <trkpt lat="43.4604" lon="1.41995">
        <ele>77.62</ele>
        <time>2019-10-06T08:48:44.000Z</time>
      </trkpt>
      <trkpt lat="43.46053" lon="1.41999">
        <ele>77.62</ele>
        <time>2019-10-06T08:48:47.000Z</time>
      </trkpt>
      <trkpt lat="43.46065" lon="1.41995">
        <ele>76.21</ele>
        <time>2019-10-06T08:48:49.000Z</time>
      </trkpt>
      <trkpt lat="43.46075" lon="1.41993">
        <ele>72.87</ele>
        <time>2019-10-06T08:48:53.000Z</time>
      </trkpt>
      <trkpt lat="43.46083" lon="1.41988">
        <ele>74.06</ele>
        <time>2019-10-06T08:48:58.000Z</time>
      </trkpt>
      <trkpt lat="43.46097" lon="1.41986">
        <ele>73.01</ele>
        <time>2019-10-06T08:49:04.000Z</time>
      </trkpt>
      <trkpt lat="43.46107" lon="1.41983">
        <ele>72.81</ele>
        <time>2019-10-06T08:49:07.000Z</time>
      </trkpt>
      <trkpt lat="43.46121" lon="1.41977">
        <ele>72.6</ele>
        <time>2019-10-06T08:49:11.000Z</time>
      </trkpt>
      <trkpt lat="43.4613" lon="1.41973">
        <ele>72.9</ele>
        <time>2019-10-06T08:49:13.000Z</time>
      </trkpt>
      <trkpt lat="43.4614" lon="1.41963">
        <ele>72.93</ele>
        <time>2019-10-06T08:49:16.000Z</time>
      </trkpt>
      <trkpt lat="43.46146" lon="1.4195">
        <ele>72.9</ele>
        <time>2019-10-06T08:49:18.000Z</time>
      </trkpt>
      <trkpt lat="43.46154" lon="1.41938">
        <ele>72.92</ele>
        <time>2019-10-06T08:49:21.000Z</time>
      </trkpt>
      <trkpt lat="43.46164" lon="1.41919">
        <ele>72.39</ele>
        <time>2019-10-06T08:49:23.000Z</time>
      </trkpt>
      <trkpt lat="43.46176" lon="1.41902">
        <ele>72.06</ele>
        <time>2019-10-06T08:49:24.000Z</time>
      </trkpt>
      <trkpt lat="43.46195" lon="1.41885">
        <ele>71.07</ele>
        <time>2019-10-06T08:49:27.000Z</time>
      </trkpt>
      <trkpt lat="43.46205" lon="1.41871">
        <ele>71.07</ele>
        <time>2019-10-06T08:49:29.000Z</time>
      </trkpt>
      <trkpt lat="43.46211" lon="1.41853">
        <ele>71.07</ele>
        <time>2019-10-06T08:49:31.000Z</time>
      </trkpt>
      <trkpt lat="43.46207" lon="1.41839">
        <ele>70.24</ele>
        <time>2019-10-06T08:49:33.000Z</time>
      </trkpt>
      <trkpt lat="43.462" lon="1.41815">
        <ele>70.24</ele>
        <time>2019-10-06T08:49:36.000Z</time>
      </trkpt>
      <trkpt lat="43.46193" lon="1.41805">
        <ele>70.21</ele>
        <time>2019-10-06T08:49:38.000Z</time>
      </trkpt>
      <trkpt lat="43.4618" lon="1.41798">
        <ele>71.56</ele>
        <time>2019-10-06T08:49:41.000Z</time>
      </trkpt>
      <trkpt lat="43.46169" lon="1.41794">
        <ele>74.48</ele>
        <time>2019-10-06T08:49:55.000Z</time>
      </trkpt>
      <trkpt lat="43.46161" lon="1.41785">
        <ele>73.45</ele>
        <time>2019-10-06T08:49:58.000Z</time>
      </trkpt>
      <trkpt lat="43.46154" lon="1.41775">
        <ele>72.24</ele>
        <time>2019-10-06T08:50:00.000Z</time>
      </trkpt>
      <trkpt lat="43.46146" lon="1.41762">
        <ele>71.9</ele>
        <time>2019-10-06T08:50:03.000Z</time>
      </trkpt>
      <trkpt lat="43.46136" lon="1.41748">
        <ele>71.75</ele>
        <time>2019-10-06T08:50:04.000Z</time>
      </trkpt>
      <trkpt lat="43.46127" lon="1.41736">
        <ele>72.59</ele>
        <time>2019-10-06T08:50:06.000Z</time>
      </trkpt>
      <trkpt lat="43.4612" lon="1.41727">
        <ele>73.17</ele>
        <time>2019-10-06T08:50:08.000Z</time>
      </trkpt>
      <trkpt lat="43.46111" lon="1.41718">
        <ele>73.57</ele>
        <time>2019-10-06T08:50:11.000Z</time>
      </trkpt>
      <trkpt lat="43.46103" lon="1.41712">
        <ele>74.33</ele>
        <time>2019-10-06T08:50:30.000Z</time>
      </trkpt>
      <trkpt lat="43.46096" lon="1.41699">
        <ele>73.97</ele>
        <time>2019-10-06T08:50:33.000Z</time>
      </trkpt>
      <trkpt lat="43.46088" lon="1.41683">
        <ele>73.61</ele>
        <time>2019-10-06T08:50:35.000Z</time>
      </trkpt>
      <trkpt lat="43.46082" lon="1.41672">
        <ele>73.28</ele>
        <time>2019-10-06T08:50:37.000Z</time>
      </trkpt>
      <trkpt lat="43.46079" lon="1.41659">
        <ele>73.43</ele>
        <time>2019-10-06T08:50:39.000Z</time>
      </trkpt>
      <trkpt lat="43.46077" lon="1.41647">
        <ele>73.5</ele>
        <time>2019-10-06T08:50:41.000Z</time>
      </trkpt>
      <trkpt lat="43.46076" lon="1.41631">
        <ele>73.81</ele>
        <time>2019-10-06T08:50:44.000Z</time>
      </trkpt>
      <trkpt lat="43.46081" lon="1.41612">
        <ele>74.33</ele>
        <time>2019-10-06T08:50:49.000Z</time>
      </trkpt>
      <trkpt lat="43.46079" lon="1.41599">
        <ele>74.81</ele>
        <time>2019-10-06T08:50:53.000Z</time>
      </trkpt>
      <trkpt lat="43.46069" lon="1.41586">
        <ele>74.82</ele>
        <time>2019-10-06T08:50:58.000Z</time>
      </trkpt>
      <trkpt lat="43.46063" lon="1.41573">
        <ele>74.23</ele>
        <time>2019-10-06T08:51:00.000Z</time>
      </trkpt>
      <trkpt lat="43.46054" lon="1.41555">
        <ele>74.27</ele>
        <time>2019-10-06T08:51:03.000Z</time>
      </trkpt>
      <trkpt lat="43.46047" lon="1.41542">
        <ele>73.82</ele>
        <time>2019-10-06T08:51:05.000Z</time>
      </trkpt>
      <trkpt lat="43.46042" lon="1.41528">
        <ele>73.82</ele>
        <time>2019-10-06T08:51:07.000Z</time>
      </trkpt>
      <trkpt lat="43.46037" lon="1.41514">
        <ele>73.82</ele>
        <time>2019-10-06T08:51:09.000Z</time>
      </trkpt>
      <trkpt lat="43.46032" lon="1.415">
        <ele>73.13</ele>
        <time>2019-10-06T08:51:12.000Z</time>
      </trkpt>
      <trkpt lat="43.46027" lon="1.41484">
        <ele>73.07</ele>
        <time>2019-10-06T08:51:14.000Z</time>
      </trkpt>
      <trkpt lat="43.46025" lon="1.41472">
        <ele>73.07</ele>
        <time>2019-10-06T08:51:17.000Z</time>
      </trkpt>
      <trkpt lat="43.46016" lon="1.41463">
        <ele>76.59</ele>
        <time>2019-10-06T08:51:53.000Z</time>
      </trkpt>
      <trkpt lat="43.46006" lon="1.41458">
        <ele>78.89</ele>
        <time>2019-10-06T08:51:58.000Z</time>
      </trkpt>
      <trkpt lat="43.4602" lon="1.41451">
        <ele>81.15</ele>
        <time>2019-10-06T08:52:34.000Z</time>
      </trkpt>
      <trkpt lat="43.46029" lon="1.41448">
        <ele>81.18</ele>
        <time>2019-10-06T08:52:38.000Z</time>
      </trkpt>
      <trkpt lat="43.4604" lon="1.41443">
        <ele>81.16</ele>
        <time>2019-10-06T08:52:45.000Z</time>
      </trkpt>
      <trkpt lat="43.46049" lon="1.41439">
        <ele>80.99</ele>
        <time>2019-10-06T08:52:52.000Z</time>
      </trkpt>
      <trkpt lat="43.46058" lon="1.41436">
        <ele>80.81</ele>
        <time>2019-10-06T08:53:00.000Z</time>
      </trkpt>
      <trkpt lat="43.46068" lon="1.41433">
        <ele>80.54</ele>
        <time>2019-10-06T08:53:08.000Z</time>
      </trkpt>
      <trkpt lat="43.46079" lon="1.41431">
        <ele>79.65</ele>
        <time>2019-10-06T08:53:13.000Z</time>
      </trkpt>
      <trkpt lat="43.46089" lon="1.41431">
        <ele>79.56</ele>
        <time>2019-10-06T08:53:17.000Z</time>
      </trkpt>
      <trkpt lat="43.46082" lon="1.41444">
        <ele>78.61</ele>
        <time>2019-10-06T08:53:25.000Z</time>
      </trkpt>
      <trkpt lat="43.46092" lon="1.41444">
        <ele>76.96</ele>
        <time>2019-10-06T08:53:32.000Z</time>
      </trkpt>
      <trkpt lat="43.46102" lon="1.41455">
        <ele>76.22</ele>
        <time>2019-10-06T08:53:36.000Z</time>
      </trkpt>
      <trkpt lat="43.46114" lon="1.41465">
        <ele>75.18</ele>
        <time>2019-10-06T08:53:39.000Z</time>
      </trkpt>
      <trkpt lat="43.46131" lon="1.41475">
        <ele>75.18</ele>
        <time>2019-10-06T08:53:42.000Z</time>
      </trkpt>
      <trkpt lat="43.46141" lon="1.41483">
        <ele>74.06</ele>
        <time>2019-10-06T08:53:44.000Z</time>
      </trkpt>
      <trkpt lat="43.46151" lon="1.4149">
        <ele>73.77</ele>
        <time>2019-10-06T08:53:46.000Z</time>
      </trkpt>
      <trkpt lat="43.46161" lon="1.41496">
        <ele>73.77</ele>
        <time>2019-10-06T08:53:48.000Z</time>
      </trkpt>
      <trkpt lat="43.46175" lon="1.41504">
        <ele>73.41</ele>
        <time>2019-10-06T08:53:51.000Z</time>
      </trkpt>
      <trkpt lat="43.46173" lon="1.41516">
        <ele>73.66</ele>
        <time>2019-10-06T08:53:55.000Z</time>
      </trkpt>
      <trkpt lat="43.46166" lon="1.41535">
        <ele>75.51</ele>
        <time>2019-10-06T08:53:58.000Z</time>
      </trkpt>
      <trkpt lat="43.46158" lon="1.41555">
        <ele>76.36</ele>
        <time>2019-10-06T08:54:01.000Z</time>
      </trkpt>
      <trkpt lat="43.46154" lon="1.41569">
        <ele>76.36</ele>
        <time>2019-10-06T08:54:03.000Z</time>
      </trkpt>
      <trkpt lat="43.46149" lon="1.41583">
        <ele>76.36</ele>
        <time>2019-10-06T08:54:05.000Z</time>
      </trkpt>
      <trkpt lat="43.46144" lon="1.41596">
        <ele>75.9</ele>
        <time>2019-10-06T08:54:07.000Z</time>
      </trkpt>
      <trkpt lat="43.46138" lon="1.41609">
        <ele>75.78</ele>
        <time>2019-10-06T08:54:09.000Z</time>
      </trkpt>
      <trkpt lat="43.46133" lon="1.41622">
        <ele>75.96</ele>
        <time>2019-10-06T08:54:11.000Z</time>
      </trkpt>
      <trkpt lat="43.46129" lon="1.41635">
        <ele>76.57</ele>
        <time>2019-10-06T08:54:13.000Z</time>
      </trkpt>
      <trkpt lat="43.46123" lon="1.41647">
        <ele>76.57</ele>
        <time>2019-10-06T08:54:15.000Z</time>
      </trkpt>
      <trkpt lat="43.46118" lon="1.41659">
        <ele>76.72</ele>
        <time>2019-10-06T08:54:17.000Z</time>
      </trkpt>
      <trkpt lat="43.46112" lon="1.4167">
        <ele>76.72</ele>
        <time>2019-10-06T08:54:19.000Z</time>
      </trkpt>
      <trkpt lat="43.46109" lon="1.41683">
        <ele>76.61</ele>
        <time>2019-10-06T08:54:23.000Z</time>
      </trkpt>
      <trkpt lat="43.46117" lon="1.41696">
        <ele>75.97</ele>
        <time>2019-10-06T08:54:27.000Z</time>
      </trkpt>
      <trkpt lat="43.46124" lon="1.41708">
        <ele>75.7</ele>
        <time>2019-10-06T08:54:30.000Z</time>
      </trkpt>
      <trkpt lat="43.4613" lon="1.41718">
        <ele>75.17</ele>
        <time>2019-10-06T08:54:32.000Z</time>
      </trkpt>
      <trkpt lat="43.46143" lon="1.41737">
        <ele>74.72</ele>
        <time>2019-10-06T08:54:35.000Z</time>
      </trkpt>
      <trkpt lat="43.46153" lon="1.41752">
        <ele>74.05</ele>
        <time>2019-10-06T08:54:37.000Z</time>
      </trkpt>
      <trkpt lat="43.46161" lon="1.41762">
        <ele>73.06</ele>
        <time>2019-10-06T08:54:39.000Z</time>
      </trkpt>
      <trkpt lat="43.46173" lon="1.41773">
        <ele>73.11</ele>
        <time>2019-10-06T08:54:43.000Z</time>
      </trkpt>
      <trkpt lat="43.46182" lon="1.41774">
        <ele>75.11</ele>
        <time>2019-10-06T08:54:50.000Z</time>
      </trkpt>
      <trkpt lat="43.46185" lon="1.41786">
        <ele>75.51</ele>
        <time>2019-10-06T08:54:55.000Z</time>
      </trkpt>
      <trkpt lat="43.46197" lon="1.41789">
        <ele>75.32</ele>
        <time>2019-10-06T08:55:00.000Z</time>
      </trkpt>
      <trkpt lat="43.46206" lon="1.41792">
        <ele>74.97</ele>
        <time>2019-10-06T08:55:03.000Z</time>
      </trkpt>
      <trkpt lat="43.46218" lon="1.41795">
        <ele>74.86</ele>
        <time>2019-10-06T08:55:06.000Z</time>
      </trkpt>
      <trkpt lat="43.46231" lon="1.418">
        <ele>75.03</ele>
        <time>2019-10-06T08:55:08.000Z</time>
      </trkpt>
      <trkpt lat="43.46241" lon="1.41805">
        <ele>74.56</ele>
        <time>2019-10-06T08:55:11.000Z</time>
      </trkpt>
      <trkpt lat="43.46253" lon="1.41811">
        <ele>74.54</ele>
        <time>2019-10-06T08:55:14.000Z</time>
      </trkpt>
      <trkpt lat="43.46263" lon="1.41814">
        <ele>74.14</ele>
        <time>2019-10-06T08:55:16.000Z</time>
      </trkpt>
      <trkpt lat="43.46274" lon="1.41821">
        <ele>73.81</ele>
        <time>2019-10-06T08:55:19.000Z</time>
      </trkpt>
      <trkpt lat="43.46283" lon="1.41825">
        <ele>73.81</ele>
        <time>2019-10-06T08:55:20.000Z</time>
      </trkpt>
      <trkpt lat="43.46295" lon="1.41825">
        <ele>73.81</ele>
        <time>2019-10-06T08:55:22.000Z</time>
      </trkpt>
      <trkpt lat="43.4631" lon="1.41834">
        <ele>73.51</ele>
        <time>2019-10-06T08:55:24.000Z</time>
      </trkpt>
      <trkpt lat="43.46329" lon="1.41838">
        <ele>73.02</ele>
        <time>2019-10-06T08:55:27.000Z</time>
      </trkpt>
      <trkpt lat="43.46342" lon="1.41837">
        <ele>72.53</ele>
        <time>2019-10-06T08:55:29.000Z</time>
      </trkpt>
      <trkpt lat="43.46362" lon="1.41831">
        <ele>72.53</ele>
        <time>2019-10-06T08:55:32.000Z</time>
      </trkpt>
      <trkpt lat="43.46376" lon="1.41828">
        <ele>73.5</ele>
        <time>2019-10-06T08:55:34.000Z</time>
      </trkpt>
      <trkpt lat="43.46383" lon="1.41819">
        <ele>73.96</ele>
        <time>2019-10-06T08:55:36.000Z</time>
      </trkpt>
      <trkpt lat="43.4639" lon="1.4181">
        <ele>75.56</ele>
        <time>2019-10-06T08:55:39.000Z</time>
      </trkpt>
      <trkpt lat="43.46398" lon="1.41817">
        <ele>74.71</ele>
        <time>2019-10-06T08:55:42.000Z</time>
      </trkpt>
      <trkpt lat="43.46405" lon="1.41827">
        <ele>74.72</ele>
        <time>2019-10-06T08:55:44.000Z</time>
      </trkpt>
      <trkpt lat="43.46419" lon="1.4183">
        <ele>73.76</ele>
        <time>2019-10-06T08:55:47.000Z</time>
      </trkpt>
      <trkpt lat="43.4643" lon="1.41827">
        <ele>73.76</ele>
        <time>2019-10-06T08:55:49.000Z</time>
      </trkpt>
      <trkpt lat="43.46445" lon="1.4183">
        <ele>73.55</ele>
        <time>2019-10-06T08:55:51.000Z</time>
      </trkpt>
      <trkpt lat="43.46459" lon="1.41842">
        <ele>72.77</ele>
        <time>2019-10-06T08:55:54.000Z</time>
      </trkpt>
      <trkpt lat="43.46468" lon="1.41842">
        <ele>72.72</ele>
        <time>2019-10-06T08:55:56.000Z</time>
      </trkpt>
      <trkpt lat="43.46479" lon="1.41843">
        <ele>72.65</ele>
        <time>2019-10-06T08:55:58.000Z</time>
      </trkpt>
      <trkpt lat="43.46492" lon="1.41839">
        <ele>73.94</ele>
        <time>2019-10-06T08:56:01.000Z</time>
      </trkpt>
      <trkpt lat="43.46503" lon="1.41837">
        <ele>74.06</ele>
        <time>2019-10-06T08:56:03.000Z</time>
      </trkpt>
      <trkpt lat="43.46513" lon="1.41833">
        <ele>73.46</ele>
        <time>2019-10-06T08:56:05.000Z</time>
      </trkpt>
      <trkpt lat="43.46524" lon="1.41829">
        <ele>72.4</ele>
        <time>2019-10-06T08:56:07.000Z</time>
      </trkpt>
      <trkpt lat="43.46537" lon="1.41829">
        <ele>72.4</ele>
        <time>2019-10-06T08:56:09.000Z</time>
      </trkpt>
      <trkpt lat="43.46548" lon="1.4183">
        <ele>72.1</ele>
        <time>2019-10-06T08:56:11.000Z</time>
      </trkpt>
      <trkpt lat="43.46558" lon="1.41828">
        <ele>72.21</ele>
        <time>2019-10-06T08:56:13.000Z</time>
      </trkpt>
      <trkpt lat="43.46573" lon="1.41828">
        <ele>72.7</ele>
        <time>2019-10-06T08:56:15.000Z</time>
      </trkpt>
      <trkpt lat="43.4659" lon="1.41822">
        <ele>73.26</ele>
        <time>2019-10-06T08:56:18.000Z</time>
      </trkpt>
      <trkpt lat="43.46607" lon="1.4182">
        <ele>72.45</ele>
        <time>2019-10-06T08:56:21.000Z</time>
      </trkpt>
      <trkpt lat="43.46617" lon="1.41818">
        <ele>72.56</ele>
        <time>2019-10-06T08:56:23.000Z</time>
      </trkpt>
      <trkpt lat="43.46626" lon="1.41817">
        <ele>72.21</ele>
        <time>2019-10-06T08:56:25.000Z</time>
      </trkpt>
      <trkpt lat="43.46636" lon="1.41815">
        <ele>71.61</ele>
        <time>2019-10-06T08:56:27.000Z</time>
      </trkpt>
      <trkpt lat="43.46653" lon="1.4181">
        <ele>72.1</ele>
        <time>2019-10-06T08:56:31.000Z</time>
      </trkpt>
      <trkpt lat="43.46663" lon="1.4181">
        <ele>72.68</ele>
        <time>2019-10-06T08:56:33.000Z</time>
      </trkpt>
      <trkpt lat="43.46683" lon="1.41814">
        <ele>71.99</ele>
        <time>2019-10-06T08:56:36.000Z</time>
      </trkpt>
      <trkpt lat="43.46701" lon="1.41817">
        <ele>72.26</ele>
        <time>2019-10-06T08:56:38.000Z</time>
      </trkpt>
      <trkpt lat="43.46715" lon="1.41821">
        <ele>71.1</ele>
        <time>2019-10-06T08:56:40.000Z</time>
      </trkpt>
      <trkpt lat="43.46734" lon="1.41829">
        <ele>70.26</ele>
        <time>2019-10-06T08:56:43.000Z</time>
      </trkpt>
      <trkpt lat="43.46746" lon="1.41834">
        <ele>70.26</ele>
        <time>2019-10-06T08:56:45.000Z</time>
      </trkpt>
      <trkpt lat="43.46756" lon="1.4184">
        <ele>69.53</ele>
        <time>2019-10-06T08:56:47.000Z</time>
      </trkpt>
      <trkpt lat="43.46766" lon="1.41844">
        <ele>69.33</ele>
        <time>2019-10-06T08:56:49.000Z</time>
      </trkpt>
      <trkpt lat="43.46777" lon="1.41848">
        <ele>69.14</ele>
        <time>2019-10-06T08:56:52.000Z</time>
      </trkpt>
      <trkpt lat="43.46788" lon="1.4185">
        <ele>69.34</ele>
        <time>2019-10-06T08:56:55.000Z</time>
      </trkpt>
      <trkpt lat="43.46802" lon="1.41847">
        <ele>70.2</ele>
        <time>2019-10-06T08:56:59.000Z</time>
      </trkpt>
      <trkpt lat="43.46812" lon="1.41848">
        <ele>70.68</ele>
        <time>2019-10-06T08:57:01.000Z</time>
      </trkpt>
      <trkpt lat="43.46827" lon="1.41853">
        <ele>70.74</ele>
        <time>2019-10-06T08:57:03.000Z</time>
      </trkpt>
      <trkpt lat="43.46837" lon="1.41853">
        <ele>70.24</ele>
        <time>2019-10-06T08:57:05.000Z</time>
      </trkpt>
      <trkpt lat="43.46851" lon="1.41858">
        <ele>70.24</ele>
        <time>2019-10-06T08:57:08.000Z</time>
      </trkpt>
      <trkpt lat="43.4686" lon="1.41859">
        <ele>70.93</ele>
        <time>2019-10-06T08:57:11.000Z</time>
      </trkpt>
      <trkpt lat="43.46868" lon="1.41853">
        <ele>73.15</ele>
        <time>2019-10-06T08:57:18.000Z</time>
      </trkpt>
      <trkpt lat="43.46881" lon="1.41856">
        <ele>73.2</ele>
        <time>2019-10-06T08:57:21.000Z</time>
      </trkpt>
      <trkpt lat="43.46899" lon="1.4186">
        <ele>72.63</ele>
        <time>2019-10-06T08:57:24.000Z</time>
      </trkpt>
      <trkpt lat="43.46916" lon="1.41866">
        <ele>72.78</ele>
        <time>2019-10-06T08:57:27.000Z</time>
      </trkpt>
      <trkpt lat="43.4693" lon="1.41871">
        <ele>72.29</ele>
        <time>2019-10-06T08:57:29.000Z</time>
      </trkpt>
      <trkpt lat="43.46943" lon="1.41878">
        <ele>71.82</ele>
        <time>2019-10-06T08:57:30.000Z</time>
      </trkpt>
      <trkpt lat="43.46959" lon="1.41885">
        <ele>70.81</ele>
        <time>2019-10-06T08:57:32.000Z</time>
      </trkpt>
      <trkpt lat="43.4697" lon="1.41887">
        <ele>70.59</ele>
        <time>2019-10-06T08:57:34.000Z</time>
      </trkpt>
      <trkpt lat="43.46987" lon="1.41892">
        <ele>71.96</ele>
        <time>2019-10-06T08:57:37.000Z</time>
      </trkpt>
      <trkpt lat="43.47001" lon="1.41899">
        <ele>72.19</ele>
        <time>2019-10-06T08:57:39.000Z</time>
      </trkpt>
      <trkpt lat="43.47014" lon="1.41901">
        <ele>71.83</ele>
        <time>2019-10-06T08:57:41.000Z</time>
      </trkpt>
      <trkpt lat="43.47026" lon="1.41904">
        <ele>71.83</ele>
        <time>2019-10-06T08:57:43.000Z</time>
      </trkpt>
      <trkpt lat="43.47046" lon="1.41911">
        <ele>70.19</ele>
        <time>2019-10-06T08:57:46.000Z</time>
      </trkpt>
      <trkpt lat="43.4706" lon="1.41914">
        <ele>69.93</ele>
        <time>2019-10-06T08:57:48.000Z</time>
      </trkpt>
      <trkpt lat="43.47074" lon="1.41917">
        <ele>69.65</ele>
        <time>2019-10-06T08:57:50.000Z</time>
      </trkpt>
      <trkpt lat="43.47086" lon="1.41921">
        <ele>69.65</ele>
        <time>2019-10-06T08:57:52.000Z</time>
      </trkpt>
      <trkpt lat="43.47095" lon="1.41926">
        <ele>69.94</ele>
        <time>2019-10-06T08:57:54.000Z</time>
      </trkpt>
      <trkpt lat="43.47105" lon="1.41927">
        <ele>70.11</ele>
        <time>2019-10-06T08:57:56.000Z</time>
      </trkpt>
      <trkpt lat="43.47117" lon="1.41929">
        <ele>69.97</ele>
        <time>2019-10-06T08:57:58.000Z</time>
      </trkpt>
      <trkpt lat="43.47137" lon="1.41927">
        <ele>69.97</ele>
        <time>2019-10-06T08:58:01.000Z</time>
      </trkpt>
      <trkpt lat="43.47156" lon="1.41931">
        <ele>69.45</ele>
        <time>2019-10-06T08:58:04.000Z</time>
      </trkpt>
      <trkpt lat="43.47168" lon="1.41932">
        <ele>69.82</ele>
        <time>2019-10-06T08:58:06.000Z</time>
      </trkpt>
      <trkpt lat="43.47179" lon="1.4193">
        <ele>70.33</ele>
        <time>2019-10-06T08:58:08.000Z</time>
      </trkpt>
      <trkpt lat="43.47193" lon="1.41931">
        <ele>70.14</ele>
        <time>2019-10-06T08:58:10.000Z</time>
      </trkpt>
      <trkpt lat="43.47207" lon="1.41933">
        <ele>70.31</ele>
        <time>2019-10-06T08:58:12.000Z</time>
      </trkpt>
      <trkpt lat="43.47221" lon="1.41932">
        <ele>70</ele>
        <time>2019-10-06T08:58:14.000Z</time>
      </trkpt>
      <trkpt lat="43.47232" lon="1.41934">
        <ele>69.92</ele>
        <time>2019-10-06T08:58:16.000Z</time>
      </trkpt>
      <trkpt lat="43.47244" lon="1.41934">
        <ele>70.72</ele>
        <time>2019-10-06T08:58:18.000Z</time>
      </trkpt>
      <trkpt lat="43.47257" lon="1.41931">
        <ele>71.13</ele>
        <time>2019-10-06T08:58:20.000Z</time>
      </trkpt>
      <trkpt lat="43.47272" lon="1.41929">
        <ele>71.18</ele>
        <time>2019-10-06T08:58:22.000Z</time>
      </trkpt>
      <trkpt lat="43.47286" lon="1.41926">
        <ele>70.74</ele>
        <time>2019-10-06T08:58:24.000Z</time>
      </trkpt>
      <trkpt lat="43.47297" lon="1.41924">
        <ele>70.74</ele>
        <time>2019-10-06T08:58:26.000Z</time>
      </trkpt>
      <trkpt lat="43.47307" lon="1.41924">
        <ele>70.3</ele>
        <time>2019-10-06T08:58:28.000Z</time>
      </trkpt>
      <trkpt lat="43.47317" lon="1.41921">
        <ele>70.75</ele>
        <time>2019-10-06T08:58:30.000Z</time>
      </trkpt>
      <trkpt lat="43.47332" lon="1.41921">
        <ele>71.3</ele>
        <time>2019-10-06T08:58:35.000Z</time>
      </trkpt>
      <trkpt lat="43.47343" lon="1.41919">
        <ele>71.44</ele>
        <time>2019-10-06T08:58:37.000Z</time>
      </trkpt>
      <trkpt lat="43.47356" lon="1.41914">
        <ele>70.54</ele>
        <time>2019-10-06T08:58:39.000Z</time>
      </trkpt>
      <trkpt lat="43.47369" lon="1.41909">
        <ele>70.54</ele>
        <time>2019-10-06T08:58:41.000Z</time>
      </trkpt>
      <trkpt lat="43.47382" lon="1.41905">
        <ele>70.54</ele>
        <time>2019-10-06T08:58:43.000Z</time>
      </trkpt>
      <trkpt lat="43.47392" lon="1.41904">
        <ele>70.72</ele>
        <time>2019-10-06T08:58:45.000Z</time>
      </trkpt>
      <trkpt lat="43.47409" lon="1.419">
        <ele>70.41</ele>
        <time>2019-10-06T08:58:48.000Z</time>
      </trkpt>
      <trkpt lat="43.47422" lon="1.41897">
        <ele>70.41</ele>
        <time>2019-10-06T08:58:50.000Z</time>
      </trkpt>
      <trkpt lat="43.47436" lon="1.41893">
        <ele>70.41</ele>
        <time>2019-10-06T08:58:52.000Z</time>
      </trkpt>
      <trkpt lat="43.4745" lon="1.41884">
        <ele>71</ele>
        <time>2019-10-06T08:58:54.000Z</time>
      </trkpt>
      <trkpt lat="43.47466" lon="1.41875">
        <ele>70.83</ele>
        <time>2019-10-06T08:58:56.000Z</time>
      </trkpt>
      <trkpt lat="43.47484" lon="1.41865">
        <ele>70.91</ele>
        <time>2019-10-06T08:58:59.000Z</time>
      </trkpt>
      <trkpt lat="43.47497" lon="1.41852">
        <ele>71.67</ele>
        <time>2019-10-06T08:59:02.000Z</time>
      </trkpt>
      <trkpt lat="43.47511" lon="1.41839">
        <ele>71.37</ele>
        <time>2019-10-06T08:59:05.000Z</time>
      </trkpt>
      <trkpt lat="43.47526" lon="1.41825">
        <ele>71.41</ele>
        <time>2019-10-06T08:59:08.000Z</time>
      </trkpt>
      <trkpt lat="43.47542" lon="1.4181">
        <ele>70.85</ele>
        <time>2019-10-06T08:59:11.000Z</time>
      </trkpt>
      <trkpt lat="43.47554" lon="1.418">
        <ele>70.85</ele>
        <time>2019-10-06T08:59:13.000Z</time>
      </trkpt>
      <trkpt lat="43.47567" lon="1.41788">
        <ele>70.2</ele>
        <time>2019-10-06T08:59:15.000Z</time>
      </trkpt>
      <trkpt lat="43.4758" lon="1.41777">
        <ele>69.86</ele>
        <time>2019-10-06T08:59:17.000Z</time>
      </trkpt>
      <trkpt lat="43.4759" lon="1.41768">
        <ele>69.86</ele>
        <time>2019-10-06T08:59:19.000Z</time>
      </trkpt>
      <trkpt lat="43.47598" lon="1.4176">
        <ele>69.69</ele>
        <time>2019-10-06T08:59:21.000Z</time>
      </trkpt>
      <trkpt lat="43.47608" lon="1.41747">
        <ele>68.73</ele>
        <time>2019-10-06T08:59:24.000Z</time>
      </trkpt>
      <trkpt lat="43.47615" lon="1.41737">
        <ele>68.73</ele>
        <time>2019-10-06T08:59:26.000Z</time>
      </trkpt>
      <trkpt lat="43.47623" lon="1.41721">
        <ele>68.45</ele>
        <time>2019-10-06T08:59:29.000Z</time>
      </trkpt>
      <trkpt lat="43.47632" lon="1.4171">
        <ele>68.21</ele>
        <time>2019-10-06T08:59:31.000Z</time>
      </trkpt>
      <trkpt lat="43.47641" lon="1.417">
        <ele>68.23</ele>
        <time>2019-10-06T08:59:33.000Z</time>
      </trkpt>
      <trkpt lat="43.47651" lon="1.41693">
        <ele>67.59</ele>
        <time>2019-10-06T08:59:35.000Z</time>
      </trkpt>
      <trkpt lat="43.4766" lon="1.41684">
        <ele>67.59</ele>
        <time>2019-10-06T08:59:37.000Z</time>
      </trkpt>
      <trkpt lat="43.47663" lon="1.4167">
        <ele>68.48</ele>
        <time>2019-10-06T08:59:41.000Z</time>
      </trkpt>
      <trkpt lat="43.47675" lon="1.41646">
        <ele>68.81</ele>
        <time>2019-10-06T08:59:44.000Z</time>
      </trkpt>
      <trkpt lat="43.47683" lon="1.41631">
        <ele>69.46</ele>
        <time>2019-10-06T08:59:46.000Z</time>
      </trkpt>
      <trkpt lat="43.47697" lon="1.4161">
        <ele>69.71</ele>
        <time>2019-10-06T08:59:49.000Z</time>
      </trkpt>
      <trkpt lat="43.47706" lon="1.41602">
        <ele>69.04</ele>
        <time>2019-10-06T08:59:51.000Z</time>
      </trkpt>
      <trkpt lat="43.47715" lon="1.41594">
        <ele>69.07</ele>
        <time>2019-10-06T08:59:53.000Z</time>
      </trkpt>
      <trkpt lat="43.47725" lon="1.41582">
        <ele>69.19</ele>
        <time>2019-10-06T08:59:56.000Z</time>
      </trkpt>
      <trkpt lat="43.47731" lon="1.4157">
        <ele>69.33</ele>
        <time>2019-10-06T08:59:59.000Z</time>
      </trkpt>
      <trkpt lat="43.47742" lon="1.4155">
        <ele>69.98</ele>
        <time>2019-10-06T09:00:04.000Z</time>
      </trkpt>
      <trkpt lat="43.47752" lon="1.41541">
        <ele>69.83</ele>
        <time>2019-10-06T09:00:06.000Z</time>
      </trkpt>
      <trkpt lat="43.47764" lon="1.41529">
        <ele>69.78</ele>
        <time>2019-10-06T09:00:08.000Z</time>
      </trkpt>
      <trkpt lat="43.47775" lon="1.41514">
        <ele>69.76</ele>
        <time>2019-10-06T09:00:10.000Z</time>
      </trkpt>
      <trkpt lat="43.47783" lon="1.41497">
        <ele>69.68</ele>
        <time>2019-10-06T09:00:12.000Z</time>
      </trkpt>
      <trkpt lat="43.47791" lon="1.41484">
        <ele>69.31</ele>
        <time>2019-10-06T09:00:14.000Z</time>
      </trkpt>
      <trkpt lat="43.47798" lon="1.41464">
        <ele>69.41</ele>
        <time>2019-10-06T09:00:18.000Z</time>
      </trkpt>
      <trkpt lat="43.47804" lon="1.41446">
        <ele>69.18</ele>
        <time>2019-10-06T09:00:21.000Z</time>
      </trkpt>
      <trkpt lat="43.47804" lon="1.4143">
        <ele>69.03</ele>
        <time>2019-10-06T09:00:23.000Z</time>
      </trkpt>
      <trkpt lat="43.47809" lon="1.41415">
        <ele>69.1</ele>
        <time>2019-10-06T09:00:25.000Z</time>
      </trkpt>
      <trkpt lat="43.47816" lon="1.41402">
        <ele>69.1</ele>
        <time>2019-10-06T09:00:27.000Z</time>
      </trkpt>
      <trkpt lat="43.47824" lon="1.41391">
        <ele>69.1</ele>
        <time>2019-10-06T09:00:29.000Z</time>
      </trkpt>
      <trkpt lat="43.47832" lon="1.41381">
        <ele>69.9</ele>
        <time>2019-10-06T09:00:31.000Z</time>
      </trkpt>
      <trkpt lat="43.4784" lon="1.4137">
        <ele>70.22</ele>
        <time>2019-10-06T09:00:33.000Z</time>
      </trkpt>
      <trkpt lat="43.47847" lon="1.4136">
        <ele>70.42</ele>
        <time>2019-10-06T09:00:35.000Z</time>
      </trkpt>
      <trkpt lat="43.47856" lon="1.41347">
        <ele>70.42</ele>
        <time>2019-10-06T09:00:38.000Z</time>
      </trkpt>
      <trkpt lat="43.47864" lon="1.4134">
        <ele>69.95</ele>
        <time>2019-10-06T09:00:40.000Z</time>
      </trkpt>
      <trkpt lat="43.47873" lon="1.41331">
        <ele>69.55</ele>
        <time>2019-10-06T09:00:42.000Z</time>
      </trkpt>
      <trkpt lat="43.47881" lon="1.41321">
        <ele>69.55</ele>
        <time>2019-10-06T09:00:44.000Z</time>
      </trkpt>
      <trkpt lat="43.47889" lon="1.41312">
        <ele>68.82</ele>
        <time>2019-10-06T09:00:46.000Z</time>
      </trkpt>
      <trkpt lat="43.47898" lon="1.41301">
        <ele>68.82</ele>
        <time>2019-10-06T09:00:48.000Z</time>
      </trkpt>
      <trkpt lat="43.47903" lon="1.41286">
        <ele>68.82</ele>
        <time>2019-10-06T09:00:50.000Z</time>
      </trkpt>
      <trkpt lat="43.47909" lon="1.4127">
        <ele>69.34</ele>
        <time>2019-10-06T09:00:52.000Z</time>
      </trkpt>
      <trkpt lat="43.47918" lon="1.41253">
        <ele>69.87</ele>
        <time>2019-10-06T09:00:54.000Z</time>
      </trkpt>
      <trkpt lat="43.4793" lon="1.4123">
        <ele>69.61</ele>
        <time>2019-10-06T09:00:57.000Z</time>
      </trkpt>
      <trkpt lat="43.4794" lon="1.41217">
        <ele>69.87</ele>
        <time>2019-10-06T09:00:59.000Z</time>
      </trkpt>
      <trkpt lat="43.4795" lon="1.41201">
        <ele>69.87</ele>
        <time>2019-10-06T09:01:01.000Z</time>
      </trkpt>
      <trkpt lat="43.47961" lon="1.41188">
        <ele>69.87</ele>
        <time>2019-10-06T09:01:03.000Z</time>
      </trkpt>
      <trkpt lat="43.47974" lon="1.41169">
        <ele>68.91</ele>
        <time>2019-10-06T09:01:06.000Z</time>
      </trkpt>
      <trkpt lat="43.47987" lon="1.41152">
        <ele>68.67</ele>
        <time>2019-10-06T09:01:09.000Z</time>
      </trkpt>
      <trkpt lat="43.47995" lon="1.41141">
        <ele>68.33</ele>
        <time>2019-10-06T09:01:11.000Z</time>
      </trkpt>
      <trkpt lat="43.48003" lon="1.41131">
        <ele>68.33</ele>
        <time>2019-10-06T09:01:13.000Z</time>
      </trkpt>
      <trkpt lat="43.4801" lon="1.41121">
        <ele>68.33</ele>
        <time>2019-10-06T09:01:15.000Z</time>
      </trkpt>
      <trkpt lat="43.48018" lon="1.41111">
        <ele>69.69</ele>
        <time>2019-10-06T09:01:17.000Z</time>
      </trkpt>
      <trkpt lat="43.48026" lon="1.41105">
        <ele>70.45</ele>
        <time>2019-10-06T09:01:19.000Z</time>
      </trkpt>
      <trkpt lat="43.48043" lon="1.41095">
        <ele>71.7</ele>
        <time>2019-10-06T09:01:23.000Z</time>
      </trkpt>
      <trkpt lat="43.48052" lon="1.41088">
        <ele>71.16</ele>
        <time>2019-10-06T09:01:25.000Z</time>
      </trkpt>
      <trkpt lat="43.48065" lon="1.4107">
        <ele>70.37</ele>
        <time>2019-10-06T09:01:29.000Z</time>
      </trkpt>
      <trkpt lat="43.48074" lon="1.41058">
        <ele>69.83</ele>
        <time>2019-10-06T09:01:31.000Z</time>
      </trkpt>
      <trkpt lat="43.48082" lon="1.41043">
        <ele>69.97</ele>
        <time>2019-10-06T09:01:33.000Z</time>
      </trkpt>
      <trkpt lat="43.48092" lon="1.41026">
        <ele>69.7</ele>
        <time>2019-10-06T09:01:35.000Z</time>
      </trkpt>
      <trkpt lat="43.48098" lon="1.41014">
        <ele>69.48</ele>
        <time>2019-10-06T09:01:37.000Z</time>
      </trkpt>
      <trkpt lat="43.48103" lon="1.41001">
        <ele>69.48</ele>
        <time>2019-10-06T09:01:39.000Z</time>
      </trkpt>
      <trkpt lat="43.48109" lon="1.40989">
        <ele>69.05</ele>
        <time>2019-10-06T09:01:41.000Z</time>
      </trkpt>
      <trkpt lat="43.48117" lon="1.40977">
        <ele>68.59</ele>
        <time>2019-10-06T09:01:43.000Z</time>
      </trkpt>
      <trkpt lat="43.48128" lon="1.40964">
        <ele>68.59</ele>
        <time>2019-10-06T09:01:45.000Z</time>
      </trkpt>
      <trkpt lat="43.48139" lon="1.40951">
        <ele>68.59</ele>
        <time>2019-10-06T09:01:47.000Z</time>
      </trkpt>
      <trkpt lat="43.48149" lon="1.40937">
        <ele>68.59</ele>
        <time>2019-10-06T09:01:49.000Z</time>
      </trkpt>
      <trkpt lat="43.4816" lon="1.40916">
        <ele>68.99</ele>
        <time>2019-10-06T09:01:52.000Z</time>
      </trkpt>
      <trkpt lat="43.48169" lon="1.40901">
        <ele>69.58</ele>
        <time>2019-10-06T09:01:54.000Z</time>
      </trkpt>
      <trkpt lat="43.48184" lon="1.40882">
        <ele>69.71</ele>
        <time>2019-10-06T09:01:57.000Z</time>
      </trkpt>
      <trkpt lat="43.48193" lon="1.40873">
        <ele>69.71</ele>
        <time>2019-10-06T09:01:59.000Z</time>
      </trkpt>
      <trkpt lat="43.482" lon="1.4086">
        <ele>69.65</ele>
        <time>2019-10-06T09:02:01.000Z</time>
      </trkpt>
      <trkpt lat="43.48199" lon="1.40842">
        <ele>69.74</ele>
        <time>2019-10-06T09:02:03.000Z</time>
      </trkpt>
      <trkpt lat="43.48197" lon="1.4083">
        <ele>69.62</ele>
        <time>2019-10-06T09:02:05.000Z</time>
      </trkpt>
      <trkpt lat="43.4819" lon="1.40818">
        <ele>69.58</ele>
        <time>2019-10-06T09:02:08.000Z</time>
      </trkpt>
      <trkpt lat="43.48193" lon="1.40803">
        <ele>69.33</ele>
        <time>2019-10-06T09:02:12.000Z</time>
      </trkpt>
      <trkpt lat="43.48202" lon="1.40786">
        <ele>69.74</ele>
        <time>2019-10-06T09:02:15.000Z</time>
      </trkpt>
      <trkpt lat="43.48207" lon="1.40774">
        <ele>69.74</ele>
        <time>2019-10-06T09:02:17.000Z</time>
      </trkpt>
      <trkpt lat="43.48216" lon="1.40756">
        <ele>69.74</ele>
        <time>2019-10-06T09:02:20.000Z</time>
      </trkpt>
      <trkpt lat="43.48225" lon="1.40744">
        <ele>69.96</ele>
        <time>2019-10-06T09:02:22.000Z</time>
      </trkpt>
      <trkpt lat="43.48234" lon="1.4073">
        <ele>70.34</ele>
        <time>2019-10-06T09:02:24.000Z</time>
      </trkpt>
      <trkpt lat="43.48244" lon="1.40718">
        <ele>70.77</ele>
        <time>2019-10-06T09:02:26.000Z</time>
      </trkpt>
      <trkpt lat="43.48253" lon="1.40707">
        <ele>70.43</ele>
        <time>2019-10-06T09:02:28.000Z</time>
      </trkpt>
      <trkpt lat="43.48261" lon="1.40696">
        <ele>70.32</ele>
        <time>2019-10-06T09:02:30.000Z</time>
      </trkpt>
      <trkpt lat="43.4827" lon="1.40685">
        <ele>70.35</ele>
        <time>2019-10-06T09:02:32.000Z</time>
      </trkpt>
      <trkpt lat="43.48284" lon="1.40672">
        <ele>69.54</ele>
        <time>2019-10-06T09:02:35.000Z</time>
      </trkpt>
      <trkpt lat="43.48293" lon="1.40663">
        <ele>69.36</ele>
        <time>2019-10-06T09:02:37.000Z</time>
      </trkpt>
      <trkpt lat="43.48302" lon="1.40653">
        <ele>69.33</ele>
        <time>2019-10-06T09:02:39.000Z</time>
      </trkpt>
      <trkpt lat="43.4831" lon="1.40643">
        <ele>69.33</ele>
        <time>2019-10-06T09:02:41.000Z</time>
      </trkpt>
      <trkpt lat="43.48319" lon="1.40633">
        <ele>69.25</ele>
        <time>2019-10-06T09:02:43.000Z</time>
      </trkpt>
      <trkpt lat="43.48332" lon="1.40617">
        <ele>69.25</ele>
        <time>2019-10-06T09:02:46.000Z</time>
      </trkpt>
      <trkpt lat="43.48347" lon="1.40599">
        <ele>69.61</ele>
        <time>2019-10-06T09:02:49.000Z</time>
      </trkpt>
      <trkpt lat="43.48362" lon="1.40583">
        <ele>69.98</ele>
        <time>2019-10-06T09:02:52.000Z</time>
      </trkpt>
      <trkpt lat="43.48369" lon="1.40569">
        <ele>70.03</ele>
        <time>2019-10-06T09:02:54.000Z</time>
      </trkpt>
      <trkpt lat="43.48377" lon="1.40557">
        <ele>70.03</ele>
        <time>2019-10-06T09:02:56.000Z</time>
      </trkpt>
      <trkpt lat="43.48387" lon="1.40545">
        <ele>69.61</ele>
        <time>2019-10-06T09:02:58.000Z</time>
      </trkpt>
      <trkpt lat="43.48396" lon="1.40534">
        <ele>69.48</ele>
        <time>2019-10-06T09:03:00.000Z</time>
      </trkpt>
      <trkpt lat="43.48404" lon="1.40523">
        <ele>69.48</ele>
        <time>2019-10-06T09:03:02.000Z</time>
      </trkpt>
      <trkpt lat="43.48414" lon="1.40511">
        <ele>68.54</ele>
        <time>2019-10-06T09:03:04.000Z</time>
      </trkpt>
      <trkpt lat="43.4843" lon="1.40495">
        <ele>67.74</ele>
        <time>2019-10-06T09:03:07.000Z</time>
      </trkpt>
      <trkpt lat="43.48441" lon="1.40486">
        <ele>67.21</ele>
        <time>2019-10-06T09:03:09.000Z</time>
      </trkpt>
      <trkpt lat="43.48451" lon="1.40478">
        <ele>67.21</ele>
        <time>2019-10-06T09:03:11.000Z</time>
      </trkpt>
      <trkpt lat="43.48461" lon="1.40471">
        <ele>67.21</ele>
        <time>2019-10-06T09:03:13.000Z</time>
      </trkpt>
      <trkpt lat="43.48467" lon="1.40457">
        <ele>69.63</ele>
        <time>2019-10-06T09:03:17.000Z</time>
      </trkpt>
      <trkpt lat="43.48465" lon="1.40445">
        <ele>70.68</ele>
        <time>2019-10-06T09:03:19.000Z</time>
      </trkpt>
      <trkpt lat="43.4846" lon="1.40431">
        <ele>71.3</ele>
        <time>2019-10-06T09:03:21.000Z</time>
      </trkpt>
      <trkpt lat="43.48458" lon="1.40417">
        <ele>70.54</ele>
        <time>2019-10-06T09:03:23.000Z</time>
      </trkpt>
      <trkpt lat="43.48469" lon="1.4041">
        <ele>70.26</ele>
        <time>2019-10-06T09:03:29.000Z</time>
      </trkpt>
      <trkpt lat="43.48479" lon="1.40417">
        <ele>70.26</ele>
        <time>2019-10-06T09:03:32.000Z</time>
      </trkpt>
      <trkpt lat="43.48487" lon="1.40431">
        <ele>71.14</ele>
        <time>2019-10-06T09:03:35.000Z</time>
      </trkpt>
      <trkpt lat="43.48494" lon="1.40444">
        <ele>72.12</ele>
        <time>2019-10-06T09:03:38.000Z</time>
      </trkpt>
      <trkpt lat="43.48502" lon="1.40451">
        <ele>72.36</ele>
        <time>2019-10-06T09:03:43.000Z</time>
      </trkpt>
      <trkpt lat="43.48513" lon="1.4046">
        <ele>71.7</ele>
        <time>2019-10-06T09:03:46.000Z</time>
      </trkpt>
      <trkpt lat="43.48523" lon="1.40467">
        <ele>71</ele>
        <time>2019-10-06T09:03:50.000Z</time>
      </trkpt>
      <trkpt lat="43.48536" lon="1.40472">
        <ele>71</ele>
        <time>2019-10-06T09:03:52.000Z</time>
      </trkpt>
      <trkpt lat="43.48549" lon="1.40475">
        <ele>71.44</ele>
        <time>2019-10-06T09:03:54.000Z</time>
      </trkpt>
      <trkpt lat="43.48558" lon="1.40476">
        <ele>72.3</ele>
        <time>2019-10-06T09:03:57.000Z</time>
      </trkpt>
      <trkpt lat="43.48568" lon="1.40477">
        <ele>72.3</ele>
        <time>2019-10-06T09:04:00.000Z</time>
      </trkpt>
      <trkpt lat="43.48579" lon="1.4048">
        <ele>72.57</ele>
        <time>2019-10-06T09:04:04.000Z</time>
      </trkpt>
      <trkpt lat="43.48587" lon="1.40486">
        <ele>72.57</ele>
        <time>2019-10-06T09:04:08.000Z</time>
      </trkpt>
      <trkpt lat="43.48598" lon="1.40497">
        <ele>73.87</ele>
        <time>2019-10-06T09:04:12.000Z</time>
      </trkpt>
      <trkpt lat="43.48606" lon="1.40503">
        <ele>74.98</ele>
        <time>2019-10-06T09:04:16.000Z</time>
      </trkpt>
      <trkpt lat="43.48615" lon="1.40516">
        <ele>74.11</ele>
        <time>2019-10-06T09:04:22.000Z</time>
      </trkpt>
      <trkpt lat="43.48622" lon="1.40522">
        <ele>73.38</ele>
        <time>2019-10-06T09:04:24.000Z</time>
      </trkpt>
      <trkpt lat="43.48632" lon="1.40533">
        <ele>72.89</ele>
        <time>2019-10-06T09:04:27.000Z</time>
      </trkpt>
      <trkpt lat="43.48642" lon="1.40546">
        <ele>71.75</ele>
        <time>2019-10-06T09:04:30.000Z</time>
      </trkpt>
      <trkpt lat="43.4865" lon="1.40556">
        <ele>71.1</ele>
        <time>2019-10-06T09:04:32.000Z</time>
      </trkpt>
      <trkpt lat="43.48661" lon="1.40569">
        <ele>71.1</ele>
        <time>2019-10-06T09:04:35.000Z</time>
      </trkpt>
      <trkpt lat="43.48671" lon="1.40581">
        <ele>72.06</ele>
        <time>2019-10-06T09:04:38.000Z</time>
      </trkpt>
      <trkpt lat="43.48686" lon="1.40597">
        <ele>72.39</ele>
        <time>2019-10-06T09:04:41.000Z</time>
      </trkpt>
      <trkpt lat="43.48695" lon="1.40608">
        <ele>72.39</ele>
        <time>2019-10-06T09:04:43.000Z</time>
      </trkpt>
      <trkpt lat="43.48704" lon="1.40619">
        <ele>72.39</ele>
        <time>2019-10-06T09:04:45.000Z</time>
      </trkpt>
      <trkpt lat="43.48717" lon="1.40636">
        <ele>72.1</ele>
        <time>2019-10-06T09:04:48.000Z</time>
      </trkpt>
      <trkpt lat="43.48729" lon="1.40658">
        <ele>72.34</ele>
        <time>2019-10-06T09:04:51.000Z</time>
      </trkpt>
      <trkpt lat="43.48734" lon="1.40672">
        <ele>72.87</ele>
        <time>2019-10-06T09:04:53.000Z</time>
      </trkpt>
      <trkpt lat="43.4874" lon="1.40686">
        <ele>72.35</ele>
        <time>2019-10-06T09:04:55.000Z</time>
      </trkpt>
      <trkpt lat="43.48744" lon="1.407">
        <ele>72.35</ele>
        <time>2019-10-06T09:04:57.000Z</time>
      </trkpt>
      <trkpt lat="43.48746" lon="1.40716">
        <ele>72.17</ele>
        <time>2019-10-06T09:05:00.000Z</time>
      </trkpt>
      <trkpt lat="43.48749" lon="1.40733">
        <ele>71.83</ele>
        <time>2019-10-06T09:05:04.000Z</time>
      </trkpt>
      <trkpt lat="43.48757" lon="1.40748">
        <ele>71.35</ele>
        <time>2019-10-06T09:05:07.000Z</time>
      </trkpt>
      <trkpt lat="43.48768" lon="1.40768">
        <ele>70.89</ele>
        <time>2019-10-06T09:05:10.000Z</time>
      </trkpt>
      <trkpt lat="43.48774" lon="1.40778">
        <ele>70.89</ele>
        <time>2019-10-06T09:05:12.000Z</time>
      </trkpt>
      <trkpt lat="43.48782" lon="1.40792">
        <ele>71.29</ele>
        <time>2019-10-06T09:05:15.000Z</time>
      </trkpt>
      <trkpt lat="43.48788" lon="1.40804">
        <ele>71.18</ele>
        <time>2019-10-06T09:05:17.000Z</time>
      </trkpt>
      <trkpt lat="43.48792" lon="1.40815">
        <ele>70.75</ele>
        <time>2019-10-06T09:05:19.000Z</time>
      </trkpt>
      <trkpt lat="43.48797" lon="1.40828">
        <ele>70.76</ele>
        <time>2019-10-06T09:05:21.000Z</time>
      </trkpt>
      <trkpt lat="43.48801" lon="1.40843">
        <ele>70.41</ele>
        <time>2019-10-06T09:05:23.000Z</time>
      </trkpt>
      <trkpt lat="43.48806" lon="1.40859">
        <ele>69.69</ele>
        <time>2019-10-06T09:05:25.000Z</time>
      </trkpt>
      <trkpt lat="43.48809" lon="1.40873">
        <ele>69.68</ele>
        <time>2019-10-06T09:05:27.000Z</time>
      </trkpt>
      <trkpt lat="43.48813" lon="1.40885">
        <ele>69.24</ele>
        <time>2019-10-06T09:05:29.000Z</time>
      </trkpt>
      <trkpt lat="43.48822" lon="1.40907">
        <ele>69.24</ele>
        <time>2019-10-06T09:05:32.000Z</time>
      </trkpt>
      <trkpt lat="43.48828" lon="1.40919">
        <ele>69.69</ele>
        <time>2019-10-06T09:05:34.000Z</time>
      </trkpt>
      <trkpt lat="43.48835" lon="1.40935">
        <ele>70.16</ele>
        <time>2019-10-06T09:05:37.000Z</time>
      </trkpt>
      <trkpt lat="43.48839" lon="1.40949">
        <ele>71.35</ele>
        <time>2019-10-06T09:05:40.000Z</time>
      </trkpt>
      <trkpt lat="43.48842" lon="1.40961">
        <ele>72.05</ele>
        <time>2019-10-06T09:05:43.000Z</time>
      </trkpt>
      <trkpt lat="43.48845" lon="1.40975">
        <ele>71.64</ele>
        <time>2019-10-06T09:05:45.000Z</time>
      </trkpt>
      <trkpt lat="43.4885" lon="1.40994">
        <ele>71.49</ele>
        <time>2019-10-06T09:05:47.000Z</time>
      </trkpt>
      <trkpt lat="43.48856" lon="1.41018">
        <ele>71.49</ele>
        <time>2019-10-06T09:05:50.000Z</time>
      </trkpt>
      <trkpt lat="43.4886" lon="1.4103">
        <ele>70.98</ele>
        <time>2019-10-06T09:05:52.000Z</time>
      </trkpt>
      <trkpt lat="43.48866" lon="1.41049">
        <ele>71.08</ele>
        <time>2019-10-06T09:05:55.000Z</time>
      </trkpt>
      <trkpt lat="43.48871" lon="1.41063">
        <ele>70.8</ele>
        <time>2019-10-06T09:05:58.000Z</time>
      </trkpt>
      <trkpt lat="43.48881" lon="1.41082">
        <ele>70.56</ele>
        <time>2019-10-06T09:06:02.000Z</time>
      </trkpt>
      <trkpt lat="43.48888" lon="1.41096">
        <ele>70.56</ele>
        <time>2019-10-06T09:06:04.000Z</time>
      </trkpt>
      <trkpt lat="43.48901" lon="1.41111">
        <ele>70.47</ele>
        <time>2019-10-06T09:06:08.000Z</time>
      </trkpt>
      <trkpt lat="43.48908" lon="1.41125">
        <ele>71.18</ele>
        <time>2019-10-06T09:06:11.000Z</time>
      </trkpt>
      <trkpt lat="43.48912" lon="1.41137">
        <ele>70.68</ele>
        <time>2019-10-06T09:06:15.000Z</time>
      </trkpt>
      <trkpt lat="43.48919" lon="1.41148">
        <ele>70.69</ele>
        <time>2019-10-06T09:06:18.000Z</time>
      </trkpt>
      <trkpt lat="43.48928" lon="1.41165">
        <ele>70.76</ele>
        <time>2019-10-06T09:06:21.000Z</time>
      </trkpt>
      <trkpt lat="43.48938" lon="1.41179">
        <ele>70.76</ele>
        <time>2019-10-06T09:06:23.000Z</time>
      </trkpt>
      <trkpt lat="43.48944" lon="1.41188">
        <ele>69.66</ele>
        <time>2019-10-06T09:06:25.000Z</time>
      </trkpt>
      <trkpt lat="43.48951" lon="1.41198">
        <ele>69.66</ele>
        <time>2019-10-06T09:06:26.000Z</time>
      </trkpt>
      <trkpt lat="43.48959" lon="1.41213">
        <ele>69.66</ele>
        <time>2019-10-06T09:06:28.000Z</time>
      </trkpt>
      <trkpt lat="43.48967" lon="1.41224">
        <ele>68.65</ele>
        <time>2019-10-06T09:06:31.000Z</time>
      </trkpt>
      <trkpt lat="43.48976" lon="1.41226">
        <ele>68.66</ele>
        <time>2019-10-06T09:06:37.000Z</time>
      </trkpt>
      <trkpt lat="43.48986" lon="1.41236">
        <ele>68.48</ele>
        <time>2019-10-06T09:06:43.000Z</time>
      </trkpt>
      <trkpt lat="43.48997" lon="1.41247">
        <ele>68.48</ele>
        <time>2019-10-06T09:06:45.000Z</time>
      </trkpt>
      <trkpt lat="43.49011" lon="1.41256">
        <ele>68.48</ele>
        <time>2019-10-06T09:06:47.000Z</time>
      </trkpt>
      <trkpt lat="43.49029" lon="1.41265">
        <ele>69.3</ele>
        <time>2019-10-06T09:06:49.000Z</time>
      </trkpt>
      <trkpt lat="43.49042" lon="1.41266">
        <ele>69.73</ele>
        <time>2019-10-06T09:06:51.000Z</time>
      </trkpt>
      <trkpt lat="43.49054" lon="1.41264">
        <ele>70.35</ele>
        <time>2019-10-06T09:06:54.000Z</time>
      </trkpt>
      <trkpt lat="43.49066" lon="1.41259">
        <ele>70.13</ele>
        <time>2019-10-06T09:07:00.000Z</time>
      </trkpt>
      <trkpt lat="43.49075" lon="1.41256">
        <ele>70.26</ele>
        <time>2019-10-06T09:07:27.000Z</time>
      </trkpt>
      <trkpt lat="43.49088" lon="1.41246">
        <ele>70.33</ele>
        <time>2019-10-06T09:07:33.000Z</time>
      </trkpt>
      <trkpt lat="43.49094" lon="1.41237">
        <ele>69.63</ele>
        <time>2019-10-06T09:07:35.000Z</time>
      </trkpt>
      <trkpt lat="43.49103" lon="1.41232">
        <ele>69.63</ele>
        <time>2019-10-06T09:07:38.000Z</time>
      </trkpt>
      <trkpt lat="43.49117" lon="1.41225">
        <ele>69.83</ele>
        <time>2019-10-06T09:07:42.000Z</time>
      </trkpt>
      <trkpt lat="43.49124" lon="1.41218">
        <ele>69.96</ele>
        <time>2019-10-06T09:07:45.000Z</time>
      </trkpt>
      <trkpt lat="43.49133" lon="1.41207">
        <ele>70.26</ele>
        <time>2019-10-06T09:07:49.000Z</time>
      </trkpt>
      <trkpt lat="43.49144" lon="1.41199">
        <ele>70.14</ele>
        <time>2019-10-06T09:07:55.000Z</time>
      </trkpt>
      <trkpt lat="43.49152" lon="1.41191">
        <ele>69.83</ele>
        <time>2019-10-06T09:07:57.000Z</time>
      </trkpt>
      <trkpt lat="43.49162" lon="1.41181">
        <ele>69.56</ele>
        <time>2019-10-06T09:08:01.000Z</time>
      </trkpt>
      <trkpt lat="43.49172" lon="1.41173">
        <ele>69.85</ele>
        <time>2019-10-06T09:08:04.000Z</time>
      </trkpt>
      <trkpt lat="43.49181" lon="1.41165">
        <ele>69.88</ele>
        <time>2019-10-06T09:08:06.000Z</time>
      </trkpt>
      <trkpt lat="43.49189" lon="1.41158">
        <ele>69.88</ele>
        <time>2019-10-06T09:08:09.000Z</time>
      </trkpt>
      <trkpt lat="43.49197" lon="1.41149">
        <ele>70.23</ele>
        <time>2019-10-06T09:08:11.000Z</time>
      </trkpt>
      <trkpt lat="43.49207" lon="1.4114">
        <ele>70.02</ele>
        <time>2019-10-06T09:08:15.000Z</time>
      </trkpt>
      <trkpt lat="43.49218" lon="1.41128">
        <ele>69.94</ele>
        <time>2019-10-06T09:08:18.000Z</time>
      </trkpt>
      <trkpt lat="43.49228" lon="1.41121">
        <ele>70.01</ele>
        <time>2019-10-06T09:08:20.000Z</time>
      </trkpt>
      <trkpt lat="43.49239" lon="1.41112">
        <ele>70.95</ele>
        <time>2019-10-06T09:08:23.000Z</time>
      </trkpt>
      <trkpt lat="43.49253" lon="1.41104">
        <ele>70.98</ele>
        <time>2019-10-06T09:08:26.000Z</time>
      </trkpt>
      <trkpt lat="43.49265" lon="1.41099">
        <ele>70.35</ele>
        <time>2019-10-06T09:08:28.000Z</time>
      </trkpt>
      <trkpt lat="43.49278" lon="1.41093">
        <ele>70.35</ele>
        <time>2019-10-06T09:08:30.000Z</time>
      </trkpt>
      <trkpt lat="43.4929" lon="1.41084">
        <ele>71.52</ele>
        <time>2019-10-06T09:08:33.000Z</time>
      </trkpt>
      <trkpt lat="43.49303" lon="1.41078">
        <ele>72.67</ele>
        <time>2019-10-06T09:08:36.000Z</time>
      </trkpt>
      <trkpt lat="43.49315" lon="1.41074">
        <ele>73.52</ele>
        <time>2019-10-06T09:08:39.000Z</time>
      </trkpt>
      <trkpt lat="43.49326" lon="1.41071">
        <ele>72.47</ele>
        <time>2019-10-06T09:08:43.000Z</time>
      </trkpt>
      <trkpt lat="43.49334" lon="1.41065">
        <ele>72.27</ele>
        <time>2019-10-06T09:08:46.000Z</time>
      </trkpt>
      <trkpt lat="43.49347" lon="1.41059">
        <ele>71.25</ele>
        <time>2019-10-06T09:08:51.000Z</time>
      </trkpt>
      <trkpt lat="43.49361" lon="1.41052">
        <ele>71.32</ele>
        <time>2019-10-06T09:08:56.000Z</time>
      </trkpt>
      <trkpt lat="43.49376" lon="1.41046">
        <ele>71.96</ele>
        <time>2019-10-06T09:08:59.000Z</time>
      </trkpt>
      <trkpt lat="43.49386" lon="1.41041">
        <ele>72.04</ele>
        <time>2019-10-06T09:09:01.000Z</time>
      </trkpt>
      <trkpt lat="43.49395" lon="1.41036">
        <ele>71.89</ele>
        <time>2019-10-06T09:09:03.000Z</time>
      </trkpt>
      <trkpt lat="43.49404" lon="1.41029">
        <ele>71.42</ele>
        <time>2019-10-06T09:09:05.000Z</time>
      </trkpt>
      <trkpt lat="43.49414" lon="1.4102">
        <ele>71.42</ele>
        <time>2019-10-06T09:09:07.000Z</time>
      </trkpt>
      <trkpt lat="43.49428" lon="1.41012">
        <ele>71.29</ele>
        <time>2019-10-06T09:09:10.000Z</time>
      </trkpt>
      <trkpt lat="43.49439" lon="1.41009">
        <ele>71.32</ele>
        <time>2019-10-06T09:09:12.000Z</time>
      </trkpt>
      <trkpt lat="43.49448" lon="1.41004">
        <ele>71.7</ele>
        <time>2019-10-06T09:09:15.000Z</time>
      </trkpt>
      <trkpt lat="43.49464" lon="1.40999">
        <ele>71.45</ele>
        <time>2019-10-06T09:09:18.000Z</time>
      </trkpt>
      <trkpt lat="43.49474" lon="1.40995">
        <ele>71.92</ele>
        <time>2019-10-06T09:09:21.000Z</time>
      </trkpt>
      <trkpt lat="43.49491" lon="1.40987">
        <ele>72.29</ele>
        <time>2019-10-06T09:09:25.000Z</time>
      </trkpt>
      <trkpt lat="43.49501" lon="1.40982">
        <ele>72.2</ele>
        <time>2019-10-06T09:09:29.000Z</time>
      </trkpt>
      <trkpt lat="43.49511" lon="1.40978">
        <ele>72.2</ele>
        <time>2019-10-06T09:09:31.000Z</time>
      </trkpt>
      <trkpt lat="43.49524" lon="1.40974">
        <ele>71.4</ele>
        <time>2019-10-06T09:09:35.000Z</time>
      </trkpt>
      <trkpt lat="43.49532" lon="1.40968">
        <ele>71.33</ele>
        <time>2019-10-06T09:09:37.000Z</time>
      </trkpt>
      <trkpt lat="43.49542" lon="1.4096">
        <ele>71.3</ele>
        <time>2019-10-06T09:09:38.000Z</time>
      </trkpt>
      <trkpt lat="43.49553" lon="1.40952">
        <ele>71.07</ele>
        <time>2019-10-06T09:09:40.000Z</time>
      </trkpt>
      <trkpt lat="43.49563" lon="1.40945">
        <ele>71.27</ele>
        <time>2019-10-06T09:09:42.000Z</time>
      </trkpt>
      <trkpt lat="43.4958" lon="1.4094">
        <ele>71.44</ele>
        <time>2019-10-06T09:09:45.000Z</time>
      </trkpt>
      <trkpt lat="43.49598" lon="1.40929">
        <ele>72.33</ele>
        <time>2019-10-06T09:09:48.000Z</time>
      </trkpt>
      <trkpt lat="43.49608" lon="1.40921">
        <ele>72.37</ele>
        <time>2019-10-06T09:09:50.000Z</time>
      </trkpt>
      <trkpt lat="43.49623" lon="1.40907">
        <ele>71.81</ele>
        <time>2019-10-06T09:09:53.000Z</time>
      </trkpt>
      <trkpt lat="43.49637" lon="1.40894">
        <ele>70.92</ele>
        <time>2019-10-06T09:09:56.000Z</time>
      </trkpt>
      <trkpt lat="43.49649" lon="1.40884">
        <ele>70.87</ele>
        <time>2019-10-06T09:09:59.000Z</time>
      </trkpt>
      <trkpt lat="43.49664" lon="1.40869">
        <ele>69.95</ele>
        <time>2019-10-06T09:10:03.000Z</time>
      </trkpt>
      <trkpt lat="43.49674" lon="1.40864">
        <ele>70.04</ele>
        <time>2019-10-06T09:10:05.000Z</time>
      </trkpt>
      <trkpt lat="43.49685" lon="1.40858">
        <ele>69.7</ele>
        <time>2019-10-06T09:10:07.000Z</time>
      </trkpt>
      <trkpt lat="43.49695" lon="1.40851">
        <ele>69.7</ele>
        <time>2019-10-06T09:10:09.000Z</time>
      </trkpt>
      <trkpt lat="43.49705" lon="1.40842">
        <ele>69.55</ele>
        <time>2019-10-06T09:10:11.000Z</time>
      </trkpt>
      <trkpt lat="43.49714" lon="1.40832">
        <ele>69.61</ele>
        <time>2019-10-06T09:10:13.000Z</time>
      </trkpt>
      <trkpt lat="43.49722" lon="1.40822">
        <ele>69.67</ele>
        <time>2019-10-06T09:10:15.000Z</time>
      </trkpt>
      <trkpt lat="43.49732" lon="1.40805">
        <ele>69.65</ele>
        <time>2019-10-06T09:10:18.000Z</time>
      </trkpt>
      <trkpt lat="43.4974" lon="1.40795">
        <ele>69.87</ele>
        <time>2019-10-06T09:10:20.000Z</time>
      </trkpt>
      <trkpt lat="43.49747" lon="1.40786">
        <ele>70.28</ele>
        <time>2019-10-06T09:10:22.000Z</time>
      </trkpt>
      <trkpt lat="43.49755" lon="1.40777">
        <ele>70.63</ele>
        <time>2019-10-06T09:10:24.000Z</time>
      </trkpt>
      <trkpt lat="43.49762" lon="1.40769">
        <ele>70.57</ele>
        <time>2019-10-06T09:10:26.000Z</time>
      </trkpt>
      <trkpt lat="43.49775" lon="1.40758">
        <ele>71.06</ele>
        <time>2019-10-06T09:10:29.000Z</time>
      </trkpt>
      <trkpt lat="43.49783" lon="1.40752">
        <ele>70.54</ele>
        <time>2019-10-06T09:10:31.000Z</time>
      </trkpt>
      <trkpt lat="43.49797" lon="1.40738">
        <ele>70.27</ele>
        <time>2019-10-06T09:10:34.000Z</time>
      </trkpt>
      <trkpt lat="43.49806" lon="1.4073">
        <ele>70.59</ele>
        <time>2019-10-06T09:10:36.000Z</time>
      </trkpt>
      <trkpt lat="43.49817" lon="1.40724">
        <ele>70.28</ele>
        <time>2019-10-06T09:10:38.000Z</time>
      </trkpt>
      <trkpt lat="43.49826" lon="1.40716">
        <ele>70.86</ele>
        <time>2019-10-06T09:10:40.000Z</time>
      </trkpt>
      <trkpt lat="43.49835" lon="1.40708">
        <ele>71.24</ele>
        <time>2019-10-06T09:10:42.000Z</time>
      </trkpt>
      <trkpt lat="43.49844" lon="1.40702">
        <ele>70.92</ele>
        <time>2019-10-06T09:10:44.000Z</time>
      </trkpt>
      <trkpt lat="43.49856" lon="1.40696">
        <ele>70.87</ele>
        <time>2019-10-06T09:10:47.000Z</time>
      </trkpt>
      <trkpt lat="43.49866" lon="1.4069">
        <ele>70.42</ele>
        <time>2019-10-06T09:10:50.000Z</time>
      </trkpt>
      <trkpt lat="43.49876" lon="1.40677">
        <ele>70.78</ele>
        <time>2019-10-06T09:10:53.000Z</time>
      </trkpt>
      <trkpt lat="43.4988" lon="1.40661">
        <ele>71.4</ele>
        <time>2019-10-06T09:10:56.000Z</time>
      </trkpt>
      <trkpt lat="43.49876" lon="1.40649">
        <ele>72.31</ele>
        <time>2019-10-06T09:10:59.000Z</time>
      </trkpt>
      <trkpt lat="43.49867" lon="1.40636">
        <ele>72.72</ele>
        <time>2019-10-06T09:11:03.000Z</time>
      </trkpt>
      <trkpt lat="43.49859" lon="1.4063">
        <ele>72.93</ele>
        <time>2019-10-06T09:11:08.000Z</time>
      </trkpt>
      <trkpt lat="43.49849" lon="1.40632">
        <ele>73.42</ele>
        <time>2019-10-06T09:11:12.000Z</time>
      </trkpt>
      <trkpt lat="43.49847" lon="1.40644">
        <ele>73.49</ele>
        <time>2019-10-06T09:11:18.000Z</time>
      </trkpt>
      <trkpt lat="43.49854" lon="1.40659">
        <ele>79.4</ele>
        <time>2019-10-06T09:11:59.000Z</time>
      </trkpt>
      <trkpt lat="43.49864" lon="1.40675">
        <ele>79.69</ele>
        <time>2019-10-06T09:12:03.000Z</time>
      </trkpt>
      <trkpt lat="43.49873" lon="1.40687">
        <ele>80.25</ele>
        <time>2019-10-06T09:12:07.000Z</time>
      </trkpt>
      <trkpt lat="43.4988" lon="1.40697">
        <ele>80.43</ele>
        <time>2019-10-06T09:12:10.000Z</time>
      </trkpt>
      <trkpt lat="43.49886" lon="1.40707">
        <ele>80.26</ele>
        <time>2019-10-06T09:12:13.000Z</time>
      </trkpt>
      <trkpt lat="43.49893" lon="1.40718">
        <ele>80.32</ele>
        <time>2019-10-06T09:12:16.000Z</time>
      </trkpt>
      <trkpt lat="43.499" lon="1.40728">
        <ele>80.51</ele>
        <time>2019-10-06T09:12:18.000Z</time>
      </trkpt>
      <trkpt lat="43.49908" lon="1.4074">
        <ele>81.02</ele>
        <time>2019-10-06T09:12:21.000Z</time>
      </trkpt>
      <trkpt lat="43.49916" lon="1.40754">
        <ele>80.97</ele>
        <time>2019-10-06T09:12:25.000Z</time>
      </trkpt>
      <trkpt lat="43.49928" lon="1.40771">
        <ele>80.57</ele>
        <time>2019-10-06T09:12:28.000Z</time>
      </trkpt>
      <trkpt lat="43.49935" lon="1.40781">
        <ele>80.59</ele>
        <time>2019-10-06T09:12:30.000Z</time>
      </trkpt>
      <trkpt lat="43.49944" lon="1.40796">
        <ele>80.22</ele>
        <time>2019-10-06T09:12:33.000Z</time>
      </trkpt>
      <trkpt lat="43.49953" lon="1.40811">
        <ele>79.8</ele>
        <time>2019-10-06T09:12:37.000Z</time>
      </trkpt>
      <trkpt lat="43.49961" lon="1.40824">
        <ele>79.27</ele>
        <time>2019-10-06T09:12:41.000Z</time>
      </trkpt>
      <trkpt lat="43.49965" lon="1.40838">
        <ele>78.81</ele>
        <time>2019-10-06T09:12:44.000Z</time>
      </trkpt>
      <trkpt lat="43.4997" lon="1.4085">
        <ele>78.78</ele>
        <time>2019-10-06T09:12:46.000Z</time>
      </trkpt>
      <trkpt lat="43.49978" lon="1.40865">
        <ele>78.69</ele>
        <time>2019-10-06T09:12:48.000Z</time>
      </trkpt>
      <trkpt lat="43.49986" lon="1.4088">
        <ele>78.48</ele>
        <time>2019-10-06T09:12:50.000Z</time>
      </trkpt>
      <trkpt lat="43.49994" lon="1.40894">
        <ele>78.34</ele>
        <time>2019-10-06T09:12:52.000Z</time>
      </trkpt>
      <trkpt lat="43.50004" lon="1.40913">
        <ele>77.99</ele>
        <time>2019-10-06T09:12:55.000Z</time>
      </trkpt>
      <trkpt lat="43.50014" lon="1.40932">
        <ele>77.64</ele>
        <time>2019-10-06T09:12:58.000Z</time>
      </trkpt>
      <trkpt lat="43.50021" lon="1.40953">
        <ele>77.57</ele>
        <time>2019-10-06T09:13:01.000Z</time>
      </trkpt>
      <trkpt lat="43.50023" lon="1.40968">
        <ele>77.42</ele>
        <time>2019-10-06T09:13:03.000Z</time>
      </trkpt>
      <trkpt lat="43.50019" lon="1.40982">
        <ele>77.38</ele>
        <time>2019-10-06T09:13:05.000Z</time>
      </trkpt>
      <trkpt lat="43.50004" lon="1.40992">
        <ele>76.44</ele>
        <time>2019-10-06T09:13:08.000Z</time>
      </trkpt>
      <trkpt lat="43.49994" lon="1.40989">
        <ele>76.44</ele>
        <time>2019-10-06T09:13:10.000Z</time>
      </trkpt>
      <trkpt lat="43.49985" lon="1.40985">
        <ele>76.44</ele>
        <time>2019-10-06T09:13:12.000Z</time>
      </trkpt>
      <trkpt lat="43.49976" lon="1.40981">
        <ele>76.32</ele>
        <time>2019-10-06T09:13:14.000Z</time>
      </trkpt>
      <trkpt lat="43.49967" lon="1.40977">
        <ele>76.41</ele>
        <time>2019-10-06T09:13:16.000Z</time>
      </trkpt>
      <trkpt lat="43.49952" lon="1.40971">
        <ele>77.08</ele>
        <time>2019-10-06T09:13:19.000Z</time>
      </trkpt>
      <trkpt lat="43.49939" lon="1.40968">
        <ele>77.68</ele>
        <time>2019-10-06T09:13:22.000Z</time>
      </trkpt>
      <trkpt lat="43.49923" lon="1.40966">
        <ele>78.36</ele>
        <time>2019-10-06T09:13:26.000Z</time>
      </trkpt>
      <trkpt lat="43.49912" lon="1.40963">
        <ele>78.92</ele>
        <time>2019-10-06T09:13:30.000Z</time>
      </trkpt>
      <trkpt lat="43.49914" lon="1.40945">
        <ele>78.46</ele>
        <time>2019-10-06T09:13:35.000Z</time>
      </trkpt>
      <trkpt lat="43.49915" lon="1.40932">
        <ele>78.12</ele>
        <time>2019-10-06T09:13:37.000Z</time>
      </trkpt>
      <trkpt lat="43.49917" lon="1.4092">
        <ele>77.48</ele>
        <time>2019-10-06T09:13:39.000Z</time>
      </trkpt>
      <trkpt lat="43.49917" lon="1.40907">
        <ele>76.92</ele>
        <time>2019-10-06T09:13:41.000Z</time>
      </trkpt>
      <trkpt lat="43.49917" lon="1.40893">
        <ele>77.2</ele>
        <time>2019-10-06T09:13:43.000Z</time>
      </trkpt>
      <trkpt lat="43.49917" lon="1.40877">
        <ele>75.81</ele>
        <time>2019-10-06T09:13:45.000Z</time>
      </trkpt>
      <trkpt lat="43.49919" lon="1.4086">
        <ele>75.21</ele>
        <time>2019-10-06T09:13:47.000Z</time>
      </trkpt>
      <trkpt lat="43.4992" lon="1.4084">
        <ele>74</ele>
        <time>2019-10-06T09:13:49.000Z</time>
      </trkpt>
      <trkpt lat="43.49921" lon="1.40822">
        <ele>73.48</ele>
        <time>2019-10-06T09:13:51.000Z</time>
      </trkpt>
      <trkpt lat="43.49923" lon="1.40805">
        <ele>73.21</ele>
        <time>2019-10-06T09:13:54.000Z</time>
      </trkpt>
      <trkpt lat="43.49928" lon="1.4079">
        <ele>73.25</ele>
        <time>2019-10-06T09:13:57.000Z</time>
      </trkpt>
      <trkpt lat="43.49944" lon="1.40776">
        <ele>73.66</ele>
        <time>2019-10-06T09:14:01.000Z</time>
      </trkpt>
      <trkpt lat="43.49954" lon="1.40768">
        <ele>73.79</ele>
        <time>2019-10-06T09:14:03.000Z</time>
      </trkpt>
      <trkpt lat="43.49968" lon="1.40757">
        <ele>73.88</ele>
        <time>2019-10-06T09:14:06.000Z</time>
      </trkpt>
      <trkpt lat="43.49977" lon="1.40749">
        <ele>73.94</ele>
        <time>2019-10-06T09:14:08.000Z</time>
      </trkpt>
      <trkpt lat="43.49987" lon="1.4074">
        <ele>74.09</ele>
        <time>2019-10-06T09:14:10.000Z</time>
      </trkpt>
      <trkpt lat="43.50001" lon="1.40729">
        <ele>74.27</ele>
        <time>2019-10-06T09:14:13.000Z</time>
      </trkpt>
      <trkpt lat="43.50013" lon="1.4072">
        <ele>74.48</ele>
        <time>2019-10-06T09:14:16.000Z</time>
      </trkpt>
      <trkpt lat="43.50028" lon="1.40707">
        <ele>74.06</ele>
        <time>2019-10-06T09:14:21.000Z</time>
      </trkpt>
      <trkpt lat="43.50039" lon="1.40691">
        <ele>74.06</ele>
        <time>2019-10-06T09:14:24.000Z</time>
      </trkpt>
      <trkpt lat="43.50045" lon="1.40676">
        <ele>73.87</ele>
        <time>2019-10-06T09:14:27.000Z</time>
      </trkpt>
      <trkpt lat="43.50054" lon="1.40664">
        <ele>72.91</ele>
        <time>2019-10-06T09:14:30.000Z</time>
      </trkpt>
      <trkpt lat="43.50063" lon="1.40652">
        <ele>72.91</ele>
        <time>2019-10-06T09:14:33.000Z</time>
      </trkpt>
      <trkpt lat="43.50076" lon="1.40635">
        <ele>73.82</ele>
        <time>2019-10-06T09:14:37.000Z</time>
      </trkpt>
      <trkpt lat="43.50085" lon="1.40621">
        <ele>73.47</ele>
        <time>2019-10-06T09:14:40.000Z</time>
      </trkpt>
      <trkpt lat="43.50091" lon="1.40608">
        <ele>73.47</ele>
        <time>2019-10-06T09:14:43.000Z</time>
      </trkpt>
      <trkpt lat="43.50098" lon="1.40594">
        <ele>74.35</ele>
        <time>2019-10-06T09:14:46.000Z</time>
      </trkpt>
      <trkpt lat="43.50108" lon="1.40577">
        <ele>74.13</ele>
        <time>2019-10-06T09:14:49.000Z</time>
      </trkpt>
      <trkpt lat="43.50116" lon="1.40566">
        <ele>74.54</ele>
        <time>2019-10-06T09:14:51.000Z</time>
      </trkpt>
      <trkpt lat="43.50122" lon="1.40553">
        <ele>74.78</ele>
        <time>2019-10-06T09:14:53.000Z</time>
      </trkpt>
      <trkpt lat="43.50131" lon="1.40537">
        <ele>74.95</ele>
        <time>2019-10-06T09:14:56.000Z</time>
      </trkpt>
      <trkpt lat="43.50142" lon="1.40522">
        <ele>75.05</ele>
        <time>2019-10-06T09:14:59.000Z</time>
      </trkpt>
      <trkpt lat="43.50149" lon="1.40514">
        <ele>75.05</ele>
        <time>2019-10-06T09:15:01.000Z</time>
      </trkpt>
      <trkpt lat="43.50158" lon="1.405">
        <ele>74.11</ele>
        <time>2019-10-06T09:15:04.000Z</time>
      </trkpt>
      <trkpt lat="43.50164" lon="1.40488">
        <ele>73.7</ele>
        <time>2019-10-06T09:15:06.000Z</time>
      </trkpt>
      <trkpt lat="43.50173" lon="1.4047">
        <ele>73.11</ele>
        <time>2019-10-06T09:15:09.000Z</time>
      </trkpt>
      <trkpt lat="43.50178" lon="1.40457">
        <ele>73.11</ele>
        <time>2019-10-06T09:15:11.000Z</time>
      </trkpt>
      <trkpt lat="43.50185" lon="1.40445">
        <ele>73.11</ele>
        <time>2019-10-06T09:15:13.000Z</time>
      </trkpt>
      <trkpt lat="43.50195" lon="1.40427">
        <ele>73.15</ele>
        <time>2019-10-06T09:15:16.000Z</time>
      </trkpt>
      <trkpt lat="43.50201" lon="1.40414">
        <ele>73.52</ele>
        <time>2019-10-06T09:15:18.000Z</time>
      </trkpt>
      <trkpt lat="43.50206" lon="1.40401">
        <ele>73.87</ele>
        <time>2019-10-06T09:15:20.000Z</time>
      </trkpt>
      <trkpt lat="43.5021" lon="1.40388">
        <ele>74.33</ele>
        <time>2019-10-06T09:15:22.000Z</time>
      </trkpt>
      <trkpt lat="43.50215" lon="1.40376">
        <ele>74.96</ele>
        <time>2019-10-06T09:15:24.000Z</time>
      </trkpt>
      <trkpt lat="43.50219" lon="1.40363">
        <ele>74.91</ele>
        <time>2019-10-06T09:15:26.000Z</time>
      </trkpt>
      <trkpt lat="43.50225" lon="1.40351">
        <ele>75.05</ele>
        <time>2019-10-06T09:15:28.000Z</time>
      </trkpt>
      <trkpt lat="43.50231" lon="1.40333">
        <ele>74.65</ele>
        <time>2019-10-06T09:15:31.000Z</time>
      </trkpt>
      <trkpt lat="43.50221" lon="1.40316">
        <ele>73.58</ele>
        <time>2019-10-06T09:15:35.000Z</time>
      </trkpt>
      <trkpt lat="43.50219" lon="1.40302">
        <ele>71.45</ele>
        <time>2019-10-06T09:15:37.000Z</time>
      </trkpt>
      <trkpt lat="43.50223" lon="1.40289">
        <ele>71.45</ele>
        <time>2019-10-06T09:15:40.000Z</time>
      </trkpt>
      <trkpt lat="43.50226" lon="1.40264">
        <ele>70.09</ele>
        <time>2019-10-06T09:15:45.000Z</time>
      </trkpt>
      <trkpt lat="43.50228" lon="1.40247">
        <ele>69.85</ele>
        <time>2019-10-06T09:15:46.000Z</time>
      </trkpt>
      <trkpt lat="43.50232" lon="1.40235">
        <ele>69.57</ele>
        <time>2019-10-06T09:15:48.000Z</time>
      </trkpt>
      <trkpt lat="43.50239" lon="1.4022">
        <ele>70.02</ele>
        <time>2019-10-06T09:15:51.000Z</time>
      </trkpt>
      <trkpt lat="43.50246" lon="1.4021">
        <ele>70.02</ele>
        <time>2019-10-06T09:15:53.000Z</time>
      </trkpt>
      <trkpt lat="43.50254" lon="1.40195">
        <ele>71.13</ele>
        <time>2019-10-06T09:15:56.000Z</time>
      </trkpt>
      <trkpt lat="43.50257" lon="1.40182">
        <ele>72.28</ele>
        <time>2019-10-06T09:15:58.000Z</time>
      </trkpt>
      <trkpt lat="43.50259" lon="1.40168">
        <ele>72.9</ele>
        <time>2019-10-06T09:16:00.000Z</time>
      </trkpt>
      <trkpt lat="43.50264" lon="1.40156">
        <ele>73.58</ele>
        <time>2019-10-06T09:16:02.000Z</time>
      </trkpt>
      <trkpt lat="43.50269" lon="1.40145">
        <ele>73.27</ele>
        <time>2019-10-06T09:16:04.000Z</time>
      </trkpt>
      <trkpt lat="43.50274" lon="1.40123">
        <ele>73.43</ele>
        <time>2019-10-06T09:16:08.000Z</time>
      </trkpt>
      <trkpt lat="43.50277" lon="1.40103">
        <ele>72.13</ele>
        <time>2019-10-06T09:16:12.000Z</time>
      </trkpt>
      <trkpt lat="43.5028" lon="1.4009">
        <ele>71.88</ele>
        <time>2019-10-06T09:16:14.000Z</time>
      </trkpt>
      <trkpt lat="43.50283" lon="1.40078">
        <ele>70.92</ele>
        <time>2019-10-06T09:16:16.000Z</time>
      </trkpt>
      <trkpt lat="43.50287" lon="1.40052">
        <ele>70.44</ele>
        <time>2019-10-06T09:16:18.000Z</time>
      </trkpt>
      <trkpt lat="43.50292" lon="1.40036">
        <ele>70.59</ele>
        <time>2019-10-06T09:16:20.000Z</time>
      </trkpt>
      <trkpt lat="43.50296" lon="1.40023">
        <ele>70.34</ele>
        <time>2019-10-06T09:16:22.000Z</time>
      </trkpt>
      <trkpt lat="43.503" lon="1.40006">
        <ele>70.34</ele>
        <time>2019-10-06T09:16:25.000Z</time>
      </trkpt>
      <trkpt lat="43.50304" lon="1.39986">
        <ele>69.89</ele>
        <time>2019-10-06T09:16:28.000Z</time>
      </trkpt>
      <trkpt lat="43.50308" lon="1.39973">
        <ele>70.15</ele>
        <time>2019-10-06T09:16:31.000Z</time>
      </trkpt>
      <trkpt lat="43.50314" lon="1.39959">
        <ele>70.15</ele>
        <time>2019-10-06T09:16:32.000Z</time>
      </trkpt>
      <trkpt lat="43.50318" lon="1.39947">
        <ele>70.15</ele>
        <time>2019-10-06T09:16:34.000Z</time>
      </trkpt>
      <trkpt lat="43.5033" lon="1.3993">
        <ele>70.1</ele>
        <time>2019-10-06T09:16:37.000Z</time>
      </trkpt>
      <trkpt lat="43.50338" lon="1.3992">
        <ele>70.1</ele>
        <time>2019-10-06T09:16:39.000Z</time>
      </trkpt>
      <trkpt lat="43.50346" lon="1.39907">
        <ele>70.39</ele>
        <time>2019-10-06T09:16:41.000Z</time>
      </trkpt>
      <trkpt lat="43.50351" lon="1.39896">
        <ele>70.39</ele>
        <time>2019-10-06T09:16:43.000Z</time>
      </trkpt>
      <trkpt lat="43.50355" lon="1.39878">
        <ele>71.08</ele>
        <time>2019-10-06T09:16:46.000Z</time>
      </trkpt>
      <trkpt lat="43.50357" lon="1.39863">
        <ele>71.24</ele>
        <time>2019-10-06T09:16:48.000Z</time>
      </trkpt>
      <trkpt lat="43.50361" lon="1.39852">
        <ele>71.48</ele>
        <time>2019-10-06T09:16:51.000Z</time>
      </trkpt>
      <trkpt lat="43.50366" lon="1.39837">
        <ele>72.02</ele>
        <time>2019-10-06T09:16:55.000Z</time>
      </trkpt>
      <trkpt lat="43.5037" lon="1.39824">
        <ele>73.47</ele>
        <time>2019-10-06T09:16:59.000Z</time>
      </trkpt>
      <trkpt lat="43.50378" lon="1.39811">
        <ele>73.71</ele>
        <time>2019-10-06T09:17:01.000Z</time>
      </trkpt>
      <trkpt lat="43.50387" lon="1.39796">
        <ele>73.61</ele>
        <time>2019-10-06T09:17:03.000Z</time>
      </trkpt>
      <trkpt lat="43.50393" lon="1.39786">
        <ele>73.61</ele>
        <time>2019-10-06T09:17:04.000Z</time>
      </trkpt>
      <trkpt lat="43.50403" lon="1.39773">
        <ele>73.44</ele>
        <time>2019-10-06T09:17:07.000Z</time>
      </trkpt>
      <trkpt lat="43.50411" lon="1.39757">
        <ele>72.81</ele>
        <time>2019-10-06T09:17:09.000Z</time>
      </trkpt>
      <trkpt lat="43.50423" lon="1.39743">
        <ele>72.81</ele>
        <time>2019-10-06T09:17:12.000Z</time>
      </trkpt>
      <trkpt lat="43.50432" lon="1.39734">
        <ele>72.14</ele>
        <time>2019-10-06T09:17:14.000Z</time>
      </trkpt>
      <trkpt lat="43.50446" lon="1.39718">
        <ele>72.39</ele>
        <time>2019-10-06T09:17:17.000Z</time>
      </trkpt>
      <trkpt lat="43.50457" lon="1.39708">
        <ele>72.13</ele>
        <time>2019-10-06T09:17:19.000Z</time>
      </trkpt>
      <trkpt lat="43.5047" lon="1.39694">
        <ele>72.13</ele>
        <time>2019-10-06T09:17:22.000Z</time>
      </trkpt>
      <trkpt lat="43.50483" lon="1.39692">
        <ele>72.8</ele>
        <time>2019-10-06T09:17:26.000Z</time>
      </trkpt>
      <trkpt lat="43.5049" lon="1.39705">
        <ele>72.75</ele>
        <time>2019-10-06T09:17:30.000Z</time>
      </trkpt>
      <trkpt lat="43.50499" lon="1.39712">
        <ele>73.57</ele>
        <time>2019-10-06T09:17:33.000Z</time>
      </trkpt>
      <trkpt lat="43.50509" lon="1.39715">
        <ele>73.57</ele>
        <time>2019-10-06T09:17:36.000Z</time>
      </trkpt>
      <trkpt lat="43.50518" lon="1.39733">
        <ele>74.01</ele>
        <time>2019-10-06T09:17:40.000Z</time>
      </trkpt>
      <trkpt lat="43.50528" lon="1.39755">
        <ele>74.13</ele>
        <time>2019-10-06T09:17:44.000Z</time>
      </trkpt>
      <trkpt lat="43.50532" lon="1.39768">
        <ele>74.21</ele>
        <time>2019-10-06T09:17:46.000Z</time>
      </trkpt>
      <trkpt lat="43.50539" lon="1.39783">
        <ele>73.97</ele>
        <time>2019-10-06T09:17:49.000Z</time>
      </trkpt>
      <trkpt lat="43.50548" lon="1.39796">
        <ele>73</ele>
        <time>2019-10-06T09:17:52.000Z</time>
      </trkpt>
      <trkpt lat="43.50557" lon="1.39802">
        <ele>73</ele>
        <time>2019-10-06T09:17:54.000Z</time>
      </trkpt>
      <trkpt lat="43.50563" lon="1.39813">
        <ele>73</ele>
        <time>2019-10-06T09:17:56.000Z</time>
      </trkpt>
      <trkpt lat="43.50567" lon="1.39827">
        <ele>73.58</ele>
        <time>2019-10-06T09:17:58.000Z</time>
      </trkpt>
      <trkpt lat="43.50569" lon="1.3984">
        <ele>73.58</ele>
        <time>2019-10-06T09:18:00.000Z</time>
      </trkpt>
      <trkpt lat="43.50577" lon="1.39858">
        <ele>73.74</ele>
        <time>2019-10-06T09:18:04.000Z</time>
      </trkpt>
      <trkpt lat="43.50584" lon="1.39867">
        <ele>74.64</ele>
        <time>2019-10-06T09:18:07.000Z</time>
      </trkpt>
      <trkpt lat="43.5059" lon="1.39878">
        <ele>73.81</ele>
        <time>2019-10-06T09:18:09.000Z</time>
      </trkpt>
      <trkpt lat="43.50596" lon="1.3989">
        <ele>73.97</ele>
        <time>2019-10-06T09:18:11.000Z</time>
      </trkpt>
      <trkpt lat="43.50602" lon="1.399">
        <ele>73.79</ele>
        <time>2019-10-06T09:18:13.000Z</time>
      </trkpt>
      <trkpt lat="43.50613" lon="1.39908">
        <ele>73.96</ele>
        <time>2019-10-06T09:18:15.000Z</time>
      </trkpt>
      <trkpt lat="43.50626" lon="1.39923">
        <ele>74.32</ele>
        <time>2019-10-06T09:18:19.000Z</time>
      </trkpt>
      <trkpt lat="43.50632" lon="1.39934">
        <ele>74.38</ele>
        <time>2019-10-06T09:18:22.000Z</time>
      </trkpt>
      <trkpt lat="43.50639" lon="1.39957">
        <ele>74.1</ele>
        <time>2019-10-06T09:18:24.000Z</time>
      </trkpt>
      <trkpt lat="43.50645" lon="1.39978">
        <ele>74</ele>
        <time>2019-10-06T09:18:28.000Z</time>
      </trkpt>
      <trkpt lat="43.50656" lon="1.39991">
        <ele>73.89</ele>
        <time>2019-10-06T09:18:30.000Z</time>
      </trkpt>
      <trkpt lat="43.5067" lon="1.39996">
        <ele>73.68</ele>
        <time>2019-10-06T09:18:33.000Z</time>
      </trkpt>
      <trkpt lat="43.50682" lon="1.4">
        <ele>74.09</ele>
        <time>2019-10-06T09:18:36.000Z</time>
      </trkpt>
      <trkpt lat="43.50691" lon="1.40008">
        <ele>74.21</ele>
        <time>2019-10-06T09:18:39.000Z</time>
      </trkpt>
      <trkpt lat="43.50699" lon="1.40024">
        <ele>74.28</ele>
        <time>2019-10-06T09:18:42.000Z</time>
      </trkpt>
      <trkpt lat="43.50706" lon="1.40046">
        <ele>74.36</ele>
        <time>2019-10-06T09:18:46.000Z</time>
      </trkpt>
      <trkpt lat="43.50711" lon="1.40059">
        <ele>75.17</ele>
        <time>2019-10-06T09:18:48.000Z</time>
      </trkpt>
      <trkpt lat="43.50715" lon="1.40072">
        <ele>75.29</ele>
        <time>2019-10-06T09:18:49.000Z</time>
      </trkpt>
      <trkpt lat="43.5072" lon="1.40085">
        <ele>75.65</ele>
        <time>2019-10-06T09:18:52.000Z</time>
      </trkpt>
      <trkpt lat="43.50728" lon="1.40103">
        <ele>76.36</ele>
        <time>2019-10-06T09:18:55.000Z</time>
      </trkpt>
      <trkpt lat="43.50733" lon="1.40115">
        <ele>76.77</ele>
        <time>2019-10-06T09:18:57.000Z</time>
      </trkpt>
      <trkpt lat="43.50742" lon="1.40132">
        <ele>76.23</ele>
        <time>2019-10-06T09:19:00.000Z</time>
      </trkpt>
      <trkpt lat="43.50747" lon="1.40143">
        <ele>75.95</ele>
        <time>2019-10-06T09:19:01.000Z</time>
      </trkpt>
      <trkpt lat="43.50756" lon="1.40159">
        <ele>75.97</ele>
        <time>2019-10-06T09:19:05.000Z</time>
      </trkpt>
      <trkpt lat="43.50761" lon="1.40169">
        <ele>75.88</ele>
        <time>2019-10-06T09:19:06.000Z</time>
      </trkpt>
      <trkpt lat="43.50769" lon="1.40186">
        <ele>75.91</ele>
        <time>2019-10-06T09:19:10.000Z</time>
      </trkpt>
      <trkpt lat="43.50775" lon="1.40198">
        <ele>75.08</ele>
        <time>2019-10-06T09:19:12.000Z</time>
      </trkpt>
      <trkpt lat="43.50779" lon="1.40211">
        <ele>75.08</ele>
        <time>2019-10-06T09:19:14.000Z</time>
      </trkpt>
      <trkpt lat="43.50783" lon="1.40225">
        <ele>75.14</ele>
        <time>2019-10-06T09:19:16.000Z</time>
      </trkpt>
      <trkpt lat="43.50785" lon="1.4024">
        <ele>75.13</ele>
        <time>2019-10-06T09:19:18.000Z</time>
      </trkpt>
      <trkpt lat="43.50789" lon="1.40255">
        <ele>74.82</ele>
        <time>2019-10-06T09:19:20.000Z</time>
      </trkpt>
      <trkpt lat="43.50795" lon="1.40268">
        <ele>74.82</ele>
        <time>2019-10-06T09:19:22.000Z</time>
      </trkpt>
      <trkpt lat="43.50804" lon="1.40289">
        <ele>74.14</ele>
        <time>2019-10-06T09:19:25.000Z</time>
      </trkpt>
      <trkpt lat="43.5081" lon="1.40303">
        <ele>73.93</ele>
        <time>2019-10-06T09:19:27.000Z</time>
      </trkpt>
      <trkpt lat="43.50814" lon="1.40317">
        <ele>74</ele>
        <time>2019-10-06T09:19:29.000Z</time>
      </trkpt>
      <trkpt lat="43.50822" lon="1.4034">
        <ele>73.04</ele>
        <time>2019-10-06T09:19:32.000Z</time>
      </trkpt>
      <trkpt lat="43.50832" lon="1.40361">
        <ele>72.52</ele>
        <time>2019-10-06T09:19:35.000Z</time>
      </trkpt>
      <trkpt lat="43.50841" lon="1.40382">
        <ele>72.56</ele>
        <time>2019-10-06T09:19:38.000Z</time>
      </trkpt>
      <trkpt lat="43.50847" lon="1.40396">
        <ele>72.72</ele>
        <time>2019-10-06T09:19:40.000Z</time>
      </trkpt>
      <trkpt lat="43.50853" lon="1.4041">
        <ele>72.93</ele>
        <time>2019-10-06T09:19:42.000Z</time>
      </trkpt>
      <trkpt lat="43.50865" lon="1.40427">
        <ele>74.06</ele>
        <time>2019-10-06T09:19:45.000Z</time>
      </trkpt>
      <trkpt lat="43.50873" lon="1.40439">
        <ele>74.16</ele>
        <time>2019-10-06T09:19:47.000Z</time>
      </trkpt>
      <trkpt lat="43.5088" lon="1.40452">
        <ele>73.64</ele>
        <time>2019-10-06T09:19:49.000Z</time>
      </trkpt>
      <trkpt lat="43.50885" lon="1.40465">
        <ele>73.64</ele>
        <time>2019-10-06T09:19:51.000Z</time>
      </trkpt>
      <trkpt lat="43.50895" lon="1.40485">
        <ele>73.57</ele>
        <time>2019-10-06T09:19:54.000Z</time>
      </trkpt>
      <trkpt lat="43.50901" lon="1.40498">
        <ele>73.36</ele>
        <time>2019-10-06T09:19:56.000Z</time>
      </trkpt>
      <trkpt lat="43.50909" lon="1.40509">
        <ele>72.7</ele>
        <time>2019-10-06T09:19:58.000Z</time>
      </trkpt>
      <trkpt lat="43.50921" lon="1.40523">
        <ele>72.46</ele>
        <time>2019-10-06T09:20:01.000Z</time>
      </trkpt>
      <trkpt lat="43.50933" lon="1.40539">
        <ele>72.82</ele>
        <time>2019-10-06T09:20:04.000Z</time>
      </trkpt>
      <trkpt lat="43.50944" lon="1.40552">
        <ele>73.11</ele>
        <time>2019-10-06T09:20:07.000Z</time>
      </trkpt>
      <trkpt lat="43.50951" lon="1.40564">
        <ele>73.76</ele>
        <time>2019-10-06T09:20:11.000Z</time>
      </trkpt>
      <trkpt lat="43.50959" lon="1.40574">
        <ele>73.72</ele>
        <time>2019-10-06T09:20:15.000Z</time>
      </trkpt>
      <trkpt lat="43.50965" lon="1.40594">
        <ele>73.42</ele>
        <time>2019-10-06T09:20:47.000Z</time>
      </trkpt>
      <trkpt lat="43.50966" lon="1.40608">
        <ele>73.42</ele>
        <time>2019-10-06T09:20:51.000Z</time>
      </trkpt>
      <trkpt lat="43.50964" lon="1.40629">
        <ele>72.68</ele>
        <time>2019-10-06T09:20:55.000Z</time>
      </trkpt>
      <trkpt lat="43.50959" lon="1.40655">
        <ele>72.28</ele>
        <time>2019-10-06T09:20:59.000Z</time>
      </trkpt>
      <trkpt lat="43.50953" lon="1.40672">
        <ele>72.35</ele>
        <time>2019-10-06T09:21:01.000Z</time>
      </trkpt>
      <trkpt lat="43.50949" lon="1.40688">
        <ele>72.32</ele>
        <time>2019-10-06T09:21:04.000Z</time>
      </trkpt>
      <trkpt lat="43.50943" lon="1.40706">
        <ele>72.67</ele>
        <time>2019-10-06T09:21:08.000Z</time>
      </trkpt>
      <trkpt lat="43.50936" lon="1.40723">
        <ele>72.69</ele>
        <time>2019-10-06T09:21:12.000Z</time>
      </trkpt>
      <trkpt lat="43.50929" lon="1.40746">
        <ele>73.04</ele>
        <time>2019-10-06T09:21:16.000Z</time>
      </trkpt>
      <trkpt lat="43.50925" lon="1.40759">
        <ele>73.2</ele>
        <time>2019-10-06T09:21:18.000Z</time>
      </trkpt>
      <trkpt lat="43.5092" lon="1.40773">
        <ele>73.37</ele>
        <time>2019-10-06T09:21:20.000Z</time>
      </trkpt>
      <trkpt lat="43.50916" lon="1.40786">
        <ele>73.12</ele>
        <time>2019-10-06T09:21:22.000Z</time>
      </trkpt>
      <trkpt lat="43.5091" lon="1.40805">
        <ele>73.23</ele>
        <time>2019-10-06T09:21:25.000Z</time>
      </trkpt>
      <trkpt lat="43.50904" lon="1.40824">
        <ele>72.95</ele>
        <time>2019-10-06T09:21:28.000Z</time>
      </trkpt>
      <trkpt lat="43.50899" lon="1.40836">
        <ele>73.31</ele>
        <time>2019-10-06T09:21:30.000Z</time>
      </trkpt>
      <trkpt lat="43.50895" lon="1.40847">
        <ele>73.4</ele>
        <time>2019-10-06T09:21:32.000Z</time>
      </trkpt>
      <trkpt lat="43.5089" lon="1.40858">
        <ele>73.9</ele>
        <time>2019-10-06T09:21:34.000Z</time>
      </trkpt>
      <trkpt lat="43.50886" lon="1.40869">
        <ele>74.21</ele>
        <time>2019-10-06T09:21:36.000Z</time>
      </trkpt>
      <trkpt lat="43.50878" lon="1.40889">
        <ele>74.12</ele>
        <time>2019-10-06T09:21:40.000Z</time>
      </trkpt>
      <trkpt lat="43.50869" lon="1.4091">
        <ele>73.73</ele>
        <time>2019-10-06T09:21:44.000Z</time>
      </trkpt>
      <trkpt lat="43.50865" lon="1.40922">
        <ele>74.09</ele>
        <time>2019-10-06T09:21:46.000Z</time>
      </trkpt>
      <trkpt lat="43.50858" lon="1.40939">
        <ele>74.08</ele>
        <time>2019-10-06T09:21:49.000Z</time>
      </trkpt>
      <trkpt lat="43.50852" lon="1.40956">
        <ele>74.26</ele>
        <time>2019-10-06T09:21:52.000Z</time>
      </trkpt>
      <trkpt lat="43.50848" lon="1.40968">
        <ele>74.27</ele>
        <time>2019-10-06T09:21:54.000Z</time>
      </trkpt>
      <trkpt lat="43.50843" lon="1.4098">
        <ele>73.91</ele>
        <time>2019-10-06T09:21:56.000Z</time>
      </trkpt>
      <trkpt lat="43.50837" lon="1.40998">
        <ele>74.2</ele>
        <time>2019-10-06T09:21:59.000Z</time>
      </trkpt>
      <trkpt lat="43.50832" lon="1.4101">
        <ele>74.13</ele>
        <time>2019-10-06T09:22:01.000Z</time>
      </trkpt>
      <trkpt lat="43.50828" lon="1.41021">
        <ele>74.06</ele>
        <time>2019-10-06T09:22:03.000Z</time>
      </trkpt>
      <trkpt lat="43.50824" lon="1.41033">
        <ele>74.05</ele>
        <time>2019-10-06T09:22:05.000Z</time>
      </trkpt>
      <trkpt lat="43.5082" lon="1.41045">
        <ele>73.71</ele>
        <time>2019-10-06T09:22:07.000Z</time>
      </trkpt>
      <trkpt lat="43.50816" lon="1.41057">
        <ele>73.92</ele>
        <time>2019-10-06T09:22:09.000Z</time>
      </trkpt>
      <trkpt lat="43.50811" lon="1.41069">
        <ele>73.96</ele>
        <time>2019-10-06T09:22:11.000Z</time>
      </trkpt>
      <trkpt lat="43.50806" lon="1.41081">
        <ele>74.54</ele>
        <time>2019-10-06T09:22:13.000Z</time>
      </trkpt>
      <trkpt lat="43.508" lon="1.41099">
        <ele>74.22</ele>
        <time>2019-10-06T09:22:16.000Z</time>
      </trkpt>
      <trkpt lat="43.50796" lon="1.4111">
        <ele>74.08</ele>
        <time>2019-10-06T09:22:18.000Z</time>
      </trkpt>
      <trkpt lat="43.50792" lon="1.41121">
        <ele>73.91</ele>
        <time>2019-10-06T09:22:20.000Z</time>
      </trkpt>
      <trkpt lat="43.50785" lon="1.41138">
        <ele>74.07</ele>
        <time>2019-10-06T09:22:23.000Z</time>
      </trkpt>
      <trkpt lat="43.50778" lon="1.41156">
        <ele>74.05</ele>
        <time>2019-10-06T09:22:26.000Z</time>
      </trkpt>
      <trkpt lat="43.50771" lon="1.41173">
        <ele>73.69</ele>
        <time>2019-10-06T09:22:29.000Z</time>
      </trkpt>
      <trkpt lat="43.50767" lon="1.41186">
        <ele>73.69</ele>
        <time>2019-10-06T09:22:31.000Z</time>
      </trkpt>
      <trkpt lat="43.50763" lon="1.41197">
        <ele>73.48</ele>
        <time>2019-10-06T09:22:33.000Z</time>
      </trkpt>
      <trkpt lat="43.50757" lon="1.41213">
        <ele>74.23</ele>
        <time>2019-10-06T09:22:36.000Z</time>
      </trkpt>
      <trkpt lat="43.5075" lon="1.41229">
        <ele>74.67</ele>
        <time>2019-10-06T09:22:39.000Z</time>
      </trkpt>
      <trkpt lat="43.50746" lon="1.4124">
        <ele>74.71</ele>
        <time>2019-10-06T09:22:41.000Z</time>
      </trkpt>
      <trkpt lat="43.50741" lon="1.41252">
        <ele>74</ele>
        <time>2019-10-06T09:22:43.000Z</time>
      </trkpt>
      <trkpt lat="43.50736" lon="1.41262">
        <ele>74</ele>
        <time>2019-10-06T09:22:45.000Z</time>
      </trkpt>
      <trkpt lat="43.50728" lon="1.41281">
        <ele>74.53</ele>
        <time>2019-10-06T09:22:49.000Z</time>
      </trkpt>
      <trkpt lat="43.50724" lon="1.41296">
        <ele>75.13</ele>
        <time>2019-10-06T09:22:54.000Z</time>
      </trkpt>
      <trkpt lat="43.5072" lon="1.41307">
        <ele>75.25</ele>
        <time>2019-10-06T09:22:59.000Z</time>
      </trkpt>
      <trkpt lat="43.50715" lon="1.41322">
        <ele>75.1</ele>
        <time>2019-10-06T09:24:16.000Z</time>
      </trkpt>
      <trkpt lat="43.5071" lon="1.41334">
        <ele>74.83</ele>
        <time>2019-10-06T09:24:20.000Z</time>
      </trkpt>
      <trkpt lat="43.50702" lon="1.41345">
        <ele>75.34</ele>
        <time>2019-10-06T09:24:24.000Z</time>
      </trkpt>
      <trkpt lat="43.50696" lon="1.41356">
        <ele>75.71</ele>
        <time>2019-10-06T09:24:28.000Z</time>
      </trkpt>
      <trkpt lat="43.50705" lon="1.41376">
        <ele>75.54</ele>
        <time>2019-10-06T09:24:33.000Z</time>
      </trkpt>
      <trkpt lat="43.5071" lon="1.41392">
        <ele>75.51</ele>
        <time>2019-10-06T09:24:34.000Z</time>
      </trkpt>
      <trkpt lat="43.50716" lon="1.41408">
        <ele>75.61</ele>
        <time>2019-10-06T09:24:36.000Z</time>
      </trkpt>
      <trkpt lat="43.50721" lon="1.41422">
        <ele>75.77</ele>
        <time>2019-10-06T09:24:38.000Z</time>
      </trkpt>
      <trkpt lat="43.50731" lon="1.41441">
        <ele>75.7</ele>
        <time>2019-10-06T09:24:42.000Z</time>
      </trkpt>
      <trkpt lat="43.50738" lon="1.41452">
        <ele>75.9</ele>
        <time>2019-10-06T09:24:45.000Z</time>
      </trkpt>
      <trkpt lat="43.50729" lon="1.41453">
        <ele>75.55</ele>
        <time>2019-10-06T09:24:51.000Z</time>
      </trkpt>
      <trkpt lat="43.5072" lon="1.41453">
        <ele>75.52</ele>
        <time>2019-10-06T09:24:54.000Z</time>
      </trkpt>
      <trkpt lat="43.50711" lon="1.41463">
        <ele>75.24</ele>
        <time>2019-10-06T09:24:57.000Z</time>
      </trkpt>
      <trkpt lat="43.50702" lon="1.41472">
        <ele>75.22</ele>
        <time>2019-10-06T09:25:00.000Z</time>
      </trkpt>
      <trkpt lat="43.50686" lon="1.41488">
        <ele>75.67</ele>
        <time>2019-10-06T09:25:03.000Z</time>
      </trkpt>
      <trkpt lat="43.50677" lon="1.41496">
        <ele>75.67</ele>
        <time>2019-10-06T09:25:05.000Z</time>
      </trkpt>
      <trkpt lat="43.5067" lon="1.41505">
        <ele>75.94</ele>
        <time>2019-10-06T09:25:07.000Z</time>
      </trkpt>
      <trkpt lat="43.50663" lon="1.41513">
        <ele>76.15</ele>
        <time>2019-10-06T09:25:09.000Z</time>
      </trkpt>
      <trkpt lat="43.50656" lon="1.41521">
        <ele>76.28</ele>
        <time>2019-10-06T09:25:11.000Z</time>
      </trkpt>
      <trkpt lat="43.50649" lon="1.4153">
        <ele>76.48</ele>
        <time>2019-10-06T09:25:13.000Z</time>
      </trkpt>
      <trkpt lat="43.50641" lon="1.41546">
        <ele>77.43</ele>
        <time>2019-10-06T09:25:17.000Z</time>
      </trkpt>
      <trkpt lat="43.50634" lon="1.41563">
        <ele>78.58</ele>
        <time>2019-10-06T09:25:21.000Z</time>
      </trkpt>
      <trkpt lat="43.5063" lon="1.41575">
        <ele>79.41</ele>
        <time>2019-10-06T09:25:24.000Z</time>
      </trkpt>
      <trkpt lat="43.50623" lon="1.41588">
        <ele>80.79</ele>
        <time>2019-10-06T09:25:28.000Z</time>
      </trkpt>
      <trkpt lat="43.50618" lon="1.416">
        <ele>81.74</ele>
        <time>2019-10-06T09:25:31.000Z</time>
      </trkpt>
      <trkpt lat="43.50614" lon="1.41617">
        <ele>82.45</ele>
        <time>2019-10-06T09:25:35.000Z</time>
      </trkpt>
      <trkpt lat="43.5061" lon="1.41635">
        <ele>83.1</ele>
        <time>2019-10-06T09:25:39.000Z</time>
      </trkpt>
      <trkpt lat="43.50606" lon="1.41655">
        <ele>83.88</ele>
        <time>2019-10-06T09:25:43.000Z</time>
      </trkpt>
      <trkpt lat="43.50602" lon="1.41675">
        <ele>84.58</ele>
        <time>2019-10-06T09:25:47.000Z</time>
      </trkpt>
      <trkpt lat="43.50599" lon="1.41692">
        <ele>84.95</ele>
        <time>2019-10-06T09:25:50.000Z</time>
      </trkpt>
      <trkpt lat="43.50594" lon="1.41716">
        <ele>85.7</ele>
        <time>2019-10-06T09:25:54.000Z</time>
      </trkpt>
      <trkpt lat="43.50591" lon="1.41728">
        <ele>86.49</ele>
        <time>2019-10-06T09:25:56.000Z</time>
      </trkpt>
      <trkpt lat="43.50588" lon="1.4175">
        <ele>88.13</ele>
        <time>2019-10-06T09:26:00.000Z</time>
      </trkpt>
      <trkpt lat="43.50586" lon="1.41766">
        <ele>88.83</ele>
        <time>2019-10-06T09:26:03.000Z</time>
      </trkpt>
      <trkpt lat="43.50582" lon="1.41788">
        <ele>89.07</ele>
        <time>2019-10-06T09:26:07.000Z</time>
      </trkpt>
      <trkpt lat="43.5058" lon="1.41807">
        <ele>88.98</ele>
        <time>2019-10-06T09:26:10.000Z</time>
      </trkpt>
      <trkpt lat="43.50578" lon="1.41821">
        <ele>88.57</ele>
        <time>2019-10-06T09:26:12.000Z</time>
      </trkpt>
      <trkpt lat="43.50575" lon="1.41838">
        <ele>88.54</ele>
        <time>2019-10-06T09:26:14.000Z</time>
      </trkpt>
      <trkpt lat="43.50574" lon="1.41853">
        <ele>88.04</ele>
        <time>2019-10-06T09:26:16.000Z</time>
      </trkpt>
      <trkpt lat="43.50573" lon="1.41869">
        <ele>87.64</ele>
        <time>2019-10-06T09:26:18.000Z</time>
      </trkpt>
      <trkpt lat="43.50567" lon="1.41891">
        <ele>86.91</ele>
        <time>2019-10-06T09:26:21.000Z</time>
      </trkpt>
      <trkpt lat="43.50561" lon="1.41904">
        <ele>86.4</ele>
        <time>2019-10-06T09:26:23.000Z</time>
      </trkpt>
      <trkpt lat="43.50555" lon="1.41918">
        <ele>85.82</ele>
        <time>2019-10-06T09:26:25.000Z</time>
      </trkpt>
      <trkpt lat="43.50547" lon="1.41937">
        <ele>85.19</ele>
        <time>2019-10-06T09:26:28.000Z</time>
      </trkpt>
      <trkpt lat="43.50542" lon="1.41949">
        <ele>85.19</ele>
        <time>2019-10-06T09:26:30.000Z</time>
      </trkpt>
      <trkpt lat="43.50537" lon="1.41961">
        <ele>86.64</ele>
        <time>2019-10-06T09:26:32.000Z</time>
      </trkpt>
      <trkpt lat="43.50532" lon="1.41972">
        <ele>86.57</ele>
        <time>2019-10-06T09:26:34.000Z</time>
      </trkpt>
      <trkpt lat="43.50523" lon="1.41989">
        <ele>87.05</ele>
        <time>2019-10-06T09:26:37.000Z</time>
      </trkpt>
      <trkpt lat="43.50518" lon="1.42">
        <ele>87.39</ele>
        <time>2019-10-06T09:26:39.000Z</time>
      </trkpt>
      <trkpt lat="43.50511" lon="1.42017">
        <ele>87.63</ele>
        <time>2019-10-06T09:26:42.000Z</time>
      </trkpt>
      <trkpt lat="43.50504" lon="1.42032">
        <ele>87.63</ele>
        <time>2019-10-06T09:26:45.000Z</time>
      </trkpt>
      <trkpt lat="43.50495" lon="1.4205">
        <ele>90.41</ele>
        <time>2019-10-06T09:26:49.000Z</time>
      </trkpt>
      <trkpt lat="43.50486" lon="1.42069">
        <ele>92.53</ele>
        <time>2019-10-06T09:26:53.000Z</time>
      </trkpt>
      <trkpt lat="43.50478" lon="1.42083">
        <ele>92.53</ele>
        <time>2019-10-06T09:26:56.000Z</time>
      </trkpt>
      <trkpt lat="43.5047" lon="1.42098">
        <ele>92.42</ele>
        <time>2019-10-06T09:26:59.000Z</time>
      </trkpt>
      <trkpt lat="43.50462" lon="1.42111">
        <ele>93.17</ele>
        <time>2019-10-06T09:27:02.000Z</time>
      </trkpt>
      <trkpt lat="43.50451" lon="1.42129">
        <ele>94.17</ele>
        <time>2019-10-06T09:27:06.000Z</time>
      </trkpt>
      <trkpt lat="43.50444" lon="1.42142">
        <ele>94.53</ele>
        <time>2019-10-06T09:27:09.000Z</time>
      </trkpt>
      <trkpt lat="43.50438" lon="1.42153">
        <ele>95.28</ele>
        <time>2019-10-06T09:27:11.000Z</time>
      </trkpt>
      <trkpt lat="43.50432" lon="1.42163">
        <ele>96.68</ele>
        <time>2019-10-06T09:27:13.000Z</time>
      </trkpt>
      <trkpt lat="43.50425" lon="1.42173">
        <ele>96.52</ele>
        <time>2019-10-06T09:27:15.000Z</time>
      </trkpt>
      <trkpt lat="43.50418" lon="1.42181">
        <ele>96.05</ele>
        <time>2019-10-06T09:27:17.000Z</time>
      </trkpt>
      <trkpt lat="43.50412" lon="1.42192">
        <ele>95.96</ele>
        <time>2019-10-06T09:27:19.000Z</time>
      </trkpt>
      <trkpt lat="43.50405" lon="1.42203">
        <ele>95.96</ele>
        <time>2019-10-06T09:27:21.000Z</time>
      </trkpt>
      <trkpt lat="43.50397" lon="1.42214">
        <ele>95.45</ele>
        <time>2019-10-06T09:27:23.000Z</time>
      </trkpt>
      <trkpt lat="43.50388" lon="1.42226">
        <ele>94.17</ele>
        <time>2019-10-06T09:27:25.000Z</time>
      </trkpt>
      <trkpt lat="43.50379" lon="1.42237">
        <ele>93.58</ele>
        <time>2019-10-06T09:27:27.000Z</time>
      </trkpt>
      <trkpt lat="43.50366" lon="1.42252">
        <ele>92.16</ele>
        <time>2019-10-06T09:27:30.000Z</time>
      </trkpt>
      <trkpt lat="43.50358" lon="1.42262">
        <ele>92.16</ele>
        <time>2019-10-06T09:27:32.000Z</time>
      </trkpt>
      <trkpt lat="43.50349" lon="1.42272">
        <ele>92.16</ele>
        <time>2019-10-06T09:27:34.000Z</time>
      </trkpt>
      <trkpt lat="43.50337" lon="1.42288">
        <ele>91.79</ele>
        <time>2019-10-06T09:27:37.000Z</time>
      </trkpt>
      <trkpt lat="43.50328" lon="1.42299">
        <ele>91.08</ele>
        <time>2019-10-06T09:27:39.000Z</time>
      </trkpt>
      <trkpt lat="43.5032" lon="1.42309">
        <ele>91.08</ele>
        <time>2019-10-06T09:27:41.000Z</time>
      </trkpt>
      <trkpt lat="43.50306" lon="1.42322">
        <ele>91.66</ele>
        <time>2019-10-06T09:27:44.000Z</time>
      </trkpt>
      <trkpt lat="43.50292" lon="1.42336">
        <ele>91.53</ele>
        <time>2019-10-06T09:27:47.000Z</time>
      </trkpt>
      <trkpt lat="43.50275" lon="1.42349">
        <ele>91.53</ele>
        <time>2019-10-06T09:27:50.000Z</time>
      </trkpt>
      <trkpt lat="43.50255" lon="1.42364">
        <ele>91.45</ele>
        <time>2019-10-06T09:27:53.000Z</time>
      </trkpt>
      <trkpt lat="43.50241" lon="1.42372">
        <ele>90.12</ele>
        <time>2019-10-06T09:27:55.000Z</time>
      </trkpt>
      <trkpt lat="43.50227" lon="1.4238">
        <ele>89.36</ele>
        <time>2019-10-06T09:27:57.000Z</time>
      </trkpt>
      <trkpt lat="43.50214" lon="1.42389">
        <ele>89.13</ele>
        <time>2019-10-06T09:27:59.000Z</time>
      </trkpt>
      <trkpt lat="43.50201" lon="1.42401">
        <ele>88.64</ele>
        <time>2019-10-06T09:28:01.000Z</time>
      </trkpt>
      <trkpt lat="43.5019" lon="1.42412">
        <ele>88.39</ele>
        <time>2019-10-06T09:28:03.000Z</time>
      </trkpt>
      <trkpt lat="43.50179" lon="1.42422">
        <ele>87.56</ele>
        <time>2019-10-06T09:28:05.000Z</time>
      </trkpt>
      <trkpt lat="43.50168" lon="1.42434">
        <ele>87.01</ele>
        <time>2019-10-06T09:28:07.000Z</time>
      </trkpt>
      <trkpt lat="43.5015" lon="1.42452">
        <ele>87.01</ele>
        <time>2019-10-06T09:28:10.000Z</time>
      </trkpt>
      <trkpt lat="43.50137" lon="1.42463">
        <ele>86.41</ele>
        <time>2019-10-06T09:28:12.000Z</time>
      </trkpt>
      <trkpt lat="43.50124" lon="1.42473">
        <ele>85</ele>
        <time>2019-10-06T09:28:14.000Z</time>
      </trkpt>
      <trkpt lat="43.50111" lon="1.42483">
        <ele>85</ele>
        <time>2019-10-06T09:28:16.000Z</time>
      </trkpt>
      <trkpt lat="43.50098" lon="1.42491">
        <ele>85</ele>
        <time>2019-10-06T09:28:18.000Z</time>
      </trkpt>
      <trkpt lat="43.50085" lon="1.42497">
        <ele>85.14</ele>
        <time>2019-10-06T09:28:20.000Z</time>
      </trkpt>
      <trkpt lat="43.50073" lon="1.42505">
        <ele>84.46</ele>
        <time>2019-10-06T09:28:22.000Z</time>
      </trkpt>
      <trkpt lat="43.50062" lon="1.42513">
        <ele>84.58</ele>
        <time>2019-10-06T09:28:24.000Z</time>
      </trkpt>
      <trkpt lat="43.50052" lon="1.42521">
        <ele>84.64</ele>
        <time>2019-10-06T09:28:26.000Z</time>
      </trkpt>
      <trkpt lat="43.50042" lon="1.4253">
        <ele>84.64</ele>
        <time>2019-10-06T09:28:28.000Z</time>
      </trkpt>
      <trkpt lat="43.50031" lon="1.42537">
        <ele>85.45</ele>
        <time>2019-10-06T09:28:30.000Z</time>
      </trkpt>
      <trkpt lat="43.50016" lon="1.42545">
        <ele>85.9</ele>
        <time>2019-10-06T09:28:33.000Z</time>
      </trkpt>
      <trkpt lat="43.50007" lon="1.42552">
        <ele>86.86</ele>
        <time>2019-10-06T09:28:35.000Z</time>
      </trkpt>
      <trkpt lat="43.49999" lon="1.42571">
        <ele>87.18</ele>
        <time>2019-10-06T09:28:38.000Z</time>
      </trkpt>
      <trkpt lat="43.49993" lon="1.42592">
        <ele>87.18</ele>
        <time>2019-10-06T09:28:41.000Z</time>
      </trkpt>
      <trkpt lat="43.49983" lon="1.42614">
        <ele>86.09</ele>
        <time>2019-10-06T09:28:44.000Z</time>
      </trkpt>
      <trkpt lat="43.49978" lon="1.42625">
        <ele>85.97</ele>
        <time>2019-10-06T09:28:47.000Z</time>
      </trkpt>
      <trkpt lat="43.49987" lon="1.42635">
        <ele>84.64</ele>
        <time>2019-10-06T09:28:51.000Z</time>
      </trkpt>
      <trkpt lat="43.49997" lon="1.42635">
        <ele>85.17</ele>
        <time>2019-10-06T09:28:53.000Z</time>
      </trkpt>
      <trkpt lat="43.50012" lon="1.42637">
        <ele>85.35</ele>
        <time>2019-10-06T09:28:56.000Z</time>
      </trkpt>
      <trkpt lat="43.50022" lon="1.42639">
        <ele>85.8</ele>
        <time>2019-10-06T09:28:58.000Z</time>
      </trkpt>
      <trkpt lat="43.50037" lon="1.4264">
        <ele>86.16</ele>
        <time>2019-10-06T09:29:01.000Z</time>
      </trkpt>
      <trkpt lat="43.50053" lon="1.42643">
        <ele>86.16</ele>
        <time>2019-10-06T09:29:04.000Z</time>
      </trkpt>
      <trkpt lat="43.50069" lon="1.42651">
        <ele>85.93</ele>
        <time>2019-10-06T09:29:07.000Z</time>
      </trkpt>
      <trkpt lat="43.50078" lon="1.42658">
        <ele>86.18</ele>
        <time>2019-10-06T09:29:09.000Z</time>
      </trkpt>
      <trkpt lat="43.5009" lon="1.42671">
        <ele>86.34</ele>
        <time>2019-10-06T09:29:12.000Z</time>
      </trkpt>
      <trkpt lat="43.50099" lon="1.42683">
        <ele>86.19</ele>
        <time>2019-10-06T09:29:14.000Z</time>
      </trkpt>
      <trkpt lat="43.50107" lon="1.42696">
        <ele>86.19</ele>
        <time>2019-10-06T09:29:16.000Z</time>
      </trkpt>
      <trkpt lat="43.50119" lon="1.42714">
        <ele>86.08</ele>
        <time>2019-10-06T09:29:19.000Z</time>
      </trkpt>
      <trkpt lat="43.50126" lon="1.42727">
        <ele>85.85</ele>
        <time>2019-10-06T09:29:21.000Z</time>
      </trkpt>
      <trkpt lat="43.50136" lon="1.42745">
        <ele>85.72</ele>
        <time>2019-10-06T09:29:24.000Z</time>
      </trkpt>
      <trkpt lat="43.50143" lon="1.42757">
        <ele>86</ele>
        <time>2019-10-06T09:29:26.000Z</time>
      </trkpt>
      <trkpt lat="43.5015" lon="1.4277">
        <ele>86.27</ele>
        <time>2019-10-06T09:29:28.000Z</time>
      </trkpt>
      <trkpt lat="43.50158" lon="1.42784">
        <ele>86.33</ele>
        <time>2019-10-06T09:29:30.000Z</time>
      </trkpt>
      <trkpt lat="43.50164" lon="1.42797">
        <ele>86.38</ele>
        <time>2019-10-06T09:29:32.000Z</time>
      </trkpt>
      <trkpt lat="43.50172" lon="1.42809">
        <ele>86.5</ele>
        <time>2019-10-06T09:29:34.000Z</time>
      </trkpt>
      <trkpt lat="43.50179" lon="1.42822">
        <ele>86.68</ele>
        <time>2019-10-06T09:29:36.000Z</time>
      </trkpt>
      <trkpt lat="43.50185" lon="1.42836">
        <ele>87.07</ele>
        <time>2019-10-06T09:29:38.000Z</time>
      </trkpt>
      <trkpt lat="43.5019" lon="1.4285">
        <ele>87.51</ele>
        <time>2019-10-06T09:29:40.000Z</time>
      </trkpt>
      <trkpt lat="43.50195" lon="1.42871">
        <ele>88.17</ele>
        <time>2019-10-06T09:29:43.000Z</time>
      </trkpt>
      <trkpt lat="43.50197" lon="1.42892">
        <ele>88.7</ele>
        <time>2019-10-06T09:29:46.000Z</time>
      </trkpt>
      <trkpt lat="43.50198" lon="1.42906">
        <ele>89.08</ele>
        <time>2019-10-06T09:29:48.000Z</time>
      </trkpt>
      <trkpt lat="43.502" lon="1.42928">
        <ele>89.59</ele>
        <time>2019-10-06T09:29:51.000Z</time>
      </trkpt>
      <trkpt lat="43.50201" lon="1.42951">
        <ele>89.92</ele>
        <time>2019-10-06T09:29:54.000Z</time>
      </trkpt>
      <trkpt lat="43.50203" lon="1.42974">
        <ele>90.45</ele>
        <time>2019-10-06T09:29:57.000Z</time>
      </trkpt>
      <trkpt lat="43.50204" lon="1.42989">
        <ele>90.61</ele>
        <time>2019-10-06T09:29:59.000Z</time>
      </trkpt>
      <trkpt lat="43.50205" lon="1.43013">
        <ele>90.44</ele>
        <time>2019-10-06T09:30:02.000Z</time>
      </trkpt>
      <trkpt lat="43.50206" lon="1.43029">
        <ele>90.23</ele>
        <time>2019-10-06T09:30:04.000Z</time>
      </trkpt>
      <trkpt lat="43.50206" lon="1.43045">
        <ele>90.52</ele>
        <time>2019-10-06T09:30:06.000Z</time>
      </trkpt>
      <trkpt lat="43.50207" lon="1.43062">
        <ele>90.71</ele>
        <time>2019-10-06T09:30:08.000Z</time>
      </trkpt>
      <trkpt lat="43.50208" lon="1.4308">
        <ele>90.91</ele>
        <time>2019-10-06T09:30:10.000Z</time>
      </trkpt>
      <trkpt lat="43.5021" lon="1.43108">
        <ele>90.83</ele>
        <time>2019-10-06T09:30:13.000Z</time>
      </trkpt>
      <trkpt lat="43.50211" lon="1.43127">
        <ele>90.95</ele>
        <time>2019-10-06T09:30:15.000Z</time>
      </trkpt>
      <trkpt lat="43.50212" lon="1.43145">
        <ele>91.19</ele>
        <time>2019-10-06T09:30:17.000Z</time>
      </trkpt>
      <trkpt lat="43.50214" lon="1.43173">
        <ele>91.61</ele>
        <time>2019-10-06T09:30:20.000Z</time>
      </trkpt>
      <trkpt lat="43.50217" lon="1.432">
        <ele>91.96</ele>
        <time>2019-10-06T09:30:23.000Z</time>
      </trkpt>
      <trkpt lat="43.50218" lon="1.43219">
        <ele>92.24</ele>
        <time>2019-10-06T09:30:25.000Z</time>
      </trkpt>
      <trkpt lat="43.50219" lon="1.43237">
        <ele>92.79</ele>
        <time>2019-10-06T09:30:27.000Z</time>
      </trkpt>
      <trkpt lat="43.5022" lon="1.43255">
        <ele>93.35</ele>
        <time>2019-10-06T09:30:29.000Z</time>
      </trkpt>
      <trkpt lat="43.50221" lon="1.43274">
        <ele>93.95</ele>
        <time>2019-10-06T09:30:31.000Z</time>
      </trkpt>
      <trkpt lat="43.50223" lon="1.43301">
        <ele>94.43</ele>
        <time>2019-10-06T09:30:34.000Z</time>
      </trkpt>
      <trkpt lat="43.50225" lon="1.43329">
        <ele>94.67</ele>
        <time>2019-10-06T09:30:37.000Z</time>
      </trkpt>
      <trkpt lat="43.50226" lon="1.43348">
        <ele>95.03</ele>
        <time>2019-10-06T09:30:39.000Z</time>
      </trkpt>
      <trkpt lat="43.50227" lon="1.43366">
        <ele>95.41</ele>
        <time>2019-10-06T09:30:41.000Z</time>
      </trkpt>
      <trkpt lat="43.50228" lon="1.43382">
        <ele>95.7</ele>
        <time>2019-10-06T09:30:43.000Z</time>
      </trkpt>
      <trkpt lat="43.50229" lon="1.43398">
        <ele>95.72</ele>
        <time>2019-10-06T09:30:45.000Z</time>
      </trkpt>
      <trkpt lat="43.50229" lon="1.43413">
        <ele>95.71</ele>
        <time>2019-10-06T09:30:47.000Z</time>
      </trkpt>
      <trkpt lat="43.50218" lon="1.43431">
        <ele>95.68</ele>
        <time>2019-10-06T09:30:50.000Z</time>
      </trkpt>
      <trkpt lat="43.50206" lon="1.43444">
        <ele>94.87</ele>
        <time>2019-10-06T09:30:52.000Z</time>
      </trkpt>
      <trkpt lat="43.50194" lon="1.4346">
        <ele>92.11</ele>
        <time>2019-10-06T09:30:54.000Z</time>
      </trkpt>
      <trkpt lat="43.50182" lon="1.43477">
        <ele>92.11</ele>
        <time>2019-10-06T09:30:56.000Z</time>
      </trkpt>
      <trkpt lat="43.50171" lon="1.43493">
        <ele>92.11</ele>
        <time>2019-10-06T09:30:58.000Z</time>
      </trkpt>
      <trkpt lat="43.50157" lon="1.43514">
        <ele>90.7</ele>
        <time>2019-10-06T09:31:01.000Z</time>
      </trkpt>
      <trkpt lat="43.50152" lon="1.43525">
        <ele>89.74</ele>
        <time>2019-10-06T09:31:05.000Z</time>
      </trkpt>
      <trkpt lat="43.50157" lon="1.43536">
        <ele>88.64</ele>
        <time>2019-10-06T09:31:09.000Z</time>
      </trkpt>
      <trkpt lat="43.50167" lon="1.43539">
        <ele>88.83</ele>
        <time>2019-10-06T09:31:13.000Z</time>
      </trkpt>
      <trkpt lat="43.50174" lon="1.43548">
        <ele>88.83</ele>
        <time>2019-10-06T09:31:15.000Z</time>
      </trkpt>
      <trkpt lat="43.50183" lon="1.43555">
        <ele>91.86</ele>
        <time>2019-10-06T09:31:17.000Z</time>
      </trkpt>
      <trkpt lat="43.50193" lon="1.43562">
        <ele>92.33</ele>
        <time>2019-10-06T09:31:19.000Z</time>
      </trkpt>
      <trkpt lat="43.50202" lon="1.43573">
        <ele>92.77</ele>
        <time>2019-10-06T09:31:22.000Z</time>
      </trkpt>
      <trkpt lat="43.502" lon="1.43592">
        <ele>92.77</ele>
        <time>2019-10-06T09:31:25.000Z</time>
      </trkpt>
      <trkpt lat="43.50197" lon="1.43606">
        <ele>93.76</ele>
        <time>2019-10-06T09:31:27.000Z</time>
      </trkpt>
      <trkpt lat="43.50194" lon="1.43622">
        <ele>93.32</ele>
        <time>2019-10-06T09:31:29.000Z</time>
      </trkpt>
      <trkpt lat="43.50191" lon="1.4364">
        <ele>92.99</ele>
        <time>2019-10-06T09:31:31.000Z</time>
      </trkpt>
      <trkpt lat="43.50189" lon="1.43654">
        <ele>92.75</ele>
        <time>2019-10-06T09:31:33.000Z</time>
      </trkpt>
      <trkpt lat="43.50186" lon="1.43668">
        <ele>92.89</ele>
        <time>2019-10-06T09:31:35.000Z</time>
      </trkpt>
      <trkpt lat="43.50183" lon="1.43684">
        <ele>93.72</ele>
        <time>2019-10-06T09:31:37.000Z</time>
      </trkpt>
      <trkpt lat="43.5018" lon="1.437">
        <ele>94.42</ele>
        <time>2019-10-06T09:31:39.000Z</time>
      </trkpt>
      <trkpt lat="43.50178" lon="1.43715">
        <ele>94.58</ele>
        <time>2019-10-06T09:31:41.000Z</time>
      </trkpt>
      <trkpt lat="43.50175" lon="1.43728">
        <ele>94.38</ele>
        <time>2019-10-06T09:31:43.000Z</time>
      </trkpt>
      <trkpt lat="43.50169" lon="1.43751">
        <ele>94.38</ele>
        <time>2019-10-06T09:31:47.000Z</time>
      </trkpt>
      <trkpt lat="43.50168" lon="1.43766">
        <ele>93.83</ele>
        <time>2019-10-06T09:31:50.000Z</time>
      </trkpt>
      <trkpt lat="43.50166" lon="1.43779">
        <ele>93.83</ele>
        <time>2019-10-06T09:31:52.000Z</time>
      </trkpt>
      <trkpt lat="43.50165" lon="1.43793">
        <ele>93.36</ele>
        <time>2019-10-06T09:31:54.000Z</time>
      </trkpt>
      <trkpt lat="43.50163" lon="1.43808">
        <ele>93.36</ele>
        <time>2019-10-06T09:31:56.000Z</time>
      </trkpt>
      <trkpt lat="43.50161" lon="1.43822">
        <ele>93.32</ele>
        <time>2019-10-06T09:31:58.000Z</time>
      </trkpt>
      <trkpt lat="43.50159" lon="1.43837">
        <ele>93.04</ele>
        <time>2019-10-06T09:32:00.000Z</time>
      </trkpt>
      <trkpt lat="43.50156" lon="1.43853">
        <ele>93.27</ele>
        <time>2019-10-06T09:32:02.000Z</time>
      </trkpt>
      <trkpt lat="43.50153" lon="1.43868">
        <ele>93.53</ele>
        <time>2019-10-06T09:32:04.000Z</time>
      </trkpt>
      <trkpt lat="43.50149" lon="1.4389">
        <ele>93.22</ele>
        <time>2019-10-06T09:32:07.000Z</time>
      </trkpt>
      <trkpt lat="43.50147" lon="1.43904">
        <ele>93.4</ele>
        <time>2019-10-06T09:32:09.000Z</time>
      </trkpt>
      <trkpt lat="43.50145" lon="1.43918">
        <ele>93.51</ele>
        <time>2019-10-06T09:32:11.000Z</time>
      </trkpt>
      <trkpt lat="43.50145" lon="1.43933">
        <ele>93.72</ele>
        <time>2019-10-06T09:32:13.000Z</time>
      </trkpt>
      <trkpt lat="43.50144" lon="1.43949">
        <ele>92.83</ele>
        <time>2019-10-06T09:32:15.000Z</time>
      </trkpt>
      <trkpt lat="43.50143" lon="1.43965">
        <ele>92.61</ele>
        <time>2019-10-06T09:32:17.000Z</time>
      </trkpt>
      <trkpt lat="43.50142" lon="1.43979">
        <ele>92.67</ele>
        <time>2019-10-06T09:32:19.000Z</time>
      </trkpt>
      <trkpt lat="43.50141" lon="1.43994">
        <ele>92.67</ele>
        <time>2019-10-06T09:32:21.000Z</time>
      </trkpt>
      <trkpt lat="43.50141" lon="1.44009">
        <ele>92.59</ele>
        <time>2019-10-06T09:32:23.000Z</time>
      </trkpt>
      <trkpt lat="43.5014" lon="1.44023">
        <ele>92.59</ele>
        <time>2019-10-06T09:32:25.000Z</time>
      </trkpt>
      <trkpt lat="43.50142" lon="1.44037">
        <ele>92.97</ele>
        <time>2019-10-06T09:32:27.000Z</time>
      </trkpt>
      <trkpt lat="43.5014" lon="1.4405">
        <ele>93.73</ele>
        <time>2019-10-06T09:32:29.000Z</time>
      </trkpt>
      <trkpt lat="43.50138" lon="1.44063">
        <ele>94.92</ele>
        <time>2019-10-06T09:32:31.000Z</time>
      </trkpt>
      <trkpt lat="43.50135" lon="1.44083">
        <ele>94.51</ele>
        <time>2019-10-06T09:32:33.000Z</time>
      </trkpt>
      <trkpt lat="43.50136" lon="1.44097">
        <ele>94.01</ele>
        <time>2019-10-06T09:32:36.000Z</time>
      </trkpt>
      <trkpt lat="43.50136" lon="1.44112">
        <ele>93.55</ele>
        <time>2019-10-06T09:32:38.000Z</time>
      </trkpt>
      <trkpt lat="43.50136" lon="1.44127">
        <ele>93.05</ele>
        <time>2019-10-06T09:32:40.000Z</time>
      </trkpt>
      <trkpt lat="43.50135" lon="1.44141">
        <ele>93.05</ele>
        <time>2019-10-06T09:32:42.000Z</time>
      </trkpt>
      <trkpt lat="43.50134" lon="1.44156">
        <ele>93.05</ele>
        <time>2019-10-06T09:32:44.000Z</time>
      </trkpt>
      <trkpt lat="43.50132" lon="1.4417">
        <ele>93.76</ele>
        <time>2019-10-06T09:32:46.000Z</time>
      </trkpt>
      <trkpt lat="43.50131" lon="1.44183">
        <ele>93.62</ele>
        <time>2019-10-06T09:32:48.000Z</time>
      </trkpt>
      <trkpt lat="43.5013" lon="1.44204">
        <ele>93.62</ele>
        <time>2019-10-06T09:32:50.000Z</time>
      </trkpt>
      <trkpt lat="43.5013" lon="1.44217">
        <ele>95.08</ele>
        <time>2019-10-06T09:32:53.000Z</time>
      </trkpt>
      <trkpt lat="43.5013" lon="1.44236">
        <ele>95.08</ele>
        <time>2019-10-06T09:32:55.000Z</time>
      </trkpt>
      <trkpt lat="43.50131" lon="1.44249">
        <ele>95.23</ele>
        <time>2019-10-06T09:32:58.000Z</time>
      </trkpt>
      <trkpt lat="43.5013" lon="1.44262">
        <ele>95.23</ele>
        <time>2019-10-06T09:32:59.000Z</time>
      </trkpt>
      <trkpt lat="43.5013" lon="1.44275">
        <ele>95.52</ele>
        <time>2019-10-06T09:33:01.000Z</time>
      </trkpt>
      <trkpt lat="43.5013" lon="1.44296">
        <ele>96.22</ele>
        <time>2019-10-06T09:33:04.000Z</time>
      </trkpt>
      <trkpt lat="43.50129" lon="1.44317">
        <ele>96.55</ele>
        <time>2019-10-06T09:33:07.000Z</time>
      </trkpt>
      <trkpt lat="43.50127" lon="1.44331">
        <ele>97.45</ele>
        <time>2019-10-06T09:33:09.000Z</time>
      </trkpt>
      <trkpt lat="43.50126" lon="1.44345">
        <ele>98.37</ele>
        <time>2019-10-06T09:33:11.000Z</time>
      </trkpt>
      <trkpt lat="43.50125" lon="1.44359">
        <ele>98.81</ele>
        <time>2019-10-06T09:33:13.000Z</time>
      </trkpt>
      <trkpt lat="43.50125" lon="1.44374">
        <ele>99.19</ele>
        <time>2019-10-06T09:33:15.000Z</time>
      </trkpt>
      <trkpt lat="43.50124" lon="1.44396">
        <ele>98.66</ele>
        <time>2019-10-06T09:33:18.000Z</time>
      </trkpt>
      <trkpt lat="43.50122" lon="1.44412">
        <ele>99.23</ele>
        <time>2019-10-06T09:33:21.000Z</time>
      </trkpt>
      <trkpt lat="43.5012" lon="1.44427">
        <ele>99.25</ele>
        <time>2019-10-06T09:33:22.000Z</time>
      </trkpt>
      <trkpt lat="43.50118" lon="1.4445">
        <ele>99.27</ele>
        <time>2019-10-06T09:33:25.000Z</time>
      </trkpt>
      <trkpt lat="43.50116" lon="1.44464">
        <ele>99.27</ele>
        <time>2019-10-06T09:33:28.000Z</time>
      </trkpt>
      <trkpt lat="43.50114" lon="1.44478">
        <ele>98.93</ele>
        <time>2019-10-06T09:33:29.000Z</time>
      </trkpt>
      <trkpt lat="43.50113" lon="1.44492">
        <ele>98.28</ele>
        <time>2019-10-06T09:33:32.000Z</time>
      </trkpt>
      <trkpt lat="43.50108" lon="1.44516">
        <ele>98.3</ele>
        <time>2019-10-06T09:33:35.000Z</time>
      </trkpt>
      <trkpt lat="43.50105" lon="1.4454">
        <ele>99.38</ele>
        <time>2019-10-06T09:33:39.000Z</time>
      </trkpt>
      <trkpt lat="43.50101" lon="1.44557">
        <ele>100.94</ele>
        <time>2019-10-06T09:33:42.000Z</time>
      </trkpt>
      <trkpt lat="43.50098" lon="1.44575">
        <ele>100.82</ele>
        <time>2019-10-06T09:33:45.000Z</time>
      </trkpt>
      <trkpt lat="43.50096" lon="1.44591">
        <ele>100.65</ele>
        <time>2019-10-06T09:33:48.000Z</time>
      </trkpt>
      <trkpt lat="43.50099" lon="1.44614">
        <ele>100.42</ele>
        <time>2019-10-06T09:33:52.000Z</time>
      </trkpt>
      <trkpt lat="43.50096" lon="1.44634">
        <ele>100.45</ele>
        <time>2019-10-06T09:33:55.000Z</time>
      </trkpt>
      <trkpt lat="43.50094" lon="1.44648">
        <ele>100.68</ele>
        <time>2019-10-06T09:33:57.000Z</time>
      </trkpt>
      <trkpt lat="43.50091" lon="1.44668">
        <ele>100.93</ele>
        <time>2019-10-06T09:34:00.000Z</time>
      </trkpt>
      <trkpt lat="43.50089" lon="1.44687">
        <ele>101.32</ele>
        <time>2019-10-06T09:34:03.000Z</time>
      </trkpt>
      <trkpt lat="43.50086" lon="1.44703">
        <ele>101.28</ele>
        <time>2019-10-06T09:34:06.000Z</time>
      </trkpt>
      <trkpt lat="43.50084" lon="1.44718">
        <ele>101.23</ele>
        <time>2019-10-06T09:34:09.000Z</time>
      </trkpt>
      <trkpt lat="43.50082" lon="1.44731">
        <ele>101.39</ele>
        <time>2019-10-06T09:34:11.000Z</time>
      </trkpt>
      <trkpt lat="43.50081" lon="1.44743">
        <ele>101.29</ele>
        <time>2019-10-06T09:34:13.000Z</time>
      </trkpt>
      <trkpt lat="43.50079" lon="1.44761">
        <ele>101.45</ele>
        <time>2019-10-06T09:34:16.000Z</time>
      </trkpt>
      <trkpt lat="43.50078" lon="1.44779">
        <ele>101.43</ele>
        <time>2019-10-06T09:34:19.000Z</time>
      </trkpt>
      <trkpt lat="43.50077" lon="1.44796">
        <ele>101.2</ele>
        <time>2019-10-06T09:34:22.000Z</time>
      </trkpt>
      <trkpt lat="43.50072" lon="1.44818">
        <ele>101.39</ele>
        <time>2019-10-06T09:34:27.000Z</time>
      </trkpt>
      <trkpt lat="43.5007" lon="1.44835">
        <ele>101.67</ele>
        <time>2019-10-06T09:34:29.000Z</time>
      </trkpt>
      <trkpt lat="43.50068" lon="1.44849">
        <ele>102.48</ele>
        <time>2019-10-06T09:34:33.000Z</time>
      </trkpt>
      <trkpt lat="43.50067" lon="1.44862">
        <ele>102.67</ele>
        <time>2019-10-06T09:34:38.000Z</time>
      </trkpt>
      <trkpt lat="43.50066" lon="1.44878">
        <ele>102.77</ele>
        <time>2019-10-06T09:34:41.000Z</time>
      </trkpt>
      <trkpt lat="43.50064" lon="1.449">
        <ele>102.65</ele>
        <time>2019-10-06T09:34:45.000Z</time>
      </trkpt>
      <trkpt lat="43.50063" lon="1.44918">
        <ele>102.55</ele>
        <time>2019-10-06T09:34:48.000Z</time>
      </trkpt>
      <trkpt lat="43.50063" lon="1.44933">
        <ele>102.81</ele>
        <time>2019-10-06T09:34:51.000Z</time>
      </trkpt>
      <trkpt lat="43.50066" lon="1.44949">
        <ele>102.82</ele>
        <time>2019-10-06T09:34:54.000Z</time>
      </trkpt>
      <trkpt lat="43.50069" lon="1.44961">
        <ele>102.95</ele>
        <time>2019-10-06T09:34:56.000Z</time>
      </trkpt>
      <trkpt lat="43.50071" lon="1.44984">
        <ele>102.81</ele>
        <time>2019-10-06T09:34:59.000Z</time>
      </trkpt>
      <trkpt lat="43.50076" lon="1.45003">
        <ele>102.91</ele>
        <time>2019-10-06T09:35:02.000Z</time>
      </trkpt>
      <trkpt lat="43.50079" lon="1.45026">
        <ele>102.87</ele>
        <time>2019-10-06T09:35:06.000Z</time>
      </trkpt>
      <trkpt lat="43.50082" lon="1.45044">
        <ele>102.96</ele>
        <time>2019-10-06T09:35:09.000Z</time>
      </trkpt>
      <trkpt lat="43.50084" lon="1.45059">
        <ele>103.04</ele>
        <time>2019-10-06T09:35:12.000Z</time>
      </trkpt>
      <trkpt lat="43.50085" lon="1.45074">
        <ele>103.38</ele>
        <time>2019-10-06T09:35:15.000Z</time>
      </trkpt>
      <trkpt lat="43.50087" lon="1.45093">
        <ele>103.91</ele>
        <time>2019-10-06T09:35:19.000Z</time>
      </trkpt>
      <trkpt lat="43.50089" lon="1.45105">
        <ele>105.02</ele>
        <time>2019-10-06T09:35:29.000Z</time>
      </trkpt>
      <trkpt lat="43.50102" lon="1.45103">
        <ele>105.13</ele>
        <time>2019-10-06T09:35:38.000Z</time>
      </trkpt>
      <trkpt lat="43.50111" lon="1.45098">
        <ele>105.78</ele>
        <time>2019-10-06T09:35:42.000Z</time>
      </trkpt>
      <trkpt lat="43.50121" lon="1.45091">
        <ele>106.88</ele>
        <time>2019-10-06T09:35:46.000Z</time>
      </trkpt>
      <trkpt lat="43.5013" lon="1.45082">
        <ele>108.81</ele>
        <time>2019-10-06T09:35:49.000Z</time>
      </trkpt>
      <trkpt lat="43.50138" lon="1.45073">
        <ele>112.51</ele>
        <time>2019-10-06T09:35:53.000Z</time>
      </trkpt>
      <trkpt lat="43.50147" lon="1.45067">
        <ele>112.51</ele>
        <time>2019-10-06T09:35:57.000Z</time>
      </trkpt>
      <trkpt lat="43.50156" lon="1.45058">
        <ele>116.16</ele>
        <time>2019-10-06T09:36:01.000Z</time>
      </trkpt>
      <trkpt lat="43.50165" lon="1.45047">
        <ele>116.92</ele>
        <time>2019-10-06T09:36:06.000Z</time>
      </trkpt>
      <trkpt lat="43.50173" lon="1.45039">
        <ele>119.87</ele>
        <time>2019-10-06T09:36:10.000Z</time>
      </trkpt>
      <trkpt lat="43.50183" lon="1.45032">
        <ele>121.81</ele>
        <time>2019-10-06T09:36:15.000Z</time>
      </trkpt>
      <trkpt lat="43.50194" lon="1.45029">
        <ele>126.36</ele>
        <time>2019-10-06T09:36:21.000Z</time>
      </trkpt>
      <trkpt lat="43.50203" lon="1.45036">
        <ele>131.17</ele>
        <time>2019-10-06T09:36:26.000Z</time>
      </trkpt>
      <trkpt lat="43.50211" lon="1.45044">
        <ele>134.06</ele>
        <time>2019-10-06T09:36:31.000Z</time>
      </trkpt>
      <trkpt lat="43.5022" lon="1.45048">
        <ele>138.33</ele>
        <time>2019-10-06T09:36:41.000Z</time>
      </trkpt>
      <trkpt lat="43.50229" lon="1.45055">
        <ele>142.18</ele>
        <time>2019-10-06T09:36:48.000Z</time>
      </trkpt>
      <trkpt lat="43.50239" lon="1.4506">
        <ele>144.6</ele>
        <time>2019-10-06T09:36:53.000Z</time>
      </trkpt>
      <trkpt lat="43.5025" lon="1.45065">
        <ele>146.9</ele>
        <time>2019-10-06T09:36:59.000Z</time>
      </trkpt>
      <trkpt lat="43.50259" lon="1.45072">
        <ele>151.59</ele>
        <time>2019-10-06T09:37:08.000Z</time>
      </trkpt>
      <trkpt lat="43.50269" lon="1.45078">
        <ele>155.05</ele>
        <time>2019-10-06T09:37:15.000Z</time>
      </trkpt>
      <trkpt lat="43.50278" lon="1.4508">
        <ele>155.16</ele>
        <time>2019-10-06T09:37:17.000Z</time>
      </trkpt>
      <trkpt lat="43.50287" lon="1.45084">
        <ele>156.71</ele>
        <time>2019-10-06T09:37:20.000Z</time>
      </trkpt>
      <trkpt lat="43.50295" lon="1.45094">
        <ele>158.64</ele>
        <time>2019-10-06T09:37:25.000Z</time>
      </trkpt>
      <trkpt lat="43.50307" lon="1.45098">
        <ele>158.92</ele>
        <time>2019-10-06T09:37:30.000Z</time>
      </trkpt>
      <trkpt lat="43.50317" lon="1.45098">
        <ele>158.83</ele>
        <time>2019-10-06T09:37:33.000Z</time>
      </trkpt>
      <trkpt lat="43.50328" lon="1.451">
        <ele>159.69</ele>
        <time>2019-10-06T09:37:37.000Z</time>
      </trkpt>
      <trkpt lat="43.5034" lon="1.45103">
        <ele>159.29</ele>
        <time>2019-10-06T09:37:40.000Z</time>
      </trkpt>
      <trkpt lat="43.5035" lon="1.45105">
        <ele>159.72</ele>
        <time>2019-10-06T09:37:42.000Z</time>
      </trkpt>
      <trkpt lat="43.5036" lon="1.45104">
        <ele>159.72</ele>
        <time>2019-10-06T09:37:45.000Z</time>
      </trkpt>
      <trkpt lat="43.50371" lon="1.45107">
        <ele>159.58</ele>
        <time>2019-10-06T09:37:48.000Z</time>
      </trkpt>
      <trkpt lat="43.5038" lon="1.45112">
        <ele>162.39</ele>
        <time>2019-10-06T09:37:58.000Z</time>
      </trkpt>
      <trkpt lat="43.50391" lon="1.45118">
        <ele>162.5</ele>
        <time>2019-10-06T09:38:03.000Z</time>
      </trkpt>
      <trkpt lat="43.50397" lon="1.45128">
        <ele>162.21</ele>
        <time>2019-10-06T09:38:09.000Z</time>
      </trkpt>
      <trkpt lat="43.50396" lon="1.45141">
        <ele>162.05</ele>
        <time>2019-10-06T09:38:13.000Z</time>
      </trkpt>
      <trkpt lat="43.50401" lon="1.45154">
        <ele>159.53</ele>
        <time>2019-10-06T09:38:16.000Z</time>
      </trkpt>
      <trkpt lat="43.50399" lon="1.45169">
        <ele>157.55</ele>
        <time>2019-10-06T09:38:18.000Z</time>
      </trkpt>
      <trkpt lat="43.504" lon="1.45183">
        <ele>156.18</ele>
        <time>2019-10-06T09:38:21.000Z</time>
      </trkpt>
      <trkpt lat="43.50403" lon="1.45196">
        <ele>154.92</ele>
        <time>2019-10-06T09:38:22.000Z</time>
      </trkpt>
      <trkpt lat="43.50408" lon="1.45211">
        <ele>153.97</ele>
        <time>2019-10-06T09:38:24.000Z</time>
      </trkpt>
      <trkpt lat="43.50414" lon="1.45223">
        <ele>153</ele>
        <time>2019-10-06T09:38:27.000Z</time>
      </trkpt>
      <trkpt lat="43.50421" lon="1.45232">
        <ele>149.9</ele>
        <time>2019-10-06T09:38:30.000Z</time>
      </trkpt>
      <trkpt lat="43.50428" lon="1.45243">
        <ele>142.59</ele>
        <time>2019-10-06T09:38:36.000Z</time>
      </trkpt>
      <trkpt lat="43.50441" lon="1.45256">
        <ele>138.62</ele>
        <time>2019-10-06T09:38:41.000Z</time>
      </trkpt>
      <trkpt lat="43.50451" lon="1.45259">
        <ele>138.6</ele>
        <time>2019-10-06T09:38:43.000Z</time>
      </trkpt>
      <trkpt lat="43.5046" lon="1.45259">
        <ele>138.8</ele>
        <time>2019-10-06T09:38:46.000Z</time>
      </trkpt>
      <trkpt lat="43.50449" lon="1.45259">
        <ele>139.51</ele>
        <time>2019-10-06T09:38:55.000Z</time>
      </trkpt>
      <trkpt lat="43.50436" lon="1.45255">
        <ele>140.64</ele>
        <time>2019-10-06T09:38:59.000Z</time>
      </trkpt>
      <trkpt lat="43.50421" lon="1.4525">
        <ele>141.86</ele>
        <time>2019-10-06T09:39:03.000Z</time>
      </trkpt>
      <trkpt lat="43.50411" lon="1.45245">
        <ele>141.57</ele>
        <time>2019-10-06T09:39:05.000Z</time>
      </trkpt>
      <trkpt lat="43.50398" lon="1.4524">
        <ele>141.96</ele>
        <time>2019-10-06T09:39:07.000Z</time>
      </trkpt>
      <trkpt lat="43.5039" lon="1.4523">
        <ele>141.95</ele>
        <time>2019-10-06T09:39:10.000Z</time>
      </trkpt>
      <trkpt lat="43.50383" lon="1.45222">
        <ele>142.2</ele>
        <time>2019-10-06T09:39:11.000Z</time>
      </trkpt>
      <trkpt lat="43.50373" lon="1.45214">
        <ele>142.14</ele>
        <time>2019-10-06T09:39:13.000Z</time>
      </trkpt>
      <trkpt lat="43.50362" lon="1.45208">
        <ele>141.64</ele>
        <time>2019-10-06T09:39:15.000Z</time>
      </trkpt>
      <trkpt lat="43.50345" lon="1.45216">
        <ele>140.82</ele>
        <time>2019-10-06T09:39:19.000Z</time>
      </trkpt>
      <trkpt lat="43.50335" lon="1.45227">
        <ele>140</ele>
        <time>2019-10-06T09:39:22.000Z</time>
      </trkpt>
      <trkpt lat="43.50324" lon="1.45232">
        <ele>139.31</ele>
        <time>2019-10-06T09:39:24.000Z</time>
      </trkpt>
      <trkpt lat="43.50301" lon="1.45231">
        <ele>139.31</ele>
        <time>2019-10-06T09:39:27.000Z</time>
      </trkpt>
      <trkpt lat="43.50275" lon="1.45226">
        <ele>137.61</ele>
        <time>2019-10-06T09:39:30.000Z</time>
      </trkpt>
      <trkpt lat="43.50258" lon="1.45221">
        <ele>136.07</ele>
        <time>2019-10-06T09:39:32.000Z</time>
      </trkpt>
      <trkpt lat="43.50244" lon="1.45224">
        <ele>136.07</ele>
        <time>2019-10-06T09:39:34.000Z</time>
      </trkpt>
      <trkpt lat="43.50229" lon="1.45232">
        <ele>133.93</ele>
        <time>2019-10-06T09:39:36.000Z</time>
      </trkpt>
      <trkpt lat="43.50218" lon="1.4524">
        <ele>131.61</ele>
        <time>2019-10-06T09:39:38.000Z</time>
      </trkpt>
      <trkpt lat="43.5021" lon="1.45251">
        <ele>129.37</ele>
        <time>2019-10-06T09:39:40.000Z</time>
      </trkpt>
      <trkpt lat="43.502" lon="1.45265">
        <ele>125.58</ele>
        <time>2019-10-06T09:39:42.000Z</time>
      </trkpt>
      <trkpt lat="43.50191" lon="1.45283">
        <ele>121.29</ele>
        <time>2019-10-06T09:39:44.000Z</time>
      </trkpt>
      <trkpt lat="43.50182" lon="1.45295">
        <ele>117.4</ele>
        <time>2019-10-06T09:39:46.000Z</time>
      </trkpt>
      <trkpt lat="43.50171" lon="1.45299">
        <ele>113.11</ele>
        <time>2019-10-06T09:39:50.000Z</time>
      </trkpt>
      <trkpt lat="43.50158" lon="1.45297">
        <ele>109.31</ele>
        <time>2019-10-06T09:39:53.000Z</time>
      </trkpt>
      <trkpt lat="43.50143" lon="1.45292">
        <ele>108.5</ele>
        <time>2019-10-06T09:39:56.000Z</time>
      </trkpt>
      <trkpt lat="43.50133" lon="1.45287">
        <ele>108.5</ele>
        <time>2019-10-06T09:39:58.000Z</time>
      </trkpt>
      <trkpt lat="43.50123" lon="1.45278">
        <ele>107.3</ele>
        <time>2019-10-06T09:40:00.000Z</time>
      </trkpt>
      <trkpt lat="43.50108" lon="1.45255">
        <ele>105</ele>
        <time>2019-10-06T09:40:03.000Z</time>
      </trkpt>
      <trkpt lat="43.50101" lon="1.45246">
        <ele>105</ele>
        <time>2019-10-06T09:40:05.000Z</time>
      </trkpt>
      <trkpt lat="43.50098" lon="1.45258">
        <ele>105.06</ele>
        <time>2019-10-06T09:40:10.000Z</time>
      </trkpt>
      <trkpt lat="43.50094" lon="1.4527">
        <ele>106.52</ele>
        <time>2019-10-06T09:40:14.000Z</time>
      </trkpt>
      <trkpt lat="43.50089" lon="1.45281">
        <ele>106.76</ele>
        <time>2019-10-06T09:40:16.000Z</time>
      </trkpt>
      <trkpt lat="43.50082" lon="1.45296">
        <ele>107.15</ele>
        <time>2019-10-06T09:40:19.000Z</time>
      </trkpt>
      <trkpt lat="43.50077" lon="1.45307">
        <ele>107.39</ele>
        <time>2019-10-06T09:40:21.000Z</time>
      </trkpt>
      <trkpt lat="43.50073" lon="1.45318">
        <ele>107.59</ele>
        <time>2019-10-06T09:40:23.000Z</time>
      </trkpt>
      <trkpt lat="43.50069" lon="1.45329">
        <ele>107.76</ele>
        <time>2019-10-06T09:40:25.000Z</time>
      </trkpt>
      <trkpt lat="43.50063" lon="1.45346">
        <ele>107.57</ele>
        <time>2019-10-06T09:40:28.000Z</time>
      </trkpt>
      <trkpt lat="43.50057" lon="1.45363">
        <ele>107.61</ele>
        <time>2019-10-06T09:40:31.000Z</time>
      </trkpt>
      <trkpt lat="43.50052" lon="1.45376">
        <ele>107.63</ele>
        <time>2019-10-06T09:40:33.000Z</time>
      </trkpt>
      <trkpt lat="43.50049" lon="1.45389">
        <ele>107.79</ele>
        <time>2019-10-06T09:40:35.000Z</time>
      </trkpt>
      <trkpt lat="43.50044" lon="1.45407">
        <ele>107.78</ele>
        <time>2019-10-06T09:40:38.000Z</time>
      </trkpt>
      <trkpt lat="43.50038" lon="1.45424">
        <ele>108.04</ele>
        <time>2019-10-06T09:40:41.000Z</time>
      </trkpt>
      <trkpt lat="43.50034" lon="1.45436">
        <ele>107.53</ele>
        <time>2019-10-06T09:40:43.000Z</time>
      </trkpt>
      <trkpt lat="43.50031" lon="1.45448">
        <ele>107.58</ele>
        <time>2019-10-06T09:40:45.000Z</time>
      </trkpt>
      <trkpt lat="43.50026" lon="1.45463">
        <ele>107.75</ele>
        <time>2019-10-06T09:40:48.000Z</time>
      </trkpt>
      <trkpt lat="43.50019" lon="1.45477">
        <ele>108.86</ele>
        <time>2019-10-06T09:40:51.000Z</time>
      </trkpt>
      <trkpt lat="43.50012" lon="1.45496">
        <ele>108.96</ele>
        <time>2019-10-06T09:40:55.000Z</time>
      </trkpt>
      <trkpt lat="43.50008" lon="1.45512">
        <ele>108.6</ele>
        <time>2019-10-06T09:40:58.000Z</time>
      </trkpt>
      <trkpt lat="43.50006" lon="1.4553">
        <ele>109.02</ele>
        <time>2019-10-06T09:41:02.000Z</time>
      </trkpt>
      <trkpt lat="43.49995" lon="1.45543">
        <ele>109.34</ele>
        <time>2019-10-06T09:41:05.000Z</time>
      </trkpt>
      <trkpt lat="43.49984" lon="1.4555">
        <ele>108.99</ele>
        <time>2019-10-06T09:41:07.000Z</time>
      </trkpt>
      <trkpt lat="43.49972" lon="1.45557">
        <ele>108.29</ele>
        <time>2019-10-06T09:41:09.000Z</time>
      </trkpt>
      <trkpt lat="43.4996" lon="1.45559">
        <ele>107.6</ele>
        <time>2019-10-06T09:41:11.000Z</time>
      </trkpt>
      <trkpt lat="43.4995" lon="1.45561">
        <ele>107.25</ele>
        <time>2019-10-06T09:41:13.000Z</time>
      </trkpt>
      <trkpt lat="43.49943" lon="1.45571">
        <ele>107.03</ele>
        <time>2019-10-06T09:41:16.000Z</time>
      </trkpt>
      <trkpt lat="43.49942" lon="1.45586">
        <ele>106.56</ele>
        <time>2019-10-06T09:41:19.000Z</time>
      </trkpt>
      <trkpt lat="43.49945" lon="1.45609">
        <ele>106</ele>
        <time>2019-10-06T09:41:23.000Z</time>
      </trkpt>
      <trkpt lat="43.49948" lon="1.45632">
        <ele>106.69</ele>
        <time>2019-10-06T09:41:26.000Z</time>
      </trkpt>
      <trkpt lat="43.49949" lon="1.45653">
        <ele>106.63</ele>
        <time>2019-10-06T09:41:29.000Z</time>
      </trkpt>
      <trkpt lat="43.4995" lon="1.45666">
        <ele>106.63</ele>
        <time>2019-10-06T09:41:31.000Z</time>
      </trkpt>
      <trkpt lat="43.49952" lon="1.45679">
        <ele>107.33</ele>
        <time>2019-10-06T09:41:33.000Z</time>
      </trkpt>
      <trkpt lat="43.49954" lon="1.457">
        <ele>107.46</ele>
        <time>2019-10-06T09:41:36.000Z</time>
      </trkpt>
      <trkpt lat="43.49955" lon="1.45713">
        <ele>107.19</ele>
        <time>2019-10-06T09:41:38.000Z</time>
      </trkpt>
      <trkpt lat="43.49956" lon="1.45728">
        <ele>106.32</ele>
        <time>2019-10-06T09:41:40.000Z</time>
      </trkpt>
      <trkpt lat="43.49958" lon="1.45749">
        <ele>106.32</ele>
        <time>2019-10-06T09:41:43.000Z</time>
      </trkpt>
      <trkpt lat="43.4996" lon="1.45762">
        <ele>106.05</ele>
        <time>2019-10-06T09:41:45.000Z</time>
      </trkpt>
      <trkpt lat="43.49961" lon="1.45775">
        <ele>105.03</ele>
        <time>2019-10-06T09:41:47.000Z</time>
      </trkpt>
      <trkpt lat="43.49962" lon="1.45788">
        <ele>105.03</ele>
        <time>2019-10-06T09:41:49.000Z</time>
      </trkpt>
      <trkpt lat="43.49963" lon="1.458">
        <ele>105.03</ele>
        <time>2019-10-06T09:41:51.000Z</time>
      </trkpt>
      <trkpt lat="43.49962" lon="1.45813">
        <ele>106.23</ele>
        <time>2019-10-06T09:41:53.000Z</time>
      </trkpt>
      <trkpt lat="43.49955" lon="1.45836">
        <ele>106.9</ele>
        <time>2019-10-06T09:41:57.000Z</time>
      </trkpt>
      <trkpt lat="43.49952" lon="1.45849">
        <ele>107.91</ele>
        <time>2019-10-06T09:42:00.000Z</time>
      </trkpt>
      <trkpt lat="43.4995" lon="1.45862">
        <ele>107.91</ele>
        <time>2019-10-06T09:42:01.000Z</time>
      </trkpt>
      <trkpt lat="43.49949" lon="1.45876">
        <ele>108.57</ele>
        <time>2019-10-06T09:42:03.000Z</time>
      </trkpt>
      <trkpt lat="43.4995" lon="1.4589">
        <ele>107.86</ele>
        <time>2019-10-06T09:42:06.000Z</time>
      </trkpt>
      <trkpt lat="43.4996" lon="1.45893">
        <ele>107.54</ele>
        <time>2019-10-06T09:42:08.000Z</time>
      </trkpt>
      <trkpt lat="43.49977" lon="1.45896">
        <ele>107.91</ele>
        <time>2019-10-06T09:42:11.000Z</time>
      </trkpt>
      <trkpt lat="43.49987" lon="1.45907">
        <ele>107.91</ele>
        <time>2019-10-06T09:42:14.000Z</time>
      </trkpt>
      <trkpt lat="43.4999" lon="1.4592">
        <ele>108.05</ele>
        <time>2019-10-06T09:42:16.000Z</time>
      </trkpt>
      <trkpt lat="43.49993" lon="1.45933">
        <ele>108.05</ele>
        <time>2019-10-06T09:42:18.000Z</time>
      </trkpt>
      <trkpt lat="43.49998" lon="1.45952">
        <ele>108.45</ele>
        <time>2019-10-06T09:42:21.000Z</time>
      </trkpt>
      <trkpt lat="43.5" lon="1.45964">
        <ele>108.34</ele>
        <time>2019-10-06T09:42:23.000Z</time>
      </trkpt>
      <trkpt lat="43.50006" lon="1.45986">
        <ele>108.34</ele>
        <time>2019-10-06T09:42:27.000Z</time>
      </trkpt>
      <trkpt lat="43.5001" lon="1.46002">
        <ele>109.48</ele>
        <time>2019-10-06T09:42:30.000Z</time>
      </trkpt>
      <trkpt lat="43.50014" lon="1.46014">
        <ele>109.87</ele>
        <time>2019-10-06T09:42:33.000Z</time>
      </trkpt>
      <trkpt lat="43.50021" lon="1.46023">
        <ele>109.87</ele>
        <time>2019-10-06T09:42:36.000Z</time>
      </trkpt>
      <trkpt lat="43.50028" lon="1.46032">
        <ele>110.46</ele>
        <time>2019-10-06T09:42:39.000Z</time>
      </trkpt>
      <trkpt lat="43.50037" lon="1.46041">
        <ele>112.24</ele>
        <time>2019-10-06T09:42:43.000Z</time>
      </trkpt>
      <trkpt lat="43.50047" lon="1.4605">
        <ele>115.19</ele>
        <time>2019-10-06T09:42:47.000Z</time>
      </trkpt>
      <trkpt lat="43.50057" lon="1.46058">
        <ele>117.97</ele>
        <time>2019-10-06T09:42:51.000Z</time>
      </trkpt>
      <trkpt lat="43.50066" lon="1.46068">
        <ele>120.43</ele>
        <time>2019-10-06T09:42:56.000Z</time>
      </trkpt>
      <trkpt lat="43.50077" lon="1.46076">
        <ele>123.25</ele>
        <time>2019-10-06T09:43:00.000Z</time>
      </trkpt>
      <trkpt lat="43.50084" lon="1.46086">
        <ele>123.69</ele>
        <time>2019-10-06T09:43:03.000Z</time>
      </trkpt>
      <trkpt lat="43.50093" lon="1.461">
        <ele>124.91</ele>
        <time>2019-10-06T09:43:07.000Z</time>
      </trkpt>
      <trkpt lat="43.50098" lon="1.46111">
        <ele>125.37</ele>
        <time>2019-10-06T09:43:08.000Z</time>
      </trkpt>
      <trkpt lat="43.50103" lon="1.46126">
        <ele>125.37</ele>
        <time>2019-10-06T09:43:11.000Z</time>
      </trkpt>
      <trkpt lat="43.50108" lon="1.46147">
        <ele>127.35</ele>
        <time>2019-10-06T09:43:15.000Z</time>
      </trkpt>
      <trkpt lat="43.50111" lon="1.46163">
        <ele>128.28</ele>
        <time>2019-10-06T09:43:18.000Z</time>
      </trkpt>
      <trkpt lat="43.50112" lon="1.46185">
        <ele>128.6</ele>
        <time>2019-10-06T09:43:22.000Z</time>
      </trkpt>
      <trkpt lat="43.50114" lon="1.46208">
        <ele>129.13</ele>
        <time>2019-10-06T09:43:26.000Z</time>
      </trkpt>
      <trkpt lat="43.50114" lon="1.46231">
        <ele>128.77</ele>
        <time>2019-10-06T09:43:30.000Z</time>
      </trkpt>
      <trkpt lat="43.50114" lon="1.46248">
        <ele>130.09</ele>
        <time>2019-10-06T09:43:33.000Z</time>
      </trkpt>
      <trkpt lat="43.50114" lon="1.46271">
        <ele>130.51</ele>
        <time>2019-10-06T09:43:37.000Z</time>
      </trkpt>
      <trkpt lat="43.50113" lon="1.46292">
        <ele>133.45</ele>
        <time>2019-10-06T09:43:41.000Z</time>
      </trkpt>
      <trkpt lat="43.50112" lon="1.46308">
        <ele>136.04</ele>
        <time>2019-10-06T09:43:44.000Z</time>
      </trkpt>
      <trkpt lat="43.50108" lon="1.46328">
        <ele>136.87</ele>
        <time>2019-10-06T09:43:48.000Z</time>
      </trkpt>
      <trkpt lat="43.50105" lon="1.46345">
        <ele>136.87</ele>
        <time>2019-10-06T09:43:51.000Z</time>
      </trkpt>
      <trkpt lat="43.50101" lon="1.46368">
        <ele>137.45</ele>
        <time>2019-10-06T09:43:55.000Z</time>
      </trkpt>
      <trkpt lat="43.50099" lon="1.46385">
        <ele>137.45</ele>
        <time>2019-10-06T09:43:58.000Z</time>
      </trkpt>
      <trkpt lat="43.50096" lon="1.46402">
        <ele>141.38</ele>
        <time>2019-10-06T09:44:01.000Z</time>
      </trkpt>
      <trkpt lat="43.50093" lon="1.46423">
        <ele>142.75</ele>
        <time>2019-10-06T09:44:05.000Z</time>
      </trkpt>
      <trkpt lat="43.5009" lon="1.46439">
        <ele>143.03</ele>
        <time>2019-10-06T09:44:08.000Z</time>
      </trkpt>
      <trkpt lat="43.50088" lon="1.46457">
        <ele>145.05</ele>
        <time>2019-10-06T09:44:12.000Z</time>
      </trkpt>
      <trkpt lat="43.50088" lon="1.46476">
        <ele>148.14</ele>
        <time>2019-10-06T09:44:17.000Z</time>
      </trkpt>
      <trkpt lat="43.50087" lon="1.46491">
        <ele>148.47</ele>
        <time>2019-10-06T09:44:21.000Z</time>
      </trkpt>
      <trkpt lat="43.50085" lon="1.46504">
        <ele>149.46</ele>
        <time>2019-10-06T09:44:50.000Z</time>
      </trkpt>
      <trkpt lat="43.50089" lon="1.46519">
        <ele>149</ele>
        <time>2019-10-06T09:44:54.000Z</time>
      </trkpt>
      <trkpt lat="43.5009" lon="1.46533">
        <ele>149</ele>
        <time>2019-10-06T09:44:57.000Z</time>
      </trkpt>
      <trkpt lat="43.50091" lon="1.46548">
        <ele>149.23</ele>
        <time>2019-10-06T09:45:00.000Z</time>
      </trkpt>
      <trkpt lat="43.50094" lon="1.46563">
        <ele>149.07</ele>
        <time>2019-10-06T09:45:02.000Z</time>
      </trkpt>
      <trkpt lat="43.50097" lon="1.46575">
        <ele>149.16</ele>
        <time>2019-10-06T09:45:04.000Z</time>
      </trkpt>
      <trkpt lat="43.50103" lon="1.4659">
        <ele>150.22</ele>
        <time>2019-10-06T09:45:07.000Z</time>
      </trkpt>
      <trkpt lat="43.50109" lon="1.46604">
        <ele>150.22</ele>
        <time>2019-10-06T09:45:10.000Z</time>
      </trkpt>
      <trkpt lat="43.50115" lon="1.46617">
        <ele>151.12</ele>
        <time>2019-10-06T09:45:13.000Z</time>
      </trkpt>
      <trkpt lat="43.50126" lon="1.46634">
        <ele>151.45</ele>
        <time>2019-10-06T09:45:17.000Z</time>
      </trkpt>
      <trkpt lat="43.50131" lon="1.46649">
        <ele>152.17</ele>
        <time>2019-10-06T09:45:20.000Z</time>
      </trkpt>
      <trkpt lat="43.50134" lon="1.46673">
        <ele>152.99</ele>
        <time>2019-10-06T09:45:24.000Z</time>
      </trkpt>
      <trkpt lat="43.50131" lon="1.46689">
        <ele>152.99</ele>
        <time>2019-10-06T09:45:27.000Z</time>
      </trkpt>
      <trkpt lat="43.50124" lon="1.46707">
        <ele>158.31</ele>
        <time>2019-10-06T09:45:31.000Z</time>
      </trkpt>
      <trkpt lat="43.50119" lon="1.46723">
        <ele>159.17</ele>
        <time>2019-10-06T09:45:34.000Z</time>
      </trkpt>
      <trkpt lat="43.50117" lon="1.46736">
        <ele>159.17</ele>
        <time>2019-10-06T09:45:36.000Z</time>
      </trkpt>
      <trkpt lat="43.50116" lon="1.4675">
        <ele>158.99</ele>
        <time>2019-10-06T09:45:38.000Z</time>
      </trkpt>
      <trkpt lat="43.50117" lon="1.46773">
        <ele>157.63</ele>
        <time>2019-10-06T09:45:41.000Z</time>
      </trkpt>
      <trkpt lat="43.5012" lon="1.46791">
        <ele>157.23</ele>
        <time>2019-10-06T09:45:43.000Z</time>
      </trkpt>
      <trkpt lat="43.50129" lon="1.46818">
        <ele>156.26</ele>
        <time>2019-10-06T09:45:46.000Z</time>
      </trkpt>
      <trkpt lat="43.50138" lon="1.46835">
        <ele>156.26</ele>
        <time>2019-10-06T09:45:48.000Z</time>
      </trkpt>
      <trkpt lat="43.50145" lon="1.46851">
        <ele>156.36</ele>
        <time>2019-10-06T09:45:50.000Z</time>
      </trkpt>
      <trkpt lat="43.50153" lon="1.46864">
        <ele>154.72</ele>
        <time>2019-10-06T09:45:52.000Z</time>
      </trkpt>
      <trkpt lat="43.50165" lon="1.4688">
        <ele>154.72</ele>
        <time>2019-10-06T09:45:55.000Z</time>
      </trkpt>
      <trkpt lat="43.50173" lon="1.46889">
        <ele>154.82</ele>
        <time>2019-10-06T09:45:57.000Z</time>
      </trkpt>
      <trkpt lat="43.50182" lon="1.46897">
        <ele>154.57</ele>
        <time>2019-10-06T09:45:59.000Z</time>
      </trkpt>
      <trkpt lat="43.50191" lon="1.46906">
        <ele>154.57</ele>
        <time>2019-10-06T09:46:01.000Z</time>
      </trkpt>
      <trkpt lat="43.50199" lon="1.46916">
        <ele>154.57</ele>
        <time>2019-10-06T09:46:03.000Z</time>
      </trkpt>
      <trkpt lat="43.50207" lon="1.46931">
        <ele>154.36</ele>
        <time>2019-10-06T09:46:06.000Z</time>
      </trkpt>
      <trkpt lat="43.50216" lon="1.46944">
        <ele>154.36</ele>
        <time>2019-10-06T09:46:09.000Z</time>
      </trkpt>
      <trkpt lat="43.50223" lon="1.46958">
        <ele>155.01</ele>
        <time>2019-10-06T09:46:12.000Z</time>
      </trkpt>
      <trkpt lat="43.50229" lon="1.46976">
        <ele>155.91</ele>
        <time>2019-10-06T09:46:15.000Z</time>
      </trkpt>
      <trkpt lat="43.50234" lon="1.4699">
        <ele>155.44</ele>
        <time>2019-10-06T09:46:17.000Z</time>
      </trkpt>
      <trkpt lat="43.50238" lon="1.47004">
        <ele>155.44</ele>
        <time>2019-10-06T09:46:19.000Z</time>
      </trkpt>
      <trkpt lat="43.50242" lon="1.47018">
        <ele>155.67</ele>
        <time>2019-10-06T09:46:21.000Z</time>
      </trkpt>
      <trkpt lat="43.50251" lon="1.47041">
        <ele>154.58</ele>
        <time>2019-10-06T09:46:24.000Z</time>
      </trkpt>
      <trkpt lat="43.50258" lon="1.47055">
        <ele>154.58</ele>
        <time>2019-10-06T09:46:26.000Z</time>
      </trkpt>
      <trkpt lat="43.50268" lon="1.47072">
        <ele>153.99</ele>
        <time>2019-10-06T09:46:29.000Z</time>
      </trkpt>
      <trkpt lat="43.50275" lon="1.47086">
        <ele>154.1</ele>
        <time>2019-10-06T09:46:32.000Z</time>
      </trkpt>
      <trkpt lat="43.50283" lon="1.47099">
        <ele>154.95</ele>
        <time>2019-10-06T09:46:35.000Z</time>
      </trkpt>
      <trkpt lat="43.5029" lon="1.47112">
        <ele>154.69</ele>
        <time>2019-10-06T09:46:38.000Z</time>
      </trkpt>
      <trkpt lat="43.50298" lon="1.47124">
        <ele>154.59</ele>
        <time>2019-10-06T09:46:41.000Z</time>
      </trkpt>
      <trkpt lat="43.50302" lon="1.47137">
        <ele>156.32</ele>
        <time>2019-10-06T09:46:44.000Z</time>
      </trkpt>
      <trkpt lat="43.50302" lon="1.47153">
        <ele>158.14</ele>
        <time>2019-10-06T09:46:47.000Z</time>
      </trkpt>
      <trkpt lat="43.50299" lon="1.47168">
        <ele>158.1</ele>
        <time>2019-10-06T09:46:50.000Z</time>
      </trkpt>
      <trkpt lat="43.50295" lon="1.47187">
        <ele>157.55</ele>
        <time>2019-10-06T09:46:54.000Z</time>
      </trkpt>
      <trkpt lat="43.50291" lon="1.47204">
        <ele>157.72</ele>
        <time>2019-10-06T09:46:58.000Z</time>
      </trkpt>
      <trkpt lat="43.50287" lon="1.47223">
        <ele>158.38</ele>
        <time>2019-10-06T09:47:02.000Z</time>
      </trkpt>
      <trkpt lat="43.50282" lon="1.47241">
        <ele>158.68</ele>
        <time>2019-10-06T09:47:06.000Z</time>
      </trkpt>
      <trkpt lat="43.50278" lon="1.47257">
        <ele>158.64</ele>
        <time>2019-10-06T09:47:10.000Z</time>
      </trkpt>
      <trkpt lat="43.50279" lon="1.4727">
        <ele>159.57</ele>
        <time>2019-10-06T09:47:13.000Z</time>
      </trkpt>
      <trkpt lat="43.50285" lon="1.47285">
        <ele>160.66</ele>
        <time>2019-10-06T09:47:17.000Z</time>
      </trkpt>
      <trkpt lat="43.50295" lon="1.47295">
        <ele>163.47</ele>
        <time>2019-10-06T09:47:21.000Z</time>
      </trkpt>
      <trkpt lat="43.50304" lon="1.47303">
        <ele>163.47</ele>
        <time>2019-10-06T09:47:25.000Z</time>
      </trkpt>
      <trkpt lat="43.50313" lon="1.4731">
        <ele>165.73</ele>
        <time>2019-10-06T09:47:28.000Z</time>
      </trkpt>
      <trkpt lat="43.50321" lon="1.47316">
        <ele>165.87</ele>
        <time>2019-10-06T09:47:31.000Z</time>
      </trkpt>
      <trkpt lat="43.50329" lon="1.47323">
        <ele>166.83</ele>
        <time>2019-10-06T09:47:34.000Z</time>
      </trkpt>
      <trkpt lat="43.5034" lon="1.4733">
        <ele>167.79</ele>
        <time>2019-10-06T09:47:37.000Z</time>
      </trkpt>
      <trkpt lat="43.50348" lon="1.47336">
        <ele>167.45</ele>
        <time>2019-10-06T09:47:38.000Z</time>
      </trkpt>
      <trkpt lat="43.50362" lon="1.47349">
        <ele>167.23</ele>
        <time>2019-10-06T09:47:41.000Z</time>
      </trkpt>
      <trkpt lat="43.50375" lon="1.47364">
        <ele>166.83</ele>
        <time>2019-10-06T09:47:44.000Z</time>
      </trkpt>
      <trkpt lat="43.50384" lon="1.47372">
        <ele>166.83</ele>
        <time>2019-10-06T09:47:46.000Z</time>
      </trkpt>
      <trkpt lat="43.50392" lon="1.47379">
        <ele>167.34</ele>
        <time>2019-10-06T09:47:48.000Z</time>
      </trkpt>
      <trkpt lat="43.50407" lon="1.47391">
        <ele>166.92</ele>
        <time>2019-10-06T09:47:52.000Z</time>
      </trkpt>
      <trkpt lat="43.50421" lon="1.47404">
        <ele>167.3</ele>
        <time>2019-10-06T09:47:56.000Z</time>
      </trkpt>
      <trkpt lat="43.5043" lon="1.47413">
        <ele>167.3</ele>
        <time>2019-10-06T09:47:59.000Z</time>
      </trkpt>
      <trkpt lat="43.50441" lon="1.47422">
        <ele>170.45</ele>
        <time>2019-10-06T09:48:04.000Z</time>
      </trkpt>
      <trkpt lat="43.50449" lon="1.47429">
        <ele>173.48</ele>
        <time>2019-10-06T09:48:08.000Z</time>
      </trkpt>
      <trkpt lat="43.5046" lon="1.47441">
        <ele>173.08</ele>
        <time>2019-10-06T09:48:13.000Z</time>
      </trkpt>
      <trkpt lat="43.50473" lon="1.47448">
        <ele>173.18</ele>
        <time>2019-10-06T09:48:19.000Z</time>
      </trkpt>
      <trkpt lat="43.50482" lon="1.47451">
        <ele>173.68</ele>
        <time>2019-10-06T09:48:22.000Z</time>
      </trkpt>
      <trkpt lat="43.50492" lon="1.47454">
        <ele>173.98</ele>
        <time>2019-10-06T09:48:24.000Z</time>
      </trkpt>
      <trkpt lat="43.50502" lon="1.47457">
        <ele>173.5</ele>
        <time>2019-10-06T09:48:27.000Z</time>
      </trkpt>
      <trkpt lat="43.50512" lon="1.4746">
        <ele>173.85</ele>
        <time>2019-10-06T09:48:28.000Z</time>
      </trkpt>
      <trkpt lat="43.50527" lon="1.47467">
        <ele>173.73</ele>
        <time>2019-10-06T09:48:31.000Z</time>
      </trkpt>
      <trkpt lat="43.50536" lon="1.47471">
        <ele>172.38</ele>
        <time>2019-10-06T09:48:33.000Z</time>
      </trkpt>
      <trkpt lat="43.50546" lon="1.47475">
        <ele>172.38</ele>
        <time>2019-10-06T09:48:35.000Z</time>
      </trkpt>
      <trkpt lat="43.50555" lon="1.47478">
        <ele>172.85</ele>
        <time>2019-10-06T09:48:37.000Z</time>
      </trkpt>
      <trkpt lat="43.50564" lon="1.47481">
        <ele>173.08</ele>
        <time>2019-10-06T09:48:39.000Z</time>
      </trkpt>
      <trkpt lat="43.50576" lon="1.47484">
        <ele>173.08</ele>
        <time>2019-10-06T09:48:42.000Z</time>
      </trkpt>
      <trkpt lat="43.50589" lon="1.47489">
        <ele>173.37</ele>
        <time>2019-10-06T09:48:45.000Z</time>
      </trkpt>
      <trkpt lat="43.506" lon="1.47493">
        <ele>173.74</ele>
        <time>2019-10-06T09:48:48.000Z</time>
      </trkpt>
      <trkpt lat="43.50615" lon="1.47499">
        <ele>174.77</ele>
        <time>2019-10-06T09:48:52.000Z</time>
      </trkpt>
      <trkpt lat="43.50627" lon="1.47501">
        <ele>174.88</ele>
        <time>2019-10-06T09:48:55.000Z</time>
      </trkpt>
      <trkpt lat="43.50639" lon="1.47501">
        <ele>177.24</ele>
        <time>2019-10-06T09:48:58.000Z</time>
      </trkpt>
      <trkpt lat="43.5065" lon="1.47498">
        <ele>178.39</ele>
        <time>2019-10-06T09:49:02.000Z</time>
      </trkpt>
      <trkpt lat="43.50662" lon="1.47493">
        <ele>179.09</ele>
        <time>2019-10-06T09:49:06.000Z</time>
      </trkpt>
      <trkpt lat="43.50672" lon="1.47486">
        <ele>180.87</ele>
        <time>2019-10-06T09:49:10.000Z</time>
      </trkpt>
      <trkpt lat="43.50683" lon="1.47479">
        <ele>182.07</ele>
        <time>2019-10-06T09:49:14.000Z</time>
      </trkpt>
      <trkpt lat="43.50692" lon="1.47472">
        <ele>183.27</ele>
        <time>2019-10-06T09:49:20.000Z</time>
      </trkpt>
      <trkpt lat="43.50703" lon="1.47466">
        <ele>183.89</ele>
        <time>2019-10-06T09:49:23.000Z</time>
      </trkpt>
      <trkpt lat="43.50712" lon="1.47461">
        <ele>183.89</ele>
        <time>2019-10-06T09:49:27.000Z</time>
      </trkpt>
      <trkpt lat="43.50721" lon="1.47454">
        <ele>188.89</ele>
        <time>2019-10-06T09:49:31.000Z</time>
      </trkpt>
      <trkpt lat="43.50732" lon="1.47447">
        <ele>189.91</ele>
        <time>2019-10-06T09:49:36.000Z</time>
      </trkpt>
      <trkpt lat="43.5074" lon="1.4744">
        <ele>190.41</ele>
        <time>2019-10-06T09:49:40.000Z</time>
      </trkpt>
      <trkpt lat="43.50748" lon="1.47427">
        <ele>190.7</ele>
        <time>2019-10-06T09:49:43.000Z</time>
      </trkpt>
      <trkpt lat="43.50756" lon="1.47412">
        <ele>191.66</ele>
        <time>2019-10-06T09:49:47.000Z</time>
      </trkpt>
      <trkpt lat="43.50763" lon="1.47403">
        <ele>192.36</ele>
        <time>2019-10-06T09:49:51.000Z</time>
      </trkpt>
      <trkpt lat="43.50771" lon="1.47395">
        <ele>193.38</ele>
        <time>2019-10-06T09:49:55.000Z</time>
      </trkpt>
      <trkpt lat="43.50782" lon="1.47401">
        <ele>193.62</ele>
        <time>2019-10-06T09:49:59.000Z</time>
      </trkpt>
      <trkpt lat="43.50793" lon="1.47407">
        <ele>193.92</ele>
        <time>2019-10-06T09:50:02.000Z</time>
      </trkpt>
      <trkpt lat="43.50802" lon="1.47411">
        <ele>194.24</ele>
        <time>2019-10-06T09:50:05.000Z</time>
      </trkpt>
      <trkpt lat="43.50811" lon="1.47415">
        <ele>194.52</ele>
        <time>2019-10-06T09:50:08.000Z</time>
      </trkpt>
      <trkpt lat="43.50823" lon="1.47419">
        <ele>194.69</ele>
        <time>2019-10-06T09:50:11.000Z</time>
      </trkpt>
      <trkpt lat="43.50836" lon="1.47423">
        <ele>194.98</ele>
        <time>2019-10-06T09:50:14.000Z</time>
      </trkpt>
      <trkpt lat="43.50848" lon="1.47426">
        <ele>194.96</ele>
        <time>2019-10-06T09:50:17.000Z</time>
      </trkpt>
      <trkpt lat="43.50864" lon="1.4743">
        <ele>195.23</ele>
        <time>2019-10-06T09:50:21.000Z</time>
      </trkpt>
      <trkpt lat="43.50875" lon="1.47432">
        <ele>195.81</ele>
        <time>2019-10-06T09:50:24.000Z</time>
      </trkpt>
      <trkpt lat="43.50891" lon="1.47436">
        <ele>196.2</ele>
        <time>2019-10-06T09:50:28.000Z</time>
      </trkpt>
      <trkpt lat="43.50901" lon="1.47438">
        <ele>195.84</ele>
        <time>2019-10-06T09:50:31.000Z</time>
      </trkpt>
      <trkpt lat="43.50912" lon="1.4744">
        <ele>195.73</ele>
        <time>2019-10-06T09:50:34.000Z</time>
      </trkpt>
      <trkpt lat="43.50921" lon="1.47448">
        <ele>196.12</ele>
        <time>2019-10-06T09:50:37.000Z</time>
      </trkpt>
      <trkpt lat="43.50921" lon="1.47461">
        <ele>196.84</ele>
        <time>2019-10-06T09:50:40.000Z</time>
      </trkpt>
      <trkpt lat="43.50914" lon="1.47475">
        <ele>197.89</ele>
        <time>2019-10-06T09:50:44.000Z</time>
      </trkpt>
      <trkpt lat="43.50906" lon="1.47486">
        <ele>198.36</ele>
        <time>2019-10-06T09:50:48.000Z</time>
      </trkpt>
      <trkpt lat="43.509" lon="1.47495">
        <ele>198.26</ele>
        <time>2019-10-06T09:50:50.000Z</time>
      </trkpt>
      <trkpt lat="43.50893" lon="1.47506">
        <ele>198.55</ele>
        <time>2019-10-06T09:50:53.000Z</time>
      </trkpt>
      <trkpt lat="43.50885" lon="1.47518">
        <ele>199.48</ele>
        <time>2019-10-06T09:50:56.000Z</time>
      </trkpt>
      <trkpt lat="43.50879" lon="1.4753">
        <ele>200</ele>
        <time>2019-10-06T09:50:59.000Z</time>
      </trkpt>
      <trkpt lat="43.50872" lon="1.47543">
        <ele>200.02</ele>
        <time>2019-10-06T09:51:02.000Z</time>
      </trkpt>
      <trkpt lat="43.50866" lon="1.47557">
        <ele>199.7</ele>
        <time>2019-10-06T09:51:05.000Z</time>
      </trkpt>
      <trkpt lat="43.50858" lon="1.47574">
        <ele>200.31</ele>
        <time>2019-10-06T09:51:09.000Z</time>
      </trkpt>
      <trkpt lat="43.50848" lon="1.47591">
        <ele>200.6</ele>
        <time>2019-10-06T09:51:13.000Z</time>
      </trkpt>
      <trkpt lat="43.5084" lon="1.47605">
        <ele>200.64</ele>
        <time>2019-10-06T09:51:16.000Z</time>
      </trkpt>
      <trkpt lat="43.50833" lon="1.47615">
        <ele>200.96</ele>
        <time>2019-10-06T09:51:18.000Z</time>
      </trkpt>
      <trkpt lat="43.50827" lon="1.47624">
        <ele>200.9</ele>
        <time>2019-10-06T09:51:20.000Z</time>
      </trkpt>
      <trkpt lat="43.5082" lon="1.47633">
        <ele>200.87</ele>
        <time>2019-10-06T09:51:22.000Z</time>
      </trkpt>
      <trkpt lat="43.50806" lon="1.47649">
        <ele>199.43</ele>
        <time>2019-10-06T09:51:26.000Z</time>
      </trkpt>
      <trkpt lat="43.50792" lon="1.47664">
        <ele>198.94</ele>
        <time>2019-10-06T09:51:29.000Z</time>
      </trkpt>
      <trkpt lat="43.50784" lon="1.47674">
        <ele>198.45</ele>
        <time>2019-10-06T09:51:31.000Z</time>
      </trkpt>
      <trkpt lat="43.50774" lon="1.47684">
        <ele>198.24</ele>
        <time>2019-10-06T09:51:33.000Z</time>
      </trkpt>
      <trkpt lat="43.50765" lon="1.47694">
        <ele>198.24</ele>
        <time>2019-10-06T09:51:35.000Z</time>
      </trkpt>
      <trkpt lat="43.50753" lon="1.47711">
        <ele>198.36</ele>
        <time>2019-10-06T09:51:38.000Z</time>
      </trkpt>
      <trkpt lat="43.50745" lon="1.47721">
        <ele>197.84</ele>
        <time>2019-10-06T09:51:40.000Z</time>
      </trkpt>
      <trkpt lat="43.50734" lon="1.47733">
        <ele>198.2</ele>
        <time>2019-10-06T09:51:43.000Z</time>
      </trkpt>
      <trkpt lat="43.50747" lon="1.47746">
        <ele>196.32</ele>
        <time>2019-10-06T09:51:49.000Z</time>
      </trkpt>
      <trkpt lat="43.50757" lon="1.47756">
        <ele>196.32</ele>
        <time>2019-10-06T09:51:51.000Z</time>
      </trkpt>
      <trkpt lat="43.50766" lon="1.47767">
        <ele>195.44</ele>
        <time>2019-10-06T09:51:53.000Z</time>
      </trkpt>
      <trkpt lat="43.50778" lon="1.47779">
        <ele>194.63</ele>
        <time>2019-10-06T09:51:55.000Z</time>
      </trkpt>
      <trkpt lat="43.50791" lon="1.47792">
        <ele>193.51</ele>
        <time>2019-10-06T09:51:57.000Z</time>
      </trkpt>
      <trkpt lat="43.508" lon="1.47808">
        <ele>193.51</ele>
        <time>2019-10-06T09:51:59.000Z</time>
      </trkpt>
      <trkpt lat="43.50807" lon="1.47836">
        <ele>193.16</ele>
        <time>2019-10-06T09:52:02.000Z</time>
      </trkpt>
      <trkpt lat="43.50814" lon="1.47862">
        <ele>192.64</ele>
        <time>2019-10-06T09:52:05.000Z</time>
      </trkpt>
      <trkpt lat="43.5082" lon="1.47877">
        <ele>191.37</ele>
        <time>2019-10-06T09:52:07.000Z</time>
      </trkpt>
      <trkpt lat="43.50829" lon="1.47902">
        <ele>191.37</ele>
        <time>2019-10-06T09:52:10.000Z</time>
      </trkpt>
      <trkpt lat="43.50835" lon="1.47924">
        <ele>190.67</ele>
        <time>2019-10-06T09:52:12.000Z</time>
      </trkpt>
      <trkpt lat="43.50843" lon="1.47948">
        <ele>189.98</ele>
        <time>2019-10-06T09:52:14.000Z</time>
      </trkpt>
      <trkpt lat="43.50848" lon="1.4796">
        <ele>187.92</ele>
        <time>2019-10-06T09:52:15.000Z</time>
      </trkpt>
      <trkpt lat="43.50853" lon="1.47972">
        <ele>187.92</ele>
        <time>2019-10-06T09:52:16.000Z</time>
      </trkpt>
      <trkpt lat="43.50864" lon="1.47996">
        <ele>185.64</ele>
        <time>2019-10-06T09:52:18.000Z</time>
      </trkpt>
      <trkpt lat="43.50875" lon="1.48019">
        <ele>183.87</ele>
        <time>2019-10-06T09:52:20.000Z</time>
      </trkpt>
      <trkpt lat="43.50886" lon="1.48043">
        <ele>181.33</ele>
        <time>2019-10-06T09:52:22.000Z</time>
      </trkpt>
      <trkpt lat="43.50898" lon="1.48069">
        <ele>181.33</ele>
        <time>2019-10-06T09:52:24.000Z</time>
      </trkpt>
      <trkpt lat="43.50912" lon="1.48094">
        <ele>178.53</ele>
        <time>2019-10-06T09:52:26.000Z</time>
      </trkpt>
      <trkpt lat="43.5092" lon="1.48107">
        <ele>177.54</ele>
        <time>2019-10-06T09:52:27.000Z</time>
      </trkpt>
      <trkpt lat="43.5094" lon="1.48126">
        <ele>175.01</ele>
        <time>2019-10-06T09:52:29.000Z</time>
      </trkpt>
      <trkpt lat="43.5096" lon="1.48142">
        <ele>173.44</ele>
        <time>2019-10-06T09:52:31.000Z</time>
      </trkpt>
      <trkpt lat="43.5097" lon="1.48149">
        <ele>171.63</ele>
        <time>2019-10-06T09:52:32.000Z</time>
      </trkpt>
      <trkpt lat="43.5099" lon="1.4816">
        <ele>169.63</ele>
        <time>2019-10-06T09:52:34.000Z</time>
      </trkpt>
      <trkpt lat="43.51011" lon="1.48172">
        <ele>165.52</ele>
        <time>2019-10-06T09:52:36.000Z</time>
      </trkpt>
      <trkpt lat="43.51022" lon="1.4818">
        <ele>163.03</ele>
        <time>2019-10-06T09:52:37.000Z</time>
      </trkpt>
      <trkpt lat="43.51034" lon="1.48187">
        <ele>163.03</ele>
        <time>2019-10-06T09:52:38.000Z</time>
      </trkpt>
      <trkpt lat="43.51057" lon="1.482">
        <ele>163.03</ele>
        <time>2019-10-06T09:52:40.000Z</time>
      </trkpt>
      <trkpt lat="43.51068" lon="1.48206">
        <ele>161.05</ele>
        <time>2019-10-06T09:52:41.000Z</time>
      </trkpt>
      <trkpt lat="43.51083" lon="1.48223">
        <ele>161.05</ele>
        <time>2019-10-06T09:52:43.000Z</time>
      </trkpt>
      <trkpt lat="43.51088" lon="1.48236">
        <ele>158.62</ele>
        <time>2019-10-06T09:52:44.000Z</time>
      </trkpt>
      <trkpt lat="43.51092" lon="1.48267">
        <ele>151.25</ele>
        <time>2019-10-06T09:52:46.000Z</time>
      </trkpt>
      <trkpt lat="43.51094" lon="1.48284">
        <ele>151.25</ele>
        <time>2019-10-06T09:52:47.000Z</time>
      </trkpt>
      <trkpt lat="43.51098" lon="1.48311">
        <ele>148.08</ele>
        <time>2019-10-06T09:52:49.000Z</time>
      </trkpt>
      <trkpt lat="43.51101" lon="1.48329">
        <ele>148.08</ele>
        <time>2019-10-06T09:52:51.000Z</time>
      </trkpt>
      <trkpt lat="43.51104" lon="1.48342">
        <ele>139.32</ele>
        <time>2019-10-06T09:52:55.000Z</time>
      </trkpt>
      <trkpt lat="43.51115" lon="1.48343">
        <ele>135.16</ele>
        <time>2019-10-06T09:52:58.000Z</time>
      </trkpt>
      <trkpt lat="43.51127" lon="1.48346">
        <ele>135.16</ele>
        <time>2019-10-06T09:53:00.000Z</time>
      </trkpt>
      <trkpt lat="43.5114" lon="1.48354">
        <ele>134.13</ele>
        <time>2019-10-06T09:53:02.000Z</time>
      </trkpt>
      <trkpt lat="43.51153" lon="1.4837">
        <ele>130.23</ele>
        <time>2019-10-06T09:53:04.000Z</time>
      </trkpt>
      <trkpt lat="43.51177" lon="1.48388">
        <ele>128.55</ele>
        <time>2019-10-06T09:53:07.000Z</time>
      </trkpt>
      <trkpt lat="43.51191" lon="1.48398">
        <ele>125.59</ele>
        <time>2019-10-06T09:53:09.000Z</time>
      </trkpt>
      <trkpt lat="43.51205" lon="1.48407">
        <ele>124.09</ele>
        <time>2019-10-06T09:53:11.000Z</time>
      </trkpt>
      <trkpt lat="43.51229" lon="1.48421">
        <ele>118.25</ele>
        <time>2019-10-06T09:53:14.000Z</time>
      </trkpt>
      <trkpt lat="43.51244" lon="1.48432">
        <ele>115.35</ele>
        <time>2019-10-06T09:53:16.000Z</time>
      </trkpt>
      <trkpt lat="43.51262" lon="1.48439">
        <ele>112.51</ele>
        <time>2019-10-06T09:53:18.000Z</time>
      </trkpt>
      <trkpt lat="43.51273" lon="1.48441">
        <ele>110</ele>
        <time>2019-10-06T09:53:19.000Z</time>
      </trkpt>
      <trkpt lat="43.51295" lon="1.48443">
        <ele>104.68</ele>
        <time>2019-10-06T09:53:21.000Z</time>
      </trkpt>
      <trkpt lat="43.51305" lon="1.48444">
        <ele>104.68</ele>
        <time>2019-10-06T09:53:22.000Z</time>
      </trkpt>
      <trkpt lat="43.51328" lon="1.48447">
        <ele>102.43</ele>
        <time>2019-10-06T09:53:24.000Z</time>
      </trkpt>
      <trkpt lat="43.51344" lon="1.4845">
        <ele>102.43</ele>
        <time>2019-10-06T09:53:25.000Z</time>
      </trkpt>
      <trkpt lat="43.51357" lon="1.48454">
        <ele>102.43</ele>
        <time>2019-10-06T09:53:26.000Z</time>
      </trkpt>
      <trkpt lat="43.51366" lon="1.48462">
        <ele>102.43</ele>
        <time>2019-10-06T09:53:27.000Z</time>
      </trkpt>
      <trkpt lat="43.5138" lon="1.48477">
        <ele>101.96</ele>
        <time>2019-10-06T09:53:29.000Z</time>
      </trkpt>
      <trkpt lat="43.51392" lon="1.48483">
        <ele>102.24</ele>
        <time>2019-10-06T09:53:31.000Z</time>
      </trkpt>
      <trkpt lat="43.51401" lon="1.48487">
        <ele>104.07</ele>
        <time>2019-10-06T09:53:34.000Z</time>
      </trkpt>
      <trkpt lat="43.51412" lon="1.48494">
        <ele>108.23</ele>
        <time>2019-10-06T09:53:39.000Z</time>
      </trkpt>
      <trkpt lat="43.51419" lon="1.48502">
        <ele>109.64</ele>
        <time>2019-10-06T09:53:46.000Z</time>
      </trkpt>
      <trkpt lat="43.51425" lon="1.48516">
        <ele>109.28</ele>
        <time>2019-10-06T09:53:52.000Z</time>
      </trkpt>
      <trkpt lat="43.51431" lon="1.4853">
        <ele>108.38</ele>
        <time>2019-10-06T09:53:57.000Z</time>
      </trkpt>
      <trkpt lat="43.51437" lon="1.48544">
        <ele>107.44</ele>
        <time>2019-10-06T09:54:01.000Z</time>
      </trkpt>
      <trkpt lat="43.51446" lon="1.48562">
        <ele>106.22</ele>
        <time>2019-10-06T09:54:05.000Z</time>
      </trkpt>
      <trkpt lat="43.51452" lon="1.48573">
        <ele>105.42</ele>
        <time>2019-10-06T09:54:07.000Z</time>
      </trkpt>
      <trkpt lat="43.51459" lon="1.48586">
        <ele>103.77</ele>
        <time>2019-10-06T09:54:09.000Z</time>
      </trkpt>
      <trkpt lat="43.5147" lon="1.48603">
        <ele>102.54</ele>
        <time>2019-10-06T09:54:11.000Z</time>
      </trkpt>
      <trkpt lat="43.51482" lon="1.48623">
        <ele>101.17</ele>
        <time>2019-10-06T09:54:13.000Z</time>
      </trkpt>
      <trkpt lat="43.51491" lon="1.48642">
        <ele>100.57</ele>
        <time>2019-10-06T09:54:15.000Z</time>
      </trkpt>
      <trkpt lat="43.51497" lon="1.48661">
        <ele>100.73</ele>
        <time>2019-10-06T09:54:17.000Z</time>
      </trkpt>
      <trkpt lat="43.51501" lon="1.48678">
        <ele>101.12</ele>
        <time>2019-10-06T09:54:19.000Z</time>
      </trkpt>
      <trkpt lat="43.51503" lon="1.48693">
        <ele>101.8</ele>
        <time>2019-10-06T09:54:21.000Z</time>
      </trkpt>
      <trkpt lat="43.51506" lon="1.48709">
        <ele>101.98</ele>
        <time>2019-10-06T09:54:23.000Z</time>
      </trkpt>
      <trkpt lat="43.51508" lon="1.48726">
        <ele>102.39</ele>
        <time>2019-10-06T09:54:25.000Z</time>
      </trkpt>
      <trkpt lat="43.51511" lon="1.4875">
        <ele>103.61</ele>
        <time>2019-10-06T09:54:28.000Z</time>
      </trkpt>
      <trkpt lat="43.51513" lon="1.48766">
        <ele>104.2</ele>
        <time>2019-10-06T09:54:30.000Z</time>
      </trkpt>
      <trkpt lat="43.51514" lon="1.4878">
        <ele>104.8</ele>
        <time>2019-10-06T09:54:32.000Z</time>
      </trkpt>
      <trkpt lat="43.51516" lon="1.48795">
        <ele>105.08</ele>
        <time>2019-10-06T09:54:34.000Z</time>
      </trkpt>
      <trkpt lat="43.51517" lon="1.48809">
        <ele>105.11</ele>
        <time>2019-10-06T09:54:36.000Z</time>
      </trkpt>
      <trkpt lat="43.51518" lon="1.48823">
        <ele>105.34</ele>
        <time>2019-10-06T09:54:38.000Z</time>
      </trkpt>
      <trkpt lat="43.51518" lon="1.48838">
        <ele>105.4</ele>
        <time>2019-10-06T09:54:40.000Z</time>
      </trkpt>
      <trkpt lat="43.51519" lon="1.48851">
        <ele>105.63</ele>
        <time>2019-10-06T09:54:42.000Z</time>
      </trkpt>
      <trkpt lat="43.51519" lon="1.48865">
        <ele>105.67</ele>
        <time>2019-10-06T09:54:44.000Z</time>
      </trkpt>
      <trkpt lat="43.51521" lon="1.48879">
        <ele>105.74</ele>
        <time>2019-10-06T09:54:46.000Z</time>
      </trkpt>
      <trkpt lat="43.51522" lon="1.48895">
        <ele>105.72</ele>
        <time>2019-10-06T09:54:48.000Z</time>
      </trkpt>
      <trkpt lat="43.51523" lon="1.48921">
        <ele>104.62</ele>
        <time>2019-10-06T09:54:51.000Z</time>
      </trkpt>
      <trkpt lat="43.51523" lon="1.4894">
        <ele>104.62</ele>
        <time>2019-10-06T09:54:53.000Z</time>
      </trkpt>
      <trkpt lat="43.51521" lon="1.48972">
        <ele>102.49</ele>
        <time>2019-10-06T09:54:56.000Z</time>
      </trkpt>
      <trkpt lat="43.51517" lon="1.49004">
        <ele>100.71</ele>
        <time>2019-10-06T09:54:59.000Z</time>
      </trkpt>
      <trkpt lat="43.51514" lon="1.49026">
        <ele>100.37</ele>
        <time>2019-10-06T09:55:01.000Z</time>
      </trkpt>
      <trkpt lat="43.51514" lon="1.4905">
        <ele>98.74</ele>
        <time>2019-10-06T09:55:03.000Z</time>
      </trkpt>
      <trkpt lat="43.51513" lon="1.49075">
        <ele>96.85</ele>
        <time>2019-10-06T09:55:05.000Z</time>
      </trkpt>
      <trkpt lat="43.51513" lon="1.49088">
        <ele>95.6</ele>
        <time>2019-10-06T09:55:06.000Z</time>
      </trkpt>
      <trkpt lat="43.51512" lon="1.49115">
        <ele>93.05</ele>
        <time>2019-10-06T09:55:08.000Z</time>
      </trkpt>
      <trkpt lat="43.51511" lon="1.49142">
        <ele>92.54</ele>
        <time>2019-10-06T09:55:10.000Z</time>
      </trkpt>
      <trkpt lat="43.51511" lon="1.49156">
        <ele>91.38</ele>
        <time>2019-10-06T09:55:11.000Z</time>
      </trkpt>
      <trkpt lat="43.51511" lon="1.49171">
        <ele>91.38</ele>
        <time>2019-10-06T09:55:12.000Z</time>
      </trkpt>
      <trkpt lat="43.51511" lon="1.492">
        <ele>91.38</ele>
        <time>2019-10-06T09:55:14.000Z</time>
      </trkpt>
      <trkpt lat="43.51508" lon="1.49229">
        <ele>90.73</ele>
        <time>2019-10-06T09:55:16.000Z</time>
      </trkpt>
      <trkpt lat="43.51502" lon="1.49252">
        <ele>89.53</ele>
        <time>2019-10-06T09:55:18.000Z</time>
      </trkpt>
      <trkpt lat="43.51498" lon="1.49284">
        <ele>89.09</ele>
        <time>2019-10-06T09:55:21.000Z</time>
      </trkpt>
      <trkpt lat="43.51501" lon="1.49303">
        <ele>89.47</ele>
        <time>2019-10-06T09:55:23.000Z</time>
      </trkpt>
      <trkpt lat="43.51496" lon="1.49328">
        <ele>89.99</ele>
        <time>2019-10-06T09:55:26.000Z</time>
      </trkpt>
      <trkpt lat="43.51494" lon="1.49344">
        <ele>90.9</ele>
        <time>2019-10-06T09:55:28.000Z</time>
      </trkpt>
      <trkpt lat="43.51492" lon="1.49359">
        <ele>91.83</ele>
        <time>2019-10-06T09:55:30.000Z</time>
      </trkpt>
      <trkpt lat="43.5149" lon="1.49376">
        <ele>92.46</ele>
        <time>2019-10-06T09:55:32.000Z</time>
      </trkpt>
      <trkpt lat="43.51489" lon="1.49393">
        <ele>92.59</ele>
        <time>2019-10-06T09:55:34.000Z</time>
      </trkpt>
      <trkpt lat="43.51487" lon="1.49418">
        <ele>92.44</ele>
        <time>2019-10-06T09:55:37.000Z</time>
      </trkpt>
      <trkpt lat="43.51485" lon="1.49434">
        <ele>92.16</ele>
        <time>2019-10-06T09:55:39.000Z</time>
      </trkpt>
      <trkpt lat="43.51483" lon="1.49451">
        <ele>91.81</ele>
        <time>2019-10-06T09:55:41.000Z</time>
      </trkpt>
      <trkpt lat="43.51482" lon="1.49469">
        <ele>91.81</ele>
        <time>2019-10-06T09:55:43.000Z</time>
      </trkpt>
      <trkpt lat="43.5148" lon="1.49489">
        <ele>91.33</ele>
        <time>2019-10-06T09:55:45.000Z</time>
      </trkpt>
      <trkpt lat="43.51474" lon="1.49507">
        <ele>90.63</ele>
        <time>2019-10-06T09:55:47.000Z</time>
      </trkpt>
      <trkpt lat="43.51471" lon="1.49526">
        <ele>89.8</ele>
        <time>2019-10-06T09:55:49.000Z</time>
      </trkpt>
      <trkpt lat="43.51476" lon="1.49541">
        <ele>89.47</ele>
        <time>2019-10-06T09:55:51.000Z</time>
      </trkpt>
      <trkpt lat="43.51484" lon="1.4955">
        <ele>88.78</ele>
        <time>2019-10-06T09:55:54.000Z</time>
      </trkpt>
      <trkpt lat="43.51484" lon="1.49563">
        <ele>87.9</ele>
        <time>2019-10-06T09:55:58.000Z</time>
      </trkpt>
      <trkpt lat="43.51487" lon="1.49581">
        <ele>87.48</ele>
        <time>2019-10-06T09:56:01.000Z</time>
      </trkpt>
      <trkpt lat="43.51489" lon="1.49594">
        <ele>88.09</ele>
        <time>2019-10-06T09:56:04.000Z</time>
      </trkpt>
      <trkpt lat="43.51487" lon="1.49611">
        <ele>88.05</ele>
        <time>2019-10-06T09:56:08.000Z</time>
      </trkpt>
      <trkpt lat="43.51492" lon="1.49625">
        <ele>87.4</ele>
        <time>2019-10-06T09:56:11.000Z</time>
      </trkpt>
      <trkpt lat="43.51496" lon="1.49638">
        <ele>86.96</ele>
        <time>2019-10-06T09:56:15.000Z</time>
      </trkpt>
      <trkpt lat="43.51496" lon="1.49654">
        <ele>86.96</ele>
        <time>2019-10-06T09:56:17.000Z</time>
      </trkpt>
      <trkpt lat="43.51496" lon="1.49672">
        <ele>86.48</ele>
        <time>2019-10-06T09:56:20.000Z</time>
      </trkpt>
      <trkpt lat="43.51497" lon="1.49694">
        <ele>86.6</ele>
        <time>2019-10-06T09:56:24.000Z</time>
      </trkpt>
      <trkpt lat="43.51498" lon="1.49712">
        <ele>86.54</ele>
        <time>2019-10-06T09:56:27.000Z</time>
      </trkpt>
      <trkpt lat="43.51499" lon="1.49725">
        <ele>86.11</ele>
        <time>2019-10-06T09:56:29.000Z</time>
      </trkpt>
      <trkpt lat="43.515" lon="1.49739">
        <ele>85.69</ele>
        <time>2019-10-06T09:56:31.000Z</time>
      </trkpt>
      <trkpt lat="43.51501" lon="1.49751">
        <ele>85.44</ele>
        <time>2019-10-06T09:56:33.000Z</time>
      </trkpt>
      <trkpt lat="43.51502" lon="1.49775">
        <ele>85.41</ele>
        <time>2019-10-06T09:56:37.000Z</time>
      </trkpt>
      <trkpt lat="43.51502" lon="1.49794">
        <ele>86.14</ele>
        <time>2019-10-06T09:56:40.000Z</time>
      </trkpt>
      <trkpt lat="43.51506" lon="1.49809">
        <ele>86.41</ele>
        <time>2019-10-06T09:56:43.000Z</time>
      </trkpt>
      <trkpt lat="43.51511" lon="1.49822">
        <ele>86.42</ele>
        <time>2019-10-06T09:56:46.000Z</time>
      </trkpt>
      <trkpt lat="43.51514" lon="1.49834">
        <ele>86.37</ele>
        <time>2019-10-06T09:56:49.000Z</time>
      </trkpt>
      <trkpt lat="43.51518" lon="1.49847">
        <ele>86.19</ele>
        <time>2019-10-06T09:56:52.000Z</time>
      </trkpt>
      <trkpt lat="43.51521" lon="1.49862">
        <ele>86.32</ele>
        <time>2019-10-06T09:56:57.000Z</time>
      </trkpt>
      <trkpt lat="43.51527" lon="1.49875">
        <ele>85.86</ele>
        <time>2019-10-06T09:57:01.000Z</time>
      </trkpt>
      <trkpt lat="43.51532" lon="1.49892">
        <ele>85.61</ele>
        <time>2019-10-06T09:57:05.000Z</time>
      </trkpt>
      <trkpt lat="43.51524" lon="1.49902">
        <ele>85.97</ele>
        <time>2019-10-06T09:57:12.000Z</time>
      </trkpt>
      <trkpt lat="43.51514" lon="1.49904">
        <ele>86.08</ele>
        <time>2019-10-06T09:57:18.000Z</time>
      </trkpt>
      <trkpt lat="43.51506" lon="1.49908">
        <ele>85.38</ele>
        <time>2019-10-06T10:01:03.000Z</time>
      </trkpt>
      <trkpt lat="43.51498" lon="1.49915">
        <ele>85.05</ele>
        <time>2019-10-06T10:01:08.000Z</time>
      </trkpt>
      <trkpt lat="43.51488" lon="1.49923">
        <ele>84.98</ele>
        <time>2019-10-06T10:01:13.000Z</time>
      </trkpt>
      <trkpt lat="43.51477" lon="1.49931">
        <ele>84.47</ele>
        <time>2019-10-06T10:01:17.000Z</time>
      </trkpt>
      <trkpt lat="43.51464" lon="1.4994">
        <ele>84.64</ele>
        <time>2019-10-06T10:01:22.000Z</time>
      </trkpt>
      <trkpt lat="43.51454" lon="1.49948">
        <ele>84.75</ele>
        <time>2019-10-06T10:01:25.000Z</time>
      </trkpt>
      <trkpt lat="43.51444" lon="1.49955">
        <ele>84.89</ele>
        <time>2019-10-06T10:01:28.000Z</time>
      </trkpt>
      <trkpt lat="43.51431" lon="1.49965">
        <ele>84.87</ele>
        <time>2019-10-06T10:01:31.000Z</time>
      </trkpt>
      <trkpt lat="43.51423" lon="1.4997">
        <ele>84.89</ele>
        <time>2019-10-06T10:01:33.000Z</time>
      </trkpt>
      <trkpt lat="43.51409" lon="1.49976">
        <ele>85.02</ele>
        <time>2019-10-06T10:01:36.000Z</time>
      </trkpt>
      <trkpt lat="43.51401" lon="1.49981">
        <ele>85</ele>
        <time>2019-10-06T10:01:38.000Z</time>
      </trkpt>
      <trkpt lat="43.51388" lon="1.49992">
        <ele>85.05</ele>
        <time>2019-10-06T10:01:41.000Z</time>
      </trkpt>
      <trkpt lat="43.51379" lon="1.49999">
        <ele>84.5</ele>
        <time>2019-10-06T10:01:43.000Z</time>
      </trkpt>
      <trkpt lat="43.51365" lon="1.50008">
        <ele>84.05</ele>
        <time>2019-10-06T10:01:46.000Z</time>
      </trkpt>
      <trkpt lat="43.5135" lon="1.50016">
        <ele>83.52</ele>
        <time>2019-10-06T10:01:49.000Z</time>
      </trkpt>
      <trkpt lat="43.51341" lon="1.50024">
        <ele>83.38</ele>
        <time>2019-10-06T10:01:51.000Z</time>
      </trkpt>
      <trkpt lat="43.51333" lon="1.50032">
        <ele>83.25</ele>
        <time>2019-10-06T10:01:53.000Z</time>
      </trkpt>
      <trkpt lat="43.51321" lon="1.50044">
        <ele>82.77</ele>
        <time>2019-10-06T10:01:56.000Z</time>
      </trkpt>
      <trkpt lat="43.51309" lon="1.50056">
        <ele>82.74</ele>
        <time>2019-10-06T10:01:59.000Z</time>
      </trkpt>
      <trkpt lat="43.513" lon="1.50064">
        <ele>83.08</ele>
        <time>2019-10-06T10:02:01.000Z</time>
      </trkpt>
      <trkpt lat="43.5129" lon="1.50072">
        <ele>83.43</ele>
        <time>2019-10-06T10:02:03.000Z</time>
      </trkpt>
      <trkpt lat="43.51281" lon="1.50079">
        <ele>83.37</ele>
        <time>2019-10-06T10:02:05.000Z</time>
      </trkpt>
      <trkpt lat="43.51271" lon="1.50087">
        <ele>83.38</ele>
        <time>2019-10-06T10:02:07.000Z</time>
      </trkpt>
      <trkpt lat="43.51263" lon="1.50094">
        <ele>82.87</ele>
        <time>2019-10-06T10:02:09.000Z</time>
      </trkpt>
      <trkpt lat="43.51255" lon="1.50103">
        <ele>82.54</ele>
        <time>2019-10-06T10:02:11.000Z</time>
      </trkpt>
      <trkpt lat="43.51246" lon="1.50111">
        <ele>82.71</ele>
        <time>2019-10-06T10:02:13.000Z</time>
      </trkpt>
      <trkpt lat="43.51238" lon="1.50119">
        <ele>82.73</ele>
        <time>2019-10-06T10:02:15.000Z</time>
      </trkpt>
      <trkpt lat="43.51229" lon="1.50127">
        <ele>82.75</ele>
        <time>2019-10-06T10:02:17.000Z</time>
      </trkpt>
      <trkpt lat="43.51221" lon="1.50134">
        <ele>82.71</ele>
        <time>2019-10-06T10:02:19.000Z</time>
      </trkpt>
      <trkpt lat="43.51212" lon="1.50142">
        <ele>82.32</ele>
        <time>2019-10-06T10:02:21.000Z</time>
      </trkpt>
      <trkpt lat="43.51204" lon="1.5015">
        <ele>82.69</ele>
        <time>2019-10-06T10:02:23.000Z</time>
      </trkpt>
      <trkpt lat="43.51195" lon="1.50159">
        <ele>82.52</ele>
        <time>2019-10-06T10:02:25.000Z</time>
      </trkpt>
      <trkpt lat="43.51183" lon="1.50171">
        <ele>82.25</ele>
        <time>2019-10-06T10:02:28.000Z</time>
      </trkpt>
      <trkpt lat="43.5117" lon="1.50184">
        <ele>82.05</ele>
        <time>2019-10-06T10:02:31.000Z</time>
      </trkpt>
      <trkpt lat="43.51157" lon="1.50198">
        <ele>82.13</ele>
        <time>2019-10-06T10:02:34.000Z</time>
      </trkpt>
      <trkpt lat="43.51143" lon="1.50212">
        <ele>82.64</ele>
        <time>2019-10-06T10:02:37.000Z</time>
      </trkpt>
      <trkpt lat="43.51134" lon="1.50221">
        <ele>83.03</ele>
        <time>2019-10-06T10:02:39.000Z</time>
      </trkpt>
      <trkpt lat="43.51125" lon="1.50229">
        <ele>83.37</ele>
        <time>2019-10-06T10:02:41.000Z</time>
      </trkpt>
      <trkpt lat="43.51116" lon="1.50238">
        <ele>83.1</ele>
        <time>2019-10-06T10:02:43.000Z</time>
      </trkpt>
      <trkpt lat="43.51107" lon="1.50246">
        <ele>83.1</ele>
        <time>2019-10-06T10:02:45.000Z</time>
      </trkpt>
      <trkpt lat="43.51098" lon="1.50255">
        <ele>82.6</ele>
        <time>2019-10-06T10:02:47.000Z</time>
      </trkpt>
      <trkpt lat="43.51089" lon="1.50265">
        <ele>82.37</ele>
        <time>2019-10-06T10:02:49.000Z</time>
      </trkpt>
      <trkpt lat="43.5108" lon="1.50273">
        <ele>82.19</ele>
        <time>2019-10-06T10:02:51.000Z</time>
      </trkpt>
      <trkpt lat="43.51067" lon="1.50287">
        <ele>82.63</ele>
        <time>2019-10-06T10:02:54.000Z</time>
      </trkpt>
      <trkpt lat="43.51058" lon="1.50297">
        <ele>83.02</ele>
        <time>2019-10-06T10:02:56.000Z</time>
      </trkpt>
      <trkpt lat="43.51043" lon="1.50312">
        <ele>82.58</ele>
        <time>2019-10-06T10:02:59.000Z</time>
      </trkpt>
      <trkpt lat="43.51034" lon="1.50322">
        <ele>82.69</ele>
        <time>2019-10-06T10:03:01.000Z</time>
      </trkpt>
      <trkpt lat="43.5102" lon="1.50339">
        <ele>82.93</ele>
        <time>2019-10-06T10:03:04.000Z</time>
      </trkpt>
      <trkpt lat="43.51006" lon="1.50355">
        <ele>83.44</ele>
        <time>2019-10-06T10:03:07.000Z</time>
      </trkpt>
      <trkpt lat="43.50995" lon="1.50367">
        <ele>83.13</ele>
        <time>2019-10-06T10:03:10.000Z</time>
      </trkpt>
      <trkpt lat="43.50982" lon="1.5038">
        <ele>82.87</ele>
        <time>2019-10-06T10:03:13.000Z</time>
      </trkpt>
      <trkpt lat="43.50967" lon="1.50395">
        <ele>82.86</ele>
        <time>2019-10-06T10:03:16.000Z</time>
      </trkpt>
      <trkpt lat="43.50956" lon="1.50407">
        <ele>82.94</ele>
        <time>2019-10-06T10:03:18.000Z</time>
      </trkpt>
      <trkpt lat="43.50947" lon="1.50416">
        <ele>83.01</ele>
        <time>2019-10-06T10:03:20.000Z</time>
      </trkpt>
      <trkpt lat="43.50934" lon="1.50429">
        <ele>82.86</ele>
        <time>2019-10-06T10:03:23.000Z</time>
      </trkpt>
      <trkpt lat="43.50917" lon="1.50449">
        <ele>83.17</ele>
        <time>2019-10-06T10:03:26.000Z</time>
      </trkpt>
      <trkpt lat="43.50906" lon="1.50461">
        <ele>83.53</ele>
        <time>2019-10-06T10:03:28.000Z</time>
      </trkpt>
      <trkpt lat="43.50892" lon="1.50474">
        <ele>83.86</ele>
        <time>2019-10-06T10:03:31.000Z</time>
      </trkpt>
      <trkpt lat="43.50884" lon="1.50484">
        <ele>84.27</ele>
        <time>2019-10-06T10:03:33.000Z</time>
      </trkpt>
      <trkpt lat="43.50876" lon="1.50494">
        <ele>84.02</ele>
        <time>2019-10-06T10:03:35.000Z</time>
      </trkpt>
      <trkpt lat="43.50867" lon="1.50504">
        <ele>83.61</ele>
        <time>2019-10-06T10:03:37.000Z</time>
      </trkpt>
      <trkpt lat="43.50858" lon="1.50514">
        <ele>83.53</ele>
        <time>2019-10-06T10:03:39.000Z</time>
      </trkpt>
      <trkpt lat="43.5085" lon="1.50522">
        <ele>83.59</ele>
        <time>2019-10-06T10:03:41.000Z</time>
      </trkpt>
      <trkpt lat="43.50838" lon="1.50534">
        <ele>82.89</ele>
        <time>2019-10-06T10:03:44.000Z</time>
      </trkpt>
      <trkpt lat="43.50829" lon="1.50541">
        <ele>82.34</ele>
        <time>2019-10-06T10:03:46.000Z</time>
      </trkpt>
      <trkpt lat="43.50815" lon="1.50554">
        <ele>82.34</ele>
        <time>2019-10-06T10:03:49.000Z</time>
      </trkpt>
      <trkpt lat="43.50802" lon="1.50567">
        <ele>82.13</ele>
        <time>2019-10-06T10:03:52.000Z</time>
      </trkpt>
      <trkpt lat="43.5079" lon="1.50578">
        <ele>81.98</ele>
        <time>2019-10-06T10:03:55.000Z</time>
      </trkpt>
      <trkpt lat="43.50782" lon="1.50587">
        <ele>82.38</ele>
        <time>2019-10-06T10:03:57.000Z</time>
      </trkpt>
      <trkpt lat="43.50774" lon="1.50595">
        <ele>83.02</ele>
        <time>2019-10-06T10:03:59.000Z</time>
      </trkpt>
      <trkpt lat="43.50766" lon="1.50603">
        <ele>83.44</ele>
        <time>2019-10-06T10:04:01.000Z</time>
      </trkpt>
      <trkpt lat="43.50759" lon="1.5061">
        <ele>83.31</ele>
        <time>2019-10-06T10:04:03.000Z</time>
      </trkpt>
      <trkpt lat="43.50747" lon="1.50622">
        <ele>84.08</ele>
        <time>2019-10-06T10:04:06.000Z</time>
      </trkpt>
      <trkpt lat="43.50736" lon="1.50633">
        <ele>83.84</ele>
        <time>2019-10-06T10:04:09.000Z</time>
      </trkpt>
      <trkpt lat="43.50729" lon="1.5064">
        <ele>83.83</ele>
        <time>2019-10-06T10:04:11.000Z</time>
      </trkpt>
      <trkpt lat="43.50719" lon="1.50651">
        <ele>84.06</ele>
        <time>2019-10-06T10:04:14.000Z</time>
      </trkpt>
      <trkpt lat="43.5071" lon="1.50661">
        <ele>84.5</ele>
        <time>2019-10-06T10:04:17.000Z</time>
      </trkpt>
      <trkpt lat="43.50701" lon="1.50673">
        <ele>84.13</ele>
        <time>2019-10-06T10:04:20.000Z</time>
      </trkpt>
      <trkpt lat="43.50693" lon="1.50681">
        <ele>83.3</ele>
        <time>2019-10-06T10:04:22.000Z</time>
      </trkpt>
      <trkpt lat="43.50684" lon="1.50691">
        <ele>83.11</ele>
        <time>2019-10-06T10:04:24.000Z</time>
      </trkpt>
      <trkpt lat="43.50673" lon="1.50703">
        <ele>82.96</ele>
        <time>2019-10-06T10:04:27.000Z</time>
      </trkpt>
      <trkpt lat="43.50658" lon="1.50718">
        <ele>82.95</ele>
        <time>2019-10-06T10:04:31.000Z</time>
      </trkpt>
      <trkpt lat="43.50649" lon="1.5073">
        <ele>83.36</ele>
        <time>2019-10-06T10:04:33.000Z</time>
      </trkpt>
      <trkpt lat="43.50641" lon="1.50741">
        <ele>83.31</ele>
        <time>2019-10-06T10:04:35.000Z</time>
      </trkpt>
      <trkpt lat="43.50632" lon="1.5075">
        <ele>83.33</ele>
        <time>2019-10-06T10:04:37.000Z</time>
      </trkpt>
      <trkpt lat="43.50624" lon="1.50758">
        <ele>83.45</ele>
        <time>2019-10-06T10:04:39.000Z</time>
      </trkpt>
      <trkpt lat="43.50616" lon="1.50766">
        <ele>83.41</ele>
        <time>2019-10-06T10:04:41.000Z</time>
      </trkpt>
      <trkpt lat="43.50608" lon="1.50776">
        <ele>83.41</ele>
        <time>2019-10-06T10:04:43.000Z</time>
      </trkpt>
      <trkpt lat="43.50598" lon="1.50787">
        <ele>83.39</ele>
        <time>2019-10-06T10:04:45.000Z</time>
      </trkpt>
      <trkpt lat="43.50584" lon="1.50802">
        <ele>83.52</ele>
        <time>2019-10-06T10:04:48.000Z</time>
      </trkpt>
      <trkpt lat="43.50576" lon="1.5081">
        <ele>83.38</ele>
        <time>2019-10-06T10:04:50.000Z</time>
      </trkpt>
      <trkpt lat="43.50563" lon="1.50822">
        <ele>83.67</ele>
        <time>2019-10-06T10:04:53.000Z</time>
      </trkpt>
      <trkpt lat="43.50555" lon="1.50831">
        <ele>83.67</ele>
        <time>2019-10-06T10:04:55.000Z</time>
      </trkpt>
      <trkpt lat="43.50546" lon="1.5084">
        <ele>83.67</ele>
        <time>2019-10-06T10:04:57.000Z</time>
      </trkpt>
      <trkpt lat="43.50538" lon="1.50848">
        <ele>83.84</ele>
        <time>2019-10-06T10:04:59.000Z</time>
      </trkpt>
      <trkpt lat="43.5053" lon="1.50857">
        <ele>83.46</ele>
        <time>2019-10-06T10:05:01.000Z</time>
      </trkpt>
      <trkpt lat="43.50521" lon="1.50867">
        <ele>83.25</ele>
        <time>2019-10-06T10:05:03.000Z</time>
      </trkpt>
      <trkpt lat="43.50512" lon="1.50877">
        <ele>83.32</ele>
        <time>2019-10-06T10:05:05.000Z</time>
      </trkpt>
      <trkpt lat="43.50504" lon="1.50887">
        <ele>83.25</ele>
        <time>2019-10-06T10:05:07.000Z</time>
      </trkpt>
      <trkpt lat="43.50495" lon="1.50895">
        <ele>83.91</ele>
        <time>2019-10-06T10:05:09.000Z</time>
      </trkpt>
      <trkpt lat="43.50485" lon="1.50905">
        <ele>84.44</ele>
        <time>2019-10-06T10:05:11.000Z</time>
      </trkpt>
      <trkpt lat="43.50475" lon="1.50915">
        <ele>84.9</ele>
        <time>2019-10-06T10:05:13.000Z</time>
      </trkpt>
      <trkpt lat="43.50465" lon="1.50924">
        <ele>84.89</ele>
        <time>2019-10-06T10:05:15.000Z</time>
      </trkpt>
      <trkpt lat="43.50456" lon="1.50933">
        <ele>85.08</ele>
        <time>2019-10-06T10:05:17.000Z</time>
      </trkpt>
      <trkpt lat="43.50448" lon="1.50942">
        <ele>85.19</ele>
        <time>2019-10-06T10:05:19.000Z</time>
      </trkpt>
      <trkpt lat="43.5044" lon="1.5095">
        <ele>84.66</ele>
        <time>2019-10-06T10:05:21.000Z</time>
      </trkpt>
      <trkpt lat="43.50432" lon="1.5096">
        <ele>84.4</ele>
        <time>2019-10-06T10:05:23.000Z</time>
      </trkpt>
      <trkpt lat="43.50425" lon="1.50969">
        <ele>84.4</ele>
        <time>2019-10-06T10:05:25.000Z</time>
      </trkpt>
      <trkpt lat="43.50417" lon="1.50979">
        <ele>84.16</ele>
        <time>2019-10-06T10:05:27.000Z</time>
      </trkpt>
      <trkpt lat="43.50409" lon="1.50987">
        <ele>83.83</ele>
        <time>2019-10-06T10:05:29.000Z</time>
      </trkpt>
      <trkpt lat="43.50398" lon="1.51">
        <ele>83.46</ele>
        <time>2019-10-06T10:05:32.000Z</time>
      </trkpt>
      <trkpt lat="43.50391" lon="1.51008">
        <ele>83.2</ele>
        <time>2019-10-06T10:05:34.000Z</time>
      </trkpt>
      <trkpt lat="43.50384" lon="1.51016">
        <ele>84.24</ele>
        <time>2019-10-06T10:05:36.000Z</time>
      </trkpt>
      <trkpt lat="43.50374" lon="1.51028">
        <ele>84.73</ele>
        <time>2019-10-06T10:05:39.000Z</time>
      </trkpt>
      <trkpt lat="43.50365" lon="1.51041">
        <ele>85.19</ele>
        <time>2019-10-06T10:05:42.000Z</time>
      </trkpt>
      <trkpt lat="43.50361" lon="1.51053">
        <ele>85.21</ele>
        <time>2019-10-06T10:05:44.000Z</time>
      </trkpt>
      <trkpt lat="43.50357" lon="1.51064">
        <ele>85.06</ele>
        <time>2019-10-06T10:05:46.000Z</time>
      </trkpt>
      <trkpt lat="43.50351" lon="1.51073">
        <ele>85.06</ele>
        <time>2019-10-06T10:05:48.000Z</time>
      </trkpt>
      <trkpt lat="43.50344" lon="1.51081">
        <ele>85.34</ele>
        <time>2019-10-06T10:05:50.000Z</time>
      </trkpt>
      <trkpt lat="43.50336" lon="1.5109">
        <ele>85.1</ele>
        <time>2019-10-06T10:05:52.000Z</time>
      </trkpt>
      <trkpt lat="43.50329" lon="1.51099">
        <ele>84.83</ele>
        <time>2019-10-06T10:05:54.000Z</time>
      </trkpt>
      <trkpt lat="43.50318" lon="1.5111">
        <ele>84.66</ele>
        <time>2019-10-06T10:05:57.000Z</time>
      </trkpt>
      <trkpt lat="43.50314" lon="1.51129">
        <ele>83.82</ele>
        <time>2019-10-06T10:06:01.000Z</time>
      </trkpt>
      <trkpt lat="43.50324" lon="1.5115">
        <ele>82.95</ele>
        <time>2019-10-06T10:06:05.000Z</time>
      </trkpt>
      <trkpt lat="43.50335" lon="1.51165">
        <ele>82.06</ele>
        <time>2019-10-06T10:06:08.000Z</time>
      </trkpt>
      <trkpt lat="43.50342" lon="1.51175">
        <ele>81.32</ele>
        <time>2019-10-06T10:06:10.000Z</time>
      </trkpt>
      <trkpt lat="43.50348" lon="1.51185">
        <ele>80.91</ele>
        <time>2019-10-06T10:06:12.000Z</time>
      </trkpt>
      <trkpt lat="43.50357" lon="1.51198">
        <ele>80.74</ele>
        <time>2019-10-06T10:06:16.000Z</time>
      </trkpt>
      <trkpt lat="43.50368" lon="1.51202">
        <ele>81.1</ele>
        <time>2019-10-06T10:06:22.000Z</time>
      </trkpt>
    </trkseg>
  </trk>
</gpx>